<?xml version="1.0" encoding="UTF-8" standalone="no" ?>
<gpx xmlns="http://www.topografix.com/GPX/1/1" xmlns:xsi="http://www.w3.org/2001/XMLSchema-instance" xsi:schemaLocation="http://www.topografix.com/GPX/1/1 http://www.topografix.com/GPX/1/1/gpx.xsd" version="1.1" creator="VisuGPX - https://www.visugpx.com">
  <metadata>
    <name>Montcalm et Estats depuis Lartigue</name>
    <desc><![CDATA[Au départ du parking de Lartigue, monté vers le refuge Pinet et ascension du pic d'Estats et du Montcalm avant de redescendre vers le parking après un dernier arrêt au refuge.  ]]></desc>
  </metadata>
  <trk>
    <name><![CDATA[Tracé actuel: 27 SEPT 2016 09:45]]></name>
    <trkseg>
      <trkpt lat="42.71035" lon="1.42584">
        <ele>1171.5</ele>
        <time>2016-09-27T07:45:06Z</time>
      </trkpt>
      <trkpt lat="42.71029" lon="1.42583">
        <ele>1171.5</ele>
        <time>2016-09-27T07:45:26Z</time>
      </trkpt>
      <trkpt lat="42.71018" lon="1.42573">
        <ele>1171.5</ele>
        <time>2016-09-27T07:45:37Z</time>
      </trkpt>
      <trkpt lat="42.71016" lon="1.4257">
        <ele>1171.5</ele>
        <time>2016-09-27T07:45:40Z</time>
      </trkpt>
      <trkpt lat="42.71015" lon="1.42567">
        <ele>1171.5</ele>
        <time>2016-09-27T07:45:42Z</time>
      </trkpt>
      <trkpt lat="42.71016" lon="1.42564">
        <ele>1171.5</ele>
        <time>2016-09-27T07:45:44Z</time>
      </trkpt>
      <trkpt lat="42.71019" lon="1.42553">
        <ele>1172.95</ele>
        <time>2016-09-27T07:45:57Z</time>
      </trkpt>
      <trkpt lat="42.71023" lon="1.42549">
        <ele>1175.83</ele>
        <time>2016-09-27T07:46:06Z</time>
      </trkpt>
      <trkpt lat="42.71026" lon="1.42549">
        <ele>1178.71</ele>
        <time>2016-09-27T07:46:11Z</time>
      </trkpt>
      <trkpt lat="42.71031" lon="1.42547">
        <ele>1180.16</ele>
        <time>2016-09-27T07:46:17Z</time>
      </trkpt>
      <trkpt lat="42.7103" lon="1.42538">
        <ele>1180.64</ele>
        <time>2016-09-27T07:46:31Z</time>
      </trkpt>
      <trkpt lat="42.71029" lon="1.42536">
        <ele>1181.6</ele>
        <time>2016-09-27T07:46:34Z</time>
      </trkpt>
      <trkpt lat="42.71033" lon="1.42533">
        <ele>1181.6</ele>
        <time>2016-09-27T07:46:38Z</time>
      </trkpt>
      <trkpt lat="42.71038" lon="1.42531">
        <ele>1182.56</ele>
        <time>2016-09-27T07:46:43Z</time>
      </trkpt>
      <trkpt lat="42.71038" lon="1.42527">
        <ele>1183.04</ele>
        <time>2016-09-27T07:46:45Z</time>
      </trkpt>
      <trkpt lat="42.71036" lon="1.42525">
        <ele>1183.04</ele>
        <time>2016-09-27T07:46:47Z</time>
      </trkpt>
      <trkpt lat="42.71029" lon="1.42507">
        <ele>1184.96</ele>
        <time>2016-09-27T07:47:01Z</time>
      </trkpt>
      <trkpt lat="42.71026" lon="1.42497">
        <ele>1185.44</ele>
        <time>2016-09-27T07:47:07Z</time>
      </trkpt>
      <trkpt lat="42.71015" lon="1.42482">
        <ele>1185.92</ele>
        <time>2016-09-27T07:47:21Z</time>
      </trkpt>
      <trkpt lat="42.7101" lon="1.42474">
        <ele>1185.92</ele>
        <time>2016-09-27T07:47:37Z</time>
      </trkpt>
      <trkpt lat="42.71009" lon="1.42475">
        <ele>1185.92</ele>
        <time>2016-09-27T07:47:57Z</time>
      </trkpt>
      <trkpt lat="42.71004" lon="1.4246">
        <ele>1185.44</ele>
        <time>2016-09-27T07:48:09Z</time>
      </trkpt>
      <trkpt lat="42.70999" lon="1.42442">
        <ele>1185.44</ele>
        <time>2016-09-27T07:48:20Z</time>
      </trkpt>
      <trkpt lat="42.70996" lon="1.42433">
        <ele>1185.44</ele>
        <time>2016-09-27T07:48:26Z</time>
      </trkpt>
      <trkpt lat="42.70991" lon="1.42413">
        <ele>1185.44</ele>
        <time>2016-09-27T07:48:36Z</time>
      </trkpt>
      <trkpt lat="42.7099" lon="1.42407">
        <ele>1185.44</ele>
        <time>2016-09-27T07:48:39Z</time>
      </trkpt>
      <trkpt lat="42.70983" lon="1.42383">
        <ele>1185.44</ele>
        <time>2016-09-27T07:48:52Z</time>
      </trkpt>
      <trkpt lat="42.7098" lon="1.42361">
        <ele>1185.44</ele>
        <time>2016-09-27T07:49:04Z</time>
      </trkpt>
      <trkpt lat="42.70976" lon="1.42342">
        <ele>1185.44</ele>
        <time>2016-09-27T07:49:14Z</time>
      </trkpt>
      <trkpt lat="42.70972" lon="1.42338">
        <ele>1185.44</ele>
        <time>2016-09-27T07:49:17Z</time>
      </trkpt>
      <trkpt lat="42.70965" lon="1.42319">
        <ele>1185.44</ele>
        <time>2016-09-27T07:49:29Z</time>
      </trkpt>
      <trkpt lat="42.70965" lon="1.42312">
        <ele>1185.44</ele>
        <time>2016-09-27T07:49:33Z</time>
      </trkpt>
      <trkpt lat="42.70963" lon="1.42289">
        <ele>1185.44</ele>
        <time>2016-09-27T07:49:45Z</time>
      </trkpt>
      <trkpt lat="42.70963" lon="1.42283">
        <ele>1185.44</ele>
        <time>2016-09-27T07:49:48Z</time>
      </trkpt>
      <trkpt lat="42.70962" lon="1.4227">
        <ele>1185.44</ele>
        <time>2016-09-27T07:49:54Z</time>
      </trkpt>
      <trkpt lat="42.70961" lon="1.4226">
        <ele>1185.92</ele>
        <time>2016-09-27T07:50:01Z</time>
      </trkpt>
      <trkpt lat="42.70958" lon="1.42242">
        <ele>1185.92</ele>
        <time>2016-09-27T07:50:12Z</time>
      </trkpt>
      <trkpt lat="42.70956" lon="1.42236">
        <ele>1185.92</ele>
        <time>2016-09-27T07:50:16Z</time>
      </trkpt>
      <trkpt lat="42.70955" lon="1.4223">
        <ele>1185.92</ele>
        <time>2016-09-27T07:50:19Z</time>
      </trkpt>
      <trkpt lat="42.70953" lon="1.42217">
        <ele>1185.92</ele>
        <time>2016-09-27T07:50:26Z</time>
      </trkpt>
      <trkpt lat="42.70954" lon="1.42196">
        <ele>1185.44</ele>
        <time>2016-09-27T07:50:38Z</time>
      </trkpt>
      <trkpt lat="42.70953" lon="1.42189">
        <ele>1185.44</ele>
        <time>2016-09-27T07:50:43Z</time>
      </trkpt>
      <trkpt lat="42.70951" lon="1.42181">
        <ele>1185.44</ele>
        <time>2016-09-27T07:50:47Z</time>
      </trkpt>
      <trkpt lat="42.70949" lon="1.42177">
        <ele>1185.44</ele>
        <time>2016-09-27T07:50:50Z</time>
      </trkpt>
      <trkpt lat="42.70945" lon="1.42161">
        <ele>1185.44</ele>
        <time>2016-09-27T07:51:00Z</time>
      </trkpt>
      <trkpt lat="42.70943" lon="1.42149">
        <ele>1186.4</ele>
        <time>2016-09-27T07:51:12Z</time>
      </trkpt>
      <trkpt lat="42.7094" lon="1.42133">
        <ele>1188.81</ele>
        <time>2016-09-27T07:51:24Z</time>
      </trkpt>
      <trkpt lat="42.70935" lon="1.42124">
        <ele>1191.69</ele>
        <time>2016-09-27T07:51:33Z</time>
      </trkpt>
      <trkpt lat="42.70933" lon="1.42117">
        <ele>1195.54</ele>
        <time>2016-09-27T07:51:38Z</time>
      </trkpt>
      <trkpt lat="42.70929" lon="1.42104">
        <ele>1198.42</ele>
        <time>2016-09-27T07:51:51Z</time>
      </trkpt>
      <trkpt lat="42.7093" lon="1.4209">
        <ele>1199.38</ele>
        <time>2016-09-27T07:52:04Z</time>
      </trkpt>
      <trkpt lat="42.70929" lon="1.42078">
        <ele>1200.82</ele>
        <time>2016-09-27T07:52:12Z</time>
      </trkpt>
      <trkpt lat="42.70923" lon="1.42064">
        <ele>1201.3</ele>
        <time>2016-09-27T07:52:24Z</time>
      </trkpt>
      <trkpt lat="42.70919" lon="1.42054">
        <ele>1202.27</ele>
        <time>2016-09-27T07:52:34Z</time>
      </trkpt>
      <trkpt lat="42.7092" lon="1.42038">
        <ele>1202.27</ele>
        <time>2016-09-27T07:52:45Z</time>
      </trkpt>
      <trkpt lat="42.70921" lon="1.42033">
        <ele>1202.27</ele>
        <time>2016-09-27T07:52:48Z</time>
      </trkpt>
      <trkpt lat="42.70922" lon="1.42015">
        <ele>1202.75</ele>
        <time>2016-09-27T07:53:00Z</time>
      </trkpt>
      <trkpt lat="42.70923" lon="1.42004">
        <ele>1203.23</ele>
        <time>2016-09-27T07:53:06Z</time>
      </trkpt>
      <trkpt lat="42.70924" lon="1.41992">
        <ele>1204.19</ele>
        <time>2016-09-27T07:53:17Z</time>
      </trkpt>
      <trkpt lat="42.70932" lon="1.41975">
        <ele>1206.59</ele>
        <time>2016-09-27T07:53:29Z</time>
      </trkpt>
      <trkpt lat="42.70937" lon="1.41953">
        <ele>1208.51</ele>
        <time>2016-09-27T07:53:41Z</time>
      </trkpt>
      <trkpt lat="42.70938" lon="1.41951">
        <ele>1209</ele>
        <time>2016-09-27T07:53:45Z</time>
      </trkpt>
      <trkpt lat="42.70938" lon="1.4195">
        <ele>1209</ele>
        <time>2016-09-27T07:53:47Z</time>
      </trkpt>
      <trkpt lat="42.70939" lon="1.41939">
        <ele>1209.48</ele>
        <time>2016-09-27T07:53:53Z</time>
      </trkpt>
      <trkpt lat="42.7094" lon="1.41916">
        <ele>1209.96</ele>
        <time>2016-09-27T07:54:04Z</time>
      </trkpt>
      <trkpt lat="42.7094" lon="1.41914">
        <ele>1209.96</ele>
        <time>2016-09-27T07:54:05Z</time>
      </trkpt>
      <trkpt lat="42.70939" lon="1.41897">
        <ele>1209.96</ele>
        <time>2016-09-27T07:54:15Z</time>
      </trkpt>
      <trkpt lat="42.70939" lon="1.41893">
        <ele>1208.51</ele>
        <time>2016-09-27T07:54:17Z</time>
      </trkpt>
      <trkpt lat="42.70934" lon="1.41881">
        <ele>1208.03</ele>
        <time>2016-09-27T07:54:23Z</time>
      </trkpt>
      <trkpt lat="42.7093" lon="1.41872">
        <ele>1207.07</ele>
        <time>2016-09-27T07:54:28Z</time>
      </trkpt>
      <trkpt lat="42.70931" lon="1.41862">
        <ele>1206.59</ele>
        <time>2016-09-27T07:54:34Z</time>
      </trkpt>
      <trkpt lat="42.70932" lon="1.41847">
        <ele>1206.59</ele>
        <time>2016-09-27T07:54:47Z</time>
      </trkpt>
      <trkpt lat="42.70931" lon="1.41841">
        <ele>1206.59</ele>
        <time>2016-09-27T07:54:49Z</time>
      </trkpt>
      <trkpt lat="42.70926" lon="1.41819">
        <ele>1208.03</ele>
        <time>2016-09-27T07:55:02Z</time>
      </trkpt>
      <trkpt lat="42.70926" lon="1.41799">
        <ele>1209</ele>
        <time>2016-09-27T07:55:17Z</time>
      </trkpt>
      <trkpt lat="42.70926" lon="1.41788">
        <ele>1209.96</ele>
        <time>2016-09-27T07:55:23Z</time>
      </trkpt>
      <trkpt lat="42.70924" lon="1.41782">
        <ele>1209.96</ele>
        <time>2016-09-27T07:55:28Z</time>
      </trkpt>
      <trkpt lat="42.70919" lon="1.41772">
        <ele>1210.92</ele>
        <time>2016-09-27T07:55:37Z</time>
      </trkpt>
      <trkpt lat="42.70916" lon="1.41756">
        <ele>1211.88</ele>
        <time>2016-09-27T07:55:49Z</time>
      </trkpt>
      <trkpt lat="42.70909" lon="1.41736">
        <ele>1212.84</ele>
        <time>2016-09-27T07:56:03Z</time>
      </trkpt>
      <trkpt lat="42.70908" lon="1.41734">
        <ele>1212.84</ele>
        <time>2016-09-27T07:56:05Z</time>
      </trkpt>
      <trkpt lat="42.70901" lon="1.41717">
        <ele>1215.24</ele>
        <time>2016-09-27T07:56:20Z</time>
      </trkpt>
      <trkpt lat="42.70901" lon="1.41717">
        <ele>1215.24</ele>
        <time>2016-09-27T07:56:21Z</time>
      </trkpt>
      <trkpt lat="42.70906" lon="1.41707">
        <ele>1216.69</ele>
        <time>2016-09-27T07:56:32Z</time>
      </trkpt>
      <trkpt lat="42.70906" lon="1.41702">
        <ele>1217.65</ele>
        <time>2016-09-27T07:56:36Z</time>
      </trkpt>
      <trkpt lat="42.70898" lon="1.4168">
        <ele>1219.57</ele>
        <time>2016-09-27T07:56:49Z</time>
      </trkpt>
      <trkpt lat="42.70894" lon="1.41659">
        <ele>1221.01</ele>
        <time>2016-09-27T07:57:02Z</time>
      </trkpt>
      <trkpt lat="42.70892" lon="1.41643">
        <ele>1222.45</ele>
        <time>2016-09-27T07:57:15Z</time>
      </trkpt>
      <trkpt lat="42.7089" lon="1.41636">
        <ele>1222.93</ele>
        <time>2016-09-27T07:57:22Z</time>
      </trkpt>
      <trkpt lat="42.70891" lon="1.41621">
        <ele>1223.9</ele>
        <time>2016-09-27T07:57:35Z</time>
      </trkpt>
      <trkpt lat="42.70891" lon="1.41618">
        <ele>1224.86</ele>
        <time>2016-09-27T07:57:38Z</time>
      </trkpt>
      <trkpt lat="42.7089" lon="1.41614">
        <ele>1225.82</ele>
        <time>2016-09-27T07:57:45Z</time>
      </trkpt>
      <trkpt lat="42.70886" lon="1.41595">
        <ele>1226.78</ele>
        <time>2016-09-27T07:57:58Z</time>
      </trkpt>
      <trkpt lat="42.70886" lon="1.41579">
        <ele>1228.22</ele>
        <time>2016-09-27T07:58:11Z</time>
      </trkpt>
      <trkpt lat="42.70892" lon="1.41572">
        <ele>1229.18</ele>
        <time>2016-09-27T07:58:20Z</time>
      </trkpt>
      <trkpt lat="42.70893" lon="1.41557">
        <ele>1231.11</ele>
        <time>2016-09-27T07:58:32Z</time>
      </trkpt>
      <trkpt lat="42.70894" lon="1.41549">
        <ele>1233.03</ele>
        <time>2016-09-27T07:58:42Z</time>
      </trkpt>
      <trkpt lat="42.70892" lon="1.41539">
        <ele>1234.95</ele>
        <time>2016-09-27T07:58:54Z</time>
      </trkpt>
      <trkpt lat="42.70887" lon="1.41533">
        <ele>1237.35</ele>
        <time>2016-09-27T07:59:05Z</time>
      </trkpt>
      <trkpt lat="42.70882" lon="1.41533">
        <ele>1240.24</ele>
        <time>2016-09-27T07:59:16Z</time>
      </trkpt>
      <trkpt lat="42.70879" lon="1.41532">
        <ele>1243.12</ele>
        <time>2016-09-27T07:59:21Z</time>
      </trkpt>
      <trkpt lat="42.70874" lon="1.4153">
        <ele>1244.56</ele>
        <time>2016-09-27T07:59:31Z</time>
      </trkpt>
      <trkpt lat="42.70868" lon="1.41528">
        <ele>1245.04</ele>
        <time>2016-09-27T07:59:42Z</time>
      </trkpt>
      <trkpt lat="42.70864" lon="1.41532">
        <ele>1246.49</ele>
        <time>2016-09-27T07:59:51Z</time>
      </trkpt>
      <trkpt lat="42.70856" lon="1.41533">
        <ele>1248.89</ele>
        <time>2016-09-27T08:00:05Z</time>
      </trkpt>
      <trkpt lat="42.7085" lon="1.41528">
        <ele>1250.33</ele>
        <time>2016-09-27T08:00:16Z</time>
      </trkpt>
      <trkpt lat="42.70842" lon="1.4153">
        <ele>1253.7</ele>
        <time>2016-09-27T08:00:26Z</time>
      </trkpt>
      <trkpt lat="42.7084" lon="1.4153">
        <ele>1255.62</ele>
        <time>2016-09-27T08:00:29Z</time>
      </trkpt>
      <trkpt lat="42.70833" lon="1.41541">
        <ele>1257.54</ele>
        <time>2016-09-27T08:00:41Z</time>
      </trkpt>
      <trkpt lat="42.70829" lon="1.41551">
        <ele>1258.5</ele>
        <time>2016-09-27T08:00:52Z</time>
      </trkpt>
      <trkpt lat="42.70827" lon="1.4156">
        <ele>1260.43</ele>
        <time>2016-09-27T08:01:05Z</time>
      </trkpt>
      <trkpt lat="42.70827" lon="1.4156">
        <ele>1260.91</ele>
        <time>2016-09-27T08:01:06Z</time>
      </trkpt>
      <trkpt lat="42.70825" lon="1.41566">
        <ele>1262.35</ele>
        <time>2016-09-27T08:01:16Z</time>
      </trkpt>
      <trkpt lat="42.70819" lon="1.41566">
        <ele>1264.75</ele>
        <time>2016-09-27T08:01:27Z</time>
      </trkpt>
      <trkpt lat="42.7082" lon="1.41573">
        <ele>1266.19</ele>
        <time>2016-09-27T08:01:41Z</time>
      </trkpt>
      <trkpt lat="42.7082" lon="1.41578">
        <ele>1268.12</ele>
        <time>2016-09-27T08:01:51Z</time>
      </trkpt>
      <trkpt lat="42.70819" lon="1.41584">
        <ele>1270.52</ele>
        <time>2016-09-27T08:02:02Z</time>
      </trkpt>
      <trkpt lat="42.70813" lon="1.41582">
        <ele>1271.96</ele>
        <time>2016-09-27T08:02:13Z</time>
      </trkpt>
      <trkpt lat="42.7081" lon="1.41585">
        <ele>1272.92</ele>
        <time>2016-09-27T08:02:17Z</time>
      </trkpt>
      <trkpt lat="42.70809" lon="1.41592">
        <ele>1274.85</ele>
        <time>2016-09-27T08:02:29Z</time>
      </trkpt>
      <trkpt lat="42.70809" lon="1.41599">
        <ele>1277.25</ele>
        <time>2016-09-27T08:02:38Z</time>
      </trkpt>
      <trkpt lat="42.70811" lon="1.41599">
        <ele>1280.61</ele>
        <time>2016-09-27T08:02:43Z</time>
      </trkpt>
      <trkpt lat="42.70809" lon="1.41603">
        <ele>1281.09</ele>
        <time>2016-09-27T08:02:58Z</time>
      </trkpt>
      <trkpt lat="42.70808" lon="1.41603">
        <ele>1281.09</ele>
        <time>2016-09-27T08:03:00Z</time>
      </trkpt>
      <trkpt lat="42.70804" lon="1.41609">
        <ele>1281.57</ele>
        <time>2016-09-27T08:03:11Z</time>
      </trkpt>
      <trkpt lat="42.70803" lon="1.41606">
        <ele>1283.98</ele>
        <time>2016-09-27T08:03:28Z</time>
      </trkpt>
      <trkpt lat="42.70797" lon="1.41603">
        <ele>1284.46</ele>
        <time>2016-09-27T08:03:51Z</time>
      </trkpt>
      <trkpt lat="42.70797" lon="1.41603">
        <ele>1284.46</ele>
        <time>2016-09-27T08:03:58Z</time>
      </trkpt>
      <trkpt lat="42.70795" lon="1.4161">
        <ele>1286.38</ele>
        <time>2016-09-27T08:04:08Z</time>
      </trkpt>
      <trkpt lat="42.70792" lon="1.41609">
        <ele>1288.3</ele>
        <time>2016-09-27T08:04:18Z</time>
      </trkpt>
      <trkpt lat="42.70791" lon="1.41609">
        <ele>1288.78</ele>
        <time>2016-09-27T08:04:20Z</time>
      </trkpt>
      <trkpt lat="42.70788" lon="1.41612">
        <ele>1292.63</ele>
        <time>2016-09-27T08:04:26Z</time>
      </trkpt>
      <trkpt lat="42.70788" lon="1.41613">
        <ele>1294.07</ele>
        <time>2016-09-27T08:04:29Z</time>
      </trkpt>
      <trkpt lat="42.70784" lon="1.41615">
        <ele>1294.55</ele>
        <time>2016-09-27T08:04:37Z</time>
      </trkpt>
      <trkpt lat="42.70783" lon="1.41621">
        <ele>1295.03</ele>
        <time>2016-09-27T08:04:46Z</time>
      </trkpt>
      <trkpt lat="42.70779" lon="1.41628">
        <ele>1297.44</ele>
        <time>2016-09-27T08:04:58Z</time>
      </trkpt>
      <trkpt lat="42.70776" lon="1.41632">
        <ele>1298.88</ele>
        <time>2016-09-27T08:05:08Z</time>
      </trkpt>
      <trkpt lat="42.70776" lon="1.41633">
        <ele>1299.84</ele>
        <time>2016-09-27T08:05:12Z</time>
      </trkpt>
      <trkpt lat="42.7077" lon="1.41635">
        <ele>1302.24</ele>
        <time>2016-09-27T08:05:25Z</time>
      </trkpt>
      <trkpt lat="42.70762" lon="1.4164">
        <ele>1304.17</ele>
        <time>2016-09-27T08:05:35Z</time>
      </trkpt>
      <trkpt lat="42.70756" lon="1.41639">
        <ele>1306.57</ele>
        <time>2016-09-27T08:05:47Z</time>
      </trkpt>
      <trkpt lat="42.7075" lon="1.41643">
        <ele>1309.45</ele>
        <time>2016-09-27T08:05:54Z</time>
      </trkpt>
      <trkpt lat="42.7075" lon="1.41647">
        <ele>1312.82</ele>
        <time>2016-09-27T08:06:02Z</time>
      </trkpt>
      <trkpt lat="42.70748" lon="1.41654">
        <ele>1312.82</ele>
        <time>2016-09-27T08:06:15Z</time>
      </trkpt>
      <trkpt lat="42.70747" lon="1.41656">
        <ele>1313.78</ele>
        <time>2016-09-27T08:06:17Z</time>
      </trkpt>
      <trkpt lat="42.70745" lon="1.41659">
        <ele>1314.26</ele>
        <time>2016-09-27T08:06:24Z</time>
      </trkpt>
      <trkpt lat="42.70733" lon="1.41667">
        <ele>1316.66</ele>
        <time>2016-09-27T08:06:37Z</time>
      </trkpt>
      <trkpt lat="42.7073" lon="1.41672">
        <ele>1319.07</ele>
        <time>2016-09-27T08:06:49Z</time>
      </trkpt>
      <trkpt lat="42.70722" lon="1.41675">
        <ele>1321.47</ele>
        <time>2016-09-27T08:07:01Z</time>
      </trkpt>
      <trkpt lat="42.70722" lon="1.41681">
        <ele>1325.31</ele>
        <time>2016-09-27T08:07:09Z</time>
      </trkpt>
      <trkpt lat="42.7072" lon="1.41682">
        <ele>1328.2</ele>
        <time>2016-09-27T08:07:14Z</time>
      </trkpt>
      <trkpt lat="42.70719" lon="1.41693">
        <ele>1328.68</ele>
        <time>2016-09-27T08:07:25Z</time>
      </trkpt>
      <trkpt lat="42.70714" lon="1.41693">
        <ele>1328.68</ele>
        <time>2016-09-27T08:07:43Z</time>
      </trkpt>
      <trkpt lat="42.70712" lon="1.41698">
        <ele>1329.16</ele>
        <time>2016-09-27T08:07:54Z</time>
      </trkpt>
      <trkpt lat="42.70707" lon="1.41707">
        <ele>1331.08</ele>
        <time>2016-09-27T08:08:05Z</time>
      </trkpt>
      <trkpt lat="42.70701" lon="1.41712">
        <ele>1333.01</ele>
        <time>2016-09-27T08:08:16Z</time>
      </trkpt>
      <trkpt lat="42.70696" lon="1.41711">
        <ele>1335.41</ele>
        <time>2016-09-27T08:08:27Z</time>
      </trkpt>
      <trkpt lat="42.70697" lon="1.4171">
        <ele>1338.77</ele>
        <time>2016-09-27T08:08:32Z</time>
      </trkpt>
      <trkpt lat="42.70698" lon="1.41702">
        <ele>1340.7</ele>
        <time>2016-09-27T08:08:45Z</time>
      </trkpt>
      <trkpt lat="42.70693" lon="1.41687">
        <ele>1341.18</ele>
        <time>2016-09-27T08:08:57Z</time>
      </trkpt>
      <trkpt lat="42.7069" lon="1.41673">
        <ele>1343.1</ele>
        <time>2016-09-27T08:09:11Z</time>
      </trkpt>
      <trkpt lat="42.7069" lon="1.41673">
        <ele>1344.54</ele>
        <time>2016-09-27T08:09:20Z</time>
      </trkpt>
      <trkpt lat="42.70681" lon="1.4166">
        <ele>1347.91</ele>
        <time>2016-09-27T08:09:34Z</time>
      </trkpt>
      <trkpt lat="42.70681" lon="1.41659">
        <ele>1348.87</ele>
        <time>2016-09-27T08:09:35Z</time>
      </trkpt>
      <trkpt lat="42.70678" lon="1.41645">
        <ele>1351.27</ele>
        <time>2016-09-27T08:09:48Z</time>
      </trkpt>
      <trkpt lat="42.70678" lon="1.41643">
        <ele>1351.27</ele>
        <time>2016-09-27T08:09:51Z</time>
      </trkpt>
      <trkpt lat="42.70678" lon="1.41633">
        <ele>1352.71</ele>
        <time>2016-09-27T08:10:00Z</time>
      </trkpt>
      <trkpt lat="42.7068" lon="1.41621">
        <ele>1354.15</ele>
        <time>2016-09-27T08:10:11Z</time>
      </trkpt>
      <trkpt lat="42.70679" lon="1.41606">
        <ele>1356.56</ele>
        <time>2016-09-27T08:10:23Z</time>
      </trkpt>
      <trkpt lat="42.70678" lon="1.41603">
        <ele>1356.56</ele>
        <time>2016-09-27T08:10:26Z</time>
      </trkpt>
      <trkpt lat="42.70672" lon="1.41593">
        <ele>1358.48</ele>
        <time>2016-09-27T08:10:39Z</time>
      </trkpt>
      <trkpt lat="42.70671" lon="1.41589">
        <ele>1361.84</ele>
        <time>2016-09-27T08:10:45Z</time>
      </trkpt>
      <trkpt lat="42.7067" lon="1.41584">
        <ele>1364.73</ele>
        <time>2016-09-27T08:10:50Z</time>
      </trkpt>
      <trkpt lat="42.70665" lon="1.41582">
        <ele>1365.21</ele>
        <time>2016-09-27T08:11:04Z</time>
      </trkpt>
      <trkpt lat="42.70661" lon="1.41576">
        <ele>1367.13</ele>
        <time>2016-09-27T08:11:15Z</time>
      </trkpt>
      <trkpt lat="42.70661" lon="1.41569">
        <ele>1368.09</ele>
        <time>2016-09-27T08:11:22Z</time>
      </trkpt>
      <trkpt lat="42.70658" lon="1.41561">
        <ele>1370.5</ele>
        <time>2016-09-27T08:11:34Z</time>
      </trkpt>
      <trkpt lat="42.70656" lon="1.41552">
        <ele>1372.42</ele>
        <time>2016-09-27T08:11:46Z</time>
      </trkpt>
      <trkpt lat="42.70657" lon="1.41545">
        <ele>1374.34</ele>
        <time>2016-09-27T08:11:56Z</time>
      </trkpt>
      <trkpt lat="42.70651" lon="1.41536">
        <ele>1376.26</ele>
        <time>2016-09-27T08:12:07Z</time>
      </trkpt>
      <trkpt lat="42.70651" lon="1.4153">
        <ele>1378.19</ele>
        <time>2016-09-27T08:12:17Z</time>
      </trkpt>
      <trkpt lat="42.7065" lon="1.41524">
        <ele>1380.59</ele>
        <time>2016-09-27T08:12:29Z</time>
      </trkpt>
      <trkpt lat="42.7065" lon="1.41518">
        <ele>1382.51</ele>
        <time>2016-09-27T08:12:40Z</time>
      </trkpt>
      <trkpt lat="42.7065" lon="1.41513">
        <ele>1385.88</ele>
        <time>2016-09-27T08:12:48Z</time>
      </trkpt>
      <trkpt lat="42.70659" lon="1.41516">
        <ele>1388.28</ele>
        <time>2016-09-27T08:12:57Z</time>
      </trkpt>
      <trkpt lat="42.7067" lon="1.41513">
        <ele>1386.84</ele>
        <time>2016-09-27T08:13:06Z</time>
      </trkpt>
      <trkpt lat="42.70671" lon="1.41508">
        <ele>1386.84</ele>
        <time>2016-09-27T08:13:10Z</time>
      </trkpt>
      <trkpt lat="42.70672" lon="1.41503">
        <ele>1386.36</ele>
        <time>2016-09-27T08:13:15Z</time>
      </trkpt>
      <trkpt lat="42.70674" lon="1.41497">
        <ele>1385.88</ele>
        <time>2016-09-27T08:13:20Z</time>
      </trkpt>
      <trkpt lat="42.70674" lon="1.41495">
        <ele>1385.88</ele>
        <time>2016-09-27T08:13:22Z</time>
      </trkpt>
      <trkpt lat="42.70674" lon="1.41486">
        <ele>1385.88</ele>
        <time>2016-09-27T08:13:33Z</time>
      </trkpt>
      <trkpt lat="42.70674" lon="1.41485">
        <ele>1385.88</ele>
        <time>2016-09-27T08:13:36Z</time>
      </trkpt>
      <trkpt lat="42.70674" lon="1.41482">
        <ele>1385.88</ele>
        <time>2016-09-27T08:13:38Z</time>
      </trkpt>
      <trkpt lat="42.70673" lon="1.41461">
        <ele>1387.32</ele>
        <time>2016-09-27T08:13:52Z</time>
      </trkpt>
      <trkpt lat="42.70672" lon="1.41446">
        <ele>1387.32</ele>
        <time>2016-09-27T08:14:04Z</time>
      </trkpt>
      <trkpt lat="42.70671" lon="1.41441">
        <ele>1387.32</ele>
        <time>2016-09-27T08:14:08Z</time>
      </trkpt>
      <trkpt lat="42.7067" lon="1.41437">
        <ele>1387.32</ele>
        <time>2016-09-27T08:14:13Z</time>
      </trkpt>
      <trkpt lat="42.70671" lon="1.41431">
        <ele>1387.8</ele>
        <time>2016-09-27T08:14:18Z</time>
      </trkpt>
      <trkpt lat="42.70676" lon="1.4142">
        <ele>1387.8</ele>
        <time>2016-09-27T08:14:28Z</time>
      </trkpt>
      <trkpt lat="42.70679" lon="1.41411">
        <ele>1387.8</ele>
        <time>2016-09-27T08:14:35Z</time>
      </trkpt>
      <trkpt lat="42.7068" lon="1.41395">
        <ele>1387.8</ele>
        <time>2016-09-27T08:14:48Z</time>
      </trkpt>
      <trkpt lat="42.70678" lon="1.41385">
        <ele>1387.8</ele>
        <time>2016-09-27T08:14:57Z</time>
      </trkpt>
      <trkpt lat="42.70677" lon="1.41375">
        <ele>1388.76</ele>
        <time>2016-09-27T08:15:07Z</time>
      </trkpt>
      <trkpt lat="42.70678" lon="1.41366">
        <ele>1390.2</ele>
        <time>2016-09-27T08:15:16Z</time>
      </trkpt>
      <trkpt lat="42.70677" lon="1.41351">
        <ele>1390.68</ele>
        <time>2016-09-27T08:15:26Z</time>
      </trkpt>
      <trkpt lat="42.70679" lon="1.41342">
        <ele>1391.65</ele>
        <time>2016-09-27T08:15:34Z</time>
      </trkpt>
      <trkpt lat="42.70679" lon="1.41337">
        <ele>1392.13</ele>
        <time>2016-09-27T08:15:38Z</time>
      </trkpt>
      <trkpt lat="42.70679" lon="1.41331">
        <ele>1392.61</ele>
        <time>2016-09-27T08:15:43Z</time>
      </trkpt>
      <trkpt lat="42.7068" lon="1.41319">
        <ele>1393.57</ele>
        <time>2016-09-27T08:15:54Z</time>
      </trkpt>
      <trkpt lat="42.70679" lon="1.41317">
        <ele>1393.57</ele>
        <time>2016-09-27T08:15:56Z</time>
      </trkpt>
      <trkpt lat="42.70677" lon="1.41313">
        <ele>1394.53</ele>
        <time>2016-09-27T08:15:59Z</time>
      </trkpt>
      <trkpt lat="42.70675" lon="1.41312">
        <ele>1395.01</ele>
        <time>2016-09-27T08:16:01Z</time>
      </trkpt>
      <trkpt lat="42.70675" lon="1.4131">
        <ele>1395.01</ele>
        <time>2016-09-27T08:16:03Z</time>
      </trkpt>
      <trkpt lat="42.70677" lon="1.41291">
        <ele>1395.97</ele>
        <time>2016-09-27T08:16:14Z</time>
      </trkpt>
      <trkpt lat="42.70677" lon="1.41277">
        <ele>1396.45</ele>
        <time>2016-09-27T08:16:23Z</time>
      </trkpt>
      <trkpt lat="42.70677" lon="1.41266">
        <ele>1396.45</ele>
        <time>2016-09-27T08:16:33Z</time>
      </trkpt>
      <trkpt lat="42.70677" lon="1.41252">
        <ele>1397.89</ele>
        <time>2016-09-27T08:16:44Z</time>
      </trkpt>
      <trkpt lat="42.70679" lon="1.41239">
        <ele>1399.34</ele>
        <time>2016-09-27T08:16:56Z</time>
      </trkpt>
      <trkpt lat="42.70681" lon="1.41232">
        <ele>1399.82</ele>
        <time>2016-09-27T08:17:01Z</time>
      </trkpt>
      <trkpt lat="42.70685" lon="1.41218">
        <ele>1400.3</ele>
        <time>2016-09-27T08:17:11Z</time>
      </trkpt>
      <trkpt lat="42.70686" lon="1.41208">
        <ele>1401.26</ele>
        <time>2016-09-27T08:17:23Z</time>
      </trkpt>
      <trkpt lat="42.70686" lon="1.41196">
        <ele>1402.7</ele>
        <time>2016-09-27T08:17:35Z</time>
      </trkpt>
      <trkpt lat="42.70689" lon="1.41184">
        <ele>1404.14</ele>
        <time>2016-09-27T08:17:46Z</time>
      </trkpt>
      <trkpt lat="42.7069" lon="1.41175">
        <ele>1406.07</ele>
        <time>2016-09-27T08:17:55Z</time>
      </trkpt>
      <trkpt lat="42.70693" lon="1.41167">
        <ele>1407.51</ele>
        <time>2016-09-27T08:18:06Z</time>
      </trkpt>
      <trkpt lat="42.70692" lon="1.41159">
        <ele>1408.95</ele>
        <time>2016-09-27T08:18:18Z</time>
      </trkpt>
      <trkpt lat="42.70693" lon="1.4115">
        <ele>1411.35</ele>
        <time>2016-09-27T08:18:31Z</time>
      </trkpt>
      <trkpt lat="42.70696" lon="1.4114">
        <ele>1413.28</ele>
        <time>2016-09-27T08:18:42Z</time>
      </trkpt>
      <trkpt lat="42.70694" lon="1.41132">
        <ele>1416.16</ele>
        <time>2016-09-27T08:18:56Z</time>
      </trkpt>
      <trkpt lat="42.70694" lon="1.41117">
        <ele>1417.6</ele>
        <time>2016-09-27T08:19:08Z</time>
      </trkpt>
      <trkpt lat="42.70689" lon="1.41111">
        <ele>1419.52</ele>
        <time>2016-09-27T08:19:19Z</time>
      </trkpt>
      <trkpt lat="42.70687" lon="1.41099">
        <ele>1420.97</ele>
        <time>2016-09-27T08:19:31Z</time>
      </trkpt>
      <trkpt lat="42.70686" lon="1.41097">
        <ele>1420.97</ele>
        <time>2016-09-27T08:19:32Z</time>
      </trkpt>
      <trkpt lat="42.70684" lon="1.41093">
        <ele>1421.45</ele>
        <time>2016-09-27T08:19:35Z</time>
      </trkpt>
      <trkpt lat="42.70685" lon="1.41079">
        <ele>1423.85</ele>
        <time>2016-09-27T08:19:49Z</time>
      </trkpt>
      <trkpt lat="42.70683" lon="1.41068">
        <ele>1426.25</ele>
        <time>2016-09-27T08:20:02Z</time>
      </trkpt>
      <trkpt lat="42.70679" lon="1.41058">
        <ele>1427.7</ele>
        <time>2016-09-27T08:20:13Z</time>
      </trkpt>
      <trkpt lat="42.70672" lon="1.41059">
        <ele>1429.14</ele>
        <time>2016-09-27T08:20:37Z</time>
      </trkpt>
      <trkpt lat="42.70666" lon="1.4105">
        <ele>1430.58</ele>
        <time>2016-09-27T08:20:49Z</time>
      </trkpt>
      <trkpt lat="42.70666" lon="1.4104">
        <ele>1432.98</ele>
        <time>2016-09-27T08:21:00Z</time>
      </trkpt>
      <trkpt lat="42.70665" lon="1.41028">
        <ele>1435.39</ele>
        <time>2016-09-27T08:21:12Z</time>
      </trkpt>
      <trkpt lat="42.70663" lon="1.41026">
        <ele>1437.79</ele>
        <time>2016-09-27T08:21:25Z</time>
      </trkpt>
      <trkpt lat="42.70657" lon="1.41027">
        <ele>1440.19</ele>
        <time>2016-09-27T08:21:37Z</time>
      </trkpt>
      <trkpt lat="42.70655" lon="1.41037">
        <ele>1442.6</ele>
        <time>2016-09-27T08:21:48Z</time>
      </trkpt>
      <trkpt lat="42.70652" lon="1.41035">
        <ele>1445</ele>
        <time>2016-09-27T08:22:00Z</time>
      </trkpt>
      <trkpt lat="42.7065" lon="1.41035">
        <ele>1448.36</ele>
        <time>2016-09-27T08:22:04Z</time>
      </trkpt>
      <trkpt lat="42.70644" lon="1.41028">
        <ele>1449.81</ele>
        <time>2016-09-27T08:22:15Z</time>
      </trkpt>
      <trkpt lat="42.70639" lon="1.41027">
        <ele>1449.81</ele>
        <time>2016-09-27T08:22:33Z</time>
      </trkpt>
      <trkpt lat="42.70644" lon="1.41017">
        <ele>1449.81</ele>
        <time>2016-09-27T08:22:44Z</time>
      </trkpt>
      <trkpt lat="42.70646" lon="1.41007">
        <ele>1450.77</ele>
        <time>2016-09-27T08:22:55Z</time>
      </trkpt>
      <trkpt lat="42.70646" lon="1.41003">
        <ele>1451.25</ele>
        <time>2016-09-27T08:22:58Z</time>
      </trkpt>
      <trkpt lat="42.70639" lon="1.40989">
        <ele>1452.69</ele>
        <time>2016-09-27T08:23:11Z</time>
      </trkpt>
      <trkpt lat="42.70637" lon="1.4098">
        <ele>1454.13</ele>
        <time>2016-09-27T08:23:20Z</time>
      </trkpt>
      <trkpt lat="42.70636" lon="1.40969">
        <ele>1455.09</ele>
        <time>2016-09-27T08:23:31Z</time>
      </trkpt>
      <trkpt lat="42.70638" lon="1.40956">
        <ele>1456.53</ele>
        <time>2016-09-27T08:23:42Z</time>
      </trkpt>
      <trkpt lat="42.70639" lon="1.4095">
        <ele>1458.46</ele>
        <time>2016-09-27T08:23:52Z</time>
      </trkpt>
      <trkpt lat="42.70641" lon="1.40938">
        <ele>1460.38</ele>
        <time>2016-09-27T08:24:03Z</time>
      </trkpt>
      <trkpt lat="42.70641" lon="1.40929">
        <ele>1461.34</ele>
        <time>2016-09-27T08:24:12Z</time>
      </trkpt>
      <trkpt lat="42.70644" lon="1.40917">
        <ele>1463.26</ele>
        <time>2016-09-27T08:24:26Z</time>
      </trkpt>
      <trkpt lat="42.70645" lon="1.40916">
        <ele>1464.23</ele>
        <time>2016-09-27T08:24:29Z</time>
      </trkpt>
      <trkpt lat="42.70649" lon="1.4091">
        <ele>1464.23</ele>
        <time>2016-09-27T08:24:35Z</time>
      </trkpt>
      <trkpt lat="42.70647" lon="1.40898">
        <ele>1466.15</ele>
        <time>2016-09-27T08:24:47Z</time>
      </trkpt>
      <trkpt lat="42.7065" lon="1.40886">
        <ele>1467.59</ele>
        <time>2016-09-27T08:24:57Z</time>
      </trkpt>
      <trkpt lat="42.70649" lon="1.4088">
        <ele>1469.03</ele>
        <time>2016-09-27T08:25:11Z</time>
      </trkpt>
      <trkpt lat="42.70648" lon="1.40867">
        <ele>1470.95</ele>
        <time>2016-09-27T08:25:24Z</time>
      </trkpt>
      <trkpt lat="42.70647" lon="1.40857">
        <ele>1472.4</ele>
        <time>2016-09-27T08:25:34Z</time>
      </trkpt>
      <trkpt lat="42.70645" lon="1.40852">
        <ele>1473.36</ele>
        <time>2016-09-27T08:25:39Z</time>
      </trkpt>
      <trkpt lat="42.70644" lon="1.40842">
        <ele>1474.32</ele>
        <time>2016-09-27T08:25:50Z</time>
      </trkpt>
      <trkpt lat="42.70641" lon="1.40835">
        <ele>1476.24</ele>
        <time>2016-09-27T08:26:00Z</time>
      </trkpt>
      <trkpt lat="42.70641" lon="1.40829">
        <ele>1477.68</ele>
        <time>2016-09-27T08:26:12Z</time>
      </trkpt>
      <trkpt lat="42.70641" lon="1.40827">
        <ele>1479.13</ele>
        <time>2016-09-27T08:26:17Z</time>
      </trkpt>
      <trkpt lat="42.70639" lon="1.40819">
        <ele>1480.57</ele>
        <time>2016-09-27T08:26:29Z</time>
      </trkpt>
      <trkpt lat="42.70637" lon="1.40814">
        <ele>1481.53</ele>
        <time>2016-09-27T08:26:35Z</time>
      </trkpt>
      <trkpt lat="42.70628" lon="1.40806">
        <ele>1483.93</ele>
        <time>2016-09-27T08:26:47Z</time>
      </trkpt>
      <trkpt lat="42.70624" lon="1.40804">
        <ele>1485.85</ele>
        <time>2016-09-27T08:26:59Z</time>
      </trkpt>
      <trkpt lat="42.70616" lon="1.40802">
        <ele>1487.78</ele>
        <time>2016-09-27T08:27:11Z</time>
      </trkpt>
      <trkpt lat="42.7061" lon="1.40795">
        <ele>1488.74</ele>
        <time>2016-09-27T08:27:22Z</time>
      </trkpt>
      <trkpt lat="42.7061" lon="1.40793">
        <ele>1490.66</ele>
        <time>2016-09-27T08:27:33Z</time>
      </trkpt>
      <trkpt lat="42.70604" lon="1.40793">
        <ele>1493.55</ele>
        <time>2016-09-27T08:27:47Z</time>
      </trkpt>
      <trkpt lat="42.70598" lon="1.40795">
        <ele>1496.91</ele>
        <time>2016-09-27T08:27:57Z</time>
      </trkpt>
      <trkpt lat="42.70595" lon="1.40796">
        <ele>1497.39</ele>
        <time>2016-09-27T08:28:05Z</time>
      </trkpt>
      <trkpt lat="42.7059" lon="1.40797">
        <ele>1497.39</ele>
        <time>2016-09-27T08:28:12Z</time>
      </trkpt>
      <trkpt lat="42.70585" lon="1.40803">
        <ele>1498.83</ele>
        <time>2016-09-27T08:28:25Z</time>
      </trkpt>
      <trkpt lat="42.70583" lon="1.40804">
        <ele>1500.27</ele>
        <time>2016-09-27T08:28:36Z</time>
      </trkpt>
      <trkpt lat="42.70578" lon="1.40808">
        <ele>1501.72</ele>
        <time>2016-09-27T08:28:55Z</time>
      </trkpt>
      <trkpt lat="42.70573" lon="1.40809">
        <ele>1503.64</ele>
        <time>2016-09-27T08:29:08Z</time>
      </trkpt>
      <trkpt lat="42.70567" lon="1.40807">
        <ele>1507</ele>
        <time>2016-09-27T08:29:17Z</time>
      </trkpt>
      <trkpt lat="42.70563" lon="1.40806">
        <ele>1509.89</ele>
        <time>2016-09-27T08:29:22Z</time>
      </trkpt>
      <trkpt lat="42.70562" lon="1.408">
        <ele>1511.33</ele>
        <time>2016-09-27T08:29:32Z</time>
      </trkpt>
      <trkpt lat="42.7056" lon="1.40793">
        <ele>1511.81</ele>
        <time>2016-09-27T08:29:44Z</time>
      </trkpt>
      <trkpt lat="42.70559" lon="1.40788">
        <ele>1512.29</ele>
        <time>2016-09-27T08:29:52Z</time>
      </trkpt>
      <trkpt lat="42.70558" lon="1.40778">
        <ele>1514.21</ele>
        <time>2016-09-27T08:30:04Z</time>
      </trkpt>
      <trkpt lat="42.70555" lon="1.40773">
        <ele>1515.66</ele>
        <time>2016-09-27T08:30:15Z</time>
      </trkpt>
      <trkpt lat="42.70555" lon="1.40771">
        <ele>1516.14</ele>
        <time>2016-09-27T08:30:27Z</time>
      </trkpt>
      <trkpt lat="42.70556" lon="1.40759">
        <ele>1517.58</ele>
        <time>2016-09-27T08:30:39Z</time>
      </trkpt>
      <trkpt lat="42.70555" lon="1.40752">
        <ele>1518.54</ele>
        <time>2016-09-27T08:30:47Z</time>
      </trkpt>
      <trkpt lat="42.7055" lon="1.40748">
        <ele>1520.94</ele>
        <time>2016-09-27T08:30:59Z</time>
      </trkpt>
      <trkpt lat="42.7055" lon="1.4074">
        <ele>1522.87</ele>
        <time>2016-09-27T08:31:09Z</time>
      </trkpt>
      <trkpt lat="42.70547" lon="1.40734">
        <ele>1524.31</ele>
        <time>2016-09-27T08:31:20Z</time>
      </trkpt>
      <trkpt lat="42.70543" lon="1.40732">
        <ele>1525.75</ele>
        <time>2016-09-27T08:31:30Z</time>
      </trkpt>
      <trkpt lat="42.70539" lon="1.40733">
        <ele>1528.15</ele>
        <time>2016-09-27T08:31:41Z</time>
      </trkpt>
      <trkpt lat="42.70532" lon="1.40734">
        <ele>1530.56</ele>
        <time>2016-09-27T08:31:55Z</time>
      </trkpt>
      <trkpt lat="42.70531" lon="1.40733">
        <ele>1532.48</ele>
        <time>2016-09-27T08:32:09Z</time>
      </trkpt>
      <trkpt lat="42.70533" lon="1.40725">
        <ele>1534.4</ele>
        <time>2016-09-27T08:32:21Z</time>
      </trkpt>
      <trkpt lat="42.70534" lon="1.40716">
        <ele>1536.32</ele>
        <time>2016-09-27T08:32:31Z</time>
      </trkpt>
      <trkpt lat="42.70532" lon="1.40712">
        <ele>1539.69</ele>
        <time>2016-09-27T08:32:38Z</time>
      </trkpt>
      <trkpt lat="42.70531" lon="1.40705">
        <ele>1539.69</ele>
        <time>2016-09-27T08:32:49Z</time>
      </trkpt>
      <trkpt lat="42.70531" lon="1.407">
        <ele>1540.65</ele>
        <time>2016-09-27T08:32:59Z</time>
      </trkpt>
      <trkpt lat="42.7053" lon="1.40697">
        <ele>1543.05</ele>
        <time>2016-09-27T08:33:15Z</time>
      </trkpt>
      <trkpt lat="42.70529" lon="1.40695">
        <ele>1543.53</ele>
        <time>2016-09-27T08:33:29Z</time>
      </trkpt>
      <trkpt lat="42.70527" lon="1.40688">
        <ele>1544.01</ele>
        <time>2016-09-27T08:33:48Z</time>
      </trkpt>
      <trkpt lat="42.70524" lon="1.40688">
        <ele>1545.94</ele>
        <time>2016-09-27T08:33:59Z</time>
      </trkpt>
      <trkpt lat="42.70522" lon="1.40681">
        <ele>1548.82</ele>
        <time>2016-09-27T08:34:13Z</time>
      </trkpt>
      <trkpt lat="42.70516" lon="1.40675">
        <ele>1550.74</ele>
        <time>2016-09-27T08:34:26Z</time>
      </trkpt>
      <trkpt lat="42.70517" lon="1.40666">
        <ele>1552.19</ele>
        <time>2016-09-27T08:34:35Z</time>
      </trkpt>
      <trkpt lat="42.70513" lon="1.40659">
        <ele>1553.63</ele>
        <time>2016-09-27T08:34:45Z</time>
      </trkpt>
      <trkpt lat="42.70514" lon="1.40656">
        <ele>1554.59</ele>
        <time>2016-09-27T08:35:00Z</time>
      </trkpt>
      <trkpt lat="42.70512" lon="1.40653">
        <ele>1556.03</ele>
        <time>2016-09-27T08:35:12Z</time>
      </trkpt>
      <trkpt lat="42.70509" lon="1.40658">
        <ele>1557.47</ele>
        <time>2016-09-27T08:35:24Z</time>
      </trkpt>
      <trkpt lat="42.70507" lon="1.4066">
        <ele>1559.88</ele>
        <time>2016-09-27T08:35:38Z</time>
      </trkpt>
      <trkpt lat="42.70504" lon="1.40667">
        <ele>1561.8</ele>
        <time>2016-09-27T08:35:48Z</time>
      </trkpt>
      <trkpt lat="42.70498" lon="1.40667">
        <ele>1563.72</ele>
        <time>2016-09-27T08:36:00Z</time>
      </trkpt>
      <trkpt lat="42.70498" lon="1.40665">
        <ele>1564.2</ele>
        <time>2016-09-27T08:36:02Z</time>
      </trkpt>
      <trkpt lat="42.70495" lon="1.40659">
        <ele>1566.12</ele>
        <time>2016-09-27T08:36:13Z</time>
      </trkpt>
      <trkpt lat="42.70494" lon="1.40653">
        <ele>1568.53</ele>
        <time>2016-09-27T08:36:20Z</time>
      </trkpt>
      <trkpt lat="42.70494" lon="1.40652">
        <ele>1569.97</ele>
        <time>2016-09-27T08:36:22Z</time>
      </trkpt>
      <trkpt lat="42.70492" lon="1.40651">
        <ele>1570.93</ele>
        <time>2016-09-27T08:36:38Z</time>
      </trkpt>
      <trkpt lat="42.70493" lon="1.40651">
        <ele>1569.49</ele>
        <time>2016-09-27T08:37:02Z</time>
      </trkpt>
      <trkpt lat="42.70492" lon="1.40649">
        <ele>1569.49</ele>
        <time>2016-09-27T08:37:19Z</time>
      </trkpt>
      <trkpt lat="42.7049" lon="1.40648">
        <ele>1570.93</ele>
        <time>2016-09-27T08:37:34Z</time>
      </trkpt>
      <trkpt lat="42.7049" lon="1.40648">
        <ele>1571.89</ele>
        <time>2016-09-27T08:37:51Z</time>
      </trkpt>
      <trkpt lat="42.7049" lon="1.40648">
        <ele>1571.89</ele>
        <time>2016-09-27T08:38:11Z</time>
      </trkpt>
      <trkpt lat="42.70489" lon="1.40648">
        <ele>1571.89</ele>
        <time>2016-09-27T08:38:15Z</time>
      </trkpt>
      <trkpt lat="42.70485" lon="1.40648">
        <ele>1573.33</ele>
        <time>2016-09-27T08:38:28Z</time>
      </trkpt>
      <trkpt lat="42.70481" lon="1.40651">
        <ele>1575.26</ele>
        <time>2016-09-27T08:38:38Z</time>
      </trkpt>
      <trkpt lat="42.70475" lon="1.4065">
        <ele>1577.18</ele>
        <time>2016-09-27T08:38:46Z</time>
      </trkpt>
      <trkpt lat="42.7047" lon="1.40649">
        <ele>1577.66</ele>
        <time>2016-09-27T08:38:58Z</time>
      </trkpt>
      <trkpt lat="42.70471" lon="1.40643">
        <ele>1579.58</ele>
        <time>2016-09-27T08:39:11Z</time>
      </trkpt>
      <trkpt lat="42.70468" lon="1.4064">
        <ele>1580.06</ele>
        <time>2016-09-27T08:39:20Z</time>
      </trkpt>
      <trkpt lat="42.70467" lon="1.40638">
        <ele>1581.51</ele>
        <time>2016-09-27T08:39:24Z</time>
      </trkpt>
      <trkpt lat="42.70466" lon="1.40637">
        <ele>1581.99</ele>
        <time>2016-09-27T08:39:28Z</time>
      </trkpt>
      <trkpt lat="42.70464" lon="1.40639">
        <ele>1583.91</ele>
        <time>2016-09-27T08:39:40Z</time>
      </trkpt>
      <trkpt lat="42.7046" lon="1.40646">
        <ele>1585.83</ele>
        <time>2016-09-27T08:39:52Z</time>
      </trkpt>
      <trkpt lat="42.70456" lon="1.40653">
        <ele>1589.68</ele>
        <time>2016-09-27T08:40:04Z</time>
      </trkpt>
      <trkpt lat="42.70454" lon="1.40657">
        <ele>1593.04</ele>
        <time>2016-09-27T08:40:12Z</time>
      </trkpt>
      <trkpt lat="42.70448" lon="1.40657">
        <ele>1592.56</ele>
        <time>2016-09-27T08:40:26Z</time>
      </trkpt>
      <trkpt lat="42.70444" lon="1.40656">
        <ele>1595.45</ele>
        <time>2016-09-27T08:40:39Z</time>
      </trkpt>
      <trkpt lat="42.70438" lon="1.40657">
        <ele>1597.85</ele>
        <time>2016-09-27T08:40:54Z</time>
      </trkpt>
      <trkpt lat="42.70433" lon="1.40656">
        <ele>1601.21</ele>
        <time>2016-09-27T08:41:05Z</time>
      </trkpt>
      <trkpt lat="42.70429" lon="1.40653">
        <ele>1605.54</ele>
        <time>2016-09-27T08:41:13Z</time>
      </trkpt>
      <trkpt lat="42.70425" lon="1.40646">
        <ele>1605.54</ele>
        <time>2016-09-27T08:41:23Z</time>
      </trkpt>
      <trkpt lat="42.70424" lon="1.40643">
        <ele>1606.02</ele>
        <time>2016-09-27T08:41:39Z</time>
      </trkpt>
      <trkpt lat="42.70422" lon="1.40637">
        <ele>1606.98</ele>
        <time>2016-09-27T08:41:58Z</time>
      </trkpt>
      <trkpt lat="42.70419" lon="1.40637">
        <ele>1609.38</ele>
        <time>2016-09-27T08:42:12Z</time>
      </trkpt>
      <trkpt lat="42.70414" lon="1.4064">
        <ele>1612.27</ele>
        <time>2016-09-27T08:42:25Z</time>
      </trkpt>
      <trkpt lat="42.70409" lon="1.40634">
        <ele>1613.71</ele>
        <time>2016-09-27T08:42:37Z</time>
      </trkpt>
      <trkpt lat="42.70404" lon="1.40628">
        <ele>1616.11</ele>
        <time>2016-09-27T08:42:50Z</time>
      </trkpt>
      <trkpt lat="42.70404" lon="1.40625">
        <ele>1617.56</ele>
        <time>2016-09-27T08:43:09Z</time>
      </trkpt>
      <trkpt lat="42.70401" lon="1.40623">
        <ele>1619</ele>
        <time>2016-09-27T08:43:31Z</time>
      </trkpt>
      <trkpt lat="42.70397" lon="1.40618">
        <ele>1621.4</ele>
        <time>2016-09-27T08:43:44Z</time>
      </trkpt>
      <trkpt lat="42.70396" lon="1.40617">
        <ele>1621.4</ele>
        <time>2016-09-27T08:43:46Z</time>
      </trkpt>
      <trkpt lat="42.70394" lon="1.4061">
        <ele>1623.32</ele>
        <time>2016-09-27T08:43:58Z</time>
      </trkpt>
      <trkpt lat="42.70389" lon="1.4061">
        <ele>1625.73</ele>
        <time>2016-09-27T08:44:10Z</time>
      </trkpt>
      <trkpt lat="42.70384" lon="1.40607">
        <ele>1627.65</ele>
        <time>2016-09-27T08:44:21Z</time>
      </trkpt>
      <trkpt lat="42.7038" lon="1.4061">
        <ele>1630.05</ele>
        <time>2016-09-27T08:44:31Z</time>
      </trkpt>
      <trkpt lat="42.70374" lon="1.40609">
        <ele>1633.42</ele>
        <time>2016-09-27T08:44:41Z</time>
      </trkpt>
      <trkpt lat="42.7037" lon="1.40602">
        <ele>1636.3</ele>
        <time>2016-09-27T08:44:49Z</time>
      </trkpt>
      <trkpt lat="42.70365" lon="1.40596">
        <ele>1636.3</ele>
        <time>2016-09-27T08:45:01Z</time>
      </trkpt>
      <trkpt lat="42.70356" lon="1.40592">
        <ele>1637.26</ele>
        <time>2016-09-27T08:45:15Z</time>
      </trkpt>
      <trkpt lat="42.70352" lon="1.40588">
        <ele>1638.7</ele>
        <time>2016-09-27T08:45:27Z</time>
      </trkpt>
      <trkpt lat="42.7035" lon="1.40587">
        <ele>1640.15</ele>
        <time>2016-09-27T08:45:43Z</time>
      </trkpt>
      <trkpt lat="42.70344" lon="1.40586">
        <ele>1641.59</ele>
        <time>2016-09-27T08:45:54Z</time>
      </trkpt>
      <trkpt lat="42.70338" lon="1.40586">
        <ele>1643.51</ele>
        <time>2016-09-27T08:46:06Z</time>
      </trkpt>
      <trkpt lat="42.70332" lon="1.40583">
        <ele>1645.91</ele>
        <time>2016-09-27T08:46:17Z</time>
      </trkpt>
      <trkpt lat="42.70325" lon="1.4058">
        <ele>1647.36</ele>
        <time>2016-09-27T08:46:29Z</time>
      </trkpt>
      <trkpt lat="42.70323" lon="1.4058">
        <ele>1648.32</ele>
        <time>2016-09-27T08:46:32Z</time>
      </trkpt>
      <trkpt lat="42.70319" lon="1.40581">
        <ele>1649.28</ele>
        <time>2016-09-27T08:46:43Z</time>
      </trkpt>
      <trkpt lat="42.70317" lon="1.40582">
        <ele>1650.72</ele>
        <time>2016-09-27T08:46:55Z</time>
      </trkpt>
      <trkpt lat="42.70312" lon="1.40581">
        <ele>1652.16</ele>
        <time>2016-09-27T08:47:12Z</time>
      </trkpt>
      <trkpt lat="42.70307" lon="1.40583">
        <ele>1654.09</ele>
        <time>2016-09-27T08:47:23Z</time>
      </trkpt>
      <trkpt lat="42.70298" lon="1.40581">
        <ele>1655.53</ele>
        <time>2016-09-27T08:47:35Z</time>
      </trkpt>
      <trkpt lat="42.70291" lon="1.40583">
        <ele>1657.93</ele>
        <time>2016-09-27T08:47:47Z</time>
      </trkpt>
      <trkpt lat="42.7028" lon="1.40581">
        <ele>1659.37</ele>
        <time>2016-09-27T08:48:00Z</time>
      </trkpt>
      <trkpt lat="42.70276" lon="1.40582">
        <ele>1659.85</ele>
        <time>2016-09-27T08:48:09Z</time>
      </trkpt>
      <trkpt lat="42.70272" lon="1.40587">
        <ele>1661.3</ele>
        <time>2016-09-27T08:48:17Z</time>
      </trkpt>
      <trkpt lat="42.70262" lon="1.4058">
        <ele>1662.26</ele>
        <time>2016-09-27T08:48:31Z</time>
      </trkpt>
      <trkpt lat="42.7026" lon="1.4058">
        <ele>1662.74</ele>
        <time>2016-09-27T08:48:34Z</time>
      </trkpt>
      <trkpt lat="42.70259" lon="1.40576">
        <ele>1662.74</ele>
        <time>2016-09-27T08:48:37Z</time>
      </trkpt>
      <trkpt lat="42.70256" lon="1.40575">
        <ele>1663.22</ele>
        <time>2016-09-27T08:48:40Z</time>
      </trkpt>
      <trkpt lat="42.70251" lon="1.4057">
        <ele>1665.14</ele>
        <time>2016-09-27T08:48:52Z</time>
      </trkpt>
      <trkpt lat="42.70246" lon="1.40566">
        <ele>1667.54</ele>
        <time>2016-09-27T08:49:04Z</time>
      </trkpt>
      <trkpt lat="42.7024" lon="1.40559">
        <ele>1669.95</ele>
        <time>2016-09-27T08:49:16Z</time>
      </trkpt>
      <trkpt lat="42.70232" lon="1.40556">
        <ele>1671.39</ele>
        <time>2016-09-27T08:49:28Z</time>
      </trkpt>
      <trkpt lat="42.70231" lon="1.40556">
        <ele>1671.39</ele>
        <time>2016-09-27T08:49:29Z</time>
      </trkpt>
      <trkpt lat="42.7022" lon="1.40555">
        <ele>1673.31</ele>
        <time>2016-09-27T08:49:43Z</time>
      </trkpt>
      <trkpt lat="42.7021" lon="1.40556">
        <ele>1674.75</ele>
        <time>2016-09-27T08:49:56Z</time>
      </trkpt>
      <trkpt lat="42.70199" lon="1.40553">
        <ele>1675.72</ele>
        <time>2016-09-27T08:50:09Z</time>
      </trkpt>
      <trkpt lat="42.70189" lon="1.40552">
        <ele>1677.64</ele>
        <time>2016-09-27T08:50:21Z</time>
      </trkpt>
      <trkpt lat="42.70183" lon="1.40549">
        <ele>1680.04</ele>
        <time>2016-09-27T08:50:34Z</time>
      </trkpt>
      <trkpt lat="42.70183" lon="1.40548">
        <ele>1681</ele>
        <time>2016-09-27T08:50:53Z</time>
      </trkpt>
      <trkpt lat="42.70181" lon="1.40548">
        <ele>1681.48</ele>
        <time>2016-09-27T08:51:17Z</time>
      </trkpt>
      <trkpt lat="42.7018" lon="1.40549">
        <ele>1681.48</ele>
        <time>2016-09-27T08:51:19Z</time>
      </trkpt>
      <trkpt lat="42.70174" lon="1.40547">
        <ele>1683.41</ele>
        <time>2016-09-27T08:51:30Z</time>
      </trkpt>
      <trkpt lat="42.7017" lon="1.40543">
        <ele>1685.33</ele>
        <time>2016-09-27T08:51:40Z</time>
      </trkpt>
      <trkpt lat="42.70166" lon="1.40534">
        <ele>1686.29</ele>
        <time>2016-09-27T08:51:49Z</time>
      </trkpt>
      <trkpt lat="42.7016" lon="1.40528">
        <ele>1688.69</ele>
        <time>2016-09-27T08:52:03Z</time>
      </trkpt>
      <trkpt lat="42.70157" lon="1.40531">
        <ele>1690.62</ele>
        <time>2016-09-27T08:52:13Z</time>
      </trkpt>
      <trkpt lat="42.70152" lon="1.40529">
        <ele>1692.54</ele>
        <time>2016-09-27T08:52:25Z</time>
      </trkpt>
      <trkpt lat="42.70149" lon="1.40527">
        <ele>1694.46</ele>
        <time>2016-09-27T08:52:36Z</time>
      </trkpt>
      <trkpt lat="42.70147" lon="1.40525">
        <ele>1695.9</ele>
        <time>2016-09-27T08:52:47Z</time>
      </trkpt>
      <trkpt lat="42.70143" lon="1.40524">
        <ele>1697.83</ele>
        <time>2016-09-27T08:53:02Z</time>
      </trkpt>
      <trkpt lat="42.70142" lon="1.40524">
        <ele>1699.75</ele>
        <time>2016-09-27T08:53:14Z</time>
      </trkpt>
      <trkpt lat="42.70139" lon="1.40518">
        <ele>1701.19</ele>
        <time>2016-09-27T08:53:28Z</time>
      </trkpt>
      <trkpt lat="42.70138" lon="1.40515">
        <ele>1702.63</ele>
        <time>2016-09-27T08:53:38Z</time>
      </trkpt>
      <trkpt lat="42.70138" lon="1.40515">
        <ele>1702.63</ele>
        <time>2016-09-27T08:53:41Z</time>
      </trkpt>
      <trkpt lat="42.70137" lon="1.40517">
        <ele>1703.59</ele>
        <time>2016-09-27T08:53:47Z</time>
      </trkpt>
      <trkpt lat="42.70134" lon="1.40512">
        <ele>1704.55</ele>
        <time>2016-09-27T08:54:00Z</time>
      </trkpt>
      <trkpt lat="42.70133" lon="1.4051">
        <ele>1706</ele>
        <time>2016-09-27T08:54:09Z</time>
      </trkpt>
      <trkpt lat="42.70129" lon="1.40503">
        <ele>1707.92</ele>
        <time>2016-09-27T08:54:20Z</time>
      </trkpt>
      <trkpt lat="42.70127" lon="1.40499">
        <ele>1710.8</ele>
        <time>2016-09-27T08:54:33Z</time>
      </trkpt>
      <trkpt lat="42.70124" lon="1.40497">
        <ele>1713.21</ele>
        <time>2016-09-27T08:54:55Z</time>
      </trkpt>
      <trkpt lat="42.70122" lon="1.40493">
        <ele>1713.21</ele>
        <time>2016-09-27T08:55:01Z</time>
      </trkpt>
      <trkpt lat="42.70116" lon="1.40486">
        <ele>1713.21</ele>
        <time>2016-09-27T08:55:12Z</time>
      </trkpt>
      <trkpt lat="42.70113" lon="1.40483">
        <ele>1715.13</ele>
        <time>2016-09-27T08:55:21Z</time>
      </trkpt>
      <trkpt lat="42.70112" lon="1.40479">
        <ele>1715.61</ele>
        <time>2016-09-27T08:55:26Z</time>
      </trkpt>
      <trkpt lat="42.70108" lon="1.40471">
        <ele>1716.09</ele>
        <time>2016-09-27T08:55:36Z</time>
      </trkpt>
      <trkpt lat="42.70105" lon="1.40467">
        <ele>1716.57</ele>
        <time>2016-09-27T08:55:46Z</time>
      </trkpt>
      <trkpt lat="42.70099" lon="1.40466">
        <ele>1718.01</ele>
        <time>2016-09-27T08:55:59Z</time>
      </trkpt>
      <trkpt lat="42.70095" lon="1.40465">
        <ele>1719.46</ele>
        <time>2016-09-27T08:56:08Z</time>
      </trkpt>
      <trkpt lat="42.70089" lon="1.40461">
        <ele>1721.38</ele>
        <time>2016-09-27T08:56:18Z</time>
      </trkpt>
      <trkpt lat="42.70085" lon="1.40453">
        <ele>1722.34</ele>
        <time>2016-09-27T08:56:29Z</time>
      </trkpt>
      <trkpt lat="42.70081" lon="1.40449">
        <ele>1722.82</ele>
        <time>2016-09-27T08:56:35Z</time>
      </trkpt>
      <trkpt lat="42.7008" lon="1.40442">
        <ele>1723.3</ele>
        <time>2016-09-27T08:56:44Z</time>
      </trkpt>
      <trkpt lat="42.70075" lon="1.40434">
        <ele>1725.22</ele>
        <time>2016-09-27T08:56:58Z</time>
      </trkpt>
      <trkpt lat="42.70075" lon="1.40433">
        <ele>1726.18</ele>
        <time>2016-09-27T08:57:12Z</time>
      </trkpt>
      <trkpt lat="42.70074" lon="1.40432">
        <ele>1727.15</ele>
        <time>2016-09-27T08:57:31Z</time>
      </trkpt>
      <trkpt lat="42.70073" lon="1.40433">
        <ele>1727.15</ele>
        <time>2016-09-27T08:57:58Z</time>
      </trkpt>
      <trkpt lat="42.7007" lon="1.40432">
        <ele>1727.63</ele>
        <time>2016-09-27T08:58:15Z</time>
      </trkpt>
      <trkpt lat="42.70068" lon="1.40433">
        <ele>1729.55</ele>
        <time>2016-09-27T08:58:25Z</time>
      </trkpt>
      <trkpt lat="42.70065" lon="1.40429">
        <ele>1732.91</ele>
        <time>2016-09-27T08:58:31Z</time>
      </trkpt>
      <trkpt lat="42.70061" lon="1.40424">
        <ele>1734.84</ele>
        <time>2016-09-27T08:58:43Z</time>
      </trkpt>
      <trkpt lat="42.70059" lon="1.40417">
        <ele>1735.8</ele>
        <time>2016-09-27T08:58:54Z</time>
      </trkpt>
      <trkpt lat="42.70052" lon="1.40407">
        <ele>1736.28</ele>
        <time>2016-09-27T08:59:06Z</time>
      </trkpt>
      <trkpt lat="42.70049" lon="1.40402">
        <ele>1737.72</ele>
        <time>2016-09-27T08:59:17Z</time>
      </trkpt>
      <trkpt lat="42.70045" lon="1.40398">
        <ele>1739.64</ele>
        <time>2016-09-27T08:59:28Z</time>
      </trkpt>
      <trkpt lat="42.70042" lon="1.40398">
        <ele>1741.57</ele>
        <time>2016-09-27T08:59:39Z</time>
      </trkpt>
      <trkpt lat="42.70042" lon="1.40398">
        <ele>1741.08</ele>
        <time>2016-09-27T08:59:40Z</time>
      </trkpt>
      <trkpt lat="42.70037" lon="1.40393">
        <ele>1743.97</ele>
        <time>2016-09-27T08:59:53Z</time>
      </trkpt>
      <trkpt lat="42.70031" lon="1.40384">
        <ele>1745.41</ele>
        <time>2016-09-27T09:00:05Z</time>
      </trkpt>
      <trkpt lat="42.70027" lon="1.40377">
        <ele>1747.33</ele>
        <time>2016-09-27T09:00:15Z</time>
      </trkpt>
      <trkpt lat="42.70023" lon="1.40372">
        <ele>1748.29</ele>
        <time>2016-09-27T09:00:25Z</time>
      </trkpt>
      <trkpt lat="42.70022" lon="1.40367">
        <ele>1749.26</ele>
        <time>2016-09-27T09:00:39Z</time>
      </trkpt>
      <trkpt lat="42.7002" lon="1.40362">
        <ele>1750.7</ele>
        <time>2016-09-27T09:00:53Z</time>
      </trkpt>
      <trkpt lat="42.70015" lon="1.40358">
        <ele>1751.18</ele>
        <time>2016-09-27T09:01:03Z</time>
      </trkpt>
      <trkpt lat="42.70013" lon="1.40352">
        <ele>1752.62</ele>
        <time>2016-09-27T09:01:12Z</time>
      </trkpt>
      <trkpt lat="42.70007" lon="1.40344">
        <ele>1754.06</ele>
        <time>2016-09-27T09:01:23Z</time>
      </trkpt>
      <trkpt lat="42.70006" lon="1.40342">
        <ele>1754.06</ele>
        <time>2016-09-27T09:01:26Z</time>
      </trkpt>
      <trkpt lat="42.69998" lon="1.40332">
        <ele>1755.99</ele>
        <time>2016-09-27T09:01:39Z</time>
      </trkpt>
      <trkpt lat="42.69995" lon="1.40327">
        <ele>1756.95</ele>
        <time>2016-09-27T09:01:46Z</time>
      </trkpt>
      <trkpt lat="42.69988" lon="1.40316">
        <ele>1758.39</ele>
        <time>2016-09-27T09:02:00Z</time>
      </trkpt>
      <trkpt lat="42.69987" lon="1.40315">
        <ele>1758.39</ele>
        <time>2016-09-27T09:02:02Z</time>
      </trkpt>
      <trkpt lat="42.69982" lon="1.4031">
        <ele>1760.31</ele>
        <time>2016-09-27T09:02:12Z</time>
      </trkpt>
      <trkpt lat="42.69977" lon="1.40304">
        <ele>1761.75</ele>
        <time>2016-09-27T09:02:24Z</time>
      </trkpt>
      <trkpt lat="42.69975" lon="1.40301">
        <ele>1764.16</ele>
        <time>2016-09-27T09:02:37Z</time>
      </trkpt>
      <trkpt lat="42.69972" lon="1.40294">
        <ele>1765.6</ele>
        <time>2016-09-27T09:02:48Z</time>
      </trkpt>
      <trkpt lat="42.69968" lon="1.40286">
        <ele>1767.04</ele>
        <time>2016-09-27T09:03:01Z</time>
      </trkpt>
      <trkpt lat="42.69964" lon="1.40277">
        <ele>1768</ele>
        <time>2016-09-27T09:03:10Z</time>
      </trkpt>
      <trkpt lat="42.6996" lon="1.40268">
        <ele>1769.92</ele>
        <time>2016-09-27T09:03:20Z</time>
      </trkpt>
      <trkpt lat="42.69958" lon="1.40258">
        <ele>1771.85</ele>
        <time>2016-09-27T09:03:31Z</time>
      </trkpt>
      <trkpt lat="42.69955" lon="1.40253">
        <ele>1775.21</ele>
        <time>2016-09-27T09:03:40Z</time>
      </trkpt>
      <trkpt lat="42.69953" lon="1.40246">
        <ele>1776.17</ele>
        <time>2016-09-27T09:03:52Z</time>
      </trkpt>
      <trkpt lat="42.69951" lon="1.40236">
        <ele>1777.61</ele>
        <time>2016-09-27T09:04:03Z</time>
      </trkpt>
      <trkpt lat="42.69951" lon="1.40232">
        <ele>1778.1</ele>
        <time>2016-09-27T09:04:07Z</time>
      </trkpt>
      <trkpt lat="42.69945" lon="1.40225">
        <ele>1779.06</ele>
        <time>2016-09-27T09:04:17Z</time>
      </trkpt>
      <trkpt lat="42.69941" lon="1.40218">
        <ele>1781.46</ele>
        <time>2016-09-27T09:04:30Z</time>
      </trkpt>
      <trkpt lat="42.69939" lon="1.40206">
        <ele>1782.42</ele>
        <time>2016-09-27T09:04:42Z</time>
      </trkpt>
      <trkpt lat="42.69933" lon="1.40201">
        <ele>1783.86</ele>
        <time>2016-09-27T09:04:56Z</time>
      </trkpt>
      <trkpt lat="42.69928" lon="1.40199">
        <ele>1785.79</ele>
        <time>2016-09-27T09:05:07Z</time>
      </trkpt>
      <trkpt lat="42.69924" lon="1.40196">
        <ele>1788.19</ele>
        <time>2016-09-27T09:05:18Z</time>
      </trkpt>
      <trkpt lat="42.69917" lon="1.40189">
        <ele>1789.63</ele>
        <time>2016-09-27T09:05:30Z</time>
      </trkpt>
      <trkpt lat="42.69914" lon="1.40189">
        <ele>1791.55</ele>
        <time>2016-09-27T09:05:44Z</time>
      </trkpt>
      <trkpt lat="42.69909" lon="1.40184">
        <ele>1792.52</ele>
        <time>2016-09-27T09:05:53Z</time>
      </trkpt>
      <trkpt lat="42.69901" lon="1.40182">
        <ele>1794.44</ele>
        <time>2016-09-27T09:06:05Z</time>
      </trkpt>
      <trkpt lat="42.69894" lon="1.40177">
        <ele>1795.88</ele>
        <time>2016-09-27T09:06:17Z</time>
      </trkpt>
      <trkpt lat="42.69883" lon="1.40173">
        <ele>1798.28</ele>
        <time>2016-09-27T09:06:31Z</time>
      </trkpt>
      <trkpt lat="42.69873" lon="1.4017">
        <ele>1799.24</ele>
        <time>2016-09-27T09:06:43Z</time>
      </trkpt>
      <trkpt lat="42.69867" lon="1.40167">
        <ele>1800.69</ele>
        <time>2016-09-27T09:06:51Z</time>
      </trkpt>
      <trkpt lat="42.6986" lon="1.40173">
        <ele>1801.65</ele>
        <time>2016-09-27T09:07:02Z</time>
      </trkpt>
      <trkpt lat="42.69854" lon="1.40175">
        <ele>1802.61</ele>
        <time>2016-09-27T09:07:13Z</time>
      </trkpt>
      <trkpt lat="42.69849" lon="1.40179">
        <ele>1805.01</ele>
        <time>2016-09-27T09:07:24Z</time>
      </trkpt>
      <trkpt lat="42.69846" lon="1.40185">
        <ele>1807.42</ele>
        <time>2016-09-27T09:07:35Z</time>
      </trkpt>
      <trkpt lat="42.69841" lon="1.40184">
        <ele>1808.86</ele>
        <time>2016-09-27T09:07:47Z</time>
      </trkpt>
      <trkpt lat="42.6984" lon="1.40177">
        <ele>1811.26</ele>
        <time>2016-09-27T09:07:59Z</time>
      </trkpt>
      <trkpt lat="42.69836" lon="1.40181">
        <ele>1812.7</ele>
        <time>2016-09-27T09:08:12Z</time>
      </trkpt>
      <trkpt lat="42.6983" lon="1.40182">
        <ele>1814.63</ele>
        <time>2016-09-27T09:08:24Z</time>
      </trkpt>
      <trkpt lat="42.69823" lon="1.4018">
        <ele>1816.07</ele>
        <time>2016-09-27T09:08:35Z</time>
      </trkpt>
      <trkpt lat="42.69816" lon="1.40173">
        <ele>1817.99</ele>
        <time>2016-09-27T09:08:48Z</time>
      </trkpt>
      <trkpt lat="42.69811" lon="1.40168">
        <ele>1819.43</ele>
        <time>2016-09-27T09:08:59Z</time>
      </trkpt>
      <trkpt lat="42.69807" lon="1.40157">
        <ele>1821.35</ele>
        <time>2016-09-27T09:09:11Z</time>
      </trkpt>
      <trkpt lat="42.69806" lon="1.40156">
        <ele>1821.35</ele>
        <time>2016-09-27T09:09:12Z</time>
      </trkpt>
      <trkpt lat="42.69805" lon="1.40154">
        <ele>1821.35</ele>
        <time>2016-09-27T09:09:14Z</time>
      </trkpt>
      <trkpt lat="42.69796" lon="1.40144">
        <ele>1822.8</ele>
        <time>2016-09-27T09:09:29Z</time>
      </trkpt>
      <trkpt lat="42.6979" lon="1.40136">
        <ele>1823.76</ele>
        <time>2016-09-27T09:09:43Z</time>
      </trkpt>
      <trkpt lat="42.69789" lon="1.40132">
        <ele>1824.72</ele>
        <time>2016-09-27T09:09:48Z</time>
      </trkpt>
      <trkpt lat="42.69785" lon="1.40121">
        <ele>1825.68</ele>
        <time>2016-09-27T09:10:00Z</time>
      </trkpt>
      <trkpt lat="42.6978" lon="1.40111">
        <ele>1826.16</ele>
        <time>2016-09-27T09:10:11Z</time>
      </trkpt>
      <trkpt lat="42.6978" lon="1.40107">
        <ele>1826.64</ele>
        <time>2016-09-27T09:10:14Z</time>
      </trkpt>
      <trkpt lat="42.69781" lon="1.40101">
        <ele>1827.12</ele>
        <time>2016-09-27T09:10:20Z</time>
      </trkpt>
      <trkpt lat="42.69783" lon="1.40089">
        <ele>1828.56</ele>
        <time>2016-09-27T09:10:31Z</time>
      </trkpt>
      <trkpt lat="42.6978" lon="1.40082">
        <ele>1829.53</ele>
        <time>2016-09-27T09:10:42Z</time>
      </trkpt>
      <trkpt lat="42.69778" lon="1.40078">
        <ele>1830.97</ele>
        <time>2016-09-27T09:10:47Z</time>
      </trkpt>
      <trkpt lat="42.69773" lon="1.40069">
        <ele>1832.41</ele>
        <time>2016-09-27T09:10:58Z</time>
      </trkpt>
      <trkpt lat="42.69767" lon="1.40065">
        <ele>1834.33</ele>
        <time>2016-09-27T09:11:08Z</time>
      </trkpt>
      <trkpt lat="42.69763" lon="1.40062">
        <ele>1836.26</ele>
        <time>2016-09-27T09:11:26Z</time>
      </trkpt>
      <trkpt lat="42.69754" lon="1.40056">
        <ele>1838.18</ele>
        <time>2016-09-27T09:11:40Z</time>
      </trkpt>
      <trkpt lat="42.69746" lon="1.40051">
        <ele>1839.62</ele>
        <time>2016-09-27T09:11:52Z</time>
      </trkpt>
      <trkpt lat="42.69741" lon="1.40046">
        <ele>1842.02</ele>
        <time>2016-09-27T09:12:03Z</time>
      </trkpt>
      <trkpt lat="42.69739" lon="1.40043">
        <ele>1842.5</ele>
        <time>2016-09-27T09:12:06Z</time>
      </trkpt>
      <trkpt lat="42.69733" lon="1.40036">
        <ele>1844.43</ele>
        <time>2016-09-27T09:12:20Z</time>
      </trkpt>
      <trkpt lat="42.69726" lon="1.4003">
        <ele>1846.83</ele>
        <time>2016-09-27T09:12:35Z</time>
      </trkpt>
      <trkpt lat="42.69723" lon="1.40028">
        <ele>1849.23</ele>
        <time>2016-09-27T09:12:46Z</time>
      </trkpt>
      <trkpt lat="42.69719" lon="1.40027">
        <ele>1850.68</ele>
        <time>2016-09-27T09:12:57Z</time>
      </trkpt>
      <trkpt lat="42.69711" lon="1.40023">
        <ele>1853.08</ele>
        <time>2016-09-27T09:13:10Z</time>
      </trkpt>
      <trkpt lat="42.69709" lon="1.40022">
        <ele>1855</ele>
        <time>2016-09-27T09:13:18Z</time>
      </trkpt>
      <trkpt lat="42.69703" lon="1.40019">
        <ele>1858.37</ele>
        <time>2016-09-27T09:13:25Z</time>
      </trkpt>
      <trkpt lat="42.69697" lon="1.40014">
        <ele>1859.33</ele>
        <time>2016-09-27T09:13:37Z</time>
      </trkpt>
      <trkpt lat="42.69691" lon="1.40008">
        <ele>1860.77</ele>
        <time>2016-09-27T09:13:49Z</time>
      </trkpt>
      <trkpt lat="42.69688" lon="1.40002">
        <ele>1861.73</ele>
        <time>2016-09-27T09:14:00Z</time>
      </trkpt>
      <trkpt lat="42.69687" lon="1.39999">
        <ele>1861.73</ele>
        <time>2016-09-27T09:14:03Z</time>
      </trkpt>
      <trkpt lat="42.69684" lon="1.39988">
        <ele>1863.17</ele>
        <time>2016-09-27T09:14:15Z</time>
      </trkpt>
      <trkpt lat="42.69681" lon="1.39987">
        <ele>1864.13</ele>
        <time>2016-09-27T09:14:26Z</time>
      </trkpt>
      <trkpt lat="42.69681" lon="1.39987">
        <ele>1864.13</ele>
        <time>2016-09-27T09:14:27Z</time>
      </trkpt>
      <trkpt lat="42.69683" lon="1.39989">
        <ele>1864.61</ele>
        <time>2016-09-27T09:14:29Z</time>
      </trkpt>
      <trkpt lat="42.69681" lon="1.39996">
        <ele>1865.09</ele>
        <time>2016-09-27T09:14:35Z</time>
      </trkpt>
      <trkpt lat="42.6968" lon="1.39999">
        <ele>1865.09</ele>
        <time>2016-09-27T09:14:39Z</time>
      </trkpt>
      <trkpt lat="42.69681" lon="1.40007">
        <ele>1865.09</ele>
        <time>2016-09-27T09:14:45Z</time>
      </trkpt>
      <trkpt lat="42.69682" lon="1.40009">
        <ele>1865.09</ele>
        <time>2016-09-27T09:14:47Z</time>
      </trkpt>
      <trkpt lat="42.69685" lon="1.40021">
        <ele>1865.58</ele>
        <time>2016-09-27T09:14:59Z</time>
      </trkpt>
      <trkpt lat="42.69689" lon="1.40031">
        <ele>1866.54</ele>
        <time>2016-09-27T09:15:12Z</time>
      </trkpt>
      <trkpt lat="42.6969" lon="1.40035">
        <ele>1867.02</ele>
        <time>2016-09-27T09:15:17Z</time>
      </trkpt>
      <trkpt lat="42.69691" lon="1.40039">
        <ele>1867.98</ele>
        <time>2016-09-27T09:15:20Z</time>
      </trkpt>
      <trkpt lat="42.69687" lon="1.40056">
        <ele>1868.46</ele>
        <time>2016-09-27T09:15:33Z</time>
      </trkpt>
      <trkpt lat="42.69688" lon="1.40069">
        <ele>1868.94</ele>
        <time>2016-09-27T09:15:44Z</time>
      </trkpt>
      <trkpt lat="42.69689" lon="1.40071">
        <ele>1868.94</ele>
        <time>2016-09-27T09:15:46Z</time>
      </trkpt>
      <trkpt lat="42.69695" lon="1.40087">
        <ele>1869.9</ele>
        <time>2016-09-27T09:16:00Z</time>
      </trkpt>
      <trkpt lat="42.69696" lon="1.40097">
        <ele>1871.34</ele>
        <time>2016-09-27T09:16:10Z</time>
      </trkpt>
      <trkpt lat="42.69696" lon="1.40098">
        <ele>1871.34</ele>
        <time>2016-09-27T09:16:11Z</time>
      </trkpt>
      <trkpt lat="42.69696" lon="1.401">
        <ele>1871.82</ele>
        <time>2016-09-27T09:16:13Z</time>
      </trkpt>
      <trkpt lat="42.69697" lon="1.40103">
        <ele>1871.82</ele>
        <time>2016-09-27T09:16:15Z</time>
      </trkpt>
      <trkpt lat="42.69699" lon="1.40112">
        <ele>1872.3</ele>
        <time>2016-09-27T09:16:22Z</time>
      </trkpt>
      <trkpt lat="42.69701" lon="1.40115">
        <ele>1872.79</ele>
        <time>2016-09-27T09:16:25Z</time>
      </trkpt>
      <trkpt lat="42.69703" lon="1.40124">
        <ele>1872.79</ele>
        <time>2016-09-27T09:16:31Z</time>
      </trkpt>
      <trkpt lat="42.69702" lon="1.40132">
        <ele>1872.79</ele>
        <time>2016-09-27T09:16:37Z</time>
      </trkpt>
      <trkpt lat="42.69704" lon="1.40135">
        <ele>1872.79</ele>
        <time>2016-09-27T09:16:40Z</time>
      </trkpt>
      <trkpt lat="42.69705" lon="1.40144">
        <ele>1872.79</ele>
        <time>2016-09-27T09:16:46Z</time>
      </trkpt>
      <trkpt lat="42.69705" lon="1.40147">
        <ele>1872.79</ele>
        <time>2016-09-27T09:16:49Z</time>
      </trkpt>
      <trkpt lat="42.69704" lon="1.40155">
        <ele>1872.79</ele>
        <time>2016-09-27T09:16:55Z</time>
      </trkpt>
      <trkpt lat="42.69702" lon="1.40167">
        <ele>1872.79</ele>
        <time>2016-09-27T09:17:04Z</time>
      </trkpt>
      <trkpt lat="42.69701" lon="1.40178">
        <ele>1873.27</ele>
        <time>2016-09-27T09:17:13Z</time>
      </trkpt>
      <trkpt lat="42.69701" lon="1.40188">
        <ele>1873.75</ele>
        <time>2016-09-27T09:17:21Z</time>
      </trkpt>
      <trkpt lat="42.69701" lon="1.40191">
        <ele>1873.75</ele>
        <time>2016-09-27T09:17:23Z</time>
      </trkpt>
      <trkpt lat="42.69699" lon="1.40205">
        <ele>1875.19</ele>
        <time>2016-09-27T09:17:35Z</time>
      </trkpt>
      <trkpt lat="42.69699" lon="1.40215">
        <ele>1876.15</ele>
        <time>2016-09-27T09:17:46Z</time>
      </trkpt>
      <trkpt lat="42.69699" lon="1.40219">
        <ele>1877.11</ele>
        <time>2016-09-27T09:17:49Z</time>
      </trkpt>
      <trkpt lat="42.69695" lon="1.40233">
        <ele>1878.55</ele>
        <time>2016-09-27T09:18:03Z</time>
      </trkpt>
      <trkpt lat="42.69695" lon="1.40235">
        <ele>1879.03</ele>
        <time>2016-09-27T09:18:05Z</time>
      </trkpt>
      <trkpt lat="42.69695" lon="1.40243">
        <ele>1879.51</ele>
        <time>2016-09-27T09:18:11Z</time>
      </trkpt>
      <trkpt lat="42.69694" lon="1.40248">
        <ele>1880</ele>
        <time>2016-09-27T09:18:16Z</time>
      </trkpt>
      <trkpt lat="42.69693" lon="1.40256">
        <ele>1880.96</ele>
        <time>2016-09-27T09:18:22Z</time>
      </trkpt>
      <trkpt lat="42.69693" lon="1.40259">
        <ele>1880.96</ele>
        <time>2016-09-27T09:18:25Z</time>
      </trkpt>
      <trkpt lat="42.69685" lon="1.40271">
        <ele>1882.4</ele>
        <time>2016-09-27T09:18:38Z</time>
      </trkpt>
      <trkpt lat="42.69685" lon="1.40272">
        <ele>1882.88</ele>
        <time>2016-09-27T09:18:40Z</time>
      </trkpt>
      <trkpt lat="42.6968" lon="1.40284">
        <ele>1884.32</ele>
        <time>2016-09-27T09:18:53Z</time>
      </trkpt>
      <trkpt lat="42.6968" lon="1.4029">
        <ele>1884.8</ele>
        <time>2016-09-27T09:18:59Z</time>
      </trkpt>
      <trkpt lat="42.69679" lon="1.403">
        <ele>1885.76</ele>
        <time>2016-09-27T09:19:07Z</time>
      </trkpt>
      <trkpt lat="42.69677" lon="1.40305">
        <ele>1885.76</ele>
        <time>2016-09-27T09:19:11Z</time>
      </trkpt>
      <trkpt lat="42.69678" lon="1.40314">
        <ele>1886.72</ele>
        <time>2016-09-27T09:19:22Z</time>
      </trkpt>
      <trkpt lat="42.69678" lon="1.40315">
        <ele>1887.21</ele>
        <time>2016-09-27T09:19:40Z</time>
      </trkpt>
      <trkpt lat="42.69678" lon="1.40314">
        <ele>1887.21</ele>
        <time>2016-09-27T09:20:04Z</time>
      </trkpt>
      <trkpt lat="42.69677" lon="1.40314">
        <ele>1887.21</ele>
        <time>2016-09-27T09:20:16Z</time>
      </trkpt>
      <trkpt lat="42.69676" lon="1.40314">
        <ele>1887.69</ele>
        <time>2016-09-27T09:20:31Z</time>
      </trkpt>
      <trkpt lat="42.69674" lon="1.40314">
        <ele>1888.17</ele>
        <time>2016-09-27T09:20:54Z</time>
      </trkpt>
      <trkpt lat="42.69673" lon="1.40313">
        <ele>1888.17</ele>
        <time>2016-09-27T09:21:01Z</time>
      </trkpt>
      <trkpt lat="42.69669" lon="1.40307">
        <ele>1888.65</ele>
        <time>2016-09-27T09:21:09Z</time>
      </trkpt>
      <trkpt lat="42.69663" lon="1.40292">
        <ele>1889.13</ele>
        <time>2016-09-27T09:21:24Z</time>
      </trkpt>
      <trkpt lat="42.69658" lon="1.40279">
        <ele>1889.13</ele>
        <time>2016-09-27T09:21:36Z</time>
      </trkpt>
      <trkpt lat="42.69658" lon="1.40278">
        <ele>1889.13</ele>
        <time>2016-09-27T09:21:37Z</time>
      </trkpt>
      <trkpt lat="42.69652" lon="1.40271">
        <ele>1889.13</ele>
        <time>2016-09-27T09:21:44Z</time>
      </trkpt>
      <trkpt lat="42.69649" lon="1.40265">
        <ele>1889.13</ele>
        <time>2016-09-27T09:21:49Z</time>
      </trkpt>
      <trkpt lat="42.69646" lon="1.40251">
        <ele>1890.09</ele>
        <time>2016-09-27T09:22:01Z</time>
      </trkpt>
      <trkpt lat="42.69645" lon="1.4024">
        <ele>1891.53</ele>
        <time>2016-09-27T09:22:12Z</time>
      </trkpt>
      <trkpt lat="42.69643" lon="1.40238">
        <ele>1891.53</ele>
        <time>2016-09-27T09:22:14Z</time>
      </trkpt>
      <trkpt lat="42.69639" lon="1.40235">
        <ele>1892.01</ele>
        <time>2016-09-27T09:22:19Z</time>
      </trkpt>
      <trkpt lat="42.69635" lon="1.40233">
        <ele>1892.49</ele>
        <time>2016-09-27T09:22:23Z</time>
      </trkpt>
      <trkpt lat="42.69626" lon="1.40223">
        <ele>1893.45</ele>
        <time>2016-09-27T09:22:36Z</time>
      </trkpt>
      <trkpt lat="42.69623" lon="1.40223">
        <ele>1893.93</ele>
        <time>2016-09-27T09:22:39Z</time>
      </trkpt>
      <trkpt lat="42.69619" lon="1.4022">
        <ele>1893.93</ele>
        <time>2016-09-27T09:22:43Z</time>
      </trkpt>
      <trkpt lat="42.69612" lon="1.40219">
        <ele>1894.42</ele>
        <time>2016-09-27T09:22:52Z</time>
      </trkpt>
      <trkpt lat="42.69606" lon="1.40212">
        <ele>1895.86</ele>
        <time>2016-09-27T09:23:05Z</time>
      </trkpt>
      <trkpt lat="42.69602" lon="1.40215">
        <ele>1897.78</ele>
        <time>2016-09-27T09:23:15Z</time>
      </trkpt>
      <trkpt lat="42.69601" lon="1.40215">
        <ele>1898.26</ele>
        <time>2016-09-27T09:23:17Z</time>
      </trkpt>
      <trkpt lat="42.69594" lon="1.40214">
        <ele>1900.18</ele>
        <time>2016-09-27T09:23:28Z</time>
      </trkpt>
      <trkpt lat="42.69592" lon="1.40213">
        <ele>1900.66</ele>
        <time>2016-09-27T09:23:30Z</time>
      </trkpt>
      <trkpt lat="42.69584" lon="1.40206">
        <ele>1902.11</ele>
        <time>2016-09-27T09:23:42Z</time>
      </trkpt>
      <trkpt lat="42.69579" lon="1.402">
        <ele>1902.11</ele>
        <time>2016-09-27T09:23:50Z</time>
      </trkpt>
      <trkpt lat="42.6957" lon="1.4019">
        <ele>1903.55</ele>
        <time>2016-09-27T09:24:04Z</time>
      </trkpt>
      <trkpt lat="42.69563" lon="1.40182">
        <ele>1904.03</ele>
        <time>2016-09-27T09:24:14Z</time>
      </trkpt>
      <trkpt lat="42.69554" lon="1.40178">
        <ele>1905.47</ele>
        <time>2016-09-27T09:24:27Z</time>
      </trkpt>
      <trkpt lat="42.6955" lon="1.4017">
        <ele>1906.43</ele>
        <time>2016-09-27T09:24:36Z</time>
      </trkpt>
      <trkpt lat="42.69546" lon="1.40163">
        <ele>1906.91</ele>
        <time>2016-09-27T09:24:44Z</time>
      </trkpt>
      <trkpt lat="42.69544" lon="1.40161">
        <ele>1906.91</ele>
        <time>2016-09-27T09:24:46Z</time>
      </trkpt>
      <trkpt lat="42.6954" lon="1.40156">
        <ele>1906.91</ele>
        <time>2016-09-27T09:24:53Z</time>
      </trkpt>
      <trkpt lat="42.69538" lon="1.40156">
        <ele>1907.39</ele>
        <time>2016-09-27T09:24:56Z</time>
      </trkpt>
      <trkpt lat="42.69532" lon="1.40151">
        <ele>1908.83</ele>
        <time>2016-09-27T09:25:06Z</time>
      </trkpt>
      <trkpt lat="42.6953" lon="1.40144">
        <ele>1910.28</ele>
        <time>2016-09-27T09:25:17Z</time>
      </trkpt>
      <trkpt lat="42.69529" lon="1.40133">
        <ele>1912.2</ele>
        <time>2016-09-27T09:25:29Z</time>
      </trkpt>
      <trkpt lat="42.69525" lon="1.40127">
        <ele>1914.6</ele>
        <time>2016-09-27T09:25:40Z</time>
      </trkpt>
      <trkpt lat="42.69522" lon="1.40117">
        <ele>1916.53</ele>
        <time>2016-09-27T09:25:53Z</time>
      </trkpt>
      <trkpt lat="42.69522" lon="1.40116">
        <ele>1917.97</ele>
        <time>2016-09-27T09:26:15Z</time>
      </trkpt>
      <trkpt lat="42.6952" lon="1.40116">
        <ele>1918.45</ele>
        <time>2016-09-27T09:26:26Z</time>
      </trkpt>
      <trkpt lat="42.69518" lon="1.40114">
        <ele>1919.41</ele>
        <time>2016-09-27T09:26:32Z</time>
      </trkpt>
      <trkpt lat="42.69515" lon="1.40105">
        <ele>1920.85</ele>
        <time>2016-09-27T09:26:44Z</time>
      </trkpt>
      <trkpt lat="42.6951" lon="1.40095">
        <ele>1922.29</ele>
        <time>2016-09-27T09:26:57Z</time>
      </trkpt>
      <trkpt lat="42.69507" lon="1.40088">
        <ele>1924.7</ele>
        <time>2016-09-27T09:27:09Z</time>
      </trkpt>
      <trkpt lat="42.69505" lon="1.4008">
        <ele>1926.62</ele>
        <time>2016-09-27T09:27:22Z</time>
      </trkpt>
      <trkpt lat="42.69504" lon="1.40072">
        <ele>1928.54</ele>
        <time>2016-09-27T09:27:32Z</time>
      </trkpt>
      <trkpt lat="42.69503" lon="1.40068">
        <ele>1930.46</ele>
        <time>2016-09-27T09:27:47Z</time>
      </trkpt>
      <trkpt lat="42.69503" lon="1.40066">
        <ele>1930.46</ele>
        <time>2016-09-27T09:27:49Z</time>
      </trkpt>
      <trkpt lat="42.69504" lon="1.40056">
        <ele>1931.43</ele>
        <time>2016-09-27T09:27:59Z</time>
      </trkpt>
      <trkpt lat="42.69501" lon="1.40048">
        <ele>1933.83</ele>
        <time>2016-09-27T09:28:11Z</time>
      </trkpt>
      <trkpt lat="42.695" lon="1.40039">
        <ele>1935.75</ele>
        <time>2016-09-27T09:28:22Z</time>
      </trkpt>
      <trkpt lat="42.69499" lon="1.40039">
        <ele>1935.75</ele>
        <time>2016-09-27T09:28:25Z</time>
      </trkpt>
      <trkpt lat="42.69498" lon="1.40031">
        <ele>1938.16</ele>
        <time>2016-09-27T09:28:36Z</time>
      </trkpt>
      <trkpt lat="42.69497" lon="1.4003">
        <ele>1939.12</ele>
        <time>2016-09-27T09:28:55Z</time>
      </trkpt>
      <trkpt lat="42.69497" lon="1.4003">
        <ele>1939.6</ele>
        <time>2016-09-27T09:29:02Z</time>
      </trkpt>
      <trkpt lat="42.69494" lon="1.40017">
        <ele>1940.08</ele>
        <time>2016-09-27T09:29:15Z</time>
      </trkpt>
      <trkpt lat="42.69493" lon="1.4001">
        <ele>1941.04</ele>
        <time>2016-09-27T09:29:24Z</time>
      </trkpt>
      <trkpt lat="42.69491" lon="1.40003">
        <ele>1942</ele>
        <time>2016-09-27T09:29:34Z</time>
      </trkpt>
      <trkpt lat="42.69491" lon="1.39996">
        <ele>1943.92</ele>
        <time>2016-09-27T09:29:44Z</time>
      </trkpt>
      <trkpt lat="42.69488" lon="1.3999">
        <ele>1946.33</ele>
        <time>2016-09-27T09:29:55Z</time>
      </trkpt>
      <trkpt lat="42.69488" lon="1.39984">
        <ele>1947.77</ele>
        <time>2016-09-27T09:30:05Z</time>
      </trkpt>
      <trkpt lat="42.6949" lon="1.39981">
        <ele>1951.13</ele>
        <time>2016-09-27T09:30:14Z</time>
      </trkpt>
      <trkpt lat="42.69493" lon="1.39971">
        <ele>1952.09</ele>
        <time>2016-09-27T09:30:28Z</time>
      </trkpt>
      <trkpt lat="42.6949" lon="1.39964">
        <ele>1954.02</ele>
        <time>2016-09-27T09:30:42Z</time>
      </trkpt>
      <trkpt lat="42.69491" lon="1.39961">
        <ele>1955.46</ele>
        <time>2016-09-27T09:30:49Z</time>
      </trkpt>
      <trkpt lat="42.69489" lon="1.39957">
        <ele>1956.42</ele>
        <time>2016-09-27T09:30:58Z</time>
      </trkpt>
      <trkpt lat="42.6949" lon="1.39957">
        <ele>1957.86</ele>
        <time>2016-09-27T09:31:10Z</time>
      </trkpt>
      <trkpt lat="42.69492" lon="1.39957">
        <ele>1958.82</ele>
        <time>2016-09-27T09:31:23Z</time>
      </trkpt>
      <trkpt lat="42.69492" lon="1.39957">
        <ele>1958.82</ele>
        <time>2016-09-27T09:31:32Z</time>
      </trkpt>
      <trkpt lat="42.69492" lon="1.39953">
        <ele>1959.3</ele>
        <time>2016-09-27T09:31:39Z</time>
      </trkpt>
      <trkpt lat="42.69492" lon="1.39946">
        <ele>1960.27</ele>
        <time>2016-09-27T09:31:50Z</time>
      </trkpt>
      <trkpt lat="42.6949" lon="1.39944">
        <ele>1962.19</ele>
        <time>2016-09-27T09:32:01Z</time>
      </trkpt>
      <trkpt lat="42.69487" lon="1.39939">
        <ele>1964.59</ele>
        <time>2016-09-27T09:32:11Z</time>
      </trkpt>
      <trkpt lat="42.69487" lon="1.39938">
        <ele>1964.59</ele>
        <time>2016-09-27T09:32:13Z</time>
      </trkpt>
      <trkpt lat="42.69486" lon="1.39933">
        <ele>1965.07</ele>
        <time>2016-09-27T09:32:17Z</time>
      </trkpt>
      <trkpt lat="42.69483" lon="1.39923">
        <ele>1966.99</ele>
        <time>2016-09-27T09:32:28Z</time>
      </trkpt>
      <trkpt lat="42.69483" lon="1.39922">
        <ele>1968.44</ele>
        <time>2016-09-27T09:32:42Z</time>
      </trkpt>
      <trkpt lat="42.69483" lon="1.39922">
        <ele>1968.92</ele>
        <time>2016-09-27T09:32:57Z</time>
      </trkpt>
      <trkpt lat="42.69484" lon="1.39922">
        <ele>1969.4</ele>
        <time>2016-09-27T09:33:06Z</time>
      </trkpt>
      <trkpt lat="42.69483" lon="1.39912">
        <ele>1969.4</ele>
        <time>2016-09-27T09:33:17Z</time>
      </trkpt>
      <trkpt lat="42.69484" lon="1.39903">
        <ele>1971.32</ele>
        <time>2016-09-27T09:33:28Z</time>
      </trkpt>
      <trkpt lat="42.69484" lon="1.39902">
        <ele>1972.28</ele>
        <time>2016-09-27T09:33:36Z</time>
      </trkpt>
      <trkpt lat="42.69485" lon="1.39899">
        <ele>1973.72</ele>
        <time>2016-09-27T09:33:47Z</time>
      </trkpt>
      <trkpt lat="42.69484" lon="1.39898">
        <ele>1975.17</ele>
        <time>2016-09-27T09:34:08Z</time>
      </trkpt>
      <trkpt lat="42.69483" lon="1.39897">
        <ele>1975.17</ele>
        <time>2016-09-27T09:34:26Z</time>
      </trkpt>
      <trkpt lat="42.69482" lon="1.39888">
        <ele>1976.61</ele>
        <time>2016-09-27T09:34:38Z</time>
      </trkpt>
      <trkpt lat="42.69481" lon="1.39882">
        <ele>1978.53</ele>
        <time>2016-09-27T09:34:50Z</time>
      </trkpt>
      <trkpt lat="42.69479" lon="1.39879">
        <ele>1979.97</ele>
        <time>2016-09-27T09:35:06Z</time>
      </trkpt>
      <trkpt lat="42.69481" lon="1.39869">
        <ele>1980.93</ele>
        <time>2016-09-27T09:35:17Z</time>
      </trkpt>
      <trkpt lat="42.69482" lon="1.39864">
        <ele>1981.41</ele>
        <time>2016-09-27T09:35:24Z</time>
      </trkpt>
      <trkpt lat="42.69485" lon="1.39854">
        <ele>1982.86</ele>
        <time>2016-09-27T09:35:36Z</time>
      </trkpt>
      <trkpt lat="42.69485" lon="1.39845">
        <ele>1983.82</ele>
        <time>2016-09-27T09:35:46Z</time>
      </trkpt>
      <trkpt lat="42.69486" lon="1.39835">
        <ele>1985.74</ele>
        <time>2016-09-27T09:35:58Z</time>
      </trkpt>
      <trkpt lat="42.69488" lon="1.39833">
        <ele>1986.22</ele>
        <time>2016-09-27T09:36:05Z</time>
      </trkpt>
      <trkpt lat="42.69488" lon="1.3983">
        <ele>1987.66</ele>
        <time>2016-09-27T09:36:17Z</time>
      </trkpt>
      <trkpt lat="42.69489" lon="1.39829">
        <ele>1988.62</ele>
        <time>2016-09-27T09:36:36Z</time>
      </trkpt>
      <trkpt lat="42.69489" lon="1.39825">
        <ele>1989.1</ele>
        <time>2016-09-27T09:36:52Z</time>
      </trkpt>
      <trkpt lat="42.69489" lon="1.39821">
        <ele>1989.59</ele>
        <time>2016-09-27T09:37:00Z</time>
      </trkpt>
      <trkpt lat="42.69487" lon="1.39815">
        <ele>1990.55</ele>
        <time>2016-09-27T09:37:10Z</time>
      </trkpt>
      <trkpt lat="42.69489" lon="1.39811">
        <ele>1991.99</ele>
        <time>2016-09-27T09:37:18Z</time>
      </trkpt>
      <trkpt lat="42.6949" lon="1.39805">
        <ele>1993.43</ele>
        <time>2016-09-27T09:37:30Z</time>
      </trkpt>
      <trkpt lat="42.69493" lon="1.39799">
        <ele>1995.35</ele>
        <time>2016-09-27T09:37:41Z</time>
      </trkpt>
      <trkpt lat="42.69494" lon="1.39795">
        <ele>1996.8</ele>
        <time>2016-09-27T09:37:51Z</time>
      </trkpt>
      <trkpt lat="42.69494" lon="1.39788">
        <ele>1998.72</ele>
        <time>2016-09-27T09:38:03Z</time>
      </trkpt>
      <trkpt lat="42.69494" lon="1.39782">
        <ele>2000.64</ele>
        <time>2016-09-27T09:38:15Z</time>
      </trkpt>
      <trkpt lat="42.69496" lon="1.39779">
        <ele>2001.12</ele>
        <time>2016-09-27T09:38:19Z</time>
      </trkpt>
      <trkpt lat="42.69501" lon="1.39775">
        <ele>2003.04</ele>
        <time>2016-09-27T09:38:31Z</time>
      </trkpt>
      <trkpt lat="42.69502" lon="1.39774">
        <ele>2003.52</ele>
        <time>2016-09-27T09:38:45Z</time>
      </trkpt>
      <trkpt lat="42.69504" lon="1.39773">
        <ele>2003.52</ele>
        <time>2016-09-27T09:39:02Z</time>
      </trkpt>
      <trkpt lat="42.69505" lon="1.39772">
        <ele>2003.52</ele>
        <time>2016-09-27T09:39:03Z</time>
      </trkpt>
      <trkpt lat="42.69509" lon="1.39765">
        <ele>2003.52</ele>
        <time>2016-09-27T09:39:14Z</time>
      </trkpt>
      <trkpt lat="42.69509" lon="1.39764">
        <ele>2003.52</ele>
        <time>2016-09-27T09:39:15Z</time>
      </trkpt>
      <trkpt lat="42.6951" lon="1.39761">
        <ele>2003.52</ele>
        <time>2016-09-27T09:39:18Z</time>
      </trkpt>
      <trkpt lat="42.69513" lon="1.39755">
        <ele>2004.49</ele>
        <time>2016-09-27T09:39:28Z</time>
      </trkpt>
      <trkpt lat="42.69515" lon="1.39746">
        <ele>2005.45</ele>
        <time>2016-09-27T09:39:38Z</time>
      </trkpt>
      <trkpt lat="42.69518" lon="1.39737">
        <ele>2006.41</ele>
        <time>2016-09-27T09:39:47Z</time>
      </trkpt>
      <trkpt lat="42.69518" lon="1.39731">
        <ele>2006.89</ele>
        <time>2016-09-27T09:39:58Z</time>
      </trkpt>
      <trkpt lat="42.69514" lon="1.39733">
        <ele>2007.85</ele>
        <time>2016-09-27T09:40:12Z</time>
      </trkpt>
      <trkpt lat="42.69513" lon="1.39725">
        <ele>2009.77</ele>
        <time>2016-09-27T09:40:23Z</time>
      </trkpt>
      <trkpt lat="42.69513" lon="1.39724">
        <ele>2009.77</ele>
        <time>2016-09-27T09:40:25Z</time>
      </trkpt>
      <trkpt lat="42.69511" lon="1.39718">
        <ele>2012.18</ele>
        <time>2016-09-27T09:40:36Z</time>
      </trkpt>
      <trkpt lat="42.69511" lon="1.39713">
        <ele>2013.14</ele>
        <time>2016-09-27T09:40:47Z</time>
      </trkpt>
      <trkpt lat="42.6951" lon="1.39707">
        <ele>2015.54</ele>
        <time>2016-09-27T09:40:59Z</time>
      </trkpt>
      <trkpt lat="42.6951" lon="1.39706">
        <ele>2016.98</ele>
        <time>2016-09-27T09:41:15Z</time>
      </trkpt>
      <trkpt lat="42.6951" lon="1.39706">
        <ele>2016.98</ele>
        <time>2016-09-27T09:41:40Z</time>
      </trkpt>
      <trkpt lat="42.6951" lon="1.39701">
        <ele>2017.94</ele>
        <time>2016-09-27T09:41:50Z</time>
      </trkpt>
      <trkpt lat="42.69508" lon="1.39693">
        <ele>2019.87</ele>
        <time>2016-09-27T09:42:05Z</time>
      </trkpt>
      <trkpt lat="42.69507" lon="1.39687">
        <ele>2023.71</ele>
        <time>2016-09-27T09:42:17Z</time>
      </trkpt>
      <trkpt lat="42.69506" lon="1.39685">
        <ele>2026.12</ele>
        <time>2016-09-27T09:42:21Z</time>
      </trkpt>
      <trkpt lat="42.69506" lon="1.39682">
        <ele>2028.52</ele>
        <time>2016-09-27T09:42:34Z</time>
      </trkpt>
      <trkpt lat="42.69505" lon="1.39678">
        <ele>2028.52</ele>
        <time>2016-09-27T09:42:46Z</time>
      </trkpt>
      <trkpt lat="42.69504" lon="1.39673">
        <ele>2029.48</ele>
        <time>2016-09-27T09:42:55Z</time>
      </trkpt>
      <trkpt lat="42.69504" lon="1.3967">
        <ele>2030.44</ele>
        <time>2016-09-27T09:43:09Z</time>
      </trkpt>
      <trkpt lat="42.69502" lon="1.3967">
        <ele>2032.36</ele>
        <time>2016-09-27T09:43:21Z</time>
      </trkpt>
      <trkpt lat="42.69503" lon="1.39665">
        <ele>2033.81</ele>
        <time>2016-09-27T09:43:32Z</time>
      </trkpt>
      <trkpt lat="42.69502" lon="1.39659">
        <ele>2035.25</ele>
        <time>2016-09-27T09:43:43Z</time>
      </trkpt>
      <trkpt lat="42.69502" lon="1.39652">
        <ele>2036.69</ele>
        <time>2016-09-27T09:43:54Z</time>
      </trkpt>
      <trkpt lat="42.69502" lon="1.39653">
        <ele>2038.13</ele>
        <time>2016-09-27T09:44:13Z</time>
      </trkpt>
      <trkpt lat="42.69503" lon="1.39647">
        <ele>2038.13</ele>
        <time>2016-09-27T09:44:29Z</time>
      </trkpt>
      <trkpt lat="42.69502" lon="1.39639">
        <ele>2039.09</ele>
        <time>2016-09-27T09:44:39Z</time>
      </trkpt>
      <trkpt lat="42.69498" lon="1.39635">
        <ele>2041.02</ele>
        <time>2016-09-27T09:44:50Z</time>
      </trkpt>
      <trkpt lat="42.69496" lon="1.39629">
        <ele>2042.94</ele>
        <time>2016-09-27T09:45:00Z</time>
      </trkpt>
      <trkpt lat="42.69494" lon="1.39628">
        <ele>2045.34</ele>
        <time>2016-09-27T09:45:11Z</time>
      </trkpt>
      <trkpt lat="42.69491" lon="1.39622">
        <ele>2047.75</ele>
        <time>2016-09-27T09:45:25Z</time>
      </trkpt>
      <trkpt lat="42.69486" lon="1.39617">
        <ele>2049.19</ele>
        <time>2016-09-27T09:45:34Z</time>
      </trkpt>
      <trkpt lat="42.69484" lon="1.39613">
        <ele>2050.15</ele>
        <time>2016-09-27T09:45:46Z</time>
      </trkpt>
      <trkpt lat="42.69481" lon="1.39612">
        <ele>2052.07</ele>
        <time>2016-09-27T09:45:56Z</time>
      </trkpt>
      <trkpt lat="42.69476" lon="1.39612">
        <ele>2053.03</ele>
        <time>2016-09-27T09:46:07Z</time>
      </trkpt>
      <trkpt lat="42.69474" lon="1.39613">
        <ele>2055.44</ele>
        <time>2016-09-27T09:46:20Z</time>
      </trkpt>
      <trkpt lat="42.69472" lon="1.39611">
        <ele>2056.4</ele>
        <time>2016-09-27T09:46:38Z</time>
      </trkpt>
      <trkpt lat="42.69471" lon="1.39607">
        <ele>2056.88</ele>
        <time>2016-09-27T09:46:45Z</time>
      </trkpt>
      <trkpt lat="42.69468" lon="1.39603">
        <ele>2058.32</ele>
        <time>2016-09-27T09:46:54Z</time>
      </trkpt>
      <trkpt lat="42.69463" lon="1.39596">
        <ele>2060.24</ele>
        <time>2016-09-27T09:47:05Z</time>
      </trkpt>
      <trkpt lat="42.69459" lon="1.39598">
        <ele>2062.17</ele>
        <time>2016-09-27T09:47:18Z</time>
      </trkpt>
      <trkpt lat="42.69458" lon="1.39596">
        <ele>2065.53</ele>
        <time>2016-09-27T09:47:25Z</time>
      </trkpt>
      <trkpt lat="42.69454" lon="1.39593">
        <ele>2068.41</ele>
        <time>2016-09-27T09:47:37Z</time>
      </trkpt>
      <trkpt lat="42.69451" lon="1.39587">
        <ele>2068.41</ele>
        <time>2016-09-27T09:47:48Z</time>
      </trkpt>
      <trkpt lat="42.69447" lon="1.39583">
        <ele>2070.34</ele>
        <time>2016-09-27T09:47:59Z</time>
      </trkpt>
      <trkpt lat="42.69445" lon="1.39582">
        <ele>2071.3</ele>
        <time>2016-09-27T09:48:12Z</time>
      </trkpt>
      <trkpt lat="42.6944" lon="1.39583">
        <ele>2072.26</ele>
        <time>2016-09-27T09:48:24Z</time>
      </trkpt>
      <trkpt lat="42.69439" lon="1.39585">
        <ele>2074.66</ele>
        <time>2016-09-27T09:48:36Z</time>
      </trkpt>
      <trkpt lat="42.69432" lon="1.39588">
        <ele>2075.62</ele>
        <time>2016-09-27T09:48:45Z</time>
      </trkpt>
      <trkpt lat="42.69424" lon="1.39587">
        <ele>2077.07</ele>
        <time>2016-09-27T09:48:57Z</time>
      </trkpt>
      <trkpt lat="42.69419" lon="1.396">
        <ele>2078.51</ele>
        <time>2016-09-27T09:49:08Z</time>
      </trkpt>
      <trkpt lat="42.69414" lon="1.39599">
        <ele>2080.91</ele>
        <time>2016-09-27T09:49:20Z</time>
      </trkpt>
      <trkpt lat="42.69413" lon="1.396">
        <ele>2081.39</ele>
        <time>2016-09-27T09:49:24Z</time>
      </trkpt>
      <trkpt lat="42.69405" lon="1.39607">
        <ele>2083.31</ele>
        <time>2016-09-27T09:49:37Z</time>
      </trkpt>
      <trkpt lat="42.69399" lon="1.39605">
        <ele>2085.24</ele>
        <time>2016-09-27T09:49:47Z</time>
      </trkpt>
      <trkpt lat="42.69397" lon="1.39605">
        <ele>2085.24</ele>
        <time>2016-09-27T09:49:52Z</time>
      </trkpt>
      <trkpt lat="42.69394" lon="1.39605">
        <ele>2087.16</ele>
        <time>2016-09-27T09:50:01Z</time>
      </trkpt>
      <trkpt lat="42.69393" lon="1.39606">
        <ele>2089.56</ele>
        <time>2016-09-27T09:50:15Z</time>
      </trkpt>
      <trkpt lat="42.69389" lon="1.3961">
        <ele>2091</ele>
        <time>2016-09-27T09:50:26Z</time>
      </trkpt>
      <trkpt lat="42.69387" lon="1.39611">
        <ele>2092.45</ele>
        <time>2016-09-27T09:50:45Z</time>
      </trkpt>
      <trkpt lat="42.69386" lon="1.39611">
        <ele>2092.93</ele>
        <time>2016-09-27T09:51:08Z</time>
      </trkpt>
      <trkpt lat="42.69385" lon="1.39612">
        <ele>2093.41</ele>
        <time>2016-09-27T09:51:14Z</time>
      </trkpt>
      <trkpt lat="42.69379" lon="1.3961">
        <ele>2094.37</ele>
        <time>2016-09-27T09:51:24Z</time>
      </trkpt>
      <trkpt lat="42.69373" lon="1.39614">
        <ele>2096.29</ele>
        <time>2016-09-27T09:51:36Z</time>
      </trkpt>
      <trkpt lat="42.69367" lon="1.39616">
        <ele>2098.21</ele>
        <time>2016-09-27T09:51:47Z</time>
      </trkpt>
      <trkpt lat="42.69364" lon="1.39617">
        <ele>2098.7</ele>
        <time>2016-09-27T09:51:52Z</time>
      </trkpt>
      <trkpt lat="42.69363" lon="1.39617">
        <ele>2102.54</ele>
        <time>2016-09-27T09:51:58Z</time>
      </trkpt>
      <trkpt lat="42.6936" lon="1.3962">
        <ele>2103.98</ele>
        <time>2016-09-27T09:52:12Z</time>
      </trkpt>
      <trkpt lat="42.69357" lon="1.39627">
        <ele>2103.98</ele>
        <time>2016-09-27T09:52:22Z</time>
      </trkpt>
      <trkpt lat="42.69356" lon="1.3963">
        <ele>2103.98</ele>
        <time>2016-09-27T09:52:29Z</time>
      </trkpt>
      <trkpt lat="42.69355" lon="1.39633">
        <ele>2103.98</ele>
        <time>2016-09-27T09:52:34Z</time>
      </trkpt>
      <trkpt lat="42.69352" lon="1.39631">
        <ele>2105.42</ele>
        <time>2016-09-27T09:52:45Z</time>
      </trkpt>
      <trkpt lat="42.69349" lon="1.39632">
        <ele>2107.35</ele>
        <time>2016-09-27T09:52:57Z</time>
      </trkpt>
      <trkpt lat="42.69346" lon="1.39631">
        <ele>2109.27</ele>
        <time>2016-09-27T09:53:20Z</time>
      </trkpt>
      <trkpt lat="42.69342" lon="1.39626">
        <ele>2110.23</ele>
        <time>2016-09-27T09:53:31Z</time>
      </trkpt>
      <trkpt lat="42.69341" lon="1.39626">
        <ele>2111.67</ele>
        <time>2016-09-27T09:53:40Z</time>
      </trkpt>
      <trkpt lat="42.69338" lon="1.39627">
        <ele>2114.08</ele>
        <time>2016-09-27T09:53:52Z</time>
      </trkpt>
      <trkpt lat="42.69337" lon="1.39627">
        <ele>2117.44</ele>
        <time>2016-09-27T09:53:57Z</time>
      </trkpt>
      <trkpt lat="42.69334" lon="1.39625">
        <ele>2119.36</ele>
        <time>2016-09-27T09:54:09Z</time>
      </trkpt>
      <trkpt lat="42.69331" lon="1.39623">
        <ele>2119.36</ele>
        <time>2016-09-27T09:54:31Z</time>
      </trkpt>
      <trkpt lat="42.6933" lon="1.39622">
        <ele>2119.36</ele>
        <time>2016-09-27T09:54:49Z</time>
      </trkpt>
      <trkpt lat="42.69329" lon="1.39621">
        <ele>2119.84</ele>
        <time>2016-09-27T09:55:01Z</time>
      </trkpt>
      <trkpt lat="42.69327" lon="1.39622">
        <ele>2121.77</ele>
        <time>2016-09-27T09:55:11Z</time>
      </trkpt>
      <trkpt lat="42.69321" lon="1.39623">
        <ele>2123.21</ele>
        <time>2016-09-27T09:55:21Z</time>
      </trkpt>
      <trkpt lat="42.69319" lon="1.39625">
        <ele>2125.61</ele>
        <time>2016-09-27T09:55:33Z</time>
      </trkpt>
      <trkpt lat="42.69318" lon="1.39629">
        <ele>2125.61</ele>
        <time>2016-09-27T09:55:37Z</time>
      </trkpt>
      <trkpt lat="42.69317" lon="1.39631">
        <ele>2127.05</ele>
        <time>2016-09-27T09:55:48Z</time>
      </trkpt>
      <trkpt lat="42.69316" lon="1.39629">
        <ele>2128.5</ele>
        <time>2016-09-27T09:55:58Z</time>
      </trkpt>
      <trkpt lat="42.69315" lon="1.39629">
        <ele>2129.46</ele>
        <time>2016-09-27T09:56:09Z</time>
      </trkpt>
      <trkpt lat="42.69314" lon="1.39628">
        <ele>2130.42</ele>
        <time>2016-09-27T09:56:37Z</time>
      </trkpt>
      <trkpt lat="42.69312" lon="1.39627">
        <ele>2130.9</ele>
        <time>2016-09-27T09:56:54Z</time>
      </trkpt>
      <trkpt lat="42.69311" lon="1.39625">
        <ele>2133.3</ele>
        <time>2016-09-27T09:57:09Z</time>
      </trkpt>
      <trkpt lat="42.6931" lon="1.39625">
        <ele>2133.78</ele>
        <time>2016-09-27T09:57:12Z</time>
      </trkpt>
      <trkpt lat="42.69309" lon="1.39632">
        <ele>2135.23</ele>
        <time>2016-09-27T09:57:24Z</time>
      </trkpt>
      <trkpt lat="42.69304" lon="1.39628">
        <ele>2136.67</ele>
        <time>2016-09-27T09:57:34Z</time>
      </trkpt>
      <trkpt lat="42.69304" lon="1.39629">
        <ele>2138.11</ele>
        <time>2016-09-27T09:57:45Z</time>
      </trkpt>
      <trkpt lat="42.69303" lon="1.39629">
        <ele>2140.03</ele>
        <time>2016-09-27T09:57:57Z</time>
      </trkpt>
      <trkpt lat="42.69301" lon="1.39628">
        <ele>2141.95</ele>
        <time>2016-09-27T09:58:11Z</time>
      </trkpt>
      <trkpt lat="42.69296" lon="1.39623">
        <ele>2144.36</ele>
        <time>2016-09-27T09:58:22Z</time>
      </trkpt>
      <trkpt lat="42.69296" lon="1.39616">
        <ele>2146.76</ele>
        <time>2016-09-27T09:58:36Z</time>
      </trkpt>
      <trkpt lat="42.69294" lon="1.3961">
        <ele>2148.2</ele>
        <time>2016-09-27T09:58:47Z</time>
      </trkpt>
      <trkpt lat="42.69294" lon="1.39608">
        <ele>2149.16</ele>
        <time>2016-09-27T09:59:06Z</time>
      </trkpt>
      <trkpt lat="42.69293" lon="1.39607">
        <ele>2150.61</ele>
        <time>2016-09-27T09:59:11Z</time>
      </trkpt>
      <trkpt lat="42.69293" lon="1.39605">
        <ele>2152.05</ele>
        <time>2016-09-27T09:59:22Z</time>
      </trkpt>
      <trkpt lat="42.6929" lon="1.39599">
        <ele>2154.45</ele>
        <time>2016-09-27T09:59:34Z</time>
      </trkpt>
      <trkpt lat="42.69288" lon="1.39598">
        <ele>2154.93</ele>
        <time>2016-09-27T09:59:38Z</time>
      </trkpt>
      <trkpt lat="42.69282" lon="1.39597">
        <ele>2156.86</ele>
        <time>2016-09-27T09:59:51Z</time>
      </trkpt>
      <trkpt lat="42.6928" lon="1.39592">
        <ele>2157.82</ele>
        <time>2016-09-27T10:00:02Z</time>
      </trkpt>
      <trkpt lat="42.6928" lon="1.39592">
        <ele>2159.74</ele>
        <time>2016-09-27T10:00:17Z</time>
      </trkpt>
      <trkpt lat="42.69279" lon="1.39592">
        <ele>2161.66</ele>
        <time>2016-09-27T10:00:24Z</time>
      </trkpt>
      <trkpt lat="42.69277" lon="1.39592">
        <ele>2163.1</ele>
        <time>2016-09-27T10:00:36Z</time>
      </trkpt>
      <trkpt lat="42.69273" lon="1.39592">
        <ele>2165.03</ele>
        <time>2016-09-27T10:00:47Z</time>
      </trkpt>
      <trkpt lat="42.69267" lon="1.3959">
        <ele>2166.95</ele>
        <time>2016-09-27T10:00:58Z</time>
      </trkpt>
      <trkpt lat="42.69264" lon="1.39587">
        <ele>2168.39</ele>
        <time>2016-09-27T10:01:09Z</time>
      </trkpt>
      <trkpt lat="42.69263" lon="1.39586">
        <ele>2169.83</ele>
        <time>2016-09-27T10:01:20Z</time>
      </trkpt>
      <trkpt lat="42.69263" lon="1.39586">
        <ele>2170.79</ele>
        <time>2016-09-27T10:01:35Z</time>
      </trkpt>
      <trkpt lat="42.6926" lon="1.39583">
        <ele>2171.27</ele>
        <time>2016-09-27T10:01:42Z</time>
      </trkpt>
      <trkpt lat="42.69256" lon="1.39581">
        <ele>2172.72</ele>
        <time>2016-09-27T10:01:53Z</time>
      </trkpt>
      <trkpt lat="42.69252" lon="1.39579">
        <ele>2175.12</ele>
        <time>2016-09-27T10:02:05Z</time>
      </trkpt>
      <trkpt lat="42.69249" lon="1.39575">
        <ele>2176.56</ele>
        <time>2016-09-27T10:02:16Z</time>
      </trkpt>
      <trkpt lat="42.69247" lon="1.39575">
        <ele>2177.52</ele>
        <time>2016-09-27T10:02:31Z</time>
      </trkpt>
      <trkpt lat="42.69245" lon="1.39572">
        <ele>2178.48</ele>
        <time>2016-09-27T10:02:41Z</time>
      </trkpt>
      <trkpt lat="42.69241" lon="1.39572">
        <ele>2179.93</ele>
        <time>2016-09-27T10:02:54Z</time>
      </trkpt>
      <trkpt lat="42.69237" lon="1.39568">
        <ele>2181.37</ele>
        <time>2016-09-27T10:03:02Z</time>
      </trkpt>
      <trkpt lat="42.69233" lon="1.39566">
        <ele>2182.81</ele>
        <time>2016-09-27T10:03:13Z</time>
      </trkpt>
      <trkpt lat="42.69232" lon="1.39566">
        <ele>2183.77</ele>
        <time>2016-09-27T10:03:16Z</time>
      </trkpt>
      <trkpt lat="42.6923" lon="1.39564">
        <ele>2185.21</ele>
        <time>2016-09-27T10:03:28Z</time>
      </trkpt>
      <trkpt lat="42.69224" lon="1.39558">
        <ele>2186.18</ele>
        <time>2016-09-27T10:03:40Z</time>
      </trkpt>
      <trkpt lat="42.6922" lon="1.39555">
        <ele>2188.1</ele>
        <time>2016-09-27T10:03:52Z</time>
      </trkpt>
      <trkpt lat="42.69217" lon="1.39552">
        <ele>2190.02</ele>
        <time>2016-09-27T10:04:02Z</time>
      </trkpt>
      <trkpt lat="42.69215" lon="1.39552">
        <ele>2190.98</ele>
        <time>2016-09-27T10:04:12Z</time>
      </trkpt>
      <trkpt lat="42.69213" lon="1.39552">
        <ele>2192.9</ele>
        <time>2016-09-27T10:04:25Z</time>
      </trkpt>
      <trkpt lat="42.69212" lon="1.39555">
        <ele>2194.83</ele>
        <time>2016-09-27T10:04:37Z</time>
      </trkpt>
      <trkpt lat="42.69204" lon="1.39558">
        <ele>2196.27</ele>
        <time>2016-09-27T10:04:50Z</time>
      </trkpt>
      <trkpt lat="42.69199" lon="1.39557">
        <ele>2197.23</ele>
        <time>2016-09-27T10:05:01Z</time>
      </trkpt>
      <trkpt lat="42.69195" lon="1.39555">
        <ele>2199.15</ele>
        <time>2016-09-27T10:05:12Z</time>
      </trkpt>
      <trkpt lat="42.69192" lon="1.39553">
        <ele>2200.11</ele>
        <time>2016-09-27T10:05:31Z</time>
      </trkpt>
      <trkpt lat="42.6919" lon="1.39552">
        <ele>2201.56</ele>
        <time>2016-09-27T10:05:42Z</time>
      </trkpt>
      <trkpt lat="42.69185" lon="1.39553">
        <ele>2203</ele>
        <time>2016-09-27T10:05:52Z</time>
      </trkpt>
      <trkpt lat="42.69176" lon="1.39556">
        <ele>2204.44</ele>
        <time>2016-09-27T10:06:04Z</time>
      </trkpt>
      <trkpt lat="42.69171" lon="1.39558">
        <ele>2205.88</ele>
        <time>2016-09-27T10:06:14Z</time>
      </trkpt>
      <trkpt lat="42.69169" lon="1.39557">
        <ele>2206.36</ele>
        <time>2016-09-27T10:06:17Z</time>
      </trkpt>
      <trkpt lat="42.69162" lon="1.39561">
        <ele>2208.29</ele>
        <time>2016-09-27T10:06:28Z</time>
      </trkpt>
      <trkpt lat="42.69157" lon="1.39561">
        <ele>2210.69</ele>
        <time>2016-09-27T10:06:41Z</time>
      </trkpt>
      <trkpt lat="42.69152" lon="1.3956">
        <ele>2211.17</ele>
        <time>2016-09-27T10:06:52Z</time>
      </trkpt>
      <trkpt lat="42.69147" lon="1.39562">
        <ele>2213.09</ele>
        <time>2016-09-27T10:07:04Z</time>
      </trkpt>
      <trkpt lat="42.69147" lon="1.39562">
        <ele>2213.09</ele>
        <time>2016-09-27T10:07:28Z</time>
      </trkpt>
      <trkpt lat="42.69147" lon="1.39564">
        <ele>2213.09</ele>
        <time>2016-09-27T10:07:35Z</time>
      </trkpt>
      <trkpt lat="42.69141" lon="1.39577">
        <ele>2213.57</ele>
        <time>2016-09-27T10:07:47Z</time>
      </trkpt>
      <trkpt lat="42.69136" lon="1.39591">
        <ele>2215.01</ele>
        <time>2016-09-27T10:08:00Z</time>
      </trkpt>
      <trkpt lat="42.69134" lon="1.39594">
        <ele>2215.5</ele>
        <time>2016-09-27T10:08:04Z</time>
      </trkpt>
      <trkpt lat="42.69127" lon="1.39602">
        <ele>2216.46</ele>
        <time>2016-09-27T10:08:17Z</time>
      </trkpt>
      <trkpt lat="42.69126" lon="1.39613">
        <ele>2217.42</ele>
        <time>2016-09-27T10:08:30Z</time>
      </trkpt>
      <trkpt lat="42.69126" lon="1.39615">
        <ele>2218.38</ele>
        <time>2016-09-27T10:08:32Z</time>
      </trkpt>
      <trkpt lat="42.69125" lon="1.39624">
        <ele>2219.34</ele>
        <time>2016-09-27T10:08:43Z</time>
      </trkpt>
      <trkpt lat="42.69121" lon="1.39632">
        <ele>2220.78</ele>
        <time>2016-09-27T10:08:55Z</time>
      </trkpt>
      <trkpt lat="42.6912" lon="1.39636">
        <ele>2221.26</ele>
        <time>2016-09-27T10:08:59Z</time>
      </trkpt>
      <trkpt lat="42.69119" lon="1.39648">
        <ele>2222.71</ele>
        <time>2016-09-27T10:09:11Z</time>
      </trkpt>
      <trkpt lat="42.69118" lon="1.39649">
        <ele>2222.71</ele>
        <time>2016-09-27T10:09:12Z</time>
      </trkpt>
      <trkpt lat="42.69117" lon="1.39651">
        <ele>2223.67</ele>
        <time>2016-09-27T10:09:28Z</time>
      </trkpt>
      <trkpt lat="42.69117" lon="1.39652">
        <ele>2224.63</ele>
        <time>2016-09-27T10:09:53Z</time>
      </trkpt>
      <trkpt lat="42.69118" lon="1.39653">
        <ele>2224.63</ele>
        <time>2016-09-27T10:09:59Z</time>
      </trkpt>
      <trkpt lat="42.6912" lon="1.39661">
        <ele>2225.11</ele>
        <time>2016-09-27T10:10:11Z</time>
      </trkpt>
      <trkpt lat="42.6912" lon="1.3966">
        <ele>2225.59</ele>
        <time>2016-09-27T10:10:26Z</time>
      </trkpt>
      <trkpt lat="42.69118" lon="1.39661">
        <ele>2225.59</ele>
        <time>2016-09-27T10:10:44Z</time>
      </trkpt>
      <trkpt lat="42.69118" lon="1.39661">
        <ele>2226.07</ele>
        <time>2016-09-27T10:11:07Z</time>
      </trkpt>
      <trkpt lat="42.69117" lon="1.39662">
        <ele>2226.07</ele>
        <time>2016-09-27T10:11:27Z</time>
      </trkpt>
      <trkpt lat="42.69118" lon="1.39661">
        <ele>2226.55</ele>
        <time>2016-09-27T10:11:42Z</time>
      </trkpt>
      <trkpt lat="42.69118" lon="1.3966">
        <ele>2226.55</ele>
        <time>2016-09-27T10:11:57Z</time>
      </trkpt>
      <trkpt lat="42.69115" lon="1.39656">
        <ele>2226.55</ele>
        <time>2016-09-27T10:12:16Z</time>
      </trkpt>
      <trkpt lat="42.69114" lon="1.39657">
        <ele>2226.55</ele>
        <time>2016-09-27T10:12:34Z</time>
      </trkpt>
      <trkpt lat="42.69115" lon="1.39656">
        <ele>2226.55</ele>
        <time>2016-09-27T10:12:59Z</time>
      </trkpt>
      <trkpt lat="42.69115" lon="1.39656">
        <ele>2226.55</ele>
        <time>2016-09-27T10:13:11Z</time>
      </trkpt>
    </trkseg>
  </trk>
  <trk>
    <name><![CDATA[Tracé actuel: 28 SEPT 2016 07:52]]></name>
    <trkseg>
      <trkpt lat="42.68955" lon="1.39567">
        <ele>2197.71</ele>
        <time>2016-09-28T05:52:12Z</time>
      </trkpt>
      <trkpt lat="42.68953" lon="1.39567">
        <ele>2197.71</ele>
        <time>2016-09-28T05:52:13Z</time>
      </trkpt>
      <trkpt lat="42.68947" lon="1.39565">
        <ele>2201.08</ele>
        <time>2016-09-28T05:52:35Z</time>
      </trkpt>
      <trkpt lat="42.68948" lon="1.39565">
        <ele>2203.96</ele>
        <time>2016-09-28T05:52:36Z</time>
      </trkpt>
      <trkpt lat="42.68948" lon="1.39565">
        <ele>2207.32</ele>
        <time>2016-09-28T05:52:37Z</time>
      </trkpt>
      <trkpt lat="42.68947" lon="1.39566">
        <ele>2210.21</ele>
        <time>2016-09-28T05:52:38Z</time>
      </trkpt>
      <trkpt lat="42.68947" lon="1.39566">
        <ele>2215.98</ele>
        <time>2016-09-28T05:52:40Z</time>
      </trkpt>
      <trkpt lat="42.68946" lon="1.39565">
        <ele>2221.26</ele>
        <time>2016-09-28T05:52:42Z</time>
      </trkpt>
      <trkpt lat="42.68946" lon="1.39565">
        <ele>2226.07</ele>
        <time>2016-09-28T05:52:44Z</time>
      </trkpt>
      <trkpt lat="42.68948" lon="1.39565">
        <ele>2230.4</ele>
        <time>2016-09-28T05:52:46Z</time>
      </trkpt>
      <trkpt lat="42.68948" lon="1.39566">
        <ele>2232.32</ele>
        <time>2016-09-28T05:52:48Z</time>
      </trkpt>
      <trkpt lat="42.68948" lon="1.39564">
        <ele>2236.64</ele>
        <time>2016-09-28T05:52:49Z</time>
      </trkpt>
      <trkpt lat="42.68948" lon="1.39565">
        <ele>2240.49</ele>
        <time>2016-09-28T05:52:51Z</time>
      </trkpt>
      <trkpt lat="42.68949" lon="1.39566">
        <ele>2243.85</ele>
        <time>2016-09-28T05:52:53Z</time>
      </trkpt>
      <trkpt lat="42.68949" lon="1.39566">
        <ele>2247.22</ele>
        <time>2016-09-28T05:52:55Z</time>
      </trkpt>
      <trkpt lat="42.68949" lon="1.39566">
        <ele>2250.58</ele>
        <time>2016-09-28T05:52:57Z</time>
      </trkpt>
      <trkpt lat="42.68948" lon="1.39567">
        <ele>2254.91</ele>
        <time>2016-09-28T05:53:00Z</time>
      </trkpt>
      <trkpt lat="42.68948" lon="1.39566">
        <ele>2259.24</ele>
        <time>2016-09-28T05:53:03Z</time>
      </trkpt>
      <trkpt lat="42.68947" lon="1.39567">
        <ele>2262.6</ele>
        <time>2016-09-28T05:53:06Z</time>
      </trkpt>
      <trkpt lat="42.68947" lon="1.39566">
        <ele>2265.96</ele>
        <time>2016-09-28T05:53:09Z</time>
      </trkpt>
      <trkpt lat="42.68949" lon="1.39565">
        <ele>2269.33</ele>
        <time>2016-09-28T05:53:13Z</time>
      </trkpt>
      <trkpt lat="42.68948" lon="1.39566">
        <ele>2272.69</ele>
        <time>2016-09-28T05:53:17Z</time>
      </trkpt>
      <trkpt lat="42.68945" lon="1.39568">
        <ele>2276.06</ele>
        <time>2016-09-28T05:53:22Z</time>
      </trkpt>
      <trkpt lat="42.68946" lon="1.39566">
        <ele>2278.94</ele>
        <time>2016-09-28T05:53:29Z</time>
      </trkpt>
      <trkpt lat="42.68948" lon="1.39565">
        <ele>2282.31</ele>
        <time>2016-09-28T05:53:37Z</time>
      </trkpt>
      <trkpt lat="42.68945" lon="1.39562">
        <ele>2285.19</ele>
        <time>2016-09-28T05:53:47Z</time>
      </trkpt>
      <trkpt lat="42.68944" lon="1.39564">
        <ele>2287.11</ele>
        <time>2016-09-28T05:53:52Z</time>
      </trkpt>
      <trkpt lat="42.68941" lon="1.39568">
        <ele>2288.56</ele>
        <time>2016-09-28T05:53:56Z</time>
      </trkpt>
      <trkpt lat="42.68934" lon="1.39562">
        <ele>2291.44</ele>
        <time>2016-09-28T05:54:06Z</time>
      </trkpt>
      <trkpt lat="42.68932" lon="1.3956">
        <ele>2292.88</ele>
        <time>2016-09-28T05:54:10Z</time>
      </trkpt>
      <trkpt lat="42.68928" lon="1.39555">
        <ele>2296.25</ele>
        <time>2016-09-28T05:54:21Z</time>
      </trkpt>
      <trkpt lat="42.68923" lon="1.3955">
        <ele>2300.57</ele>
        <time>2016-09-28T05:54:32Z</time>
      </trkpt>
      <trkpt lat="42.68923" lon="1.3955">
        <ele>2300.57</ele>
        <time>2016-09-28T05:54:33Z</time>
      </trkpt>
      <trkpt lat="42.68918" lon="1.39553">
        <ele>2301.05</ele>
        <time>2016-09-28T05:54:44Z</time>
      </trkpt>
      <trkpt lat="42.68917" lon="1.39554">
        <ele>2301.53</ele>
        <time>2016-09-28T05:54:48Z</time>
      </trkpt>
      <trkpt lat="42.68915" lon="1.39557">
        <ele>2302.01</ele>
        <time>2016-09-28T05:54:53Z</time>
      </trkpt>
      <trkpt lat="42.6891" lon="1.39561">
        <ele>2303.94</ele>
        <time>2016-09-28T05:55:04Z</time>
      </trkpt>
      <trkpt lat="42.68909" lon="1.39561">
        <ele>2304.42</ele>
        <time>2016-09-28T05:55:07Z</time>
      </trkpt>
      <trkpt lat="42.68902" lon="1.39562">
        <ele>2306.82</ele>
        <time>2016-09-28T05:55:20Z</time>
      </trkpt>
      <trkpt lat="42.689" lon="1.3956">
        <ele>2309.7</ele>
        <time>2016-09-28T05:55:25Z</time>
      </trkpt>
      <trkpt lat="42.68899" lon="1.39559">
        <ele>2312.11</ele>
        <time>2016-09-28T05:55:29Z</time>
      </trkpt>
      <trkpt lat="42.68896" lon="1.3956">
        <ele>2312.11</ele>
        <time>2016-09-28T05:55:38Z</time>
      </trkpt>
      <trkpt lat="42.68891" lon="1.39563">
        <ele>2312.11</ele>
        <time>2016-09-28T05:55:49Z</time>
      </trkpt>
      <trkpt lat="42.68888" lon="1.39567">
        <ele>2314.03</ele>
        <time>2016-09-28T05:56:00Z</time>
      </trkpt>
      <trkpt lat="42.68886" lon="1.39564">
        <ele>2315.47</ele>
        <time>2016-09-28T05:56:11Z</time>
      </trkpt>
      <trkpt lat="42.68881" lon="1.39567">
        <ele>2317.4</ele>
        <time>2016-09-28T05:56:22Z</time>
      </trkpt>
      <trkpt lat="42.68875" lon="1.39568">
        <ele>2319.32</ele>
        <time>2016-09-28T05:56:34Z</time>
      </trkpt>
      <trkpt lat="42.68874" lon="1.39568">
        <ele>2319.32</ele>
        <time>2016-09-28T05:56:35Z</time>
      </trkpt>
      <trkpt lat="42.68873" lon="1.39567">
        <ele>2319.8</ele>
        <time>2016-09-28T05:56:37Z</time>
      </trkpt>
      <trkpt lat="42.68865" lon="1.39571">
        <ele>2320.76</ele>
        <time>2016-09-28T05:56:49Z</time>
      </trkpt>
      <trkpt lat="42.68862" lon="1.39577">
        <ele>2322.2</ele>
        <time>2016-09-28T05:56:59Z</time>
      </trkpt>
      <trkpt lat="42.68862" lon="1.39581">
        <ele>2324.12</ele>
        <time>2016-09-28T05:57:10Z</time>
      </trkpt>
      <trkpt lat="42.68861" lon="1.39584">
        <ele>2326.05</ele>
        <time>2016-09-28T05:57:21Z</time>
      </trkpt>
      <trkpt lat="42.68857" lon="1.39589">
        <ele>2327.97</ele>
        <time>2016-09-28T05:57:32Z</time>
      </trkpt>
      <trkpt lat="42.68855" lon="1.39592">
        <ele>2328.45</ele>
        <time>2016-09-28T05:57:37Z</time>
      </trkpt>
      <trkpt lat="42.68847" lon="1.3959">
        <ele>2329.89</ele>
        <time>2016-09-28T05:57:48Z</time>
      </trkpt>
      <trkpt lat="42.68842" lon="1.39589">
        <ele>2331.33</ele>
        <time>2016-09-28T05:58:01Z</time>
      </trkpt>
      <trkpt lat="42.68838" lon="1.39593">
        <ele>2333.74</ele>
        <time>2016-09-28T05:58:14Z</time>
      </trkpt>
      <trkpt lat="42.68835" lon="1.39592">
        <ele>2335.66</ele>
        <time>2016-09-28T05:58:26Z</time>
      </trkpt>
      <trkpt lat="42.68832" lon="1.39593">
        <ele>2337.1</ele>
        <time>2016-09-28T05:58:38Z</time>
      </trkpt>
      <trkpt lat="42.68831" lon="1.39593">
        <ele>2337.58</ele>
        <time>2016-09-28T05:58:40Z</time>
      </trkpt>
      <trkpt lat="42.68821" lon="1.39592">
        <ele>2338.54</ele>
        <time>2016-09-28T05:58:53Z</time>
      </trkpt>
      <trkpt lat="42.68819" lon="1.39592">
        <ele>2338.54</ele>
        <time>2016-09-28T05:58:55Z</time>
      </trkpt>
      <trkpt lat="42.68815" lon="1.39594">
        <ele>2338.54</ele>
        <time>2016-09-28T05:59:04Z</time>
      </trkpt>
      <trkpt lat="42.68808" lon="1.39591">
        <ele>2337.1</ele>
        <time>2016-09-28T05:59:16Z</time>
      </trkpt>
      <trkpt lat="42.68801" lon="1.39594">
        <ele>2337.1</ele>
        <time>2016-09-28T05:59:26Z</time>
      </trkpt>
      <trkpt lat="42.68793" lon="1.39594">
        <ele>2338.54</ele>
        <time>2016-09-28T05:59:38Z</time>
      </trkpt>
      <trkpt lat="42.68789" lon="1.39597">
        <ele>2339.51</ele>
        <time>2016-09-28T05:59:47Z</time>
      </trkpt>
      <trkpt lat="42.68787" lon="1.39595">
        <ele>2342.87</ele>
        <time>2016-09-28T05:59:55Z</time>
      </trkpt>
      <trkpt lat="42.68781" lon="1.39592">
        <ele>2344.79</ele>
        <time>2016-09-28T06:00:05Z</time>
      </trkpt>
      <trkpt lat="42.68779" lon="1.39594">
        <ele>2344.79</ele>
        <time>2016-09-28T06:00:12Z</time>
      </trkpt>
      <trkpt lat="42.68779" lon="1.39597">
        <ele>2344.79</ele>
        <time>2016-09-28T06:00:15Z</time>
      </trkpt>
      <trkpt lat="42.68779" lon="1.39601">
        <ele>2344.79</ele>
        <time>2016-09-28T06:00:19Z</time>
      </trkpt>
      <trkpt lat="42.68775" lon="1.39604">
        <ele>2345.75</ele>
        <time>2016-09-28T06:00:29Z</time>
      </trkpt>
      <trkpt lat="42.68775" lon="1.39605">
        <ele>2345.75</ele>
        <time>2016-09-28T06:00:30Z</time>
      </trkpt>
      <trkpt lat="42.68773" lon="1.39609">
        <ele>2347.2</ele>
        <time>2016-09-28T06:00:36Z</time>
      </trkpt>
      <trkpt lat="42.6877" lon="1.39611">
        <ele>2347.68</ele>
        <time>2016-09-28T06:00:40Z</time>
      </trkpt>
      <trkpt lat="42.68766" lon="1.39607">
        <ele>2348.64</ele>
        <time>2016-09-28T06:00:51Z</time>
      </trkpt>
      <trkpt lat="42.68761" lon="1.3961">
        <ele>2349.6</ele>
        <time>2016-09-28T06:01:02Z</time>
      </trkpt>
      <trkpt lat="42.68752" lon="1.39609">
        <ele>2351.52</ele>
        <time>2016-09-28T06:01:14Z</time>
      </trkpt>
      <trkpt lat="42.68745" lon="1.39605">
        <ele>2352.96</ele>
        <time>2016-09-28T06:01:27Z</time>
      </trkpt>
      <trkpt lat="42.68744" lon="1.39608">
        <ele>2353.93</ele>
        <time>2016-09-28T06:01:31Z</time>
      </trkpt>
      <trkpt lat="42.68742" lon="1.3961">
        <ele>2355.37</ele>
        <time>2016-09-28T06:01:42Z</time>
      </trkpt>
      <trkpt lat="42.68739" lon="1.3961">
        <ele>2357.77</ele>
        <time>2016-09-28T06:01:48Z</time>
      </trkpt>
      <trkpt lat="42.68731" lon="1.39609">
        <ele>2359.69</ele>
        <time>2016-09-28T06:02:00Z</time>
      </trkpt>
      <trkpt lat="42.68725" lon="1.39609">
        <ele>2360.65</ele>
        <time>2016-09-28T06:02:13Z</time>
      </trkpt>
      <trkpt lat="42.68723" lon="1.3961">
        <ele>2360.17</ele>
        <time>2016-09-28T06:02:16Z</time>
      </trkpt>
      <trkpt lat="42.68719" lon="1.39611">
        <ele>2362.1</ele>
        <time>2016-09-28T06:02:27Z</time>
      </trkpt>
      <trkpt lat="42.68717" lon="1.39616">
        <ele>2364.02</ele>
        <time>2016-09-28T06:02:37Z</time>
      </trkpt>
      <trkpt lat="42.68714" lon="1.39622">
        <ele>2365.46</ele>
        <time>2016-09-28T06:02:49Z</time>
      </trkpt>
      <trkpt lat="42.68708" lon="1.39618">
        <ele>2367.86</ele>
        <time>2016-09-28T06:03:02Z</time>
      </trkpt>
      <trkpt lat="42.68705" lon="1.39616">
        <ele>2368.35</ele>
        <time>2016-09-28T06:03:07Z</time>
      </trkpt>
      <trkpt lat="42.687" lon="1.39618">
        <ele>2370.75</ele>
        <time>2016-09-28T06:03:19Z</time>
      </trkpt>
      <trkpt lat="42.68693" lon="1.39617">
        <ele>2371.71</ele>
        <time>2016-09-28T06:03:29Z</time>
      </trkpt>
      <trkpt lat="42.68692" lon="1.39613">
        <ele>2372.19</ele>
        <time>2016-09-28T06:03:33Z</time>
      </trkpt>
      <trkpt lat="42.68685" lon="1.39612">
        <ele>2373.15</ele>
        <time>2016-09-28T06:03:46Z</time>
      </trkpt>
      <trkpt lat="42.68682" lon="1.39614">
        <ele>2373.15</ele>
        <time>2016-09-28T06:03:55Z</time>
      </trkpt>
      <trkpt lat="42.68681" lon="1.39614">
        <ele>2373.15</ele>
        <time>2016-09-28T06:03:56Z</time>
      </trkpt>
      <trkpt lat="42.68679" lon="1.39613">
        <ele>2373.15</ele>
        <time>2016-09-28T06:04:07Z</time>
      </trkpt>
      <trkpt lat="42.68678" lon="1.39613">
        <ele>2372.19</ele>
        <time>2016-09-28T06:04:29Z</time>
      </trkpt>
      <trkpt lat="42.68676" lon="1.39615">
        <ele>2372.19</ele>
        <time>2016-09-28T06:04:59Z</time>
      </trkpt>
      <trkpt lat="42.68673" lon="1.39614">
        <ele>2372.19</ele>
        <time>2016-09-28T06:05:03Z</time>
      </trkpt>
      <trkpt lat="42.68663" lon="1.3961">
        <ele>2372.19</ele>
        <time>2016-09-28T06:05:15Z</time>
      </trkpt>
      <trkpt lat="42.68654" lon="1.39605">
        <ele>2371.71</ele>
        <time>2016-09-28T06:05:28Z</time>
      </trkpt>
      <trkpt lat="42.68648" lon="1.39593">
        <ele>2371.71</ele>
        <time>2016-09-28T06:05:40Z</time>
      </trkpt>
      <trkpt lat="42.68644" lon="1.39591">
        <ele>2371.71</ele>
        <time>2016-09-28T06:05:45Z</time>
      </trkpt>
      <trkpt lat="42.68634" lon="1.39594">
        <ele>2371.23</ele>
        <time>2016-09-28T06:05:57Z</time>
      </trkpt>
      <trkpt lat="42.68632" lon="1.39597">
        <ele>2371.23</ele>
        <time>2016-09-28T06:06:01Z</time>
      </trkpt>
      <trkpt lat="42.68629" lon="1.39598">
        <ele>2371.23</ele>
        <time>2016-09-28T06:06:04Z</time>
      </trkpt>
      <trkpt lat="42.68621" lon="1.39597">
        <ele>2373.15</ele>
        <time>2016-09-28T06:06:17Z</time>
      </trkpt>
      <trkpt lat="42.68614" lon="1.39592">
        <ele>2375.55</ele>
        <time>2016-09-28T06:06:32Z</time>
      </trkpt>
      <trkpt lat="42.68609" lon="1.39588">
        <ele>2377.48</ele>
        <time>2016-09-28T06:06:44Z</time>
      </trkpt>
      <trkpt lat="42.68602" lon="1.39583">
        <ele>2377.48</ele>
        <time>2016-09-28T06:06:55Z</time>
      </trkpt>
      <trkpt lat="42.68596" lon="1.39586">
        <ele>2377.48</ele>
        <time>2016-09-28T06:07:06Z</time>
      </trkpt>
      <trkpt lat="42.68593" lon="1.39584">
        <ele>2377.48</ele>
        <time>2016-09-28T06:07:10Z</time>
      </trkpt>
      <trkpt lat="42.68588" lon="1.39584">
        <ele>2377.48</ele>
        <time>2016-09-28T06:07:17Z</time>
      </trkpt>
      <trkpt lat="42.6858" lon="1.39578">
        <ele>2378.92</ele>
        <time>2016-09-28T06:07:30Z</time>
      </trkpt>
      <trkpt lat="42.68574" lon="1.39573">
        <ele>2379.4</ele>
        <time>2016-09-28T06:07:41Z</time>
      </trkpt>
      <trkpt lat="42.68569" lon="1.3957">
        <ele>2379.4</ele>
        <time>2016-09-28T06:07:49Z</time>
      </trkpt>
      <trkpt lat="42.68565" lon="1.39567">
        <ele>2379.4</ele>
        <time>2016-09-28T06:07:55Z</time>
      </trkpt>
      <trkpt lat="42.68554" lon="1.39553">
        <ele>2377.48</ele>
        <time>2016-09-28T06:08:12Z</time>
      </trkpt>
      <trkpt lat="42.68547" lon="1.3955">
        <ele>2377.48</ele>
        <time>2016-09-28T06:08:22Z</time>
      </trkpt>
      <trkpt lat="42.68535" lon="1.39546">
        <ele>2376.52</ele>
        <time>2016-09-28T06:08:36Z</time>
      </trkpt>
      <trkpt lat="42.68528" lon="1.3954">
        <ele>2376.52</ele>
        <time>2016-09-28T06:08:46Z</time>
      </trkpt>
      <trkpt lat="42.68519" lon="1.39533">
        <ele>2376.52</ele>
        <time>2016-09-28T06:08:59Z</time>
      </trkpt>
      <trkpt lat="42.68513" lon="1.39526">
        <ele>2376.04</ele>
        <time>2016-09-28T06:09:10Z</time>
      </trkpt>
      <trkpt lat="42.68507" lon="1.39521">
        <ele>2375.07</ele>
        <time>2016-09-28T06:09:17Z</time>
      </trkpt>
      <trkpt lat="42.68506" lon="1.39521">
        <ele>2375.07</ele>
        <time>2016-09-28T06:09:19Z</time>
      </trkpt>
      <trkpt lat="42.68497" lon="1.39518">
        <ele>2374.59</ele>
        <time>2016-09-28T06:09:31Z</time>
      </trkpt>
      <trkpt lat="42.68496" lon="1.39519">
        <ele>2374.59</ele>
        <time>2016-09-28T06:09:33Z</time>
      </trkpt>
      <trkpt lat="42.6849" lon="1.39517">
        <ele>2374.59</ele>
        <time>2016-09-28T06:09:39Z</time>
      </trkpt>
      <trkpt lat="42.68486" lon="1.39518">
        <ele>2374.59</ele>
        <time>2016-09-28T06:09:45Z</time>
      </trkpt>
      <trkpt lat="42.68484" lon="1.39517">
        <ele>2374.59</ele>
        <time>2016-09-28T06:09:51Z</time>
      </trkpt>
      <trkpt lat="42.68476" lon="1.39507">
        <ele>2374.11</ele>
        <time>2016-09-28T06:10:05Z</time>
      </trkpt>
      <trkpt lat="42.68471" lon="1.39503">
        <ele>2372.67</ele>
        <time>2016-09-28T06:10:17Z</time>
      </trkpt>
      <trkpt lat="42.68469" lon="1.39497">
        <ele>2371.71</ele>
        <time>2016-09-28T06:10:25Z</time>
      </trkpt>
      <trkpt lat="42.68463" lon="1.39491">
        <ele>2370.75</ele>
        <time>2016-09-28T06:10:36Z</time>
      </trkpt>
      <trkpt lat="42.68453" lon="1.39488">
        <ele>2370.75</ele>
        <time>2016-09-28T06:10:43Z</time>
      </trkpt>
      <trkpt lat="42.68437" lon="1.39482">
        <ele>2370.27</ele>
        <time>2016-09-28T06:10:57Z</time>
      </trkpt>
      <trkpt lat="42.68435" lon="1.3948">
        <ele>2369.79</ele>
        <time>2016-09-28T06:10:59Z</time>
      </trkpt>
      <trkpt lat="42.68427" lon="1.39477">
        <ele>2369.79</ele>
        <time>2016-09-28T06:11:08Z</time>
      </trkpt>
      <trkpt lat="42.68417" lon="1.39469">
        <ele>2369.31</ele>
        <time>2016-09-28T06:11:21Z</time>
      </trkpt>
      <trkpt lat="42.68413" lon="1.39464">
        <ele>2368.35</ele>
        <time>2016-09-28T06:11:28Z</time>
      </trkpt>
      <trkpt lat="42.68404" lon="1.39462">
        <ele>2367.86</ele>
        <time>2016-09-28T06:11:40Z</time>
      </trkpt>
      <trkpt lat="42.684" lon="1.39462">
        <ele>2367.38</ele>
        <time>2016-09-28T06:11:44Z</time>
      </trkpt>
      <trkpt lat="42.68398" lon="1.39463">
        <ele>2367.38</ele>
        <time>2016-09-28T06:11:46Z</time>
      </trkpt>
      <trkpt lat="42.68387" lon="1.39458">
        <ele>2366.42</ele>
        <time>2016-09-28T06:11:58Z</time>
      </trkpt>
      <trkpt lat="42.68382" lon="1.39457">
        <ele>2366.42</ele>
        <time>2016-09-28T06:12:10Z</time>
      </trkpt>
      <trkpt lat="42.6838" lon="1.39456">
        <ele>2367.86</ele>
        <time>2016-09-28T06:12:14Z</time>
      </trkpt>
      <trkpt lat="42.68377" lon="1.39455">
        <ele>2371.23</ele>
        <time>2016-09-28T06:12:25Z</time>
      </trkpt>
      <trkpt lat="42.68374" lon="1.39455">
        <ele>2373.63</ele>
        <time>2016-09-28T06:12:37Z</time>
      </trkpt>
      <trkpt lat="42.68374" lon="1.39456">
        <ele>2374.59</ele>
        <time>2016-09-28T06:12:47Z</time>
      </trkpt>
      <trkpt lat="42.68371" lon="1.39457">
        <ele>2376.52</ele>
        <time>2016-09-28T06:13:00Z</time>
      </trkpt>
      <trkpt lat="42.68366" lon="1.39458">
        <ele>2378.92</ele>
        <time>2016-09-28T06:13:11Z</time>
      </trkpt>
      <trkpt lat="42.68362" lon="1.39459">
        <ele>2381.8</ele>
        <time>2016-09-28T06:13:17Z</time>
      </trkpt>
      <trkpt lat="42.68353" lon="1.39457">
        <ele>2383.25</ele>
        <time>2016-09-28T06:13:29Z</time>
      </trkpt>
      <trkpt lat="42.68348" lon="1.39456">
        <ele>2384.21</ele>
        <time>2016-09-28T06:13:38Z</time>
      </trkpt>
      <trkpt lat="42.68341" lon="1.39454">
        <ele>2385.65</ele>
        <time>2016-09-28T06:13:50Z</time>
      </trkpt>
      <trkpt lat="42.68335" lon="1.39453">
        <ele>2387.09</ele>
        <time>2016-09-28T06:14:00Z</time>
      </trkpt>
      <trkpt lat="42.68327" lon="1.39453">
        <ele>2388.05</ele>
        <time>2016-09-28T06:14:09Z</time>
      </trkpt>
      <trkpt lat="42.68319" lon="1.39447">
        <ele>2389.49</ele>
        <time>2016-09-28T06:14:22Z</time>
      </trkpt>
      <trkpt lat="42.68318" lon="1.39447">
        <ele>2389.49</ele>
        <time>2016-09-28T06:14:23Z</time>
      </trkpt>
      <trkpt lat="42.68309" lon="1.39444">
        <ele>2391.42</ele>
        <time>2016-09-28T06:14:34Z</time>
      </trkpt>
      <trkpt lat="42.68307" lon="1.39444">
        <ele>2391.9</ele>
        <time>2016-09-28T06:14:37Z</time>
      </trkpt>
      <trkpt lat="42.68301" lon="1.39439">
        <ele>2393.34</ele>
        <time>2016-09-28T06:14:46Z</time>
      </trkpt>
      <trkpt lat="42.68299" lon="1.39439">
        <ele>2395.26</ele>
        <time>2016-09-28T06:14:59Z</time>
      </trkpt>
      <trkpt lat="42.68293" lon="1.39434">
        <ele>2397.67</ele>
        <time>2016-09-28T06:15:10Z</time>
      </trkpt>
      <trkpt lat="42.68291" lon="1.39434">
        <ele>2399.11</ele>
        <time>2016-09-28T06:15:22Z</time>
      </trkpt>
      <trkpt lat="42.68286" lon="1.39432">
        <ele>2400.55</ele>
        <time>2016-09-28T06:15:35Z</time>
      </trkpt>
      <trkpt lat="42.68285" lon="1.39431">
        <ele>2401.51</ele>
        <time>2016-09-28T06:15:36Z</time>
      </trkpt>
      <trkpt lat="42.68273" lon="1.39428">
        <ele>2402.47</ele>
        <time>2016-09-28T06:15:48Z</time>
      </trkpt>
      <trkpt lat="42.68264" lon="1.39423">
        <ele>2403.91</ele>
        <time>2016-09-28T06:16:00Z</time>
      </trkpt>
      <trkpt lat="42.68255" lon="1.39416">
        <ele>2404.88</ele>
        <time>2016-09-28T06:16:10Z</time>
      </trkpt>
      <trkpt lat="42.68253" lon="1.39412">
        <ele>2404.88</ele>
        <time>2016-09-28T06:16:15Z</time>
      </trkpt>
      <trkpt lat="42.68247" lon="1.39401">
        <ele>2405.84</ele>
        <time>2016-09-28T06:16:27Z</time>
      </trkpt>
      <trkpt lat="42.68242" lon="1.39395">
        <ele>2406.8</ele>
        <time>2016-09-28T06:16:37Z</time>
      </trkpt>
      <trkpt lat="42.68211" lon="1.394">
        <ele>2407.28</ele>
        <time>2016-09-28T06:16:46Z</time>
      </trkpt>
      <trkpt lat="42.68195" lon="1.39406">
        <ele>2408.24</ele>
        <time>2016-09-28T06:16:59Z</time>
      </trkpt>
      <trkpt lat="42.68189" lon="1.39403">
        <ele>2409.2</ele>
        <time>2016-09-28T06:17:10Z</time>
      </trkpt>
      <trkpt lat="42.68186" lon="1.39402">
        <ele>2410.16</ele>
        <time>2016-09-28T06:17:15Z</time>
      </trkpt>
      <trkpt lat="42.68183" lon="1.39407">
        <ele>2412.09</ele>
        <time>2016-09-28T06:17:26Z</time>
      </trkpt>
      <trkpt lat="42.68183" lon="1.39413">
        <ele>2413.53</ele>
        <time>2016-09-28T06:17:36Z</time>
      </trkpt>
      <trkpt lat="42.68183" lon="1.39417">
        <ele>2415.93</ele>
        <time>2016-09-28T06:17:48Z</time>
      </trkpt>
      <trkpt lat="42.68181" lon="1.39418">
        <ele>2418.33</ele>
        <time>2016-09-28T06:18:00Z</time>
      </trkpt>
      <trkpt lat="42.6818" lon="1.39418">
        <ele>2419.78</ele>
        <time>2016-09-28T06:18:21Z</time>
      </trkpt>
      <trkpt lat="42.68179" lon="1.39425">
        <ele>2421.22</ele>
        <time>2016-09-28T06:18:30Z</time>
      </trkpt>
      <trkpt lat="42.68178" lon="1.39428">
        <ele>2423.14</ele>
        <time>2016-09-28T06:18:41Z</time>
      </trkpt>
      <trkpt lat="42.68178" lon="1.3943">
        <ele>2425.06</ele>
        <time>2016-09-28T06:18:52Z</time>
      </trkpt>
      <trkpt lat="42.6818" lon="1.39432">
        <ele>2426.5</ele>
        <time>2016-09-28T06:19:02Z</time>
      </trkpt>
      <trkpt lat="42.6818" lon="1.39444">
        <ele>2427.95</ele>
        <time>2016-09-28T06:19:12Z</time>
      </trkpt>
      <trkpt lat="42.68184" lon="1.39445">
        <ele>2429.39</ele>
        <time>2016-09-28T06:19:21Z</time>
      </trkpt>
      <trkpt lat="42.68181" lon="1.39446">
        <ele>2431.79</ele>
        <time>2016-09-28T06:19:31Z</time>
      </trkpt>
      <trkpt lat="42.68181" lon="1.39449">
        <ele>2433.23</ele>
        <time>2016-09-28T06:19:41Z</time>
      </trkpt>
      <trkpt lat="42.68179" lon="1.39452">
        <ele>2434.68</ele>
        <time>2016-09-28T06:19:52Z</time>
      </trkpt>
      <trkpt lat="42.68178" lon="1.39449">
        <ele>2437.08</ele>
        <time>2016-09-28T06:20:05Z</time>
      </trkpt>
      <trkpt lat="42.68178" lon="1.39449">
        <ele>2438.04</ele>
        <time>2016-09-28T06:20:26Z</time>
      </trkpt>
      <trkpt lat="42.68174" lon="1.3945">
        <ele>2439</ele>
        <time>2016-09-28T06:20:36Z</time>
      </trkpt>
      <trkpt lat="42.68172" lon="1.3945">
        <ele>2440.92</ele>
        <time>2016-09-28T06:20:47Z</time>
      </trkpt>
      <trkpt lat="42.68167" lon="1.39451">
        <ele>2443.33</ele>
        <time>2016-09-28T06:20:59Z</time>
      </trkpt>
      <trkpt lat="42.68165" lon="1.39452">
        <ele>2446.69</ele>
        <time>2016-09-28T06:21:05Z</time>
      </trkpt>
      <trkpt lat="42.68161" lon="1.39452">
        <ele>2446.69</ele>
        <time>2016-09-28T06:21:15Z</time>
      </trkpt>
      <trkpt lat="42.68156" lon="1.39452">
        <ele>2447.65</ele>
        <time>2016-09-28T06:21:26Z</time>
      </trkpt>
      <trkpt lat="42.68152" lon="1.39454">
        <ele>2449.58</ele>
        <time>2016-09-28T06:21:39Z</time>
      </trkpt>
      <trkpt lat="42.6815" lon="1.39456">
        <ele>2451.5</ele>
        <time>2016-09-28T06:21:51Z</time>
      </trkpt>
      <trkpt lat="42.68145" lon="1.39454">
        <ele>2453.9</ele>
        <time>2016-09-28T06:22:04Z</time>
      </trkpt>
      <trkpt lat="42.68138" lon="1.39452">
        <ele>2456.31</ele>
        <time>2016-09-28T06:22:17Z</time>
      </trkpt>
      <trkpt lat="42.68133" lon="1.39456">
        <ele>2457.75</ele>
        <time>2016-09-28T06:22:28Z</time>
      </trkpt>
      <trkpt lat="42.68125" lon="1.39452">
        <ele>2459.19</ele>
        <time>2016-09-28T06:22:41Z</time>
      </trkpt>
      <trkpt lat="42.68121" lon="1.39455">
        <ele>2460.15</ele>
        <time>2016-09-28T06:22:52Z</time>
      </trkpt>
      <trkpt lat="42.68121" lon="1.39455">
        <ele>2460.15</ele>
        <time>2016-09-28T06:22:53Z</time>
      </trkpt>
      <trkpt lat="42.68112" lon="1.39457">
        <ele>2461.11</ele>
        <time>2016-09-28T06:23:04Z</time>
      </trkpt>
      <trkpt lat="42.68111" lon="1.39458">
        <ele>2461.11</ele>
        <time>2016-09-28T06:23:06Z</time>
      </trkpt>
      <trkpt lat="42.68109" lon="1.39463">
        <ele>2462.07</ele>
        <time>2016-09-28T06:23:17Z</time>
      </trkpt>
      <trkpt lat="42.68109" lon="1.39467">
        <ele>2463.52</ele>
        <time>2016-09-28T06:23:29Z</time>
      </trkpt>
      <trkpt lat="42.68107" lon="1.39471">
        <ele>2464.96</ele>
        <time>2016-09-28T06:23:40Z</time>
      </trkpt>
      <trkpt lat="42.68104" lon="1.39474">
        <ele>2467.36</ele>
        <time>2016-09-28T06:23:53Z</time>
      </trkpt>
      <trkpt lat="42.68101" lon="1.3948">
        <ele>2468.8</ele>
        <time>2016-09-28T06:24:03Z</time>
      </trkpt>
      <trkpt lat="42.68101" lon="1.39484">
        <ele>2469.76</ele>
        <time>2016-09-28T06:24:13Z</time>
      </trkpt>
      <trkpt lat="42.681" lon="1.3949">
        <ele>2471.69</ele>
        <time>2016-09-28T06:24:23Z</time>
      </trkpt>
      <trkpt lat="42.681" lon="1.39494">
        <ele>2474.09</ele>
        <time>2016-09-28T06:24:34Z</time>
      </trkpt>
      <trkpt lat="42.68103" lon="1.395">
        <ele>2475.53</ele>
        <time>2016-09-28T06:24:45Z</time>
      </trkpt>
      <trkpt lat="42.681" lon="1.39506">
        <ele>2477.45</ele>
        <time>2016-09-28T06:24:57Z</time>
      </trkpt>
      <trkpt lat="42.68099" lon="1.39507">
        <ele>2479.38</ele>
        <time>2016-09-28T06:25:13Z</time>
      </trkpt>
      <trkpt lat="42.68098" lon="1.39513">
        <ele>2480.34</ele>
        <time>2016-09-28T06:25:23Z</time>
      </trkpt>
      <trkpt lat="42.68098" lon="1.39514">
        <ele>2480.82</ele>
        <time>2016-09-28T06:25:26Z</time>
      </trkpt>
      <trkpt lat="42.68096" lon="1.39519">
        <ele>2482.74</ele>
        <time>2016-09-28T06:25:37Z</time>
      </trkpt>
      <trkpt lat="42.68095" lon="1.39525">
        <ele>2484.66</ele>
        <time>2016-09-28T06:25:49Z</time>
      </trkpt>
      <trkpt lat="42.68093" lon="1.39526">
        <ele>2488.03</ele>
        <time>2016-09-28T06:25:56Z</time>
      </trkpt>
      <trkpt lat="42.68092" lon="1.39528">
        <ele>2490.43</ele>
        <time>2016-09-28T06:26:07Z</time>
      </trkpt>
      <trkpt lat="42.68092" lon="1.39532">
        <ele>2490.43</ele>
        <time>2016-09-28T06:26:19Z</time>
      </trkpt>
      <trkpt lat="42.68088" lon="1.39537">
        <ele>2491.87</ele>
        <time>2016-09-28T06:26:30Z</time>
      </trkpt>
      <trkpt lat="42.68083" lon="1.39544">
        <ele>2493.32</ele>
        <time>2016-09-28T06:26:43Z</time>
      </trkpt>
      <trkpt lat="42.68081" lon="1.39551">
        <ele>2495.24</ele>
        <time>2016-09-28T06:26:54Z</time>
      </trkpt>
      <trkpt lat="42.6808" lon="1.39553">
        <ele>2496.2</ele>
        <time>2016-09-28T06:27:01Z</time>
      </trkpt>
      <trkpt lat="42.68079" lon="1.39555">
        <ele>2498.12</ele>
        <time>2016-09-28T06:27:12Z</time>
      </trkpt>
      <trkpt lat="42.68078" lon="1.3956">
        <ele>2500.05</ele>
        <time>2016-09-28T06:27:23Z</time>
      </trkpt>
      <trkpt lat="42.6808" lon="1.39561">
        <ele>2501.01</ele>
        <time>2016-09-28T06:27:31Z</time>
      </trkpt>
      <trkpt lat="42.68077" lon="1.39567">
        <ele>2503.41</ele>
        <time>2016-09-28T06:27:43Z</time>
      </trkpt>
      <trkpt lat="42.6808" lon="1.3957">
        <ele>2505.81</ele>
        <time>2016-09-28T06:27:55Z</time>
      </trkpt>
      <trkpt lat="42.68079" lon="1.39574">
        <ele>2507.74</ele>
        <time>2016-09-28T06:28:05Z</time>
      </trkpt>
      <trkpt lat="42.68079" lon="1.39578">
        <ele>2509.66</ele>
        <time>2016-09-28T06:28:16Z</time>
      </trkpt>
      <trkpt lat="42.68079" lon="1.39581">
        <ele>2510.62</ele>
        <time>2016-09-28T06:28:20Z</time>
      </trkpt>
      <trkpt lat="42.68079" lon="1.39589">
        <ele>2513.02</ele>
        <time>2016-09-28T06:28:31Z</time>
      </trkpt>
      <trkpt lat="42.68077" lon="1.39598">
        <ele>2513.98</ele>
        <time>2016-09-28T06:28:42Z</time>
      </trkpt>
      <trkpt lat="42.6807" lon="1.39609">
        <ele>2515.43</ele>
        <time>2016-09-28T06:28:55Z</time>
      </trkpt>
      <trkpt lat="42.68066" lon="1.39616">
        <ele>2515.91</ele>
        <time>2016-09-28T06:29:06Z</time>
      </trkpt>
      <trkpt lat="42.68062" lon="1.39623">
        <ele>2515.91</ele>
        <time>2016-09-28T06:29:16Z</time>
      </trkpt>
      <trkpt lat="42.68059" lon="1.39628">
        <ele>2515.91</ele>
        <time>2016-09-28T06:29:28Z</time>
      </trkpt>
      <trkpt lat="42.6806" lon="1.39628">
        <ele>2515.91</ele>
        <time>2016-09-28T06:29:36Z</time>
      </trkpt>
      <trkpt lat="42.68059" lon="1.3963">
        <ele>2515.91</ele>
        <time>2016-09-28T06:29:38Z</time>
      </trkpt>
      <trkpt lat="42.68054" lon="1.3964">
        <ele>2515.91</ele>
        <time>2016-09-28T06:29:47Z</time>
      </trkpt>
      <trkpt lat="42.68052" lon="1.39653">
        <ele>2515.91</ele>
        <time>2016-09-28T06:30:00Z</time>
      </trkpt>
      <trkpt lat="42.6805" lon="1.39665">
        <ele>2516.39</ele>
        <time>2016-09-28T06:30:14Z</time>
      </trkpt>
      <trkpt lat="42.68049" lon="1.39671">
        <ele>2514.95</ele>
        <time>2016-09-28T06:30:24Z</time>
      </trkpt>
      <trkpt lat="42.6805" lon="1.39677">
        <ele>2514.95</ele>
        <time>2016-09-28T06:30:30Z</time>
      </trkpt>
      <trkpt lat="42.68049" lon="1.39685">
        <ele>2515.91</ele>
        <time>2016-09-28T06:30:39Z</time>
      </trkpt>
      <trkpt lat="42.68047" lon="1.39692">
        <ele>2516.87</ele>
        <time>2016-09-28T06:30:49Z</time>
      </trkpt>
      <trkpt lat="42.68043" lon="1.397">
        <ele>2517.35</ele>
        <time>2016-09-28T06:30:59Z</time>
      </trkpt>
      <trkpt lat="42.68038" lon="1.39708">
        <ele>2518.31</ele>
        <time>2016-09-28T06:31:11Z</time>
      </trkpt>
      <trkpt lat="42.68035" lon="1.39715">
        <ele>2519.75</ele>
        <time>2016-09-28T06:31:22Z</time>
      </trkpt>
      <trkpt lat="42.68033" lon="1.39719">
        <ele>2520.71</ele>
        <time>2016-09-28T06:31:27Z</time>
      </trkpt>
      <trkpt lat="42.6803" lon="1.39724">
        <ele>2521.68</ele>
        <time>2016-09-28T06:31:36Z</time>
      </trkpt>
      <trkpt lat="42.68022" lon="1.39727">
        <ele>2522.64</ele>
        <time>2016-09-28T06:31:48Z</time>
      </trkpt>
      <trkpt lat="42.68019" lon="1.39734">
        <ele>2524.08</ele>
        <time>2016-09-28T06:31:59Z</time>
      </trkpt>
      <trkpt lat="42.68016" lon="1.39737">
        <ele>2524.56</ele>
        <time>2016-09-28T06:32:05Z</time>
      </trkpt>
      <trkpt lat="42.68013" lon="1.3974">
        <ele>2526.96</ele>
        <time>2016-09-28T06:32:17Z</time>
      </trkpt>
      <trkpt lat="42.6801" lon="1.39745">
        <ele>2528.89</ele>
        <time>2016-09-28T06:32:27Z</time>
      </trkpt>
      <trkpt lat="42.68007" lon="1.39749">
        <ele>2530.33</ele>
        <time>2016-09-28T06:32:38Z</time>
      </trkpt>
      <trkpt lat="42.68004" lon="1.39752">
        <ele>2531.77</ele>
        <time>2016-09-28T06:32:48Z</time>
      </trkpt>
      <trkpt lat="42.68002" lon="1.39757">
        <ele>2533.21</ele>
        <time>2016-09-28T06:32:58Z</time>
      </trkpt>
      <trkpt lat="42.68" lon="1.39763">
        <ele>2535.13</ele>
        <time>2016-09-28T06:33:10Z</time>
      </trkpt>
      <trkpt lat="42.68" lon="1.3977">
        <ele>2537.54</ele>
        <time>2016-09-28T06:33:24Z</time>
      </trkpt>
      <trkpt lat="42.67998" lon="1.39774">
        <ele>2539.46</ele>
        <time>2016-09-28T06:33:38Z</time>
      </trkpt>
      <trkpt lat="42.67997" lon="1.39778">
        <ele>2541.86</ele>
        <time>2016-09-28T06:33:50Z</time>
      </trkpt>
      <trkpt lat="42.67997" lon="1.39782">
        <ele>2545.23</ele>
        <time>2016-09-28T06:33:55Z</time>
      </trkpt>
      <trkpt lat="42.67993" lon="1.39787">
        <ele>2546.19</ele>
        <time>2016-09-28T06:34:05Z</time>
      </trkpt>
      <trkpt lat="42.67994" lon="1.39794">
        <ele>2546.19</ele>
        <time>2016-09-28T06:34:18Z</time>
      </trkpt>
      <trkpt lat="42.67993" lon="1.39798">
        <ele>2546.67</ele>
        <time>2016-09-28T06:34:24Z</time>
      </trkpt>
      <trkpt lat="42.67992" lon="1.39808">
        <ele>2548.59</ele>
        <time>2016-09-28T06:34:37Z</time>
      </trkpt>
      <trkpt lat="42.67991" lon="1.39812">
        <ele>2548.59</ele>
        <time>2016-09-28T06:34:40Z</time>
      </trkpt>
      <trkpt lat="42.67985" lon="1.39823">
        <ele>2549.07</ele>
        <time>2016-09-28T06:34:52Z</time>
      </trkpt>
      <trkpt lat="42.6798" lon="1.39824">
        <ele>2549.55</ele>
        <time>2016-09-28T06:35:03Z</time>
      </trkpt>
      <trkpt lat="42.67974" lon="1.39831">
        <ele>2550.03</ele>
        <time>2016-09-28T06:35:15Z</time>
      </trkpt>
      <trkpt lat="42.67971" lon="1.39839">
        <ele>2550.03</ele>
        <time>2016-09-28T06:35:23Z</time>
      </trkpt>
      <trkpt lat="42.67968" lon="1.39842">
        <ele>2550.03</ele>
        <time>2016-09-28T06:35:30Z</time>
      </trkpt>
      <trkpt lat="42.67966" lon="1.39842">
        <ele>2551.48</ele>
        <time>2016-09-28T06:35:41Z</time>
      </trkpt>
      <trkpt lat="42.67963" lon="1.39848">
        <ele>2552.92</ele>
        <time>2016-09-28T06:35:54Z</time>
      </trkpt>
      <trkpt lat="42.67959" lon="1.39848">
        <ele>2555.32</ele>
        <time>2016-09-28T06:36:05Z</time>
      </trkpt>
      <trkpt lat="42.67956" lon="1.39852">
        <ele>2555.32</ele>
        <time>2016-09-28T06:36:10Z</time>
      </trkpt>
      <trkpt lat="42.67955" lon="1.39854">
        <ele>2555.32</ele>
        <time>2016-09-28T06:36:12Z</time>
      </trkpt>
      <trkpt lat="42.67952" lon="1.39859">
        <ele>2555.8</ele>
        <time>2016-09-28T06:36:17Z</time>
      </trkpt>
      <trkpt lat="42.67952" lon="1.39861">
        <ele>2556.28</ele>
        <time>2016-09-28T06:36:19Z</time>
      </trkpt>
      <trkpt lat="42.67945" lon="1.39869">
        <ele>2557.24</ele>
        <time>2016-09-28T06:36:31Z</time>
      </trkpt>
      <trkpt lat="42.6794" lon="1.39865">
        <ele>2558.69</ele>
        <time>2016-09-28T06:36:41Z</time>
      </trkpt>
      <trkpt lat="42.67936" lon="1.39867">
        <ele>2560.13</ele>
        <time>2016-09-28T06:36:50Z</time>
      </trkpt>
      <trkpt lat="42.67931" lon="1.39871">
        <ele>2560.61</ele>
        <time>2016-09-28T06:37:00Z</time>
      </trkpt>
      <trkpt lat="42.6793" lon="1.39872">
        <ele>2561.57</ele>
        <time>2016-09-28T06:37:05Z</time>
      </trkpt>
      <trkpt lat="42.67927" lon="1.39871">
        <ele>2562.53</ele>
        <time>2016-09-28T06:37:16Z</time>
      </trkpt>
      <trkpt lat="42.67927" lon="1.39867">
        <ele>2564.45</ele>
        <time>2016-09-28T06:37:25Z</time>
      </trkpt>
      <trkpt lat="42.67927" lon="1.39863">
        <ele>2565.9</ele>
        <time>2016-09-28T06:37:36Z</time>
      </trkpt>
      <trkpt lat="42.67929" lon="1.3986">
        <ele>2567.34</ele>
        <time>2016-09-28T06:37:45Z</time>
      </trkpt>
      <trkpt lat="42.67929" lon="1.39859">
        <ele>2567.82</ele>
        <time>2016-09-28T06:37:48Z</time>
      </trkpt>
      <trkpt lat="42.67929" lon="1.39858">
        <ele>2568.78</ele>
        <time>2016-09-28T06:37:58Z</time>
      </trkpt>
      <trkpt lat="42.67928" lon="1.39852">
        <ele>2570.22</ele>
        <time>2016-09-28T06:38:06Z</time>
      </trkpt>
      <trkpt lat="42.67928" lon="1.39849">
        <ele>2570.22</ele>
        <time>2016-09-28T06:38:08Z</time>
      </trkpt>
      <trkpt lat="42.67925" lon="1.39838">
        <ele>2570.7</ele>
        <time>2016-09-28T06:38:19Z</time>
      </trkpt>
      <trkpt lat="42.6792" lon="1.39836">
        <ele>2572.14</ele>
        <time>2016-09-28T06:38:29Z</time>
      </trkpt>
      <trkpt lat="42.67916" lon="1.39827">
        <ele>2572.63</ele>
        <time>2016-09-28T06:38:41Z</time>
      </trkpt>
      <trkpt lat="42.67912" lon="1.39823">
        <ele>2573.59</ele>
        <time>2016-09-28T06:38:52Z</time>
      </trkpt>
      <trkpt lat="42.67906" lon="1.39819">
        <ele>2575.03</ele>
        <time>2016-09-28T06:39:05Z</time>
      </trkpt>
      <trkpt lat="42.67905" lon="1.39814">
        <ele>2575.03</ele>
        <time>2016-09-28T06:39:10Z</time>
      </trkpt>
      <trkpt lat="42.67905" lon="1.39803">
        <ele>2575.03</ele>
        <time>2016-09-28T06:39:19Z</time>
      </trkpt>
      <trkpt lat="42.67906" lon="1.39793">
        <ele>2575.51</ele>
        <time>2016-09-28T06:39:29Z</time>
      </trkpt>
      <trkpt lat="42.67908" lon="1.39782">
        <ele>2576.95</ele>
        <time>2016-09-28T06:39:40Z</time>
      </trkpt>
      <trkpt lat="42.67911" lon="1.39777">
        <ele>2576.95</ele>
        <time>2016-09-28T06:39:46Z</time>
      </trkpt>
      <trkpt lat="42.67906" lon="1.39774">
        <ele>2576.95</ele>
        <time>2016-09-28T06:39:56Z</time>
      </trkpt>
      <trkpt lat="42.67906" lon="1.39771">
        <ele>2576.95</ele>
        <time>2016-09-28T06:39:59Z</time>
      </trkpt>
      <trkpt lat="42.67906" lon="1.39762">
        <ele>2576.95</ele>
        <time>2016-09-28T06:40:08Z</time>
      </trkpt>
      <trkpt lat="42.67904" lon="1.39759">
        <ele>2575.99</ele>
        <time>2016-09-28T06:40:11Z</time>
      </trkpt>
      <trkpt lat="42.67904" lon="1.39745">
        <ele>2575.99</ele>
        <time>2016-09-28T06:40:24Z</time>
      </trkpt>
      <trkpt lat="42.67903" lon="1.39745">
        <ele>2575.99</ele>
        <time>2016-09-28T06:40:29Z</time>
      </trkpt>
      <trkpt lat="42.67901" lon="1.39746">
        <ele>2575.99</ele>
        <time>2016-09-28T06:40:31Z</time>
      </trkpt>
      <trkpt lat="42.67897" lon="1.39739">
        <ele>2575.51</ele>
        <time>2016-09-28T06:40:43Z</time>
      </trkpt>
      <trkpt lat="42.67894" lon="1.39731">
        <ele>2576.95</ele>
        <time>2016-09-28T06:40:55Z</time>
      </trkpt>
      <trkpt lat="42.67892" lon="1.39734">
        <ele>2576.95</ele>
        <time>2016-09-28T06:41:00Z</time>
      </trkpt>
      <trkpt lat="42.67889" lon="1.39743">
        <ele>2577.91</ele>
        <time>2016-09-28T06:41:11Z</time>
      </trkpt>
      <trkpt lat="42.67886" lon="1.39738">
        <ele>2579.35</ele>
        <time>2016-09-28T06:41:21Z</time>
      </trkpt>
      <trkpt lat="42.67881" lon="1.39738">
        <ele>2581.28</ele>
        <time>2016-09-28T06:41:33Z</time>
      </trkpt>
      <trkpt lat="42.6788" lon="1.39738">
        <ele>2581.76</ele>
        <time>2016-09-28T06:41:38Z</time>
      </trkpt>
      <trkpt lat="42.67877" lon="1.39745">
        <ele>2582.72</ele>
        <time>2016-09-28T06:41:45Z</time>
      </trkpt>
      <trkpt lat="42.67875" lon="1.39745">
        <ele>2585.12</ele>
        <time>2016-09-28T06:41:56Z</time>
      </trkpt>
      <trkpt lat="42.67874" lon="1.39744">
        <ele>2586.08</ele>
        <time>2016-09-28T06:42:07Z</time>
      </trkpt>
      <trkpt lat="42.67873" lon="1.39749">
        <ele>2587.53</ele>
        <time>2016-09-28T06:42:17Z</time>
      </trkpt>
      <trkpt lat="42.6787" lon="1.39749">
        <ele>2589.45</ele>
        <time>2016-09-28T06:42:27Z</time>
      </trkpt>
      <trkpt lat="42.67866" lon="1.39747">
        <ele>2590.89</ele>
        <time>2016-09-28T06:42:39Z</time>
      </trkpt>
      <trkpt lat="42.67863" lon="1.39752">
        <ele>2592.81</ele>
        <time>2016-09-28T06:42:51Z</time>
      </trkpt>
      <trkpt lat="42.67861" lon="1.39754">
        <ele>2594.25</ele>
        <time>2016-09-28T06:42:58Z</time>
      </trkpt>
      <trkpt lat="42.67856" lon="1.39755">
        <ele>2596.18</ele>
        <time>2016-09-28T06:43:10Z</time>
      </trkpt>
      <trkpt lat="42.67852" lon="1.39755">
        <ele>2598.1</ele>
        <time>2016-09-28T06:43:22Z</time>
      </trkpt>
      <trkpt lat="42.67849" lon="1.39762">
        <ele>2599.54</ele>
        <time>2016-09-28T06:43:35Z</time>
      </trkpt>
      <trkpt lat="42.67846" lon="1.39764">
        <ele>2601.95</ele>
        <time>2016-09-28T06:43:48Z</time>
      </trkpt>
      <trkpt lat="42.67843" lon="1.39762">
        <ele>2605.31</ele>
        <time>2016-09-28T06:43:55Z</time>
      </trkpt>
      <trkpt lat="42.67843" lon="1.39758">
        <ele>2606.75</ele>
        <time>2016-09-28T06:44:07Z</time>
      </trkpt>
      <trkpt lat="42.67841" lon="1.39756">
        <ele>2606.75</ele>
        <time>2016-09-28T06:44:18Z</time>
      </trkpt>
      <trkpt lat="42.67838" lon="1.39758">
        <ele>2608.67</ele>
        <time>2016-09-28T06:44:31Z</time>
      </trkpt>
      <trkpt lat="42.67834" lon="1.39757">
        <ele>2611.08</ele>
        <time>2016-09-28T06:44:42Z</time>
      </trkpt>
      <trkpt lat="42.6783" lon="1.39753">
        <ele>2613</ele>
        <time>2016-09-28T06:44:54Z</time>
      </trkpt>
      <trkpt lat="42.67827" lon="1.39748">
        <ele>2614.92</ele>
        <time>2016-09-28T06:45:07Z</time>
      </trkpt>
      <trkpt lat="42.67827" lon="1.39746">
        <ele>2615.88</ele>
        <time>2016-09-28T06:45:12Z</time>
      </trkpt>
      <trkpt lat="42.67823" lon="1.39739">
        <ele>2617.81</ele>
        <time>2016-09-28T06:45:23Z</time>
      </trkpt>
      <trkpt lat="42.67822" lon="1.39734">
        <ele>2619.25</ele>
        <time>2016-09-28T06:45:35Z</time>
      </trkpt>
      <trkpt lat="42.6782" lon="1.39733">
        <ele>2621.17</ele>
        <time>2016-09-28T06:45:45Z</time>
      </trkpt>
      <trkpt lat="42.67817" lon="1.39731">
        <ele>2622.61</ele>
        <time>2016-09-28T06:45:55Z</time>
      </trkpt>
      <trkpt lat="42.67815" lon="1.39728">
        <ele>2626.46</ele>
        <time>2016-09-28T06:46:07Z</time>
      </trkpt>
      <trkpt lat="42.67814" lon="1.39726">
        <ele>2629.34</ele>
        <time>2016-09-28T06:46:12Z</time>
      </trkpt>
      <trkpt lat="42.67813" lon="1.39721">
        <ele>2630.79</ele>
        <time>2016-09-28T06:46:21Z</time>
      </trkpt>
      <trkpt lat="42.67808" lon="1.39718">
        <ele>2631.75</ele>
        <time>2016-09-28T06:46:32Z</time>
      </trkpt>
      <trkpt lat="42.67805" lon="1.39722">
        <ele>2632.71</ele>
        <time>2016-09-28T06:46:43Z</time>
      </trkpt>
      <trkpt lat="42.67804" lon="1.39725">
        <ele>2634.15</ele>
        <time>2016-09-28T06:46:58Z</time>
      </trkpt>
      <trkpt lat="42.67802" lon="1.39729">
        <ele>2636.07</ele>
        <time>2016-09-28T06:47:09Z</time>
      </trkpt>
      <trkpt lat="42.67803" lon="1.39732">
        <ele>2638.96</ele>
        <time>2016-09-28T06:47:21Z</time>
      </trkpt>
      <trkpt lat="42.67802" lon="1.39732">
        <ele>2641.36</ele>
        <time>2016-09-28T06:47:35Z</time>
      </trkpt>
      <trkpt lat="42.67799" lon="1.39733">
        <ele>2640.4</ele>
        <time>2016-09-28T06:47:47Z</time>
      </trkpt>
      <trkpt lat="42.67798" lon="1.39735">
        <ele>2641.84</ele>
        <time>2016-09-28T06:47:58Z</time>
      </trkpt>
      <trkpt lat="42.67793" lon="1.3974">
        <ele>2643.28</ele>
        <time>2016-09-28T06:48:08Z</time>
      </trkpt>
      <trkpt lat="42.67793" lon="1.39747">
        <ele>2644.72</ele>
        <time>2016-09-28T06:48:20Z</time>
      </trkpt>
      <trkpt lat="42.67792" lon="1.39747">
        <ele>2645.21</ele>
        <time>2016-09-28T06:48:24Z</time>
      </trkpt>
      <trkpt lat="42.6779" lon="1.39749">
        <ele>2647.61</ele>
        <time>2016-09-28T06:48:34Z</time>
      </trkpt>
      <trkpt lat="42.67789" lon="1.39748">
        <ele>2649.05</ele>
        <time>2016-09-28T06:48:48Z</time>
      </trkpt>
      <trkpt lat="42.67788" lon="1.39748">
        <ele>2650.01</ele>
        <time>2016-09-28T06:49:06Z</time>
      </trkpt>
      <trkpt lat="42.67786" lon="1.39753">
        <ele>2650.97</ele>
        <time>2016-09-28T06:49:17Z</time>
      </trkpt>
      <trkpt lat="42.67783" lon="1.39758">
        <ele>2652.9</ele>
        <time>2016-09-28T06:49:29Z</time>
      </trkpt>
      <trkpt lat="42.67782" lon="1.39763">
        <ele>2656.26</ele>
        <time>2016-09-28T06:49:38Z</time>
      </trkpt>
      <trkpt lat="42.67781" lon="1.39765">
        <ele>2660.11</ele>
        <time>2016-09-28T06:49:43Z</time>
      </trkpt>
      <trkpt lat="42.67781" lon="1.39769">
        <ele>2660.59</ele>
        <time>2016-09-28T06:49:53Z</time>
      </trkpt>
      <trkpt lat="42.67779" lon="1.39771">
        <ele>2660.59</ele>
        <time>2016-09-28T06:50:03Z</time>
      </trkpt>
      <trkpt lat="42.67777" lon="1.39774">
        <ele>2661.07</ele>
        <time>2016-09-28T06:50:20Z</time>
      </trkpt>
      <trkpt lat="42.67775" lon="1.3978">
        <ele>2663.47</ele>
        <time>2016-09-28T06:50:33Z</time>
      </trkpt>
      <trkpt lat="42.67775" lon="1.39787">
        <ele>2664.91</ele>
        <time>2016-09-28T06:50:44Z</time>
      </trkpt>
      <trkpt lat="42.67772" lon="1.39791">
        <ele>2668.28</ele>
        <time>2016-09-28T06:50:53Z</time>
      </trkpt>
      <trkpt lat="42.67772" lon="1.39794">
        <ele>2670.2</ele>
        <time>2016-09-28T06:50:57Z</time>
      </trkpt>
      <trkpt lat="42.67766" lon="1.39804">
        <ele>2670.68</ele>
        <time>2016-09-28T06:51:09Z</time>
      </trkpt>
      <trkpt lat="42.67763" lon="1.39811">
        <ele>2671.16</ele>
        <time>2016-09-28T06:51:20Z</time>
      </trkpt>
      <trkpt lat="42.67757" lon="1.39814">
        <ele>2671.64</ele>
        <time>2016-09-28T06:51:32Z</time>
      </trkpt>
      <trkpt lat="42.67755" lon="1.39819">
        <ele>2673.56</ele>
        <time>2016-09-28T06:51:42Z</time>
      </trkpt>
      <trkpt lat="42.67754" lon="1.39823">
        <ele>2674.52</ele>
        <time>2016-09-28T06:51:51Z</time>
      </trkpt>
      <trkpt lat="42.6775" lon="1.3983">
        <ele>2676.45</ele>
        <time>2016-09-28T06:52:03Z</time>
      </trkpt>
      <trkpt lat="42.67748" lon="1.39833">
        <ele>2678.37</ele>
        <time>2016-09-28T06:52:14Z</time>
      </trkpt>
      <trkpt lat="42.67743" lon="1.39839">
        <ele>2679.81</ele>
        <time>2016-09-28T06:52:25Z</time>
      </trkpt>
      <trkpt lat="42.67737" lon="1.39844">
        <ele>2680.77</ele>
        <time>2016-09-28T06:52:38Z</time>
      </trkpt>
      <trkpt lat="42.67735" lon="1.39846">
        <ele>2682.7</ele>
        <time>2016-09-28T06:52:48Z</time>
      </trkpt>
      <trkpt lat="42.67732" lon="1.39853">
        <ele>2683.66</ele>
        <time>2016-09-28T06:52:54Z</time>
      </trkpt>
      <trkpt lat="42.67726" lon="1.39862">
        <ele>2685.1</ele>
        <time>2016-09-28T06:53:07Z</time>
      </trkpt>
      <trkpt lat="42.67724" lon="1.39866">
        <ele>2686.54</ele>
        <time>2016-09-28T06:53:16Z</time>
      </trkpt>
      <trkpt lat="42.67723" lon="1.39867">
        <ele>2686.54</ele>
        <time>2016-09-28T06:53:19Z</time>
      </trkpt>
      <trkpt lat="42.67721" lon="1.39874">
        <ele>2688.46</ele>
        <time>2016-09-28T06:53:29Z</time>
      </trkpt>
      <trkpt lat="42.6772" lon="1.39879">
        <ele>2690.39</ele>
        <time>2016-09-28T06:53:38Z</time>
      </trkpt>
      <trkpt lat="42.67719" lon="1.39885">
        <ele>2692.31</ele>
        <time>2016-09-28T06:53:50Z</time>
      </trkpt>
      <trkpt lat="42.67716" lon="1.39889">
        <ele>2693.75</ele>
        <time>2016-09-28T06:54:00Z</time>
      </trkpt>
      <trkpt lat="42.67713" lon="1.39893">
        <ele>2695.67</ele>
        <time>2016-09-28T06:54:10Z</time>
      </trkpt>
      <trkpt lat="42.67711" lon="1.39897">
        <ele>2697.12</ele>
        <time>2016-09-28T06:54:22Z</time>
      </trkpt>
      <trkpt lat="42.67709" lon="1.39903">
        <ele>2699.52</ele>
        <time>2016-09-28T06:54:34Z</time>
      </trkpt>
      <trkpt lat="42.67707" lon="1.39907">
        <ele>2702.88</ele>
        <time>2016-09-28T06:54:43Z</time>
      </trkpt>
      <trkpt lat="42.67706" lon="1.39905">
        <ele>2703.36</ele>
        <time>2016-09-28T06:55:02Z</time>
      </trkpt>
      <trkpt lat="42.67704" lon="1.39909">
        <ele>2702.4</ele>
        <time>2016-09-28T06:55:23Z</time>
      </trkpt>
      <trkpt lat="42.677" lon="1.39917">
        <ele>2702.4</ele>
        <time>2016-09-28T06:55:34Z</time>
      </trkpt>
      <trkpt lat="42.67696" lon="1.39916">
        <ele>2702.4</ele>
        <time>2016-09-28T06:55:47Z</time>
      </trkpt>
      <trkpt lat="42.67695" lon="1.39916">
        <ele>2703.36</ele>
        <time>2016-09-28T06:56:06Z</time>
      </trkpt>
      <trkpt lat="42.67694" lon="1.39913">
        <ele>2704.33</ele>
        <time>2016-09-28T06:56:19Z</time>
      </trkpt>
      <trkpt lat="42.67694" lon="1.39912">
        <ele>2704.33</ele>
        <time>2016-09-28T06:56:20Z</time>
      </trkpt>
      <trkpt lat="42.67689" lon="1.39905">
        <ele>2706.25</ele>
        <time>2016-09-28T06:56:33Z</time>
      </trkpt>
      <trkpt lat="42.67687" lon="1.39899">
        <ele>2708.65</ele>
        <time>2016-09-28T06:56:44Z</time>
      </trkpt>
      <trkpt lat="42.67684" lon="1.39894">
        <ele>2711.06</ele>
        <time>2016-09-28T06:56:54Z</time>
      </trkpt>
      <trkpt lat="42.67682" lon="1.3989">
        <ele>2714.42</ele>
        <time>2016-09-28T06:57:01Z</time>
      </trkpt>
      <trkpt lat="42.67678" lon="1.39887">
        <ele>2713.94</ele>
        <time>2016-09-28T06:57:11Z</time>
      </trkpt>
      <trkpt lat="42.67675" lon="1.39892">
        <ele>2715.38</ele>
        <time>2016-09-28T06:57:24Z</time>
      </trkpt>
      <trkpt lat="42.67673" lon="1.39894">
        <ele>2716.34</ele>
        <time>2016-09-28T06:57:33Z</time>
      </trkpt>
      <trkpt lat="42.6767" lon="1.39894">
        <ele>2717.78</ele>
        <time>2016-09-28T06:57:48Z</time>
      </trkpt>
      <trkpt lat="42.67664" lon="1.39894">
        <ele>2719.71</ele>
        <time>2016-09-28T06:58:00Z</time>
      </trkpt>
      <trkpt lat="42.67659" lon="1.39896">
        <ele>2721.15</ele>
        <time>2016-09-28T06:58:11Z</time>
      </trkpt>
      <trkpt lat="42.67655" lon="1.39903">
        <ele>2722.59</ele>
        <time>2016-09-28T06:58:22Z</time>
      </trkpt>
      <trkpt lat="42.67652" lon="1.39909">
        <ele>2724.99</ele>
        <time>2016-09-28T06:58:35Z</time>
      </trkpt>
      <trkpt lat="42.67646" lon="1.3991">
        <ele>2725.96</ele>
        <time>2016-09-28T06:58:46Z</time>
      </trkpt>
      <trkpt lat="42.67641" lon="1.39909">
        <ele>2727.88</ele>
        <time>2016-09-28T06:58:57Z</time>
      </trkpt>
      <trkpt lat="42.67636" lon="1.39908">
        <ele>2729.32</ele>
        <time>2016-09-28T06:59:08Z</time>
      </trkpt>
      <trkpt lat="42.67631" lon="1.39907">
        <ele>2731.24</ele>
        <time>2016-09-28T06:59:19Z</time>
      </trkpt>
      <trkpt lat="42.67627" lon="1.39904">
        <ele>2732.68</ele>
        <time>2016-09-28T06:59:30Z</time>
      </trkpt>
      <trkpt lat="42.67624" lon="1.39904">
        <ele>2733.65</ele>
        <time>2016-09-28T06:59:41Z</time>
      </trkpt>
      <trkpt lat="42.67622" lon="1.39903">
        <ele>2736.05</ele>
        <time>2016-09-28T06:59:47Z</time>
      </trkpt>
      <trkpt lat="42.67621" lon="1.39901">
        <ele>2739.41</ele>
        <time>2016-09-28T06:59:52Z</time>
      </trkpt>
      <trkpt lat="42.67617" lon="1.39896">
        <ele>2739.89</ele>
        <time>2016-09-28T07:00:03Z</time>
      </trkpt>
      <trkpt lat="42.67616" lon="1.39895">
        <ele>2739.89</ele>
        <time>2016-09-28T07:00:08Z</time>
      </trkpt>
      <trkpt lat="42.67613" lon="1.39896">
        <ele>2741.82</ele>
        <time>2016-09-28T07:00:17Z</time>
      </trkpt>
      <trkpt lat="42.67611" lon="1.39887">
        <ele>2743.74</ele>
        <time>2016-09-28T07:00:28Z</time>
      </trkpt>
      <trkpt lat="42.6761" lon="1.39886">
        <ele>2743.74</ele>
        <time>2016-09-28T07:00:29Z</time>
      </trkpt>
      <trkpt lat="42.67605" lon="1.39886">
        <ele>2745.18</ele>
        <time>2016-09-28T07:00:41Z</time>
      </trkpt>
      <trkpt lat="42.67603" lon="1.39882">
        <ele>2747.1</ele>
        <time>2016-09-28T07:00:53Z</time>
      </trkpt>
      <trkpt lat="42.67601" lon="1.39885">
        <ele>2749.99</ele>
        <time>2016-09-28T07:00:58Z</time>
      </trkpt>
      <trkpt lat="42.67599" lon="1.39883">
        <ele>2752.39</ele>
        <time>2016-09-28T07:01:10Z</time>
      </trkpt>
      <trkpt lat="42.67593" lon="1.39879">
        <ele>2752.39</ele>
        <time>2016-09-28T07:01:23Z</time>
      </trkpt>
      <trkpt lat="42.6759" lon="1.3988">
        <ele>2752.87</ele>
        <time>2016-09-28T07:01:33Z</time>
      </trkpt>
      <trkpt lat="42.67584" lon="1.3988">
        <ele>2755.28</ele>
        <time>2016-09-28T07:01:44Z</time>
      </trkpt>
      <trkpt lat="42.67583" lon="1.39881">
        <ele>2755.28</ele>
        <time>2016-09-28T07:01:46Z</time>
      </trkpt>
      <trkpt lat="42.67579" lon="1.39882">
        <ele>2755.76</ele>
        <time>2016-09-28T07:01:50Z</time>
      </trkpt>
      <trkpt lat="42.67575" lon="1.39883">
        <ele>2756.24</ele>
        <time>2016-09-28T07:01:56Z</time>
      </trkpt>
      <trkpt lat="42.67572" lon="1.39891">
        <ele>2757.2</ele>
        <time>2016-09-28T07:02:08Z</time>
      </trkpt>
      <trkpt lat="42.67568" lon="1.39892">
        <ele>2758.16</ele>
        <time>2016-09-28T07:02:19Z</time>
      </trkpt>
      <trkpt lat="42.67564" lon="1.39888">
        <ele>2760.08</ele>
        <time>2016-09-28T07:02:31Z</time>
      </trkpt>
      <trkpt lat="42.67561" lon="1.39889">
        <ele>2762.49</ele>
        <time>2016-09-28T07:02:44Z</time>
      </trkpt>
      <trkpt lat="42.67557" lon="1.39886">
        <ele>2764.89</ele>
        <time>2016-09-28T07:02:55Z</time>
      </trkpt>
      <trkpt lat="42.67554" lon="1.39884">
        <ele>2766.81</ele>
        <time>2016-09-28T07:03:05Z</time>
      </trkpt>
      <trkpt lat="42.67551" lon="1.39882">
        <ele>2769.21</ele>
        <time>2016-09-28T07:03:11Z</time>
      </trkpt>
      <trkpt lat="42.67549" lon="1.39881">
        <ele>2771.14</ele>
        <time>2016-09-28T07:03:30Z</time>
      </trkpt>
      <trkpt lat="42.67542" lon="1.39877">
        <ele>2771.14</ele>
        <time>2016-09-28T07:03:44Z</time>
      </trkpt>
      <trkpt lat="42.6754" lon="1.39876">
        <ele>2772.58</ele>
        <time>2016-09-28T07:03:48Z</time>
      </trkpt>
      <trkpt lat="42.67534" lon="1.39873">
        <ele>2774.5</ele>
        <time>2016-09-28T07:04:00Z</time>
      </trkpt>
      <trkpt lat="42.67527" lon="1.39871">
        <ele>2776.91</ele>
        <time>2016-09-28T07:04:13Z</time>
      </trkpt>
      <trkpt lat="42.67523" lon="1.39868">
        <ele>2778.35</ele>
        <time>2016-09-28T07:04:26Z</time>
      </trkpt>
      <trkpt lat="42.67521" lon="1.39866">
        <ele>2780.75</ele>
        <time>2016-09-28T07:04:43Z</time>
      </trkpt>
      <trkpt lat="42.67518" lon="1.39862">
        <ele>2782.19</ele>
        <time>2016-09-28T07:04:55Z</time>
      </trkpt>
      <trkpt lat="42.67517" lon="1.39861">
        <ele>2783.63</ele>
        <time>2016-09-28T07:05:05Z</time>
      </trkpt>
      <trkpt lat="42.67514" lon="1.39861">
        <ele>2784.6</ele>
        <time>2016-09-28T07:05:17Z</time>
      </trkpt>
      <trkpt lat="42.67511" lon="1.3986">
        <ele>2786.52</ele>
        <time>2016-09-28T07:05:27Z</time>
      </trkpt>
      <trkpt lat="42.67509" lon="1.39859">
        <ele>2788.44</ele>
        <time>2016-09-28T07:05:36Z</time>
      </trkpt>
      <trkpt lat="42.67509" lon="1.3986">
        <ele>2789.88</ele>
        <time>2016-09-28T07:05:47Z</time>
      </trkpt>
      <trkpt lat="42.67504" lon="1.3986">
        <ele>2791.81</ele>
        <time>2016-09-28T07:06:00Z</time>
      </trkpt>
      <trkpt lat="42.675" lon="1.39857">
        <ele>2793.73</ele>
        <time>2016-09-28T07:06:10Z</time>
      </trkpt>
      <trkpt lat="42.67498" lon="1.39858">
        <ele>2796.13</ele>
        <time>2016-09-28T07:06:24Z</time>
      </trkpt>
      <trkpt lat="42.67495" lon="1.3986">
        <ele>2798.54</ele>
        <time>2016-09-28T07:06:38Z</time>
      </trkpt>
      <trkpt lat="42.67495" lon="1.39863">
        <ele>2799.5</ele>
        <time>2016-09-28T07:06:58Z</time>
      </trkpt>
      <trkpt lat="42.67495" lon="1.39861">
        <ele>2799.5</ele>
        <time>2016-09-28T07:07:19Z</time>
      </trkpt>
      <trkpt lat="42.67494" lon="1.39861">
        <ele>2799.5</ele>
        <time>2016-09-28T07:07:24Z</time>
      </trkpt>
      <trkpt lat="42.67491" lon="1.39857">
        <ele>2799.98</ele>
        <time>2016-09-28T07:07:34Z</time>
      </trkpt>
      <trkpt lat="42.6749" lon="1.39856">
        <ele>2799.98</ele>
        <time>2016-09-28T07:07:39Z</time>
      </trkpt>
      <trkpt lat="42.67487" lon="1.39858">
        <ele>2802.38</ele>
        <time>2016-09-28T07:07:50Z</time>
      </trkpt>
      <trkpt lat="42.67483" lon="1.39856">
        <ele>2803.82</ele>
        <time>2016-09-28T07:08:03Z</time>
      </trkpt>
      <trkpt lat="42.67482" lon="1.39856">
        <ele>2806.71</ele>
        <time>2016-09-28T07:08:16Z</time>
      </trkpt>
      <trkpt lat="42.67478" lon="1.39856">
        <ele>2808.63</ele>
        <time>2016-09-28T07:08:28Z</time>
      </trkpt>
      <trkpt lat="42.67475" lon="1.39857">
        <ele>2810.55</ele>
        <time>2016-09-28T07:08:43Z</time>
      </trkpt>
      <trkpt lat="42.67472" lon="1.39859">
        <ele>2812.47</ele>
        <time>2016-09-28T07:08:55Z</time>
      </trkpt>
      <trkpt lat="42.67469" lon="1.39862">
        <ele>2813.44</ele>
        <time>2016-09-28T07:09:05Z</time>
      </trkpt>
      <trkpt lat="42.67466" lon="1.39863">
        <ele>2814.88</ele>
        <time>2016-09-28T07:09:16Z</time>
      </trkpt>
      <trkpt lat="42.67463" lon="1.39866">
        <ele>2816.32</ele>
        <time>2016-09-28T07:09:26Z</time>
      </trkpt>
      <trkpt lat="42.67457" lon="1.39864">
        <ele>2817.76</ele>
        <time>2016-09-28T07:09:36Z</time>
      </trkpt>
      <trkpt lat="42.67455" lon="1.39864">
        <ele>2819.68</ele>
        <time>2016-09-28T07:09:50Z</time>
      </trkpt>
      <trkpt lat="42.67453" lon="1.39863">
        <ele>2820.65</ele>
        <time>2016-09-28T07:10:01Z</time>
      </trkpt>
      <trkpt lat="42.67451" lon="1.39863">
        <ele>2822.09</ele>
        <time>2016-09-28T07:10:09Z</time>
      </trkpt>
      <trkpt lat="42.67448" lon="1.39867">
        <ele>2824.01</ele>
        <time>2016-09-28T07:10:20Z</time>
      </trkpt>
      <trkpt lat="42.67446" lon="1.3987">
        <ele>2825.93</ele>
        <time>2016-09-28T07:10:31Z</time>
      </trkpt>
      <trkpt lat="42.67443" lon="1.39875">
        <ele>2829.3</ele>
        <time>2016-09-28T07:10:41Z</time>
      </trkpt>
      <trkpt lat="42.67441" lon="1.39878">
        <ele>2832.66</ele>
        <time>2016-09-28T07:10:48Z</time>
      </trkpt>
      <trkpt lat="42.67435" lon="1.39878">
        <ele>2832.66</ele>
        <time>2016-09-28T07:10:58Z</time>
      </trkpt>
      <trkpt lat="42.67431" lon="1.39883">
        <ele>2832.66</ele>
        <time>2016-09-28T07:11:13Z</time>
      </trkpt>
      <trkpt lat="42.6743" lon="1.39883">
        <ele>2833.14</ele>
        <time>2016-09-28T07:11:18Z</time>
      </trkpt>
      <trkpt lat="42.67423" lon="1.39886">
        <ele>2833.62</ele>
        <time>2016-09-28T07:11:31Z</time>
      </trkpt>
      <trkpt lat="42.67419" lon="1.3989">
        <ele>2835.55</ele>
        <time>2016-09-28T07:11:42Z</time>
      </trkpt>
      <trkpt lat="42.67411" lon="1.39893">
        <ele>2836.99</ele>
        <time>2016-09-28T07:11:53Z</time>
      </trkpt>
      <trkpt lat="42.67406" lon="1.399">
        <ele>2838.91</ele>
        <time>2016-09-28T07:12:04Z</time>
      </trkpt>
      <trkpt lat="42.67405" lon="1.39902">
        <ele>2838.91</ele>
        <time>2016-09-28T07:12:06Z</time>
      </trkpt>
      <trkpt lat="42.674" lon="1.39907">
        <ele>2839.39</ele>
        <time>2016-09-28T07:12:15Z</time>
      </trkpt>
      <trkpt lat="42.67394" lon="1.3991">
        <ele>2839.87</ele>
        <time>2016-09-28T07:12:24Z</time>
      </trkpt>
      <trkpt lat="42.67387" lon="1.39923">
        <ele>2841.31</ele>
        <time>2016-09-28T07:12:37Z</time>
      </trkpt>
      <trkpt lat="42.67385" lon="1.39924">
        <ele>2841.31</ele>
        <time>2016-09-28T07:12:39Z</time>
      </trkpt>
      <trkpt lat="42.67383" lon="1.39925">
        <ele>2841.79</ele>
        <time>2016-09-28T07:12:42Z</time>
      </trkpt>
      <trkpt lat="42.67374" lon="1.39929">
        <ele>2842.28</ele>
        <time>2016-09-28T07:12:52Z</time>
      </trkpt>
      <trkpt lat="42.6737" lon="1.39936">
        <ele>2842.28</ele>
        <time>2016-09-28T07:12:59Z</time>
      </trkpt>
      <trkpt lat="42.67364" lon="1.39941">
        <ele>2843.72</ele>
        <time>2016-09-28T07:13:11Z</time>
      </trkpt>
      <trkpt lat="42.67362" lon="1.39941">
        <ele>2843.72</ele>
        <time>2016-09-28T07:13:15Z</time>
      </trkpt>
      <trkpt lat="42.67357" lon="1.39946">
        <ele>2845.64</ele>
        <time>2016-09-28T07:13:27Z</time>
      </trkpt>
      <trkpt lat="42.67356" lon="1.39952">
        <ele>2845.64</ele>
        <time>2016-09-28T07:13:37Z</time>
      </trkpt>
      <trkpt lat="42.67355" lon="1.39959">
        <ele>2844.68</ele>
        <time>2016-09-28T07:13:49Z</time>
      </trkpt>
      <trkpt lat="42.6735" lon="1.39962">
        <ele>2843.72</ele>
        <time>2016-09-28T07:13:59Z</time>
      </trkpt>
      <trkpt lat="42.67345" lon="1.39965">
        <ele>2843.72</ele>
        <time>2016-09-28T07:14:11Z</time>
      </trkpt>
      <trkpt lat="42.6734" lon="1.39963">
        <ele>2844.2</ele>
        <time>2016-09-28T07:14:20Z</time>
      </trkpt>
      <trkpt lat="42.67333" lon="1.39972">
        <ele>2845.16</ele>
        <time>2016-09-28T07:14:32Z</time>
      </trkpt>
      <trkpt lat="42.67329" lon="1.39976">
        <ele>2846.6</ele>
        <time>2016-09-28T07:14:42Z</time>
      </trkpt>
      <trkpt lat="42.67326" lon="1.39972">
        <ele>2848.52</ele>
        <time>2016-09-28T07:14:53Z</time>
      </trkpt>
      <trkpt lat="42.67322" lon="1.39966">
        <ele>2849.97</ele>
        <time>2016-09-28T07:15:04Z</time>
      </trkpt>
      <trkpt lat="42.67317" lon="1.39959">
        <ele>2852.37</ele>
        <time>2016-09-28T07:15:15Z</time>
      </trkpt>
      <trkpt lat="42.67313" lon="1.39958">
        <ele>2855.73</ele>
        <time>2016-09-28T07:15:23Z</time>
      </trkpt>
      <trkpt lat="42.67309" lon="1.39958">
        <ele>2858.62</ele>
        <time>2016-09-28T07:15:30Z</time>
      </trkpt>
      <trkpt lat="42.67303" lon="1.39952">
        <ele>2858.62</ele>
        <time>2016-09-28T07:15:44Z</time>
      </trkpt>
      <trkpt lat="42.67298" lon="1.39952">
        <ele>2859.1</ele>
        <time>2016-09-28T07:15:55Z</time>
      </trkpt>
      <trkpt lat="42.67293" lon="1.39952">
        <ele>2860.06</ele>
        <time>2016-09-28T07:16:05Z</time>
      </trkpt>
      <trkpt lat="42.67291" lon="1.3995">
        <ele>2861.98</ele>
        <time>2016-09-28T07:16:15Z</time>
      </trkpt>
      <trkpt lat="42.67284" lon="1.39947">
        <ele>2863.42</ele>
        <time>2016-09-28T07:16:27Z</time>
      </trkpt>
      <trkpt lat="42.67279" lon="1.39946">
        <ele>2864.39</ele>
        <time>2016-09-28T07:16:38Z</time>
      </trkpt>
      <trkpt lat="42.67271" lon="1.39945">
        <ele>2865.35</ele>
        <time>2016-09-28T07:16:49Z</time>
      </trkpt>
      <trkpt lat="42.67264" lon="1.39943">
        <ele>2865.83</ele>
        <time>2016-09-28T07:17:00Z</time>
      </trkpt>
      <trkpt lat="42.67264" lon="1.39943">
        <ele>2866.31</ele>
        <time>2016-09-28T07:17:13Z</time>
      </trkpt>
      <trkpt lat="42.67265" lon="1.39942">
        <ele>2868.23</ele>
        <time>2016-09-28T07:17:42Z</time>
      </trkpt>
      <trkpt lat="42.67262" lon="1.3994">
        <ele>2868.71</ele>
        <time>2016-09-28T07:18:05Z</time>
      </trkpt>
      <trkpt lat="42.67257" lon="1.39936">
        <ele>2868.71</ele>
        <time>2016-09-28T07:18:17Z</time>
      </trkpt>
      <trkpt lat="42.67257" lon="1.39936">
        <ele>2868.71</ele>
        <time>2016-09-28T07:18:29Z</time>
      </trkpt>
      <trkpt lat="42.67262" lon="1.3994">
        <ele>2868.71</ele>
        <time>2016-09-28T07:18:43Z</time>
      </trkpt>
      <trkpt lat="42.67263" lon="1.3994">
        <ele>2867.75</ele>
        <time>2016-09-28T07:19:04Z</time>
      </trkpt>
      <trkpt lat="42.6726" lon="1.39937">
        <ele>2867.75</ele>
        <time>2016-09-28T07:19:17Z</time>
      </trkpt>
      <trkpt lat="42.67251" lon="1.39933">
        <ele>2867.75</ele>
        <time>2016-09-28T07:19:29Z</time>
      </trkpt>
      <trkpt lat="42.67243" lon="1.39935">
        <ele>2867.75</ele>
        <time>2016-09-28T07:19:39Z</time>
      </trkpt>
      <trkpt lat="42.67242" lon="1.39932">
        <ele>2869.19</ele>
        <time>2016-09-28T07:19:43Z</time>
      </trkpt>
      <trkpt lat="42.67234" lon="1.39929">
        <ele>2869.67</ele>
        <time>2016-09-28T07:19:55Z</time>
      </trkpt>
      <trkpt lat="42.67228" lon="1.39931">
        <ele>2871.11</ele>
        <time>2016-09-28T07:20:04Z</time>
      </trkpt>
      <trkpt lat="42.67222" lon="1.39931">
        <ele>2872.56</ele>
        <time>2016-09-28T07:20:13Z</time>
      </trkpt>
      <trkpt lat="42.67219" lon="1.39932">
        <ele>2873.52</ele>
        <time>2016-09-28T07:20:21Z</time>
      </trkpt>
      <trkpt lat="42.67217" lon="1.39934">
        <ele>2874.48</ele>
        <time>2016-09-28T07:20:24Z</time>
      </trkpt>
      <trkpt lat="42.67211" lon="1.39936">
        <ele>2874.96</ele>
        <time>2016-09-28T07:20:34Z</time>
      </trkpt>
      <trkpt lat="42.67205" lon="1.39944">
        <ele>2875.44</ele>
        <time>2016-09-28T07:20:47Z</time>
      </trkpt>
      <trkpt lat="42.67203" lon="1.39948">
        <ele>2875.44</ele>
        <time>2016-09-28T07:20:55Z</time>
      </trkpt>
      <trkpt lat="42.67201" lon="1.3995">
        <ele>2875.44</ele>
        <time>2016-09-28T07:21:00Z</time>
      </trkpt>
      <trkpt lat="42.67198" lon="1.3996">
        <ele>2875.44</ele>
        <time>2016-09-28T07:21:12Z</time>
      </trkpt>
      <trkpt lat="42.67192" lon="1.39961">
        <ele>2875.92</ele>
        <time>2016-09-28T07:21:23Z</time>
      </trkpt>
      <trkpt lat="42.67191" lon="1.3996">
        <ele>2875.92</ele>
        <time>2016-09-28T07:21:24Z</time>
      </trkpt>
      <trkpt lat="42.67185" lon="1.39955">
        <ele>2878.32</ele>
        <time>2016-09-28T07:21:35Z</time>
      </trkpt>
      <trkpt lat="42.6718" lon="1.39961">
        <ele>2879.29</ele>
        <time>2016-09-28T07:21:48Z</time>
      </trkpt>
      <trkpt lat="42.67178" lon="1.3996">
        <ele>2879.29</ele>
        <time>2016-09-28T07:21:51Z</time>
      </trkpt>
      <trkpt lat="42.67176" lon="1.39962">
        <ele>2879.77</ele>
        <time>2016-09-28T07:21:56Z</time>
      </trkpt>
      <trkpt lat="42.67171" lon="1.39963">
        <ele>2881.21</ele>
        <time>2016-09-28T07:22:05Z</time>
      </trkpt>
      <trkpt lat="42.67171" lon="1.39967">
        <ele>2882.17</ele>
        <time>2016-09-28T07:22:14Z</time>
      </trkpt>
      <trkpt lat="42.67167" lon="1.39967">
        <ele>2883.13</ele>
        <time>2016-09-28T07:22:23Z</time>
      </trkpt>
      <trkpt lat="42.67164" lon="1.39968">
        <ele>2885.05</ele>
        <time>2016-09-28T07:22:35Z</time>
      </trkpt>
      <trkpt lat="42.67163" lon="1.39967">
        <ele>2885.53</ele>
        <time>2016-09-28T07:22:39Z</time>
      </trkpt>
      <trkpt lat="42.67161" lon="1.39964">
        <ele>2886.5</ele>
        <time>2016-09-28T07:22:44Z</time>
      </trkpt>
      <trkpt lat="42.67159" lon="1.39963">
        <ele>2887.94</ele>
        <time>2016-09-28T07:22:50Z</time>
      </trkpt>
      <trkpt lat="42.67156" lon="1.39964">
        <ele>2891.3</ele>
        <time>2016-09-28T07:22:56Z</time>
      </trkpt>
      <trkpt lat="42.67154" lon="1.39964">
        <ele>2892.74</ele>
        <time>2016-09-28T07:23:00Z</time>
      </trkpt>
      <trkpt lat="42.6715" lon="1.39969">
        <ele>2892.74</ele>
        <time>2016-09-28T07:23:11Z</time>
      </trkpt>
      <trkpt lat="42.67149" lon="1.39974">
        <ele>2893.23</ele>
        <time>2016-09-28T07:23:23Z</time>
      </trkpt>
      <trkpt lat="42.67146" lon="1.39972">
        <ele>2894.19</ele>
        <time>2016-09-28T07:23:36Z</time>
      </trkpt>
      <trkpt lat="42.67146" lon="1.39976">
        <ele>2894.67</ele>
        <time>2016-09-28T07:23:53Z</time>
      </trkpt>
      <trkpt lat="42.67145" lon="1.39975">
        <ele>2894.67</ele>
        <time>2016-09-28T07:24:04Z</time>
      </trkpt>
      <trkpt lat="42.67147" lon="1.39974">
        <ele>2894.67</ele>
        <time>2016-09-28T07:24:26Z</time>
      </trkpt>
      <trkpt lat="42.67146" lon="1.39976">
        <ele>2894.67</ele>
        <time>2016-09-28T07:24:40Z</time>
      </trkpt>
      <trkpt lat="42.67144" lon="1.39978">
        <ele>2894.67</ele>
        <time>2016-09-28T07:24:45Z</time>
      </trkpt>
      <trkpt lat="42.67138" lon="1.39982">
        <ele>2895.63</ele>
        <time>2016-09-28T07:24:58Z</time>
      </trkpt>
      <trkpt lat="42.67138" lon="1.39983">
        <ele>2895.63</ele>
        <time>2016-09-28T07:24:59Z</time>
      </trkpt>
      <trkpt lat="42.67136" lon="1.3999">
        <ele>2896.59</ele>
        <time>2016-09-28T07:25:10Z</time>
      </trkpt>
      <trkpt lat="42.67135" lon="1.39992">
        <ele>2896.59</ele>
        <time>2016-09-28T07:25:21Z</time>
      </trkpt>
      <trkpt lat="42.67131" lon="1.39994">
        <ele>2896.59</ele>
        <time>2016-09-28T07:25:27Z</time>
      </trkpt>
      <trkpt lat="42.67128" lon="1.39997">
        <ele>2896.59</ele>
        <time>2016-09-28T07:25:31Z</time>
      </trkpt>
      <trkpt lat="42.67124" lon="1.40005">
        <ele>2895.63</ele>
        <time>2016-09-28T07:25:43Z</time>
      </trkpt>
      <trkpt lat="42.67124" lon="1.4001">
        <ele>2897.55</ele>
        <time>2016-09-28T07:25:49Z</time>
      </trkpt>
      <trkpt lat="42.67121" lon="1.40017">
        <ele>2898.51</ele>
        <time>2016-09-28T07:25:57Z</time>
      </trkpt>
      <trkpt lat="42.67118" lon="1.40023">
        <ele>2899.95</ele>
        <time>2016-09-28T07:26:07Z</time>
      </trkpt>
      <trkpt lat="42.67117" lon="1.40025">
        <ele>2901.88</ele>
        <time>2016-09-28T07:26:26Z</time>
      </trkpt>
      <trkpt lat="42.67115" lon="1.40033">
        <ele>2903.8</ele>
        <time>2016-09-28T07:26:37Z</time>
      </trkpt>
      <trkpt lat="42.67115" lon="1.40043">
        <ele>2905.24</ele>
        <time>2016-09-28T07:26:48Z</time>
      </trkpt>
      <trkpt lat="42.67115" lon="1.40044">
        <ele>2905.72</ele>
        <time>2016-09-28T07:26:49Z</time>
      </trkpt>
      <trkpt lat="42.67111" lon="1.40052">
        <ele>2907.65</ele>
        <time>2016-09-28T07:27:00Z</time>
      </trkpt>
      <trkpt lat="42.67109" lon="1.40055">
        <ele>2908.61</ele>
        <time>2016-09-28T07:27:14Z</time>
      </trkpt>
      <trkpt lat="42.67108" lon="1.40054">
        <ele>2909.09</ele>
        <time>2016-09-28T07:27:42Z</time>
      </trkpt>
      <trkpt lat="42.67105" lon="1.40055">
        <ele>2909.09</ele>
        <time>2016-09-28T07:27:51Z</time>
      </trkpt>
      <trkpt lat="42.67102" lon="1.40054">
        <ele>2909.09</ele>
        <time>2016-09-28T07:27:54Z</time>
      </trkpt>
      <trkpt lat="42.67098" lon="1.40052">
        <ele>2909.09</ele>
        <time>2016-09-28T07:28:01Z</time>
      </trkpt>
      <trkpt lat="42.67093" lon="1.40048">
        <ele>2910.05</ele>
        <time>2016-09-28T07:28:13Z</time>
      </trkpt>
      <trkpt lat="42.67088" lon="1.40042">
        <ele>2911.49</ele>
        <time>2016-09-28T07:28:25Z</time>
      </trkpt>
      <trkpt lat="42.67084" lon="1.40036">
        <ele>2914.85</ele>
        <time>2016-09-28T07:28:36Z</time>
      </trkpt>
      <trkpt lat="42.67082" lon="1.40034">
        <ele>2918.22</ele>
        <time>2016-09-28T07:28:41Z</time>
      </trkpt>
      <trkpt lat="42.67077" lon="1.40032">
        <ele>2919.18</ele>
        <time>2016-09-28T07:28:50Z</time>
      </trkpt>
      <trkpt lat="42.67075" lon="1.40028">
        <ele>2919.18</ele>
        <time>2016-09-28T07:28:56Z</time>
      </trkpt>
      <trkpt lat="42.67074" lon="1.40022">
        <ele>2919.18</ele>
        <time>2016-09-28T07:29:06Z</time>
      </trkpt>
      <trkpt lat="42.67069" lon="1.40017">
        <ele>2920.62</ele>
        <time>2016-09-28T07:29:16Z</time>
      </trkpt>
      <trkpt lat="42.67068" lon="1.40014">
        <ele>2921.1</ele>
        <time>2016-09-28T07:29:19Z</time>
      </trkpt>
      <trkpt lat="42.67064" lon="1.40004">
        <ele>2922.06</ele>
        <time>2016-09-28T07:29:31Z</time>
      </trkpt>
      <trkpt lat="42.6706" lon="1.39998">
        <ele>2922.54</ele>
        <time>2016-09-28T07:29:43Z</time>
      </trkpt>
      <trkpt lat="42.67055" lon="1.39993">
        <ele>2926.39</ele>
        <time>2016-09-28T07:29:55Z</time>
      </trkpt>
      <trkpt lat="42.67053" lon="1.39993">
        <ele>2929.27</ele>
        <time>2016-09-28T07:29:59Z</time>
      </trkpt>
      <trkpt lat="42.67049" lon="1.39991">
        <ele>2929.75</ele>
        <time>2016-09-28T07:30:11Z</time>
      </trkpt>
      <trkpt lat="42.67046" lon="1.39993">
        <ele>2930.72</ele>
        <time>2016-09-28T07:30:20Z</time>
      </trkpt>
      <trkpt lat="42.67041" lon="1.39991">
        <ele>2932.16</ele>
        <time>2016-09-28T07:30:32Z</time>
      </trkpt>
      <trkpt lat="42.67038" lon="1.39989">
        <ele>2934.56</ele>
        <time>2016-09-28T07:30:43Z</time>
      </trkpt>
      <trkpt lat="42.67035" lon="1.39987">
        <ele>2936.97</ele>
        <time>2016-09-28T07:31:00Z</time>
      </trkpt>
      <trkpt lat="42.6703" lon="1.39984">
        <ele>2938.89</ele>
        <time>2016-09-28T07:31:13Z</time>
      </trkpt>
      <trkpt lat="42.6703" lon="1.39985">
        <ele>2941.77</ele>
        <time>2016-09-28T07:31:17Z</time>
      </trkpt>
      <trkpt lat="42.67029" lon="1.39986">
        <ele>2942.73</ele>
        <time>2016-09-28T07:31:19Z</time>
      </trkpt>
      <trkpt lat="42.67024" lon="1.39988">
        <ele>2943.21</ele>
        <time>2016-09-28T07:31:29Z</time>
      </trkpt>
      <trkpt lat="42.67018" lon="1.39988">
        <ele>2945.14</ele>
        <time>2016-09-28T07:31:42Z</time>
      </trkpt>
      <trkpt lat="42.67013" lon="1.39985">
        <ele>2946.58</ele>
        <time>2016-09-28T07:31:53Z</time>
      </trkpt>
      <trkpt lat="42.67012" lon="1.39981">
        <ele>2948.02</ele>
        <time>2016-09-28T07:32:05Z</time>
      </trkpt>
      <trkpt lat="42.67011" lon="1.39982">
        <ele>2949.94</ele>
        <time>2016-09-28T07:32:32Z</time>
      </trkpt>
      <trkpt lat="42.67006" lon="1.39977">
        <ele>2949.94</ele>
        <time>2016-09-28T07:32:43Z</time>
      </trkpt>
      <trkpt lat="42.67" lon="1.39977">
        <ele>2951.87</ele>
        <time>2016-09-28T07:32:54Z</time>
      </trkpt>
      <trkpt lat="42.66999" lon="1.39977">
        <ele>2951.87</ele>
        <time>2016-09-28T07:32:55Z</time>
      </trkpt>
      <trkpt lat="42.66996" lon="1.39976">
        <ele>2955.71</ele>
        <time>2016-09-28T07:33:01Z</time>
      </trkpt>
      <trkpt lat="42.66994" lon="1.39968">
        <ele>2956.67</ele>
        <time>2016-09-28T07:33:12Z</time>
      </trkpt>
      <trkpt lat="42.66994" lon="1.39961">
        <ele>2958.11</ele>
        <time>2016-09-28T07:33:24Z</time>
      </trkpt>
      <trkpt lat="42.66991" lon="1.39955">
        <ele>2960.52</ele>
        <time>2016-09-28T07:33:36Z</time>
      </trkpt>
      <trkpt lat="42.6699" lon="1.39948">
        <ele>2961.48</ele>
        <time>2016-09-28T07:33:49Z</time>
      </trkpt>
      <trkpt lat="42.66986" lon="1.39945">
        <ele>2965.32</ele>
        <time>2016-09-28T07:33:56Z</time>
      </trkpt>
      <trkpt lat="42.66987" lon="1.3994">
        <ele>2966.77</ele>
        <time>2016-09-28T07:34:09Z</time>
      </trkpt>
      <trkpt lat="42.66987" lon="1.3994">
        <ele>2966.77</ele>
        <time>2016-09-28T07:34:25Z</time>
      </trkpt>
      <trkpt lat="42.66987" lon="1.39939">
        <ele>2966.77</ele>
        <time>2016-09-28T07:34:36Z</time>
      </trkpt>
      <trkpt lat="42.6698" lon="1.39942">
        <ele>2968.21</ele>
        <time>2016-09-28T07:34:49Z</time>
      </trkpt>
      <trkpt lat="42.66975" lon="1.39944">
        <ele>2970.13</ele>
        <time>2016-09-28T07:34:59Z</time>
      </trkpt>
      <trkpt lat="42.66971" lon="1.39941">
        <ele>2972.05</ele>
        <time>2016-09-28T07:35:11Z</time>
      </trkpt>
      <trkpt lat="42.66968" lon="1.3994">
        <ele>2973.98</ele>
        <time>2016-09-28T07:35:23Z</time>
      </trkpt>
      <trkpt lat="42.66967" lon="1.3994">
        <ele>2976.86</ele>
        <time>2016-09-28T07:35:33Z</time>
      </trkpt>
      <trkpt lat="42.6696" lon="1.39942">
        <ele>2978.78</ele>
        <time>2016-09-28T07:35:47Z</time>
      </trkpt>
      <trkpt lat="42.66958" lon="1.39944">
        <ele>2980.22</ele>
        <time>2016-09-28T07:36:09Z</time>
      </trkpt>
      <trkpt lat="42.66956" lon="1.39938">
        <ele>2981.19</ele>
        <time>2016-09-28T07:36:20Z</time>
      </trkpt>
      <trkpt lat="42.66953" lon="1.39931">
        <ele>2983.11</ele>
        <time>2016-09-28T07:36:31Z</time>
      </trkpt>
      <trkpt lat="42.6695" lon="1.39933">
        <ele>2986.47</ele>
        <time>2016-09-28T07:36:39Z</time>
      </trkpt>
      <trkpt lat="42.66947" lon="1.39937">
        <ele>2987.91</ele>
        <time>2016-09-28T07:36:48Z</time>
      </trkpt>
      <trkpt lat="42.66943" lon="1.39942">
        <ele>2987.91</ele>
        <time>2016-09-28T07:37:01Z</time>
      </trkpt>
      <trkpt lat="42.66942" lon="1.39942">
        <ele>2990.32</ele>
        <time>2016-09-28T07:37:09Z</time>
      </trkpt>
      <trkpt lat="42.66934" lon="1.39943">
        <ele>2992.24</ele>
        <time>2016-09-28T07:37:21Z</time>
      </trkpt>
      <trkpt lat="42.66926" lon="1.39945">
        <ele>2994.16</ele>
        <time>2016-09-28T07:37:34Z</time>
      </trkpt>
      <trkpt lat="42.66921" lon="1.39948">
        <ele>2994.64</ele>
        <time>2016-09-28T07:37:45Z</time>
      </trkpt>
      <trkpt lat="42.66917" lon="1.39948">
        <ele>2998.49</ele>
        <time>2016-09-28T07:37:54Z</time>
      </trkpt>
      <trkpt lat="42.66917" lon="1.39949">
        <ele>3002.33</ele>
        <time>2016-09-28T07:37:59Z</time>
      </trkpt>
      <trkpt lat="42.66917" lon="1.39949">
        <ele>3002.33</ele>
        <time>2016-09-28T07:38:00Z</time>
      </trkpt>
      <trkpt lat="42.66916" lon="1.39949">
        <ele>2998.97</ele>
        <time>2016-09-28T07:38:07Z</time>
      </trkpt>
      <trkpt lat="42.66916" lon="1.39948">
        <ele>2998.49</ele>
        <time>2016-09-28T07:38:32Z</time>
      </trkpt>
      <trkpt lat="42.66912" lon="1.39942">
        <ele>3002.33</ele>
        <time>2016-09-28T07:38:44Z</time>
      </trkpt>
      <trkpt lat="42.66913" lon="1.39939">
        <ele>3005.22</ele>
        <time>2016-09-28T07:38:49Z</time>
      </trkpt>
      <trkpt lat="42.66909" lon="1.39936">
        <ele>3006.66</ele>
        <time>2016-09-28T07:38:59Z</time>
      </trkpt>
      <trkpt lat="42.66909" lon="1.39927">
        <ele>3007.14</ele>
        <time>2016-09-28T07:39:11Z</time>
      </trkpt>
      <trkpt lat="42.66908" lon="1.39926">
        <ele>3007.62</ele>
        <time>2016-09-28T07:39:22Z</time>
      </trkpt>
      <trkpt lat="42.66903" lon="1.39928">
        <ele>3009.06</ele>
        <time>2016-09-28T07:39:32Z</time>
      </trkpt>
      <trkpt lat="42.66895" lon="1.39929">
        <ele>3012.43</ele>
        <time>2016-09-28T07:39:44Z</time>
      </trkpt>
      <trkpt lat="42.66893" lon="1.39931">
        <ele>3014.35</ele>
        <time>2016-09-28T07:39:47Z</time>
      </trkpt>
      <trkpt lat="42.66884" lon="1.39931">
        <ele>3016.75</ele>
        <time>2016-09-28T07:40:00Z</time>
      </trkpt>
      <trkpt lat="42.66877" lon="1.39934">
        <ele>3016.75</ele>
        <time>2016-09-28T07:40:14Z</time>
      </trkpt>
      <trkpt lat="42.66873" lon="1.3993">
        <ele>3020.12</ele>
        <time>2016-09-28T07:40:25Z</time>
      </trkpt>
      <trkpt lat="42.66869" lon="1.39929">
        <ele>3023</ele>
        <time>2016-09-28T07:40:37Z</time>
      </trkpt>
      <trkpt lat="42.66867" lon="1.39928">
        <ele>3023</ele>
        <time>2016-09-28T07:40:57Z</time>
      </trkpt>
      <trkpt lat="42.66861" lon="1.39923">
        <ele>3025.89</ele>
        <time>2016-09-28T07:41:11Z</time>
      </trkpt>
      <trkpt lat="42.66858" lon="1.39918">
        <ele>3028.77</ele>
        <time>2016-09-28T07:41:22Z</time>
      </trkpt>
      <trkpt lat="42.66853" lon="1.39914">
        <ele>3030.21</ele>
        <time>2016-09-28T07:41:35Z</time>
      </trkpt>
      <trkpt lat="42.66855" lon="1.39907">
        <ele>3031.17</ele>
        <time>2016-09-28T07:41:45Z</time>
      </trkpt>
      <trkpt lat="42.66852" lon="1.39901">
        <ele>3033.58</ele>
        <time>2016-09-28T07:41:57Z</time>
      </trkpt>
      <trkpt lat="42.66846" lon="1.399">
        <ele>3035.5</ele>
        <time>2016-09-28T07:42:11Z</time>
      </trkpt>
      <trkpt lat="42.66842" lon="1.39899">
        <ele>3036.94</ele>
        <time>2016-09-28T07:42:23Z</time>
      </trkpt>
      <trkpt lat="42.66841" lon="1.39895">
        <ele>3040.31</ele>
        <time>2016-09-28T07:42:31Z</time>
      </trkpt>
      <trkpt lat="42.66838" lon="1.39893">
        <ele>3043.19</ele>
        <time>2016-09-28T07:42:40Z</time>
      </trkpt>
      <trkpt lat="42.66831" lon="1.39891">
        <ele>3044.15</ele>
        <time>2016-09-28T07:42:52Z</time>
      </trkpt>
      <trkpt lat="42.66828" lon="1.39889">
        <ele>3047.52</ele>
        <time>2016-09-28T07:43:05Z</time>
      </trkpt>
      <trkpt lat="42.66829" lon="1.39889">
        <ele>3050.4</ele>
        <time>2016-09-28T07:43:09Z</time>
      </trkpt>
      <trkpt lat="42.66829" lon="1.39889">
        <ele>3047.04</ele>
        <time>2016-09-28T07:43:16Z</time>
      </trkpt>
      <trkpt lat="42.66829" lon="1.39888">
        <ele>3044.15</ele>
        <time>2016-09-28T07:43:20Z</time>
      </trkpt>
      <trkpt lat="42.66829" lon="1.39886">
        <ele>3047.52</ele>
        <time>2016-09-28T07:43:31Z</time>
      </trkpt>
      <trkpt lat="42.66828" lon="1.39883">
        <ele>3049.92</ele>
        <time>2016-09-28T07:43:36Z</time>
      </trkpt>
      <trkpt lat="42.66825" lon="1.39878">
        <ele>3049.92</ele>
        <time>2016-09-28T07:43:42Z</time>
      </trkpt>
      <trkpt lat="42.66821" lon="1.39865">
        <ele>3048.48</ele>
        <time>2016-09-28T07:43:57Z</time>
      </trkpt>
      <trkpt lat="42.66819" lon="1.39858">
        <ele>3048.48</ele>
        <time>2016-09-28T07:44:04Z</time>
      </trkpt>
      <trkpt lat="42.66819" lon="1.39845">
        <ele>3049.92</ele>
        <time>2016-09-28T07:44:18Z</time>
      </trkpt>
      <trkpt lat="42.66817" lon="1.39836">
        <ele>3051.36</ele>
        <time>2016-09-28T07:44:30Z</time>
      </trkpt>
      <trkpt lat="42.66812" lon="1.39834">
        <ele>3052.32</ele>
        <time>2016-09-28T07:44:41Z</time>
      </trkpt>
      <trkpt lat="42.66813" lon="1.39831">
        <ele>3055.69</ele>
        <time>2016-09-28T07:44:45Z</time>
      </trkpt>
      <trkpt lat="42.66811" lon="1.39826">
        <ele>3057.13</ele>
        <time>2016-09-28T07:44:56Z</time>
      </trkpt>
      <trkpt lat="42.66809" lon="1.3982">
        <ele>3058.09</ele>
        <time>2016-09-28T07:45:10Z</time>
      </trkpt>
      <trkpt lat="42.66809" lon="1.39816">
        <ele>3060.01</ele>
        <time>2016-09-28T07:45:23Z</time>
      </trkpt>
      <trkpt lat="42.66809" lon="1.39816">
        <ele>3060.98</ele>
        <time>2016-09-28T07:45:52Z</time>
      </trkpt>
      <trkpt lat="42.66809" lon="1.39811">
        <ele>3062.42</ele>
        <time>2016-09-28T07:46:03Z</time>
      </trkpt>
      <trkpt lat="42.66805" lon="1.39806">
        <ele>3064.34</ele>
        <time>2016-09-28T07:46:14Z</time>
      </trkpt>
      <trkpt lat="42.66805" lon="1.39799">
        <ele>3065.78</ele>
        <time>2016-09-28T07:46:25Z</time>
      </trkpt>
      <trkpt lat="42.66804" lon="1.39796">
        <ele>3069.15</ele>
        <time>2016-09-28T07:46:31Z</time>
      </trkpt>
      <trkpt lat="42.66803" lon="1.39789">
        <ele>3071.55</ele>
        <time>2016-09-28T07:46:44Z</time>
      </trkpt>
      <trkpt lat="42.66802" lon="1.39789">
        <ele>3072.03</ele>
        <time>2016-09-28T07:46:58Z</time>
      </trkpt>
      <trkpt lat="42.66802" lon="1.39789">
        <ele>3072.03</ele>
        <time>2016-09-28T07:47:14Z</time>
      </trkpt>
      <trkpt lat="42.66801" lon="1.39785">
        <ele>3072.03</ele>
        <time>2016-09-28T07:47:25Z</time>
      </trkpt>
      <trkpt lat="42.668" lon="1.39775">
        <ele>3074.43</ele>
        <time>2016-09-28T07:47:40Z</time>
      </trkpt>
      <trkpt lat="42.66798" lon="1.39775">
        <ele>3077.8</ele>
        <time>2016-09-28T07:47:46Z</time>
      </trkpt>
      <trkpt lat="42.66794" lon="1.39778">
        <ele>3078.76</ele>
        <time>2016-09-28T07:47:59Z</time>
      </trkpt>
      <trkpt lat="42.66792" lon="1.39773">
        <ele>3080.68</ele>
        <time>2016-09-28T07:48:11Z</time>
      </trkpt>
      <trkpt lat="42.66791" lon="1.39769">
        <ele>3081.64</ele>
        <time>2016-09-28T07:48:29Z</time>
      </trkpt>
      <trkpt lat="42.6679" lon="1.39763">
        <ele>3083.57</ele>
        <time>2016-09-28T07:48:40Z</time>
      </trkpt>
      <trkpt lat="42.66789" lon="1.39756">
        <ele>3086.45</ele>
        <time>2016-09-28T07:48:52Z</time>
      </trkpt>
      <trkpt lat="42.66788" lon="1.39756">
        <ele>3089.33</ele>
        <time>2016-09-28T07:48:56Z</time>
      </trkpt>
      <trkpt lat="42.66786" lon="1.39757">
        <ele>3092.22</ele>
        <time>2016-09-28T07:49:01Z</time>
      </trkpt>
      <trkpt lat="42.66784" lon="1.39756">
        <ele>3092.22</ele>
        <time>2016-09-28T07:49:12Z</time>
      </trkpt>
      <trkpt lat="42.66782" lon="1.39751">
        <ele>3092.7</ele>
        <time>2016-09-28T07:49:29Z</time>
      </trkpt>
      <trkpt lat="42.66777" lon="1.39748">
        <ele>3094.62</ele>
        <time>2016-09-28T07:49:42Z</time>
      </trkpt>
      <trkpt lat="42.66773" lon="1.39746">
        <ele>3097.99</ele>
        <time>2016-09-28T07:49:55Z</time>
      </trkpt>
      <trkpt lat="42.66771" lon="1.39754">
        <ele>3100.39</ele>
        <time>2016-09-28T07:50:07Z</time>
      </trkpt>
      <trkpt lat="42.66767" lon="1.39757">
        <ele>3100.87</ele>
        <time>2016-09-28T07:50:19Z</time>
      </trkpt>
      <trkpt lat="42.66766" lon="1.3976">
        <ele>3101.83</ele>
        <time>2016-09-28T07:50:39Z</time>
      </trkpt>
      <trkpt lat="42.66765" lon="1.39761">
        <ele>3105.2</ele>
        <time>2016-09-28T07:50:44Z</time>
      </trkpt>
      <trkpt lat="42.66762" lon="1.39761">
        <ele>3109.04</ele>
        <time>2016-09-28T07:50:50Z</time>
      </trkpt>
      <trkpt lat="42.66759" lon="1.3976">
        <ele>3108.56</ele>
        <time>2016-09-28T07:51:02Z</time>
      </trkpt>
      <trkpt lat="42.66755" lon="1.39759">
        <ele>3108.56</ele>
        <time>2016-09-28T07:51:14Z</time>
      </trkpt>
      <trkpt lat="42.66754" lon="1.3976">
        <ele>3110</ele>
        <time>2016-09-28T07:51:26Z</time>
      </trkpt>
      <trkpt lat="42.66752" lon="1.39761">
        <ele>3110.96</ele>
        <time>2016-09-28T07:51:39Z</time>
      </trkpt>
      <trkpt lat="42.66748" lon="1.39762">
        <ele>3112.41</ele>
        <time>2016-09-28T07:51:50Z</time>
      </trkpt>
      <trkpt lat="42.66745" lon="1.39763">
        <ele>3114.81</ele>
        <time>2016-09-28T07:52:02Z</time>
      </trkpt>
      <trkpt lat="42.66745" lon="1.39762">
        <ele>3117.69</ele>
        <time>2016-09-28T07:52:08Z</time>
      </trkpt>
      <trkpt lat="42.66744" lon="1.39762">
        <ele>3118.17</ele>
        <time>2016-09-28T07:52:24Z</time>
      </trkpt>
      <trkpt lat="42.66743" lon="1.39762">
        <ele>3118.17</ele>
        <time>2016-09-28T07:52:25Z</time>
      </trkpt>
      <trkpt lat="42.66741" lon="1.39763">
        <ele>3118.17</ele>
        <time>2016-09-28T07:52:36Z</time>
      </trkpt>
      <trkpt lat="42.66739" lon="1.39763">
        <ele>3119.62</ele>
        <time>2016-09-28T07:52:48Z</time>
      </trkpt>
      <trkpt lat="42.66739" lon="1.39764">
        <ele>3122.5</ele>
        <time>2016-09-28T07:52:55Z</time>
      </trkpt>
      <trkpt lat="42.66737" lon="1.39764">
        <ele>3122.98</ele>
        <time>2016-09-28T07:53:07Z</time>
      </trkpt>
      <trkpt lat="42.66736" lon="1.39762">
        <ele>3123.94</ele>
        <time>2016-09-28T07:53:20Z</time>
      </trkpt>
      <trkpt lat="42.66735" lon="1.39762">
        <ele>3124.9</ele>
        <time>2016-09-28T07:53:34Z</time>
      </trkpt>
      <trkpt lat="42.66731" lon="1.39764">
        <ele>3125.86</ele>
        <time>2016-09-28T07:53:48Z</time>
      </trkpt>
      <trkpt lat="42.66727" lon="1.39766">
        <ele>3127.79</ele>
        <time>2016-09-28T07:53:59Z</time>
      </trkpt>
      <trkpt lat="42.66726" lon="1.39766">
        <ele>3128.27</ele>
        <time>2016-09-28T07:54:04Z</time>
      </trkpt>
      <trkpt lat="42.66721" lon="1.3977">
        <ele>3129.23</ele>
        <time>2016-09-28T07:54:13Z</time>
      </trkpt>
      <trkpt lat="42.66718" lon="1.39773">
        <ele>3130.67</ele>
        <time>2016-09-28T07:54:22Z</time>
      </trkpt>
      <trkpt lat="42.66714" lon="1.39776">
        <ele>3131.63</ele>
        <time>2016-09-28T07:54:32Z</time>
      </trkpt>
      <trkpt lat="42.66711" lon="1.39781">
        <ele>3131.63</ele>
        <time>2016-09-28T07:54:41Z</time>
      </trkpt>
      <trkpt lat="42.66704" lon="1.39785">
        <ele>3133.07</ele>
        <time>2016-09-28T07:54:51Z</time>
      </trkpt>
      <trkpt lat="42.66702" lon="1.39787">
        <ele>3133.07</ele>
        <time>2016-09-28T07:55:00Z</time>
      </trkpt>
      <trkpt lat="42.667" lon="1.3979">
        <ele>3133.55</ele>
        <time>2016-09-28T07:55:11Z</time>
      </trkpt>
      <trkpt lat="42.66699" lon="1.39791">
        <ele>3133.55</ele>
        <time>2016-09-28T07:55:30Z</time>
      </trkpt>
      <trkpt lat="42.66699" lon="1.39791">
        <ele>3133.55</ele>
        <time>2016-09-28T07:55:46Z</time>
      </trkpt>
      <trkpt lat="42.66699" lon="1.39791">
        <ele>3134.04</ele>
        <time>2016-09-28T07:56:06Z</time>
      </trkpt>
      <trkpt lat="42.66697" lon="1.3979">
        <ele>3134.04</ele>
        <time>2016-09-28T07:56:18Z</time>
      </trkpt>
      <trkpt lat="42.66696" lon="1.3979">
        <ele>3134.52</ele>
        <time>2016-09-28T07:56:42Z</time>
      </trkpt>
      <trkpt lat="42.66696" lon="1.3979">
        <ele>3134.52</ele>
        <time>2016-09-28T07:57:05Z</time>
      </trkpt>
      <trkpt lat="42.66696" lon="1.3979">
        <ele>3134.52</ele>
        <time>2016-09-28T07:57:32Z</time>
      </trkpt>
      <trkpt lat="42.66696" lon="1.3979">
        <ele>3134.52</ele>
        <time>2016-09-28T07:57:36Z</time>
      </trkpt>
      <trkpt lat="42.66696" lon="1.39791">
        <ele>3134.52</ele>
        <time>2016-09-28T07:57:45Z</time>
      </trkpt>
      <trkpt lat="42.66695" lon="1.39791">
        <ele>3135</ele>
        <time>2016-09-28T07:58:10Z</time>
      </trkpt>
      <trkpt lat="42.66696" lon="1.39792">
        <ele>3135</ele>
        <time>2016-09-28T07:58:37Z</time>
      </trkpt>
      <trkpt lat="42.66696" lon="1.39791">
        <ele>3135</ele>
        <time>2016-09-28T07:58:54Z</time>
      </trkpt>
      <trkpt lat="42.66696" lon="1.39791">
        <ele>3135</ele>
        <time>2016-09-28T07:59:09Z</time>
      </trkpt>
      <trkpt lat="42.66696" lon="1.39791">
        <ele>3135.48</ele>
        <time>2016-09-28T07:59:25Z</time>
      </trkpt>
      <trkpt lat="42.66696" lon="1.39791">
        <ele>3135.48</ele>
        <time>2016-09-28T07:59:52Z</time>
      </trkpt>
      <trkpt lat="42.66696" lon="1.39791">
        <ele>3135.48</ele>
        <time>2016-09-28T08:00:15Z</time>
      </trkpt>
      <trkpt lat="42.66696" lon="1.39791">
        <ele>3135.48</ele>
        <time>2016-09-28T08:00:34Z</time>
      </trkpt>
      <trkpt lat="42.66696" lon="1.39791">
        <ele>3135.96</ele>
        <time>2016-09-28T08:00:59Z</time>
      </trkpt>
      <trkpt lat="42.66696" lon="1.39791">
        <ele>3135</ele>
        <time>2016-09-28T08:01:15Z</time>
      </trkpt>
      <trkpt lat="42.66696" lon="1.39791">
        <ele>3135</ele>
        <time>2016-09-28T08:01:43Z</time>
      </trkpt>
      <trkpt lat="42.66698" lon="1.3979">
        <ele>3135</ele>
        <time>2016-09-28T08:01:54Z</time>
      </trkpt>
      <trkpt lat="42.66698" lon="1.3979">
        <ele>3135</ele>
        <time>2016-09-28T08:01:56Z</time>
      </trkpt>
      <trkpt lat="42.66704" lon="1.39785">
        <ele>3135</ele>
        <time>2016-09-28T08:02:07Z</time>
      </trkpt>
      <trkpt lat="42.66709" lon="1.39781">
        <ele>3135</ele>
        <time>2016-09-28T08:02:17Z</time>
      </trkpt>
      <trkpt lat="42.66716" lon="1.39773">
        <ele>3133.55</ele>
        <time>2016-09-28T08:02:30Z</time>
      </trkpt>
      <trkpt lat="42.66721" lon="1.3977">
        <ele>3132.59</ele>
        <time>2016-09-28T08:02:39Z</time>
      </trkpt>
      <trkpt lat="42.66724" lon="1.39768">
        <ele>3131.63</ele>
        <time>2016-09-28T08:02:51Z</time>
      </trkpt>
      <trkpt lat="42.66727" lon="1.39765">
        <ele>3130.19</ele>
        <time>2016-09-28T08:03:03Z</time>
      </trkpt>
      <trkpt lat="42.66727" lon="1.39766">
        <ele>3130.19</ele>
        <time>2016-09-28T08:03:04Z</time>
      </trkpt>
      <trkpt lat="42.66728" lon="1.39768">
        <ele>3128.75</ele>
        <time>2016-09-28T08:03:08Z</time>
      </trkpt>
      <trkpt lat="42.66731" lon="1.39767">
        <ele>3125.38</ele>
        <time>2016-09-28T08:03:16Z</time>
      </trkpt>
      <trkpt lat="42.66733" lon="1.39766">
        <ele>3123.94</ele>
        <time>2016-09-28T08:03:24Z</time>
      </trkpt>
      <trkpt lat="42.66735" lon="1.39767">
        <ele>3123.94</ele>
        <time>2016-09-28T08:03:33Z</time>
      </trkpt>
      <trkpt lat="42.66736" lon="1.39766">
        <ele>3123.46</ele>
        <time>2016-09-28T08:03:43Z</time>
      </trkpt>
      <trkpt lat="42.66737" lon="1.39766">
        <ele>3122.5</ele>
        <time>2016-09-28T08:03:52Z</time>
      </trkpt>
      <trkpt lat="42.66739" lon="1.39766">
        <ele>3120.58</ele>
        <time>2016-09-28T08:04:00Z</time>
      </trkpt>
      <trkpt lat="42.66742" lon="1.39763">
        <ele>3119.62</ele>
        <time>2016-09-28T08:04:09Z</time>
      </trkpt>
      <trkpt lat="42.66745" lon="1.39762">
        <ele>3118.17</ele>
        <time>2016-09-28T08:04:19Z</time>
      </trkpt>
      <trkpt lat="42.66748" lon="1.3976">
        <ele>3114.81</ele>
        <time>2016-09-28T08:04:27Z</time>
      </trkpt>
      <trkpt lat="42.66749" lon="1.3976">
        <ele>3111.44</ele>
        <time>2016-09-28T08:04:32Z</time>
      </trkpt>
      <trkpt lat="42.66753" lon="1.39759">
        <ele>3110.48</ele>
        <time>2016-09-28T08:04:42Z</time>
      </trkpt>
      <trkpt lat="42.66757" lon="1.39761">
        <ele>3110.48</ele>
        <time>2016-09-28T08:04:51Z</time>
      </trkpt>
      <trkpt lat="42.66759" lon="1.39763">
        <ele>3109.52</ele>
        <time>2016-09-28T08:04:59Z</time>
      </trkpt>
      <trkpt lat="42.66765" lon="1.39757">
        <ele>3106.64</ele>
        <time>2016-09-28T08:05:12Z</time>
      </trkpt>
      <trkpt lat="42.66768" lon="1.39752">
        <ele>3103.75</ele>
        <time>2016-09-28T08:05:20Z</time>
      </trkpt>
      <trkpt lat="42.66768" lon="1.39748">
        <ele>3101.83</ele>
        <time>2016-09-28T08:05:23Z</time>
      </trkpt>
      <trkpt lat="42.66768" lon="1.39739">
        <ele>3100.39</ele>
        <time>2016-09-28T08:05:34Z</time>
      </trkpt>
      <trkpt lat="42.66771" lon="1.39745">
        <ele>3100.39</ele>
        <time>2016-09-28T08:05:39Z</time>
      </trkpt>
      <trkpt lat="42.66773" lon="1.39744">
        <ele>3100.39</ele>
        <time>2016-09-28T08:05:41Z</time>
      </trkpt>
      <trkpt lat="42.6678" lon="1.39751">
        <ele>3099.43</ele>
        <time>2016-09-28T08:05:54Z</time>
      </trkpt>
      <trkpt lat="42.66783" lon="1.39752">
        <ele>3097.51</ele>
        <time>2016-09-28T08:05:59Z</time>
      </trkpt>
      <trkpt lat="42.66784" lon="1.39757">
        <ele>3093.18</ele>
        <time>2016-09-28T08:06:03Z</time>
      </trkpt>
      <trkpt lat="42.66785" lon="1.39757">
        <ele>3092.22</ele>
        <time>2016-09-28T08:06:04Z</time>
      </trkpt>
      <trkpt lat="42.66791" lon="1.39757">
        <ele>3089.33</ele>
        <time>2016-09-28T08:06:13Z</time>
      </trkpt>
      <trkpt lat="42.66791" lon="1.39769">
        <ele>3088.85</ele>
        <time>2016-09-28T08:06:25Z</time>
      </trkpt>
      <trkpt lat="42.66791" lon="1.39776">
        <ele>3085.49</ele>
        <time>2016-09-28T08:06:34Z</time>
      </trkpt>
      <trkpt lat="42.66792" lon="1.39775">
        <ele>3082.6</ele>
        <time>2016-09-28T08:06:38Z</time>
      </trkpt>
      <trkpt lat="42.66797" lon="1.39774">
        <ele>3081.16</ele>
        <time>2016-09-28T08:06:44Z</time>
      </trkpt>
      <trkpt lat="42.66802" lon="1.39785">
        <ele>3079.24</ele>
        <time>2016-09-28T08:06:56Z</time>
      </trkpt>
      <trkpt lat="42.66802" lon="1.39786">
        <ele>3079.72</ele>
        <time>2016-09-28T08:06:57Z</time>
      </trkpt>
      <trkpt lat="42.66802" lon="1.39791">
        <ele>3075.88</ele>
        <time>2016-09-28T08:07:02Z</time>
      </trkpt>
      <trkpt lat="42.66805" lon="1.39796">
        <ele>3073.47</ele>
        <time>2016-09-28T08:07:13Z</time>
      </trkpt>
      <trkpt lat="42.66806" lon="1.39802">
        <ele>3072.99</ele>
        <time>2016-09-28T08:07:22Z</time>
      </trkpt>
      <trkpt lat="42.66806" lon="1.39802">
        <ele>3072.51</ele>
        <time>2016-09-28T08:07:23Z</time>
      </trkpt>
      <trkpt lat="42.66806" lon="1.3981">
        <ele>3071.07</ele>
        <time>2016-09-28T08:07:35Z</time>
      </trkpt>
      <trkpt lat="42.66809" lon="1.39809">
        <ele>3069.63</ele>
        <time>2016-09-28T08:07:40Z</time>
      </trkpt>
      <trkpt lat="42.66809" lon="1.39817">
        <ele>3066.74</ele>
        <time>2016-09-28T08:07:50Z</time>
      </trkpt>
      <trkpt lat="42.6681" lon="1.39819">
        <ele>3063.38</ele>
        <time>2016-09-28T08:07:55Z</time>
      </trkpt>
      <trkpt lat="42.66812" lon="1.39827">
        <ele>3062.42</ele>
        <time>2016-09-28T08:08:04Z</time>
      </trkpt>
      <trkpt lat="42.66814" lon="1.39833">
        <ele>3061.94</ele>
        <time>2016-09-28T08:08:14Z</time>
      </trkpt>
      <trkpt lat="42.66814" lon="1.39835">
        <ele>3061.94</ele>
        <time>2016-09-28T08:08:16Z</time>
      </trkpt>
      <trkpt lat="42.6682" lon="1.3984">
        <ele>3059.53</ele>
        <time>2016-09-28T08:08:26Z</time>
      </trkpt>
      <trkpt lat="42.66821" lon="1.39848">
        <ele>3058.57</ele>
        <time>2016-09-28T08:08:33Z</time>
      </trkpt>
      <trkpt lat="42.6682" lon="1.39852">
        <ele>3058.09</ele>
        <time>2016-09-28T08:08:36Z</time>
      </trkpt>
      <trkpt lat="42.66821" lon="1.39861">
        <ele>3053.77</ele>
        <time>2016-09-28T08:08:44Z</time>
      </trkpt>
      <trkpt lat="42.66825" lon="1.39876">
        <ele>3053.77</ele>
        <time>2016-09-28T08:08:57Z</time>
      </trkpt>
      <trkpt lat="42.66827" lon="1.39883">
        <ele>3053.28</ele>
        <time>2016-09-28T08:09:04Z</time>
      </trkpt>
      <trkpt lat="42.66835" lon="1.3989">
        <ele>3051.36</ele>
        <time>2016-09-28T08:09:16Z</time>
      </trkpt>
      <trkpt lat="42.66842" lon="1.39897">
        <ele>3048.96</ele>
        <time>2016-09-28T08:09:28Z</time>
      </trkpt>
      <trkpt lat="42.66846" lon="1.39899">
        <ele>3045.59</ele>
        <time>2016-09-28T08:09:39Z</time>
      </trkpt>
      <trkpt lat="42.66847" lon="1.39899">
        <ele>3044.15</ele>
        <time>2016-09-28T08:09:41Z</time>
      </trkpt>
      <trkpt lat="42.66852" lon="1.39899">
        <ele>3040.79</ele>
        <time>2016-09-28T08:09:47Z</time>
      </trkpt>
      <trkpt lat="42.66854" lon="1.399">
        <ele>3040.79</ele>
        <time>2016-09-28T08:09:49Z</time>
      </trkpt>
      <trkpt lat="42.6685" lon="1.39913">
        <ele>3040.31</ele>
        <time>2016-09-28T08:10:01Z</time>
      </trkpt>
      <trkpt lat="42.66847" lon="1.39923">
        <ele>3039.35</ele>
        <time>2016-09-28T08:10:13Z</time>
      </trkpt>
      <trkpt lat="42.66847" lon="1.39928">
        <ele>3038.38</ele>
        <time>2016-09-28T08:10:19Z</time>
      </trkpt>
      <trkpt lat="42.66849" lon="1.39929">
        <ele>3038.38</ele>
        <time>2016-09-28T08:10:21Z</time>
      </trkpt>
      <trkpt lat="42.66847" lon="1.39935">
        <ele>3037.9</ele>
        <time>2016-09-28T08:10:25Z</time>
      </trkpt>
      <trkpt lat="42.66845" lon="1.39938">
        <ele>3037.42</ele>
        <time>2016-09-28T08:10:29Z</time>
      </trkpt>
      <trkpt lat="42.66845" lon="1.39946">
        <ele>3033.58</ele>
        <time>2016-09-28T08:10:36Z</time>
      </trkpt>
      <trkpt lat="42.66843" lon="1.39959">
        <ele>3034.06</ele>
        <time>2016-09-28T08:10:47Z</time>
      </trkpt>
      <trkpt lat="42.66843" lon="1.39974">
        <ele>3030.21</ele>
        <time>2016-09-28T08:11:00Z</time>
      </trkpt>
      <trkpt lat="42.66842" lon="1.39979">
        <ele>3028.77</ele>
        <time>2016-09-28T08:11:05Z</time>
      </trkpt>
      <trkpt lat="42.66841" lon="1.39992">
        <ele>3028.77</ele>
        <time>2016-09-28T08:11:19Z</time>
      </trkpt>
      <trkpt lat="42.66843" lon="1.40006">
        <ele>3026.85</ele>
        <time>2016-09-28T08:11:31Z</time>
      </trkpt>
      <trkpt lat="42.66853" lon="1.40019">
        <ele>3026.37</ele>
        <time>2016-09-28T08:11:45Z</time>
      </trkpt>
      <trkpt lat="42.66862" lon="1.40028">
        <ele>3025.89</ele>
        <time>2016-09-28T08:11:57Z</time>
      </trkpt>
      <trkpt lat="42.66871" lon="1.40037">
        <ele>3025.89</ele>
        <time>2016-09-28T08:12:09Z</time>
      </trkpt>
      <trkpt lat="42.66882" lon="1.40043">
        <ele>3025.89</ele>
        <time>2016-09-28T08:12:22Z</time>
      </trkpt>
      <trkpt lat="42.66889" lon="1.40046">
        <ele>3025.41</ele>
        <time>2016-09-28T08:12:33Z</time>
      </trkpt>
      <trkpt lat="42.66895" lon="1.40055">
        <ele>3023.48</ele>
        <time>2016-09-28T08:12:44Z</time>
      </trkpt>
      <trkpt lat="42.66898" lon="1.4006">
        <ele>3021.08</ele>
        <time>2016-09-28T08:12:49Z</time>
      </trkpt>
      <trkpt lat="42.66899" lon="1.40064">
        <ele>3019.16</ele>
        <time>2016-09-28T08:12:52Z</time>
      </trkpt>
      <trkpt lat="42.66899" lon="1.40068">
        <ele>3019.16</ele>
        <time>2016-09-28T08:12:56Z</time>
      </trkpt>
      <trkpt lat="42.66899" lon="1.40076">
        <ele>3018.68</ele>
        <time>2016-09-28T08:13:02Z</time>
      </trkpt>
      <trkpt lat="42.66905" lon="1.40083">
        <ele>3019.16</ele>
        <time>2016-09-28T08:13:14Z</time>
      </trkpt>
      <trkpt lat="42.66911" lon="1.40089">
        <ele>3018.68</ele>
        <time>2016-09-28T08:13:25Z</time>
      </trkpt>
      <trkpt lat="42.66919" lon="1.40091">
        <ele>3016.75</ele>
        <time>2016-09-28T08:13:37Z</time>
      </trkpt>
      <trkpt lat="42.66919" lon="1.40092">
        <ele>3016.27</ele>
        <time>2016-09-28T08:13:58Z</time>
      </trkpt>
      <trkpt lat="42.6692" lon="1.40093">
        <ele>3016.27</ele>
        <time>2016-09-28T08:14:03Z</time>
      </trkpt>
      <trkpt lat="42.66925" lon="1.40098">
        <ele>3016.27</ele>
        <time>2016-09-28T08:14:09Z</time>
      </trkpt>
      <trkpt lat="42.66932" lon="1.40108">
        <ele>3015.31</ele>
        <time>2016-09-28T08:14:21Z</time>
      </trkpt>
      <trkpt lat="42.66939" lon="1.40117">
        <ele>3013.87</ele>
        <time>2016-09-28T08:14:34Z</time>
      </trkpt>
      <trkpt lat="42.66944" lon="1.40123">
        <ele>3011.95</ele>
        <time>2016-09-28T08:14:45Z</time>
      </trkpt>
      <trkpt lat="42.66946" lon="1.40123">
        <ele>3011.95</ele>
        <time>2016-09-28T08:14:48Z</time>
      </trkpt>
      <trkpt lat="42.66952" lon="1.40127">
        <ele>3007.62</ele>
        <time>2016-09-28T08:14:58Z</time>
      </trkpt>
      <trkpt lat="42.66959" lon="1.40135">
        <ele>3005.7</ele>
        <time>2016-09-28T08:15:09Z</time>
      </trkpt>
      <trkpt lat="42.6696" lon="1.4014">
        <ele>3005.7</ele>
        <time>2016-09-28T08:15:20Z</time>
      </trkpt>
      <trkpt lat="42.66961" lon="1.40144">
        <ele>3005.7</ele>
        <time>2016-09-28T08:15:25Z</time>
      </trkpt>
      <trkpt lat="42.66961" lon="1.40146">
        <ele>3005.7</ele>
        <time>2016-09-28T08:15:30Z</time>
      </trkpt>
      <trkpt lat="42.66967" lon="1.40152">
        <ele>3005.22</ele>
        <time>2016-09-28T08:15:40Z</time>
      </trkpt>
      <trkpt lat="42.66968" lon="1.4016">
        <ele>3004.26</ele>
        <time>2016-09-28T08:15:48Z</time>
      </trkpt>
      <trkpt lat="42.66968" lon="1.40165">
        <ele>3003.3</ele>
        <time>2016-09-28T08:15:52Z</time>
      </trkpt>
      <trkpt lat="42.66965" lon="1.4017">
        <ele>3002.82</ele>
        <time>2016-09-28T08:15:59Z</time>
      </trkpt>
      <trkpt lat="42.66969" lon="1.40172">
        <ele>3002.82</ele>
        <time>2016-09-28T08:16:04Z</time>
      </trkpt>
      <trkpt lat="42.66973" lon="1.40178">
        <ele>3003.78</ele>
        <time>2016-09-28T08:16:15Z</time>
      </trkpt>
      <trkpt lat="42.66972" lon="1.40183">
        <ele>3004.26</ele>
        <time>2016-09-28T08:16:25Z</time>
      </trkpt>
      <trkpt lat="42.66971" lon="1.40184">
        <ele>3004.26</ele>
        <time>2016-09-28T08:16:34Z</time>
      </trkpt>
      <trkpt lat="42.66971" lon="1.40184">
        <ele>3004.26</ele>
        <time>2016-09-28T08:16:38Z</time>
      </trkpt>
      <trkpt lat="42.66972" lon="1.40182">
        <ele>3002.82</ele>
        <time>2016-09-28T08:16:47Z</time>
      </trkpt>
      <trkpt lat="42.66971" lon="1.40183">
        <ele>3001.85</ele>
        <time>2016-09-28T08:16:57Z</time>
      </trkpt>
      <trkpt lat="42.66974" lon="1.40182">
        <ele>3000.89</ele>
        <time>2016-09-28T08:17:08Z</time>
      </trkpt>
      <trkpt lat="42.66976" lon="1.40181">
        <ele>2999.45</ele>
        <time>2016-09-28T08:17:11Z</time>
      </trkpt>
      <trkpt lat="42.66979" lon="1.40181">
        <ele>2996.57</ele>
        <time>2016-09-28T08:17:15Z</time>
      </trkpt>
      <trkpt lat="42.66983" lon="1.40185">
        <ele>2993.2</ele>
        <time>2016-09-28T08:17:20Z</time>
      </trkpt>
      <trkpt lat="42.66987" lon="1.40189">
        <ele>2992.72</ele>
        <time>2016-09-28T08:17:32Z</time>
      </trkpt>
      <trkpt lat="42.66997" lon="1.40192">
        <ele>2992.24</ele>
        <time>2016-09-28T08:17:43Z</time>
      </trkpt>
      <trkpt lat="42.67004" lon="1.40198">
        <ele>2991.28</ele>
        <time>2016-09-28T08:17:54Z</time>
      </trkpt>
      <trkpt lat="42.67007" lon="1.40203">
        <ele>2990.32</ele>
        <time>2016-09-28T08:18:06Z</time>
      </trkpt>
      <trkpt lat="42.67008" lon="1.40203">
        <ele>2990.32</ele>
        <time>2016-09-28T08:18:07Z</time>
      </trkpt>
      <trkpt lat="42.67013" lon="1.40206">
        <ele>2989.84</ele>
        <time>2016-09-28T08:18:14Z</time>
      </trkpt>
      <trkpt lat="42.67014" lon="1.40203">
        <ele>2988.88</ele>
        <time>2016-09-28T08:18:17Z</time>
      </trkpt>
      <trkpt lat="42.6702" lon="1.40202">
        <ele>2986.95</ele>
        <time>2016-09-28T08:18:27Z</time>
      </trkpt>
      <trkpt lat="42.67022" lon="1.40205">
        <ele>2983.11</ele>
        <time>2016-09-28T08:18:31Z</time>
      </trkpt>
      <trkpt lat="42.67029" lon="1.40209">
        <ele>2980.71</ele>
        <time>2016-09-28T08:18:43Z</time>
      </trkpt>
      <trkpt lat="42.67032" lon="1.40209">
        <ele>2980.71</ele>
        <time>2016-09-28T08:18:47Z</time>
      </trkpt>
      <trkpt lat="42.67041" lon="1.40211">
        <ele>2980.71</ele>
        <time>2016-09-28T08:18:58Z</time>
      </trkpt>
      <trkpt lat="42.67046" lon="1.4021">
        <ele>2981.19</ele>
        <time>2016-09-28T08:19:09Z</time>
      </trkpt>
      <trkpt lat="42.6705" lon="1.40212">
        <ele>2980.71</ele>
        <time>2016-09-28T08:19:19Z</time>
      </trkpt>
      <trkpt lat="42.67058" lon="1.40214">
        <ele>2980.71</ele>
        <time>2016-09-28T08:19:28Z</time>
      </trkpt>
      <trkpt lat="42.6707" lon="1.40214">
        <ele>2980.22</ele>
        <time>2016-09-28T08:19:42Z</time>
      </trkpt>
      <trkpt lat="42.67071" lon="1.40214">
        <ele>2980.22</ele>
        <time>2016-09-28T08:19:44Z</time>
      </trkpt>
      <trkpt lat="42.67078" lon="1.40216">
        <ele>2979.74</ele>
        <time>2016-09-28T08:19:54Z</time>
      </trkpt>
      <trkpt lat="42.67079" lon="1.4022">
        <ele>2979.26</ele>
        <time>2016-09-28T08:20:08Z</time>
      </trkpt>
      <trkpt lat="42.6708" lon="1.40221">
        <ele>2979.26</ele>
        <time>2016-09-28T08:20:24Z</time>
      </trkpt>
      <trkpt lat="42.67081" lon="1.40221">
        <ele>2979.26</ele>
        <time>2016-09-28T08:20:38Z</time>
      </trkpt>
      <trkpt lat="42.67083" lon="1.40221">
        <ele>2979.26</ele>
        <time>2016-09-28T08:20:41Z</time>
      </trkpt>
      <trkpt lat="42.6709" lon="1.40223">
        <ele>2980.22</ele>
        <time>2016-09-28T08:20:52Z</time>
      </trkpt>
      <trkpt lat="42.67092" lon="1.40229">
        <ele>2981.67</ele>
        <time>2016-09-28T08:21:04Z</time>
      </trkpt>
      <trkpt lat="42.67094" lon="1.4023">
        <ele>2985.03</ele>
        <time>2016-09-28T08:21:09Z</time>
      </trkpt>
      <trkpt lat="42.67096" lon="1.4023">
        <ele>2987.91</ele>
        <time>2016-09-28T08:21:13Z</time>
      </trkpt>
      <trkpt lat="42.67097" lon="1.40234">
        <ele>2988.88</ele>
        <time>2016-09-28T08:21:22Z</time>
      </trkpt>
      <trkpt lat="42.67099" lon="1.40241">
        <ele>2989.36</ele>
        <time>2016-09-28T08:21:36Z</time>
      </trkpt>
      <trkpt lat="42.67102" lon="1.40243">
        <ele>2991.28</ele>
        <time>2016-09-28T08:21:49Z</time>
      </trkpt>
      <trkpt lat="42.67103" lon="1.40245">
        <ele>2993.2</ele>
        <time>2016-09-28T08:22:02Z</time>
      </trkpt>
      <trkpt lat="42.67106" lon="1.40249">
        <ele>2996.57</ele>
        <time>2016-09-28T08:22:12Z</time>
      </trkpt>
      <trkpt lat="42.67109" lon="1.40248">
        <ele>2997.05</ele>
        <time>2016-09-28T08:22:21Z</time>
      </trkpt>
      <trkpt lat="42.67111" lon="1.40255">
        <ele>2998.01</ele>
        <time>2016-09-28T08:22:32Z</time>
      </trkpt>
      <trkpt lat="42.67113" lon="1.40257">
        <ele>2999.45</ele>
        <time>2016-09-28T08:22:45Z</time>
      </trkpt>
      <trkpt lat="42.67112" lon="1.40257">
        <ele>3000.41</ele>
        <time>2016-09-28T08:23:04Z</time>
      </trkpt>
      <trkpt lat="42.67116" lon="1.40253">
        <ele>3001.85</ele>
        <time>2016-09-28T08:23:17Z</time>
      </trkpt>
      <trkpt lat="42.67121" lon="1.40254">
        <ele>3003.78</ele>
        <time>2016-09-28T08:23:30Z</time>
      </trkpt>
      <trkpt lat="42.67124" lon="1.40253">
        <ele>3007.62</ele>
        <time>2016-09-28T08:23:37Z</time>
      </trkpt>
      <trkpt lat="42.67125" lon="1.40251">
        <ele>3010.99</ele>
        <time>2016-09-28T08:23:42Z</time>
      </trkpt>
      <trkpt lat="42.67129" lon="1.40256">
        <ele>3011.47</ele>
        <time>2016-09-28T08:23:55Z</time>
      </trkpt>
      <trkpt lat="42.67133" lon="1.40257">
        <ele>3011.47</ele>
        <time>2016-09-28T08:24:04Z</time>
      </trkpt>
      <trkpt lat="42.67136" lon="1.40255">
        <ele>3012.43</ele>
        <time>2016-09-28T08:24:14Z</time>
      </trkpt>
      <trkpt lat="42.6714" lon="1.40254">
        <ele>3014.35</ele>
        <time>2016-09-28T08:24:34Z</time>
      </trkpt>
      <trkpt lat="42.67147" lon="1.40253">
        <ele>3016.27</ele>
        <time>2016-09-28T08:24:47Z</time>
      </trkpt>
      <trkpt lat="42.67154" lon="1.40254">
        <ele>3019.64</ele>
        <time>2016-09-28T08:24:59Z</time>
      </trkpt>
      <trkpt lat="42.67158" lon="1.40254">
        <ele>3023.48</ele>
        <time>2016-09-28T08:25:05Z</time>
      </trkpt>
      <trkpt lat="42.67165" lon="1.40257">
        <ele>3023</ele>
        <time>2016-09-28T08:25:19Z</time>
      </trkpt>
      <trkpt lat="42.67168" lon="1.4026">
        <ele>3024.44</ele>
        <time>2016-09-28T08:25:30Z</time>
      </trkpt>
      <trkpt lat="42.67172" lon="1.40264">
        <ele>3026.37</ele>
        <time>2016-09-28T08:25:47Z</time>
      </trkpt>
      <trkpt lat="42.6717" lon="1.40272">
        <ele>3027.81</ele>
        <time>2016-09-28T08:25:59Z</time>
      </trkpt>
      <trkpt lat="42.67174" lon="1.4028">
        <ele>3030.21</ele>
        <time>2016-09-28T08:26:12Z</time>
      </trkpt>
      <trkpt lat="42.67175" lon="1.40282">
        <ele>3030.69</ele>
        <time>2016-09-28T08:26:15Z</time>
      </trkpt>
      <trkpt lat="42.67179" lon="1.40292">
        <ele>3031.66</ele>
        <time>2016-09-28T08:26:27Z</time>
      </trkpt>
      <trkpt lat="42.67176" lon="1.40299">
        <ele>3034.06</ele>
        <time>2016-09-28T08:26:39Z</time>
      </trkpt>
      <trkpt lat="42.67174" lon="1.40308">
        <ele>3035.02</ele>
        <time>2016-09-28T08:26:49Z</time>
      </trkpt>
      <trkpt lat="42.67175" lon="1.4032">
        <ele>3036.94</ele>
        <time>2016-09-28T08:27:03Z</time>
      </trkpt>
      <trkpt lat="42.67174" lon="1.40331">
        <ele>3037.42</ele>
        <time>2016-09-28T08:27:13Z</time>
      </trkpt>
      <trkpt lat="42.67177" lon="1.40345">
        <ele>3038.38</ele>
        <time>2016-09-28T08:27:27Z</time>
      </trkpt>
      <trkpt lat="42.67176" lon="1.40356">
        <ele>3039.83</ele>
        <time>2016-09-28T08:27:39Z</time>
      </trkpt>
      <trkpt lat="42.67177" lon="1.40362">
        <ele>3041.27</ele>
        <time>2016-09-28T08:27:52Z</time>
      </trkpt>
      <trkpt lat="42.67176" lon="1.40366">
        <ele>3042.71</ele>
        <time>2016-09-28T08:28:15Z</time>
      </trkpt>
      <trkpt lat="42.67178" lon="1.40372">
        <ele>3044.15</ele>
        <time>2016-09-28T08:28:27Z</time>
      </trkpt>
      <trkpt lat="42.67179" lon="1.4038">
        <ele>3045.59</ele>
        <time>2016-09-28T08:28:37Z</time>
      </trkpt>
      <trkpt lat="42.67181" lon="1.40384">
        <ele>3048.48</ele>
        <time>2016-09-28T08:28:51Z</time>
      </trkpt>
      <trkpt lat="42.67183" lon="1.40395">
        <ele>3050.4</ele>
        <time>2016-09-28T08:29:03Z</time>
      </trkpt>
      <trkpt lat="42.67184" lon="1.40399">
        <ele>3052.32</ele>
        <time>2016-09-28T08:29:18Z</time>
      </trkpt>
      <trkpt lat="42.67184" lon="1.40401">
        <ele>3052.8</ele>
        <time>2016-09-28T08:29:36Z</time>
      </trkpt>
      <trkpt lat="42.67184" lon="1.40405">
        <ele>3054.73</ele>
        <time>2016-09-28T08:29:49Z</time>
      </trkpt>
      <trkpt lat="42.67184" lon="1.40411">
        <ele>3058.09</ele>
        <time>2016-09-28T08:29:59Z</time>
      </trkpt>
      <trkpt lat="42.67183" lon="1.40416">
        <ele>3061.94</ele>
        <time>2016-09-28T08:30:04Z</time>
      </trkpt>
      <trkpt lat="42.67186" lon="1.40426">
        <ele>3062.9</ele>
        <time>2016-09-28T08:30:15Z</time>
      </trkpt>
      <trkpt lat="42.67189" lon="1.40431">
        <ele>3062.9</ele>
        <time>2016-09-28T08:30:23Z</time>
      </trkpt>
      <trkpt lat="42.6719" lon="1.40433">
        <ele>3062.9</ele>
        <time>2016-09-28T08:30:25Z</time>
      </trkpt>
      <trkpt lat="42.67192" lon="1.4044">
        <ele>3063.38</ele>
        <time>2016-09-28T08:30:32Z</time>
      </trkpt>
      <trkpt lat="42.67198" lon="1.40452">
        <ele>3063.86</ele>
        <time>2016-09-28T08:30:44Z</time>
      </trkpt>
      <trkpt lat="42.67197" lon="1.40453">
        <ele>3063.86</ele>
        <time>2016-09-28T08:30:46Z</time>
      </trkpt>
      <trkpt lat="42.67199" lon="1.40461">
        <ele>3064.82</ele>
        <time>2016-09-28T08:30:56Z</time>
      </trkpt>
      <trkpt lat="42.67198" lon="1.4047">
        <ele>3066.26</ele>
        <time>2016-09-28T08:31:06Z</time>
      </trkpt>
      <trkpt lat="42.67197" lon="1.40476">
        <ele>3066.74</ele>
        <time>2016-09-28T08:31:11Z</time>
      </trkpt>
      <trkpt lat="42.67197" lon="1.40493">
        <ele>3067.7</ele>
        <time>2016-09-28T08:31:22Z</time>
      </trkpt>
      <trkpt lat="42.67198" lon="1.40501">
        <ele>3068.19</ele>
        <time>2016-09-28T08:31:28Z</time>
      </trkpt>
      <trkpt lat="42.67198" lon="1.40514">
        <ele>3069.15</ele>
        <time>2016-09-28T08:31:40Z</time>
      </trkpt>
      <trkpt lat="42.67199" lon="1.40521">
        <ele>3069.15</ele>
        <time>2016-09-28T08:31:53Z</time>
      </trkpt>
      <trkpt lat="42.672" lon="1.40525">
        <ele>3069.15</ele>
        <time>2016-09-28T08:31:57Z</time>
      </trkpt>
      <trkpt lat="42.67201" lon="1.40529">
        <ele>3067.7</ele>
        <time>2016-09-28T08:32:00Z</time>
      </trkpt>
      <trkpt lat="42.67203" lon="1.4054">
        <ele>3067.22</ele>
        <time>2016-09-28T08:32:10Z</time>
      </trkpt>
      <trkpt lat="42.672" lon="1.40555">
        <ele>3067.22</ele>
        <time>2016-09-28T08:32:24Z</time>
      </trkpt>
      <trkpt lat="42.67198" lon="1.40562">
        <ele>3067.22</ele>
        <time>2016-09-28T08:32:32Z</time>
      </trkpt>
      <trkpt lat="42.67195" lon="1.40566">
        <ele>3068.67</ele>
        <time>2016-09-28T08:32:36Z</time>
      </trkpt>
      <trkpt lat="42.67195" lon="1.40568">
        <ele>3068.19</ele>
        <time>2016-09-28T08:32:37Z</time>
      </trkpt>
      <trkpt lat="42.67193" lon="1.40573">
        <ele>3069.15</ele>
        <time>2016-09-28T08:32:41Z</time>
      </trkpt>
      <trkpt lat="42.67196" lon="1.40584">
        <ele>3070.11</ele>
        <time>2016-09-28T08:32:49Z</time>
      </trkpt>
      <trkpt lat="42.67192" lon="1.40601">
        <ele>3072.03</ele>
        <time>2016-09-28T08:33:00Z</time>
      </trkpt>
      <trkpt lat="42.67192" lon="1.40607">
        <ele>3072.51</ele>
        <time>2016-09-28T08:33:04Z</time>
      </trkpt>
      <trkpt lat="42.67191" lon="1.40618">
        <ele>3072.99</ele>
        <time>2016-09-28T08:33:12Z</time>
      </trkpt>
      <trkpt lat="42.67192" lon="1.40622">
        <ele>3072.99</ele>
        <time>2016-09-28T08:33:16Z</time>
      </trkpt>
      <trkpt lat="42.67189" lon="1.40634">
        <ele>3073.47</ele>
        <time>2016-09-28T08:33:27Z</time>
      </trkpt>
      <trkpt lat="42.6719" lon="1.40635">
        <ele>3073.47</ele>
        <time>2016-09-28T08:33:29Z</time>
      </trkpt>
      <trkpt lat="42.67191" lon="1.40636">
        <ele>3072.51</ele>
        <time>2016-09-28T08:33:45Z</time>
      </trkpt>
      <trkpt lat="42.67191" lon="1.40637">
        <ele>3072.51</ele>
        <time>2016-09-28T08:33:46Z</time>
      </trkpt>
      <trkpt lat="42.67189" lon="1.40637">
        <ele>3071.55</ele>
        <time>2016-09-28T08:33:59Z</time>
      </trkpt>
      <trkpt lat="42.67187" lon="1.40634">
        <ele>3071.55</ele>
        <time>2016-09-28T08:34:11Z</time>
      </trkpt>
      <trkpt lat="42.67185" lon="1.40632">
        <ele>3072.03</ele>
        <time>2016-09-28T08:34:22Z</time>
      </trkpt>
      <trkpt lat="42.67187" lon="1.40637">
        <ele>3072.03</ele>
        <time>2016-09-28T08:34:39Z</time>
      </trkpt>
      <trkpt lat="42.67189" lon="1.40641">
        <ele>3072.03</ele>
        <time>2016-09-28T08:34:51Z</time>
      </trkpt>
      <trkpt lat="42.67188" lon="1.40638">
        <ele>3072.03</ele>
        <time>2016-09-28T08:35:03Z</time>
      </trkpt>
      <trkpt lat="42.67186" lon="1.40638">
        <ele>3072.03</ele>
        <time>2016-09-28T08:35:18Z</time>
      </trkpt>
      <trkpt lat="42.67186" lon="1.40639">
        <ele>3072.03</ele>
        <time>2016-09-28T08:35:38Z</time>
      </trkpt>
      <trkpt lat="42.67186" lon="1.40638">
        <ele>3072.03</ele>
        <time>2016-09-28T08:35:53Z</time>
      </trkpt>
      <trkpt lat="42.67186" lon="1.40638">
        <ele>3072.03</ele>
        <time>2016-09-28T08:36:11Z</time>
      </trkpt>
      <trkpt lat="42.67188" lon="1.40637">
        <ele>3072.51</ele>
        <time>2016-09-28T08:36:26Z</time>
      </trkpt>
      <trkpt lat="42.6719" lon="1.40636">
        <ele>3072.51</ele>
        <time>2016-09-28T08:36:36Z</time>
      </trkpt>
      <trkpt lat="42.6719" lon="1.40636">
        <ele>3072.51</ele>
        <time>2016-09-28T08:36:56Z</time>
      </trkpt>
      <trkpt lat="42.67192" lon="1.40635">
        <ele>3072.03</ele>
        <time>2016-09-28T08:37:24Z</time>
      </trkpt>
      <trkpt lat="42.67191" lon="1.40636">
        <ele>3072.03</ele>
        <time>2016-09-28T08:37:41Z</time>
      </trkpt>
      <trkpt lat="42.67191" lon="1.40636">
        <ele>3072.03</ele>
        <time>2016-09-28T08:38:07Z</time>
      </trkpt>
      <trkpt lat="42.67191" lon="1.40637">
        <ele>3072.51</ele>
        <time>2016-09-28T08:38:20Z</time>
      </trkpt>
      <trkpt lat="42.67191" lon="1.40637">
        <ele>3072.51</ele>
        <time>2016-09-28T08:38:21Z</time>
      </trkpt>
      <trkpt lat="42.67192" lon="1.40636">
        <ele>3072.51</ele>
        <time>2016-09-28T08:38:35Z</time>
      </trkpt>
      <trkpt lat="42.67192" lon="1.40636">
        <ele>3072.51</ele>
        <time>2016-09-28T08:39:04Z</time>
      </trkpt>
      <trkpt lat="42.67191" lon="1.40637">
        <ele>3072.51</ele>
        <time>2016-09-28T08:39:34Z</time>
      </trkpt>
      <trkpt lat="42.67192" lon="1.40636">
        <ele>3072.51</ele>
        <time>2016-09-28T08:39:41Z</time>
      </trkpt>
      <trkpt lat="42.67192" lon="1.40636">
        <ele>3073.47</ele>
        <time>2016-09-28T08:39:55Z</time>
      </trkpt>
      <trkpt lat="42.67189" lon="1.40636">
        <ele>3073.47</ele>
        <time>2016-09-28T08:40:00Z</time>
      </trkpt>
      <trkpt lat="42.6719" lon="1.40623">
        <ele>3073.95</ele>
        <time>2016-09-28T08:40:10Z</time>
      </trkpt>
      <trkpt lat="42.67189" lon="1.40613">
        <ele>3073.95</ele>
        <time>2016-09-28T08:40:15Z</time>
      </trkpt>
      <trkpt lat="42.67191" lon="1.40603">
        <ele>3073.95</ele>
        <time>2016-09-28T08:40:21Z</time>
      </trkpt>
      <trkpt lat="42.67192" lon="1.40588">
        <ele>3074.91</ele>
        <time>2016-09-28T08:40:31Z</time>
      </trkpt>
      <trkpt lat="42.67192" lon="1.40582">
        <ele>3074.91</ele>
        <time>2016-09-28T08:40:35Z</time>
      </trkpt>
      <trkpt lat="42.67193" lon="1.40569">
        <ele>3073.47</ele>
        <time>2016-09-28T08:40:45Z</time>
      </trkpt>
      <trkpt lat="42.67194" lon="1.40567">
        <ele>3073.47</ele>
        <time>2016-09-28T08:40:47Z</time>
      </trkpt>
      <trkpt lat="42.67196" lon="1.40559">
        <ele>3072.03</ele>
        <time>2016-09-28T08:40:57Z</time>
      </trkpt>
      <trkpt lat="42.67198" lon="1.40552">
        <ele>3071.55</ele>
        <time>2016-09-28T08:41:03Z</time>
      </trkpt>
      <trkpt lat="42.672" lon="1.40547">
        <ele>3071.07</ele>
        <time>2016-09-28T08:41:07Z</time>
      </trkpt>
      <trkpt lat="42.67201" lon="1.40544">
        <ele>3070.59</ele>
        <time>2016-09-28T08:41:09Z</time>
      </trkpt>
      <trkpt lat="42.67199" lon="1.40536">
        <ele>3067.22</ele>
        <time>2016-09-28T08:41:14Z</time>
      </trkpt>
      <trkpt lat="42.67199" lon="1.40532">
        <ele>3063.86</ele>
        <time>2016-09-28T08:41:19Z</time>
      </trkpt>
      <trkpt lat="42.67199" lon="1.40525">
        <ele>3067.22</ele>
        <time>2016-09-28T08:41:27Z</time>
      </trkpt>
      <trkpt lat="42.67198" lon="1.40523">
        <ele>3070.11</ele>
        <time>2016-09-28T08:41:30Z</time>
      </trkpt>
      <trkpt lat="42.67197" lon="1.4052">
        <ele>3072.99</ele>
        <time>2016-09-28T08:41:36Z</time>
      </trkpt>
      <trkpt lat="42.67197" lon="1.4052">
        <ele>3071.55</ele>
        <time>2016-09-28T08:41:58Z</time>
      </trkpt>
      <trkpt lat="42.67197" lon="1.4052">
        <ele>3071.55</ele>
        <time>2016-09-28T08:42:22Z</time>
      </trkpt>
      <trkpt lat="42.67197" lon="1.40512">
        <ele>3071.55</ele>
        <time>2016-09-28T08:42:33Z</time>
      </trkpt>
      <trkpt lat="42.67196" lon="1.40498">
        <ele>3071.07</ele>
        <time>2016-09-28T08:42:43Z</time>
      </trkpt>
      <trkpt lat="42.67196" lon="1.40485">
        <ele>3070.59</ele>
        <time>2016-09-28T08:42:52Z</time>
      </trkpt>
      <trkpt lat="42.67195" lon="1.40483">
        <ele>3070.59</ele>
        <time>2016-09-28T08:42:54Z</time>
      </trkpt>
      <trkpt lat="42.67196" lon="1.4048">
        <ele>3070.59</ele>
        <time>2016-09-28T08:42:56Z</time>
      </trkpt>
      <trkpt lat="42.67197" lon="1.40469">
        <ele>3069.63</ele>
        <time>2016-09-28T08:43:08Z</time>
      </trkpt>
      <trkpt lat="42.67197" lon="1.40461">
        <ele>3068.67</ele>
        <time>2016-09-28T08:43:19Z</time>
      </trkpt>
      <trkpt lat="42.67196" lon="1.40456">
        <ele>3067.22</ele>
        <time>2016-09-28T08:43:27Z</time>
      </trkpt>
      <trkpt lat="42.67196" lon="1.40453">
        <ele>3067.22</ele>
        <time>2016-09-28T08:43:29Z</time>
      </trkpt>
      <trkpt lat="42.67193" lon="1.40439">
        <ele>3065.78</ele>
        <time>2016-09-28T08:43:41Z</time>
      </trkpt>
      <trkpt lat="42.6719" lon="1.40433">
        <ele>3064.82</ele>
        <time>2016-09-28T08:43:47Z</time>
      </trkpt>
      <trkpt lat="42.67189" lon="1.40429">
        <ele>3063.38</ele>
        <time>2016-09-28T08:43:52Z</time>
      </trkpt>
      <trkpt lat="42.67185" lon="1.40424">
        <ele>3062.42</ele>
        <time>2016-09-28T08:43:58Z</time>
      </trkpt>
      <trkpt lat="42.67183" lon="1.40417">
        <ele>3060.98</ele>
        <time>2016-09-28T08:44:09Z</time>
      </trkpt>
      <trkpt lat="42.67185" lon="1.40412">
        <ele>3057.13</ele>
        <time>2016-09-28T08:44:18Z</time>
      </trkpt>
      <trkpt lat="42.67184" lon="1.40407">
        <ele>3054.25</ele>
        <time>2016-09-28T08:44:23Z</time>
      </trkpt>
      <trkpt lat="42.67182" lon="1.40397">
        <ele>3053.28</ele>
        <time>2016-09-28T08:44:34Z</time>
      </trkpt>
      <trkpt lat="42.67179" lon="1.40384">
        <ele>3051.36</ele>
        <time>2016-09-28T08:44:47Z</time>
      </trkpt>
      <trkpt lat="42.67176" lon="1.40375">
        <ele>3049.44</ele>
        <time>2016-09-28T08:44:59Z</time>
      </trkpt>
      <trkpt lat="42.67174" lon="1.40367">
        <ele>3047.04</ele>
        <time>2016-09-28T08:45:11Z</time>
      </trkpt>
      <trkpt lat="42.67174" lon="1.40357">
        <ele>3045.11</ele>
        <time>2016-09-28T08:45:23Z</time>
      </trkpt>
      <trkpt lat="42.67174" lon="1.40356">
        <ele>3045.11</ele>
        <time>2016-09-28T08:45:24Z</time>
      </trkpt>
      <trkpt lat="42.67173" lon="1.40348">
        <ele>3043.67</ele>
        <time>2016-09-28T08:45:30Z</time>
      </trkpt>
      <trkpt lat="42.67173" lon="1.40344">
        <ele>3042.71</ele>
        <time>2016-09-28T08:45:33Z</time>
      </trkpt>
      <trkpt lat="42.67172" lon="1.40329">
        <ele>3040.31</ele>
        <time>2016-09-28T08:45:46Z</time>
      </trkpt>
      <trkpt lat="42.67173" lon="1.40323">
        <ele>3040.31</ele>
        <time>2016-09-28T08:45:51Z</time>
      </trkpt>
      <trkpt lat="42.67172" lon="1.40311">
        <ele>3040.31</ele>
        <time>2016-09-28T08:46:02Z</time>
      </trkpt>
      <trkpt lat="42.67174" lon="1.40301">
        <ele>3038.86</ele>
        <time>2016-09-28T08:46:14Z</time>
      </trkpt>
      <trkpt lat="42.67178" lon="1.40292">
        <ele>3037.42</ele>
        <time>2016-09-28T08:46:23Z</time>
      </trkpt>
      <trkpt lat="42.67174" lon="1.4028">
        <ele>3035.5</ele>
        <time>2016-09-28T08:46:35Z</time>
      </trkpt>
      <trkpt lat="42.67169" lon="1.40273">
        <ele>3032.14</ele>
        <time>2016-09-28T08:46:46Z</time>
      </trkpt>
      <trkpt lat="42.67171" lon="1.40269">
        <ele>3028.77</ele>
        <time>2016-09-28T08:46:52Z</time>
      </trkpt>
      <trkpt lat="42.6717" lon="1.40263">
        <ele>3028.77</ele>
        <time>2016-09-28T08:47:00Z</time>
      </trkpt>
      <trkpt lat="42.67163" lon="1.40257">
        <ele>3027.33</ele>
        <time>2016-09-28T08:47:13Z</time>
      </trkpt>
      <trkpt lat="42.6716" lon="1.40255">
        <ele>3023.96</ele>
        <time>2016-09-28T08:47:20Z</time>
      </trkpt>
      <trkpt lat="42.67153" lon="1.40252">
        <ele>3022.04</ele>
        <time>2016-09-28T08:47:32Z</time>
      </trkpt>
      <trkpt lat="42.67148" lon="1.40252">
        <ele>3020.6</ele>
        <time>2016-09-28T08:47:45Z</time>
      </trkpt>
      <trkpt lat="42.67142" lon="1.40253">
        <ele>3017.23</ele>
        <time>2016-09-28T08:47:52Z</time>
      </trkpt>
      <trkpt lat="42.67138" lon="1.40254">
        <ele>3014.35</ele>
        <time>2016-09-28T08:47:58Z</time>
      </trkpt>
      <trkpt lat="42.67132" lon="1.40255">
        <ele>3013.87</ele>
        <time>2016-09-28T08:48:07Z</time>
      </trkpt>
      <trkpt lat="42.67128" lon="1.40251">
        <ele>3011.47</ele>
        <time>2016-09-28T08:48:18Z</time>
      </trkpt>
      <trkpt lat="42.67125" lon="1.40251">
        <ele>3007.62</ele>
        <time>2016-09-28T08:48:22Z</time>
      </trkpt>
      <trkpt lat="42.67121" lon="1.40254">
        <ele>3006.18</ele>
        <time>2016-09-28T08:48:32Z</time>
      </trkpt>
      <trkpt lat="42.6712" lon="1.40253">
        <ele>3006.18</ele>
        <time>2016-09-28T08:48:37Z</time>
      </trkpt>
      <trkpt lat="42.67115" lon="1.40256">
        <ele>3004.26</ele>
        <time>2016-09-28T08:48:50Z</time>
      </trkpt>
      <trkpt lat="42.67111" lon="1.40254">
        <ele>3000.89</ele>
        <time>2016-09-28T08:48:56Z</time>
      </trkpt>
      <trkpt lat="42.67109" lon="1.40247">
        <ele>2997.53</ele>
        <time>2016-09-28T08:49:04Z</time>
      </trkpt>
      <trkpt lat="42.67105" lon="1.40247">
        <ele>2998.01</ele>
        <time>2016-09-28T08:49:14Z</time>
      </trkpt>
      <trkpt lat="42.67102" lon="1.40238">
        <ele>2994.64</ele>
        <time>2016-09-28T08:49:26Z</time>
      </trkpt>
      <trkpt lat="42.67101" lon="1.40239">
        <ele>2992.72</ele>
        <time>2016-09-28T08:49:29Z</time>
      </trkpt>
      <trkpt lat="42.67099" lon="1.40236">
        <ele>2990.8</ele>
        <time>2016-09-28T08:49:39Z</time>
      </trkpt>
      <trkpt lat="42.67098" lon="1.40229">
        <ele>2989.84</ele>
        <time>2016-09-28T08:49:49Z</time>
      </trkpt>
      <trkpt lat="42.67095" lon="1.40225">
        <ele>2986.47</ele>
        <time>2016-09-28T08:49:57Z</time>
      </trkpt>
      <trkpt lat="42.67094" lon="1.40224">
        <ele>2985.99</ele>
        <time>2016-09-28T08:49:58Z</time>
      </trkpt>
      <trkpt lat="42.67089" lon="1.40221">
        <ele>2983.59</ele>
        <time>2016-09-28T08:50:02Z</time>
      </trkpt>
      <trkpt lat="42.67086" lon="1.40225">
        <ele>2981.67</ele>
        <time>2016-09-28T08:50:18Z</time>
      </trkpt>
      <trkpt lat="42.67086" lon="1.40223">
        <ele>2981.67</ele>
        <time>2016-09-28T08:50:34Z</time>
      </trkpt>
      <trkpt lat="42.67083" lon="1.40219">
        <ele>2981.67</ele>
        <time>2016-09-28T08:50:52Z</time>
      </trkpt>
      <trkpt lat="42.67082" lon="1.40211">
        <ele>2980.71</ele>
        <time>2016-09-28T08:51:04Z</time>
      </trkpt>
      <trkpt lat="42.67083" lon="1.40204">
        <ele>2979.26</ele>
        <time>2016-09-28T08:51:13Z</time>
      </trkpt>
      <trkpt lat="42.67081" lon="1.40198">
        <ele>2976.86</ele>
        <time>2016-09-28T08:51:23Z</time>
      </trkpt>
      <trkpt lat="42.67084" lon="1.40193">
        <ele>2974.46</ele>
        <time>2016-09-28T08:51:35Z</time>
      </trkpt>
      <trkpt lat="42.67084" lon="1.40189">
        <ele>2973.01</ele>
        <time>2016-09-28T08:51:42Z</time>
      </trkpt>
      <trkpt lat="42.67089" lon="1.40184">
        <ele>2968.69</ele>
        <time>2016-09-28T08:51:50Z</time>
      </trkpt>
      <trkpt lat="42.67091" lon="1.40179">
        <ele>2966.77</ele>
        <time>2016-09-28T08:52:02Z</time>
      </trkpt>
      <trkpt lat="42.67091" lon="1.4017">
        <ele>2966.29</ele>
        <time>2016-09-28T08:52:15Z</time>
      </trkpt>
      <trkpt lat="42.6709" lon="1.4017">
        <ele>2966.29</ele>
        <time>2016-09-28T08:52:16Z</time>
      </trkpt>
      <trkpt lat="42.67086" lon="1.40169">
        <ele>2961.96</ele>
        <time>2016-09-28T08:52:23Z</time>
      </trkpt>
      <trkpt lat="42.67085" lon="1.40165">
        <ele>2959.08</ele>
        <time>2016-09-28T08:52:29Z</time>
      </trkpt>
      <trkpt lat="42.67086" lon="1.40162">
        <ele>2959.08</ele>
        <time>2016-09-28T08:52:41Z</time>
      </trkpt>
      <trkpt lat="42.67085" lon="1.40161">
        <ele>2959.08</ele>
        <time>2016-09-28T08:53:03Z</time>
      </trkpt>
      <trkpt lat="42.67085" lon="1.40162">
        <ele>2959.08</ele>
        <time>2016-09-28T08:53:22Z</time>
      </trkpt>
      <trkpt lat="42.67084" lon="1.4016">
        <ele>2959.08</ele>
        <time>2016-09-28T08:53:37Z</time>
      </trkpt>
      <trkpt lat="42.67084" lon="1.40152">
        <ele>2957.15</ele>
        <time>2016-09-28T08:53:47Z</time>
      </trkpt>
      <trkpt lat="42.67084" lon="1.4015">
        <ele>2955.71</ele>
        <time>2016-09-28T08:54:00Z</time>
      </trkpt>
      <trkpt lat="42.67083" lon="1.40145">
        <ele>2953.79</ele>
        <time>2016-09-28T08:54:11Z</time>
      </trkpt>
      <trkpt lat="42.67081" lon="1.4014">
        <ele>2952.83</ele>
        <time>2016-09-28T08:54:19Z</time>
      </trkpt>
      <trkpt lat="42.67079" lon="1.40139">
        <ele>2952.35</ele>
        <time>2016-09-28T08:54:22Z</time>
      </trkpt>
      <trkpt lat="42.67081" lon="1.40136">
        <ele>2948.02</ele>
        <time>2016-09-28T08:54:27Z</time>
      </trkpt>
      <trkpt lat="42.6708" lon="1.40135">
        <ele>2947.06</ele>
        <time>2016-09-28T08:54:28Z</time>
      </trkpt>
      <trkpt lat="42.67083" lon="1.40131">
        <ele>2943.21</ele>
        <time>2016-09-28T08:54:34Z</time>
      </trkpt>
      <trkpt lat="42.67083" lon="1.40129">
        <ele>2942.73</ele>
        <time>2016-09-28T08:54:38Z</time>
      </trkpt>
      <trkpt lat="42.67081" lon="1.40128">
        <ele>2942.73</ele>
        <time>2016-09-28T08:54:40Z</time>
      </trkpt>
      <trkpt lat="42.67084" lon="1.40118">
        <ele>2942.73</ele>
        <time>2016-09-28T08:54:50Z</time>
      </trkpt>
      <trkpt lat="42.67081" lon="1.40116">
        <ele>2941.77</ele>
        <time>2016-09-28T08:55:00Z</time>
      </trkpt>
      <trkpt lat="42.67079" lon="1.40115">
        <ele>2940.33</ele>
        <time>2016-09-28T08:55:14Z</time>
      </trkpt>
      <trkpt lat="42.67078" lon="1.40109">
        <ele>2939.37</ele>
        <time>2016-09-28T08:55:21Z</time>
      </trkpt>
      <trkpt lat="42.67082" lon="1.40104">
        <ele>2937.93</ele>
        <time>2016-09-28T08:55:31Z</time>
      </trkpt>
      <trkpt lat="42.67079" lon="1.40094">
        <ele>2935.52</ele>
        <time>2016-09-28T08:55:44Z</time>
      </trkpt>
      <trkpt lat="42.67079" lon="1.4009">
        <ele>2934.08</ele>
        <time>2016-09-28T08:55:52Z</time>
      </trkpt>
      <trkpt lat="42.6708" lon="1.40085">
        <ele>2929.27</ele>
        <time>2016-09-28T08:55:57Z</time>
      </trkpt>
      <trkpt lat="42.67082" lon="1.40083">
        <ele>2927.83</ele>
        <time>2016-09-28T08:56:00Z</time>
      </trkpt>
      <trkpt lat="42.67083" lon="1.40082">
        <ele>2927.35</ele>
        <time>2016-09-28T08:56:02Z</time>
      </trkpt>
      <trkpt lat="42.67088" lon="1.40077">
        <ele>2928.79</ele>
        <time>2016-09-28T08:56:13Z</time>
      </trkpt>
      <trkpt lat="42.67089" lon="1.40074">
        <ele>2928.79</ele>
        <time>2016-09-28T08:56:16Z</time>
      </trkpt>
      <trkpt lat="42.67094" lon="1.40068">
        <ele>2928.79</ele>
        <time>2016-09-28T08:56:25Z</time>
      </trkpt>
      <trkpt lat="42.67099" lon="1.40068">
        <ele>2927.35</ele>
        <time>2016-09-28T08:56:32Z</time>
      </trkpt>
      <trkpt lat="42.67102" lon="1.40062">
        <ele>2924.95</ele>
        <time>2016-09-28T08:56:42Z</time>
      </trkpt>
      <trkpt lat="42.67103" lon="1.40058">
        <ele>2921.58</ele>
        <time>2016-09-28T08:56:48Z</time>
      </trkpt>
      <trkpt lat="42.67104" lon="1.40055">
        <ele>2919.18</ele>
        <time>2016-09-28T08:56:57Z</time>
      </trkpt>
      <trkpt lat="42.67108" lon="1.40047">
        <ele>2919.18</ele>
        <time>2016-09-28T08:57:09Z</time>
      </trkpt>
      <trkpt lat="42.67109" lon="1.40038">
        <ele>2919.18</ele>
        <time>2016-09-28T08:57:18Z</time>
      </trkpt>
      <trkpt lat="42.67109" lon="1.40037">
        <ele>2918.7</ele>
        <time>2016-09-28T08:57:19Z</time>
      </trkpt>
      <trkpt lat="42.67111" lon="1.40028">
        <ele>2917.74</ele>
        <time>2016-09-28T08:57:30Z</time>
      </trkpt>
      <trkpt lat="42.67112" lon="1.40027">
        <ele>2917.26</ele>
        <time>2016-09-28T08:57:32Z</time>
      </trkpt>
      <trkpt lat="42.67115" lon="1.40017">
        <ele>2915.34</ele>
        <time>2016-09-28T08:57:43Z</time>
      </trkpt>
      <trkpt lat="42.67119" lon="1.4001">
        <ele>2913.41</ele>
        <time>2016-09-28T08:57:55Z</time>
      </trkpt>
      <trkpt lat="42.6712" lon="1.40005">
        <ele>2909.57</ele>
        <time>2016-09-28T08:58:01Z</time>
      </trkpt>
      <trkpt lat="42.67122" lon="1.40002">
        <ele>2906.68</ele>
        <time>2016-09-28T08:58:06Z</time>
      </trkpt>
      <trkpt lat="42.67124" lon="1.39997">
        <ele>2906.2</ele>
        <time>2016-09-28T08:58:13Z</time>
      </trkpt>
      <trkpt lat="42.67132" lon="1.39992">
        <ele>2906.2</ele>
        <time>2016-09-28T08:58:24Z</time>
      </trkpt>
      <trkpt lat="42.67134" lon="1.3999">
        <ele>2907.16</ele>
        <time>2016-09-28T08:58:34Z</time>
      </trkpt>
      <trkpt lat="42.67136" lon="1.39985">
        <ele>2907.65</ele>
        <time>2016-09-28T08:58:43Z</time>
      </trkpt>
      <trkpt lat="42.67136" lon="1.39984">
        <ele>2907.65</ele>
        <time>2016-09-28T08:58:45Z</time>
      </trkpt>
      <trkpt lat="42.67139" lon="1.39983">
        <ele>2907.65</ele>
        <time>2016-09-28T08:58:48Z</time>
      </trkpt>
      <trkpt lat="42.67146" lon="1.39976">
        <ele>2907.65</ele>
        <time>2016-09-28T08:59:01Z</time>
      </trkpt>
      <trkpt lat="42.67149" lon="1.39967">
        <ele>2904.28</ele>
        <time>2016-09-28T08:59:11Z</time>
      </trkpt>
      <trkpt lat="42.67155" lon="1.39964">
        <ele>2902.36</ele>
        <time>2016-09-28T08:59:21Z</time>
      </trkpt>
      <trkpt lat="42.67159" lon="1.39964">
        <ele>2902.36</ele>
        <time>2016-09-28T08:59:33Z</time>
      </trkpt>
      <trkpt lat="42.67159" lon="1.39964">
        <ele>2902.36</ele>
        <time>2016-09-28T08:59:34Z</time>
      </trkpt>
      <trkpt lat="42.67162" lon="1.39967">
        <ele>2900.92</ele>
        <time>2016-09-28T08:59:45Z</time>
      </trkpt>
      <trkpt lat="42.67167" lon="1.39968">
        <ele>2898.99</ele>
        <time>2016-09-28T08:59:54Z</time>
      </trkpt>
      <trkpt lat="42.6717" lon="1.39968">
        <ele>2897.55</ele>
        <time>2016-09-28T09:00:02Z</time>
      </trkpt>
      <trkpt lat="42.67171" lon="1.39966">
        <ele>2894.19</ele>
        <time>2016-09-28T09:00:09Z</time>
      </trkpt>
      <trkpt lat="42.67177" lon="1.39963">
        <ele>2894.19</ele>
        <time>2016-09-28T09:00:21Z</time>
      </trkpt>
      <trkpt lat="42.67177" lon="1.39963">
        <ele>2894.19</ele>
        <time>2016-09-28T09:00:22Z</time>
      </trkpt>
      <trkpt lat="42.67184" lon="1.3996">
        <ele>2892.26</ele>
        <time>2016-09-28T09:00:33Z</time>
      </trkpt>
      <trkpt lat="42.67186" lon="1.39959">
        <ele>2892.26</ele>
        <time>2016-09-28T09:00:35Z</time>
      </trkpt>
      <trkpt lat="42.67192" lon="1.39961">
        <ele>2890.34</ele>
        <time>2016-09-28T09:00:47Z</time>
      </trkpt>
      <trkpt lat="42.67193" lon="1.3996">
        <ele>2890.34</ele>
        <time>2016-09-28T09:00:50Z</time>
      </trkpt>
      <trkpt lat="42.67197" lon="1.39961">
        <ele>2889.38</ele>
        <time>2016-09-28T09:01:03Z</time>
      </trkpt>
      <trkpt lat="42.67197" lon="1.39961">
        <ele>2888.42</ele>
        <time>2016-09-28T09:01:09Z</time>
      </trkpt>
      <trkpt lat="42.672" lon="1.39956">
        <ele>2887.46</ele>
        <time>2016-09-28T09:01:19Z</time>
      </trkpt>
      <trkpt lat="42.67203" lon="1.39953">
        <ele>2886.98</ele>
        <time>2016-09-28T09:01:30Z</time>
      </trkpt>
      <trkpt lat="42.67205" lon="1.39946">
        <ele>2886.5</ele>
        <time>2016-09-28T09:01:39Z</time>
      </trkpt>
      <trkpt lat="42.6721" lon="1.39937">
        <ele>2886.5</ele>
        <time>2016-09-28T09:01:52Z</time>
      </trkpt>
      <trkpt lat="42.67212" lon="1.39936">
        <ele>2886.5</ele>
        <time>2016-09-28T09:01:54Z</time>
      </trkpt>
      <trkpt lat="42.6722" lon="1.39932">
        <ele>2887.46</ele>
        <time>2016-09-28T09:02:05Z</time>
      </trkpt>
      <trkpt lat="42.67224" lon="1.3993">
        <ele>2887.46</ele>
        <time>2016-09-28T09:02:11Z</time>
      </trkpt>
      <trkpt lat="42.67226" lon="1.39932">
        <ele>2887.46</ele>
        <time>2016-09-28T09:02:14Z</time>
      </trkpt>
      <trkpt lat="42.67231" lon="1.39931">
        <ele>2887.46</ele>
        <time>2016-09-28T09:02:19Z</time>
      </trkpt>
      <trkpt lat="42.67233" lon="1.39929">
        <ele>2886.02</ele>
        <time>2016-09-28T09:02:23Z</time>
      </trkpt>
      <trkpt lat="42.6724" lon="1.39929">
        <ele>2884.57</ele>
        <time>2016-09-28T09:02:33Z</time>
      </trkpt>
      <trkpt lat="42.67242" lon="1.3993">
        <ele>2884.09</ele>
        <time>2016-09-28T09:02:36Z</time>
      </trkpt>
      <trkpt lat="42.67246" lon="1.39934">
        <ele>2883.13</ele>
        <time>2016-09-28T09:02:43Z</time>
      </trkpt>
      <trkpt lat="42.6725" lon="1.39934">
        <ele>2881.69</ele>
        <time>2016-09-28T09:02:48Z</time>
      </trkpt>
      <trkpt lat="42.67258" lon="1.39935">
        <ele>2881.21</ele>
        <time>2016-09-28T09:02:56Z</time>
      </trkpt>
      <trkpt lat="42.67265" lon="1.39939">
        <ele>2880.73</ele>
        <time>2016-09-28T09:03:06Z</time>
      </trkpt>
      <trkpt lat="42.67273" lon="1.39941">
        <ele>2880.25</ele>
        <time>2016-09-28T09:03:16Z</time>
      </trkpt>
      <trkpt lat="42.67274" lon="1.39942">
        <ele>2880.25</ele>
        <time>2016-09-28T09:03:17Z</time>
      </trkpt>
      <trkpt lat="42.67283" lon="1.39944">
        <ele>2879.29</ele>
        <time>2016-09-28T09:03:31Z</time>
      </trkpt>
      <trkpt lat="42.67284" lon="1.39944">
        <ele>2878.81</ele>
        <time>2016-09-28T09:03:33Z</time>
      </trkpt>
      <trkpt lat="42.67291" lon="1.39946">
        <ele>2878.32</ele>
        <time>2016-09-28T09:03:44Z</time>
      </trkpt>
      <trkpt lat="42.67296" lon="1.39947">
        <ele>2876.4</ele>
        <time>2016-09-28T09:03:54Z</time>
      </trkpt>
      <trkpt lat="42.673" lon="1.3995">
        <ele>2874</ele>
        <time>2016-09-28T09:04:07Z</time>
      </trkpt>
      <trkpt lat="42.67307" lon="1.39952">
        <ele>2872.08</ele>
        <time>2016-09-28T09:04:18Z</time>
      </trkpt>
      <trkpt lat="42.67314" lon="1.39957">
        <ele>2869.67</ele>
        <time>2016-09-28T09:04:29Z</time>
      </trkpt>
      <trkpt lat="42.6732" lon="1.3996">
        <ele>2868.71</ele>
        <time>2016-09-28T09:04:40Z</time>
      </trkpt>
      <trkpt lat="42.67321" lon="1.39959">
        <ele>2868.71</ele>
        <time>2016-09-28T09:04:42Z</time>
      </trkpt>
      <trkpt lat="42.67322" lon="1.39959">
        <ele>2868.23</ele>
        <time>2016-09-28T09:04:44Z</time>
      </trkpt>
      <trkpt lat="42.67328" lon="1.39964">
        <ele>2867.27</ele>
        <time>2016-09-28T09:04:54Z</time>
      </trkpt>
      <trkpt lat="42.67328" lon="1.39973">
        <ele>2864.87</ele>
        <time>2016-09-28T09:05:06Z</time>
      </trkpt>
      <trkpt lat="42.67331" lon="1.39977">
        <ele>2863.9</ele>
        <time>2016-09-28T09:05:13Z</time>
      </trkpt>
      <trkpt lat="42.67335" lon="1.39975">
        <ele>2861.5</ele>
        <time>2016-09-28T09:05:22Z</time>
      </trkpt>
      <trkpt lat="42.67338" lon="1.39968">
        <ele>2860.54</ele>
        <time>2016-09-28T09:05:33Z</time>
      </trkpt>
      <trkpt lat="42.67342" lon="1.39968">
        <ele>2856.69</ele>
        <time>2016-09-28T09:05:41Z</time>
      </trkpt>
      <trkpt lat="42.67344" lon="1.39966">
        <ele>2853.81</ele>
        <time>2016-09-28T09:05:45Z</time>
      </trkpt>
      <trkpt lat="42.67346" lon="1.39965">
        <ele>2852.85</ele>
        <time>2016-09-28T09:05:47Z</time>
      </trkpt>
      <trkpt lat="42.67351" lon="1.39965">
        <ele>2852.85</ele>
        <time>2016-09-28T09:05:54Z</time>
      </trkpt>
      <trkpt lat="42.67357" lon="1.39961">
        <ele>2852.85</ele>
        <time>2016-09-28T09:06:03Z</time>
      </trkpt>
      <trkpt lat="42.6736" lon="1.39962">
        <ele>2852.85</ele>
        <time>2016-09-28T09:06:06Z</time>
      </trkpt>
      <trkpt lat="42.67363" lon="1.39963">
        <ele>2852.85</ele>
        <time>2016-09-28T09:06:08Z</time>
      </trkpt>
      <trkpt lat="42.67366" lon="1.39961">
        <ele>2852.85</ele>
        <time>2016-09-28T09:06:12Z</time>
      </trkpt>
      <trkpt lat="42.6737" lon="1.39958">
        <ele>2852.85</ele>
        <time>2016-09-28T09:06:19Z</time>
      </trkpt>
      <trkpt lat="42.67371" lon="1.39951">
        <ele>2852.85</ele>
        <time>2016-09-28T09:06:24Z</time>
      </trkpt>
      <trkpt lat="42.67376" lon="1.39948">
        <ele>2852.85</ele>
        <time>2016-09-28T09:06:29Z</time>
      </trkpt>
      <trkpt lat="42.67386" lon="1.39944">
        <ele>2852.85</ele>
        <time>2016-09-28T09:06:42Z</time>
      </trkpt>
      <trkpt lat="42.67391" lon="1.39942">
        <ele>2852.37</ele>
        <time>2016-09-28T09:06:51Z</time>
      </trkpt>
      <trkpt lat="42.67392" lon="1.39941">
        <ele>2852.37</ele>
        <time>2016-09-28T09:07:10Z</time>
      </trkpt>
      <trkpt lat="42.67394" lon="1.3994">
        <ele>2852.37</ele>
        <time>2016-09-28T09:07:21Z</time>
      </trkpt>
      <trkpt lat="42.67397" lon="1.39939">
        <ele>2851.89</ele>
        <time>2016-09-28T09:07:26Z</time>
      </trkpt>
      <trkpt lat="42.67397" lon="1.39942">
        <ele>2851.89</ele>
        <time>2016-09-28T09:07:30Z</time>
      </trkpt>
      <trkpt lat="42.674" lon="1.39943">
        <ele>2851.41</ele>
        <time>2016-09-28T09:07:34Z</time>
      </trkpt>
      <trkpt lat="42.67402" lon="1.39943">
        <ele>2850.93</ele>
        <time>2016-09-28T09:07:37Z</time>
      </trkpt>
      <trkpt lat="42.67403" lon="1.39945">
        <ele>2849.48</ele>
        <time>2016-09-28T09:07:39Z</time>
      </trkpt>
      <trkpt lat="42.67408" lon="1.39944">
        <ele>2848.04</ele>
        <time>2016-09-28T09:07:44Z</time>
      </trkpt>
      <trkpt lat="42.67422" lon="1.39945">
        <ele>2845.16</ele>
        <time>2016-09-28T09:07:56Z</time>
      </trkpt>
      <trkpt lat="42.67426" lon="1.39945">
        <ele>2845.16</ele>
        <time>2016-09-28T09:08:02Z</time>
      </trkpt>
      <trkpt lat="42.67431" lon="1.39943">
        <ele>2844.68</ele>
        <time>2016-09-28T09:08:07Z</time>
      </trkpt>
      <trkpt lat="42.67438" lon="1.39945">
        <ele>2844.2</ele>
        <time>2016-09-28T09:08:14Z</time>
      </trkpt>
      <trkpt lat="42.67444" lon="1.39939">
        <ele>2843.72</ele>
        <time>2016-09-28T09:08:22Z</time>
      </trkpt>
      <trkpt lat="42.67452" lon="1.39925">
        <ele>2843.24</ele>
        <time>2016-09-28T09:08:34Z</time>
      </trkpt>
      <trkpt lat="42.67456" lon="1.39921">
        <ele>2843.24</ele>
        <time>2016-09-28T09:08:46Z</time>
      </trkpt>
      <trkpt lat="42.67456" lon="1.39921">
        <ele>2843.24</ele>
        <time>2016-09-28T09:08:49Z</time>
      </trkpt>
      <trkpt lat="42.67459" lon="1.39919">
        <ele>2842.76</ele>
        <time>2016-09-28T09:08:53Z</time>
      </trkpt>
      <trkpt lat="42.6746" lon="1.39917">
        <ele>2842.28</ele>
        <time>2016-09-28T09:09:04Z</time>
      </trkpt>
      <trkpt lat="42.67461" lon="1.39917">
        <ele>2842.28</ele>
        <time>2016-09-28T09:09:18Z</time>
      </trkpt>
      <trkpt lat="42.67466" lon="1.39925">
        <ele>2842.28</ele>
        <time>2016-09-28T09:09:30Z</time>
      </trkpt>
      <trkpt lat="42.67463" lon="1.39918">
        <ele>2842.28</ele>
        <time>2016-09-28T09:09:43Z</time>
      </trkpt>
      <trkpt lat="42.67462" lon="1.39918">
        <ele>2842.28</ele>
        <time>2016-09-28T09:09:59Z</time>
      </trkpt>
      <trkpt lat="42.67461" lon="1.39917">
        <ele>2842.28</ele>
        <time>2016-09-28T09:10:17Z</time>
      </trkpt>
      <trkpt lat="42.67463" lon="1.39918">
        <ele>2842.28</ele>
        <time>2016-09-28T09:10:29Z</time>
      </trkpt>
      <trkpt lat="42.67463" lon="1.39915">
        <ele>2841.79</ele>
        <time>2016-09-28T09:10:49Z</time>
      </trkpt>
      <trkpt lat="42.67464" lon="1.39915">
        <ele>2841.31</ele>
        <time>2016-09-28T09:11:21Z</time>
      </trkpt>
      <trkpt lat="42.67462" lon="1.39915">
        <ele>2841.31</ele>
        <time>2016-09-28T09:11:30Z</time>
      </trkpt>
      <trkpt lat="42.67464" lon="1.39916">
        <ele>2841.31</ele>
        <time>2016-09-28T09:11:42Z</time>
      </trkpt>
      <trkpt lat="42.67465" lon="1.39917">
        <ele>2842.28</ele>
        <time>2016-09-28T09:11:56Z</time>
      </trkpt>
      <trkpt lat="42.67467" lon="1.39919">
        <ele>2842.28</ele>
        <time>2016-09-28T09:12:20Z</time>
      </trkpt>
      <trkpt lat="42.67468" lon="1.39919">
        <ele>2842.28</ele>
        <time>2016-09-28T09:12:26Z</time>
      </trkpt>
      <trkpt lat="42.67474" lon="1.39922">
        <ele>2841.31</ele>
        <time>2016-09-28T09:12:38Z</time>
      </trkpt>
      <trkpt lat="42.67476" lon="1.39921">
        <ele>2840.35</ele>
        <time>2016-09-28T09:12:51Z</time>
      </trkpt>
      <trkpt lat="42.67478" lon="1.39917">
        <ele>2839.39</ele>
        <time>2016-09-28T09:13:03Z</time>
      </trkpt>
      <trkpt lat="42.67481" lon="1.39919">
        <ele>2838.91</ele>
        <time>2016-09-28T09:13:13Z</time>
      </trkpt>
      <trkpt lat="42.67484" lon="1.39916">
        <ele>2837.47</ele>
        <time>2016-09-28T09:13:24Z</time>
      </trkpt>
      <trkpt lat="42.67487" lon="1.3991">
        <ele>2834.58</ele>
        <time>2016-09-28T09:13:37Z</time>
      </trkpt>
      <trkpt lat="42.67488" lon="1.39904">
        <ele>2832.18</ele>
        <time>2016-09-28T09:13:47Z</time>
      </trkpt>
      <trkpt lat="42.67489" lon="1.39901">
        <ele>2828.82</ele>
        <time>2016-09-28T09:13:53Z</time>
      </trkpt>
      <trkpt lat="42.67492" lon="1.399">
        <ele>2824.97</ele>
        <time>2016-09-28T09:13:59Z</time>
      </trkpt>
      <trkpt lat="42.67496" lon="1.39901">
        <ele>2824.97</ele>
        <time>2016-09-28T09:14:05Z</time>
      </trkpt>
      <trkpt lat="42.67498" lon="1.39899">
        <ele>2824.01</ele>
        <time>2016-09-28T09:14:15Z</time>
      </trkpt>
      <trkpt lat="42.67501" lon="1.39896">
        <ele>2823.53</ele>
        <time>2016-09-28T09:14:19Z</time>
      </trkpt>
      <trkpt lat="42.67506" lon="1.39901">
        <ele>2820.65</ele>
        <time>2016-09-28T09:14:29Z</time>
      </trkpt>
      <trkpt lat="42.67506" lon="1.39897">
        <ele>2817.76</ele>
        <time>2016-09-28T09:14:34Z</time>
      </trkpt>
      <trkpt lat="42.67509" lon="1.39895">
        <ele>2815.84</ele>
        <time>2016-09-28T09:14:46Z</time>
      </trkpt>
      <trkpt lat="42.67511" lon="1.39892">
        <ele>2815.84</ele>
        <time>2016-09-28T09:14:56Z</time>
      </trkpt>
      <trkpt lat="42.67512" lon="1.39891">
        <ele>2814.88</ele>
        <time>2016-09-28T09:15:02Z</time>
      </trkpt>
      <trkpt lat="42.67515" lon="1.39894">
        <ele>2813.92</ele>
        <time>2016-09-28T09:15:11Z</time>
      </trkpt>
      <trkpt lat="42.6752" lon="1.39898">
        <ele>2811.51</ele>
        <time>2016-09-28T09:15:20Z</time>
      </trkpt>
      <trkpt lat="42.67522" lon="1.39902">
        <ele>2807.19</ele>
        <time>2016-09-28T09:15:25Z</time>
      </trkpt>
      <trkpt lat="42.67528" lon="1.39905">
        <ele>2804.78</ele>
        <time>2016-09-28T09:15:37Z</time>
      </trkpt>
      <trkpt lat="42.67529" lon="1.39914">
        <ele>2804.3</ele>
        <time>2016-09-28T09:15:49Z</time>
      </trkpt>
      <trkpt lat="42.67529" lon="1.39915">
        <ele>2804.3</ele>
        <time>2016-09-28T09:15:50Z</time>
      </trkpt>
      <trkpt lat="42.6753" lon="1.39916">
        <ele>2803.82</ele>
        <time>2016-09-28T09:15:55Z</time>
      </trkpt>
      <trkpt lat="42.67533" lon="1.39915">
        <ele>2801.42</ele>
        <time>2016-09-28T09:16:04Z</time>
      </trkpt>
      <trkpt lat="42.67534" lon="1.39915">
        <ele>2800.46</ele>
        <time>2016-09-28T09:16:06Z</time>
      </trkpt>
      <trkpt lat="42.67537" lon="1.39909">
        <ele>2796.13</ele>
        <time>2016-09-28T09:16:14Z</time>
      </trkpt>
      <trkpt lat="42.67537" lon="1.39901">
        <ele>2796.13</ele>
        <time>2016-09-28T09:16:26Z</time>
      </trkpt>
      <trkpt lat="42.67538" lon="1.39896">
        <ele>2795.17</ele>
        <time>2016-09-28T09:16:38Z</time>
      </trkpt>
      <trkpt lat="42.6754" lon="1.39889">
        <ele>2792.77</ele>
        <time>2016-09-28T09:16:49Z</time>
      </trkpt>
      <trkpt lat="42.67543" lon="1.39888">
        <ele>2789.4</ele>
        <time>2016-09-28T09:16:54Z</time>
      </trkpt>
      <trkpt lat="42.67544" lon="1.39887">
        <ele>2786.52</ele>
        <time>2016-09-28T09:17:01Z</time>
      </trkpt>
      <trkpt lat="42.67546" lon="1.39882">
        <ele>2786.52</ele>
        <time>2016-09-28T09:17:11Z</time>
      </trkpt>
      <trkpt lat="42.67549" lon="1.39881">
        <ele>2785.08</ele>
        <time>2016-09-28T09:17:19Z</time>
      </trkpt>
      <trkpt lat="42.67556" lon="1.39883">
        <ele>2781.71</ele>
        <time>2016-09-28T09:17:30Z</time>
      </trkpt>
      <trkpt lat="42.67558" lon="1.39884">
        <ele>2778.35</ele>
        <time>2016-09-28T09:17:34Z</time>
      </trkpt>
      <trkpt lat="42.67561" lon="1.39886">
        <ele>2776.42</ele>
        <time>2016-09-28T09:17:40Z</time>
      </trkpt>
      <trkpt lat="42.67563" lon="1.39887">
        <ele>2776.42</ele>
        <time>2016-09-28T09:17:51Z</time>
      </trkpt>
      <trkpt lat="42.67567" lon="1.39891">
        <ele>2774.5</ele>
        <time>2016-09-28T09:18:01Z</time>
      </trkpt>
      <trkpt lat="42.67573" lon="1.39888">
        <ele>2772.1</ele>
        <time>2016-09-28T09:18:12Z</time>
      </trkpt>
      <trkpt lat="42.67574" lon="1.39882">
        <ele>2770.66</ele>
        <time>2016-09-28T09:18:17Z</time>
      </trkpt>
      <trkpt lat="42.67578" lon="1.3988">
        <ele>2770.66</ele>
        <time>2016-09-28T09:18:21Z</time>
      </trkpt>
      <trkpt lat="42.67581" lon="1.3988">
        <ele>2770.18</ele>
        <time>2016-09-28T09:18:24Z</time>
      </trkpt>
      <trkpt lat="42.67585" lon="1.3988">
        <ele>2769.7</ele>
        <time>2016-09-28T09:18:34Z</time>
      </trkpt>
      <trkpt lat="42.67592" lon="1.3988">
        <ele>2768.73</ele>
        <time>2016-09-28T09:18:44Z</time>
      </trkpt>
      <trkpt lat="42.67595" lon="1.3988">
        <ele>2767.29</ele>
        <time>2016-09-28T09:18:48Z</time>
      </trkpt>
      <trkpt lat="42.676" lon="1.39881">
        <ele>2764.89</ele>
        <time>2016-09-28T09:18:58Z</time>
      </trkpt>
      <trkpt lat="42.67603" lon="1.39881">
        <ele>2762</ele>
        <time>2016-09-28T09:19:03Z</time>
      </trkpt>
      <trkpt lat="42.67608" lon="1.39885">
        <ele>2760.56</ele>
        <time>2016-09-28T09:19:13Z</time>
      </trkpt>
      <trkpt lat="42.67612" lon="1.39886">
        <ele>2759.12</ele>
        <time>2016-09-28T09:19:25Z</time>
      </trkpt>
      <trkpt lat="42.67611" lon="1.39887">
        <ele>2758.64</ele>
        <time>2016-09-28T09:19:39Z</time>
      </trkpt>
      <trkpt lat="42.67612" lon="1.39886">
        <ele>2757.68</ele>
        <time>2016-09-28T09:19:48Z</time>
      </trkpt>
      <trkpt lat="42.67611" lon="1.39886">
        <ele>2757.2</ele>
        <time>2016-09-28T09:20:14Z</time>
      </trkpt>
      <trkpt lat="42.67611" lon="1.39885">
        <ele>2757.2</ele>
        <time>2016-09-28T09:20:43Z</time>
      </trkpt>
      <trkpt lat="42.67611" lon="1.39886">
        <ele>2757.2</ele>
        <time>2016-09-28T09:21:13Z</time>
      </trkpt>
      <trkpt lat="42.67612" lon="1.39886">
        <ele>2758.16</ele>
        <time>2016-09-28T09:21:33Z</time>
      </trkpt>
      <trkpt lat="42.67612" lon="1.39887">
        <ele>2759.12</ele>
        <time>2016-09-28T09:21:49Z</time>
      </trkpt>
      <trkpt lat="42.67614" lon="1.3989">
        <ele>2759.12</ele>
        <time>2016-09-28T09:21:58Z</time>
      </trkpt>
      <trkpt lat="42.67619" lon="1.39892">
        <ele>2759.12</ele>
        <time>2016-09-28T09:22:10Z</time>
      </trkpt>
      <trkpt lat="42.6762" lon="1.39892">
        <ele>2757.68</ele>
        <time>2016-09-28T09:22:12Z</time>
      </trkpt>
      <trkpt lat="42.67622" lon="1.39896">
        <ele>2755.76</ele>
        <time>2016-09-28T09:22:24Z</time>
      </trkpt>
      <trkpt lat="42.67624" lon="1.39899">
        <ele>2754.31</ele>
        <time>2016-09-28T09:22:35Z</time>
      </trkpt>
      <trkpt lat="42.67626" lon="1.39904">
        <ele>2750.95</ele>
        <time>2016-09-28T09:22:45Z</time>
      </trkpt>
      <trkpt lat="42.67628" lon="1.39904">
        <ele>2747.59</ele>
        <time>2016-09-28T09:22:50Z</time>
      </trkpt>
      <trkpt lat="42.67633" lon="1.39908">
        <ele>2746.62</ele>
        <time>2016-09-28T09:23:01Z</time>
      </trkpt>
      <trkpt lat="42.67633" lon="1.39908">
        <ele>2746.62</ele>
        <time>2016-09-28T09:23:02Z</time>
      </trkpt>
      <trkpt lat="42.67635" lon="1.39909">
        <ele>2746.62</ele>
        <time>2016-09-28T09:23:08Z</time>
      </trkpt>
      <trkpt lat="42.67639" lon="1.39907">
        <ele>2745.66</ele>
        <time>2016-09-28T09:23:13Z</time>
      </trkpt>
      <trkpt lat="42.67646" lon="1.39908">
        <ele>2742.78</ele>
        <time>2016-09-28T09:23:24Z</time>
      </trkpt>
      <trkpt lat="42.6765" lon="1.39907">
        <ele>2739.41</ele>
        <time>2016-09-28T09:23:30Z</time>
      </trkpt>
      <trkpt lat="42.67656" lon="1.39903">
        <ele>2738.93</ele>
        <time>2016-09-28T09:23:41Z</time>
      </trkpt>
      <trkpt lat="42.67659" lon="1.39904">
        <ele>2737.97</ele>
        <time>2016-09-28T09:23:49Z</time>
      </trkpt>
      <trkpt lat="42.67667" lon="1.39903">
        <ele>2736.53</ele>
        <time>2016-09-28T09:23:59Z</time>
      </trkpt>
      <trkpt lat="42.67668" lon="1.399">
        <ele>2735.09</ele>
        <time>2016-09-28T09:24:04Z</time>
      </trkpt>
      <trkpt lat="42.67672" lon="1.39896">
        <ele>2733.65</ele>
        <time>2016-09-28T09:24:14Z</time>
      </trkpt>
      <trkpt lat="42.67677" lon="1.39889">
        <ele>2730.76</ele>
        <time>2016-09-28T09:24:24Z</time>
      </trkpt>
      <trkpt lat="42.67679" lon="1.39888">
        <ele>2729.32</ele>
        <time>2016-09-28T09:24:26Z</time>
      </trkpt>
      <trkpt lat="42.67682" lon="1.39888">
        <ele>2726.44</ele>
        <time>2016-09-28T09:24:30Z</time>
      </trkpt>
      <trkpt lat="42.67684" lon="1.39891">
        <ele>2725.48</ele>
        <time>2016-09-28T09:24:35Z</time>
      </trkpt>
      <trkpt lat="42.6769" lon="1.39898">
        <ele>2725.48</ele>
        <time>2016-09-28T09:24:48Z</time>
      </trkpt>
      <trkpt lat="42.6769" lon="1.39899">
        <ele>2725.48</ele>
        <time>2016-09-28T09:24:49Z</time>
      </trkpt>
      <trkpt lat="42.6769" lon="1.399">
        <ele>2725.48</ele>
        <time>2016-09-28T09:24:52Z</time>
      </trkpt>
      <trkpt lat="42.67694" lon="1.39908">
        <ele>2723.55</ele>
        <time>2016-09-28T09:25:03Z</time>
      </trkpt>
      <trkpt lat="42.67696" lon="1.39908">
        <ele>2723.07</ele>
        <time>2016-09-28T09:25:06Z</time>
      </trkpt>
      <trkpt lat="42.67698" lon="1.39909">
        <ele>2723.07</ele>
        <time>2016-09-28T09:25:09Z</time>
      </trkpt>
      <trkpt lat="42.67702" lon="1.39909">
        <ele>2718.75</ele>
        <time>2016-09-28T09:25:18Z</time>
      </trkpt>
      <trkpt lat="42.67703" lon="1.39908">
        <ele>2717.3</ele>
        <time>2016-09-28T09:25:21Z</time>
      </trkpt>
      <trkpt lat="42.67706" lon="1.39904">
        <ele>2714.42</ele>
        <time>2016-09-28T09:25:27Z</time>
      </trkpt>
      <trkpt lat="42.67708" lon="1.39902">
        <ele>2714.9</ele>
        <time>2016-09-28T09:25:40Z</time>
      </trkpt>
      <trkpt lat="42.67711" lon="1.399">
        <ele>2714.9</ele>
        <time>2016-09-28T09:25:51Z</time>
      </trkpt>
      <trkpt lat="42.67713" lon="1.39897">
        <ele>2713.46</ele>
        <time>2016-09-28T09:26:01Z</time>
      </trkpt>
      <trkpt lat="42.67715" lon="1.39893">
        <ele>2711.06</ele>
        <time>2016-09-28T09:26:14Z</time>
      </trkpt>
      <trkpt lat="42.67715" lon="1.39892">
        <ele>2710.57</ele>
        <time>2016-09-28T09:26:17Z</time>
      </trkpt>
      <trkpt lat="42.67718" lon="1.39886">
        <ele>2709.13</ele>
        <time>2016-09-28T09:26:26Z</time>
      </trkpt>
      <trkpt lat="42.6772" lon="1.39883">
        <ele>2704.81</ele>
        <time>2016-09-28T09:26:31Z</time>
      </trkpt>
      <trkpt lat="42.67721" lon="1.39877">
        <ele>2703.36</ele>
        <time>2016-09-28T09:26:42Z</time>
      </trkpt>
      <trkpt lat="42.67721" lon="1.39877">
        <ele>2703.36</ele>
        <time>2016-09-28T09:27:00Z</time>
      </trkpt>
      <trkpt lat="42.67722" lon="1.39874">
        <ele>2702.88</ele>
        <time>2016-09-28T09:27:12Z</time>
      </trkpt>
      <trkpt lat="42.67722" lon="1.39873">
        <ele>2701.92</ele>
        <time>2016-09-28T09:27:42Z</time>
      </trkpt>
      <trkpt lat="42.67723" lon="1.39874">
        <ele>2701.44</ele>
        <time>2016-09-28T09:28:10Z</time>
      </trkpt>
      <trkpt lat="42.67723" lon="1.39874">
        <ele>2701.44</ele>
        <time>2016-09-28T09:28:37Z</time>
      </trkpt>
      <trkpt lat="42.67723" lon="1.3987">
        <ele>2701.44</ele>
        <time>2016-09-28T09:28:49Z</time>
      </trkpt>
      <trkpt lat="42.67723" lon="1.39869">
        <ele>2701.44</ele>
        <time>2016-09-28T09:29:11Z</time>
      </trkpt>
      <trkpt lat="42.67724" lon="1.3987">
        <ele>2700.96</ele>
        <time>2016-09-28T09:29:39Z</time>
      </trkpt>
      <trkpt lat="42.67725" lon="1.39867">
        <ele>2700.48</ele>
        <time>2016-09-28T09:29:58Z</time>
      </trkpt>
      <trkpt lat="42.67725" lon="1.39865">
        <ele>2700</ele>
        <time>2016-09-28T09:30:21Z</time>
      </trkpt>
      <trkpt lat="42.67726" lon="1.39863">
        <ele>2699.52</ele>
        <time>2016-09-28T09:30:25Z</time>
      </trkpt>
      <trkpt lat="42.67731" lon="1.39854">
        <ele>2699.04</ele>
        <time>2016-09-28T09:30:36Z</time>
      </trkpt>
      <trkpt lat="42.67735" lon="1.39845">
        <ele>2697.6</ele>
        <time>2016-09-28T09:30:48Z</time>
      </trkpt>
      <trkpt lat="42.67739" lon="1.39841">
        <ele>2695.19</ele>
        <time>2016-09-28T09:31:00Z</time>
      </trkpt>
      <trkpt lat="42.6774" lon="1.3984">
        <ele>2694.71</ele>
        <time>2016-09-28T09:31:04Z</time>
      </trkpt>
      <trkpt lat="42.67743" lon="1.39834">
        <ele>2693.75</ele>
        <time>2016-09-28T09:31:10Z</time>
      </trkpt>
      <trkpt lat="42.67749" lon="1.39825">
        <ele>2691.83</ele>
        <time>2016-09-28T09:31:22Z</time>
      </trkpt>
      <trkpt lat="42.67753" lon="1.39817">
        <ele>2689.91</ele>
        <time>2016-09-28T09:31:34Z</time>
      </trkpt>
      <trkpt lat="42.67758" lon="1.39813">
        <ele>2688.46</ele>
        <time>2016-09-28T09:31:45Z</time>
      </trkpt>
      <trkpt lat="42.6776" lon="1.3981">
        <ele>2687.98</ele>
        <time>2016-09-28T09:31:49Z</time>
      </trkpt>
      <trkpt lat="42.67765" lon="1.39804">
        <ele>2683.66</ele>
        <time>2016-09-28T09:31:59Z</time>
      </trkpt>
      <trkpt lat="42.67767" lon="1.398">
        <ele>2680.29</ele>
        <time>2016-09-28T09:32:03Z</time>
      </trkpt>
      <trkpt lat="42.67767" lon="1.39799">
        <ele>2679.81</ele>
        <time>2016-09-28T09:32:05Z</time>
      </trkpt>
      <trkpt lat="42.67768" lon="1.39797">
        <ele>2682.7</ele>
        <time>2016-09-28T09:32:12Z</time>
      </trkpt>
      <trkpt lat="42.67768" lon="1.39797">
        <ele>2684.62</ele>
        <time>2016-09-28T09:32:15Z</time>
      </trkpt>
      <trkpt lat="42.67771" lon="1.39796">
        <ele>2681.25</ele>
        <time>2016-09-28T09:32:27Z</time>
      </trkpt>
      <trkpt lat="42.67774" lon="1.39786">
        <ele>2680.77</ele>
        <time>2016-09-28T09:32:39Z</time>
      </trkpt>
      <trkpt lat="42.67775" lon="1.3978">
        <ele>2680.29</ele>
        <time>2016-09-28T09:32:51Z</time>
      </trkpt>
      <trkpt lat="42.67776" lon="1.39777">
        <ele>2679.33</ele>
        <time>2016-09-28T09:32:57Z</time>
      </trkpt>
      <trkpt lat="42.67772" lon="1.39766">
        <ele>2677.41</ele>
        <time>2016-09-28T09:33:08Z</time>
      </trkpt>
      <trkpt lat="42.67776" lon="1.39761">
        <ele>2675.97</ele>
        <time>2016-09-28T09:33:20Z</time>
      </trkpt>
      <trkpt lat="42.67779" lon="1.39763">
        <ele>2672.6</ele>
        <time>2016-09-28T09:33:28Z</time>
      </trkpt>
      <trkpt lat="42.67782" lon="1.39765">
        <ele>2670.2</ele>
        <time>2016-09-28T09:33:31Z</time>
      </trkpt>
      <trkpt lat="42.67783" lon="1.39765">
        <ele>2668.76</ele>
        <time>2016-09-28T09:33:34Z</time>
      </trkpt>
      <trkpt lat="42.67785" lon="1.39763">
        <ele>2668.76</ele>
        <time>2016-09-28T09:33:40Z</time>
      </trkpt>
      <trkpt lat="42.67785" lon="1.39762">
        <ele>2668.76</ele>
        <time>2016-09-28T09:33:51Z</time>
      </trkpt>
      <trkpt lat="42.67785" lon="1.39759">
        <ele>2667.8</ele>
        <time>2016-09-28T09:33:58Z</time>
      </trkpt>
      <trkpt lat="42.67784" lon="1.39754">
        <ele>2666.83</ele>
        <time>2016-09-28T09:34:08Z</time>
      </trkpt>
      <trkpt lat="42.67784" lon="1.39748">
        <ele>2665.39</ele>
        <time>2016-09-28T09:34:19Z</time>
      </trkpt>
      <trkpt lat="42.67782" lon="1.39747">
        <ele>2665.39</ele>
        <time>2016-09-28T09:34:21Z</time>
      </trkpt>
      <trkpt lat="42.67786" lon="1.39743">
        <ele>2663.95</ele>
        <time>2016-09-28T09:34:31Z</time>
      </trkpt>
      <trkpt lat="42.67787" lon="1.39741">
        <ele>2662.51</ele>
        <time>2016-09-28T09:34:39Z</time>
      </trkpt>
      <trkpt lat="42.67789" lon="1.39746">
        <ele>2662.03</ele>
        <time>2016-09-28T09:34:46Z</time>
      </trkpt>
      <trkpt lat="42.6779" lon="1.39746">
        <ele>2661.07</ele>
        <time>2016-09-28T09:34:57Z</time>
      </trkpt>
      <trkpt lat="42.67794" lon="1.39739">
        <ele>2657.7</ele>
        <time>2016-09-28T09:35:04Z</time>
      </trkpt>
      <trkpt lat="42.67797" lon="1.39737">
        <ele>2655.3</ele>
        <time>2016-09-28T09:35:16Z</time>
      </trkpt>
      <trkpt lat="42.67799" lon="1.39736">
        <ele>2655.3</ele>
        <time>2016-09-28T09:35:26Z</time>
      </trkpt>
      <trkpt lat="42.678" lon="1.39736">
        <ele>2655.3</ele>
        <time>2016-09-28T09:35:30Z</time>
      </trkpt>
      <trkpt lat="42.67802" lon="1.39736">
        <ele>2653.38</ele>
        <time>2016-09-28T09:35:44Z</time>
      </trkpt>
      <trkpt lat="42.67802" lon="1.39733">
        <ele>2652.42</ele>
        <time>2016-09-28T09:35:53Z</time>
      </trkpt>
      <trkpt lat="42.67802" lon="1.3973">
        <ele>2651.45</ele>
        <time>2016-09-28T09:36:01Z</time>
      </trkpt>
      <trkpt lat="42.67803" lon="1.39724">
        <ele>2649.05</ele>
        <time>2016-09-28T09:36:12Z</time>
      </trkpt>
      <trkpt lat="42.67807" lon="1.39718">
        <ele>2646.65</ele>
        <time>2016-09-28T09:36:24Z</time>
      </trkpt>
      <trkpt lat="42.67809" lon="1.39717">
        <ele>2647.13</ele>
        <time>2016-09-28T09:36:26Z</time>
      </trkpt>
      <trkpt lat="42.67813" lon="1.39721">
        <ele>2644.72</ele>
        <time>2016-09-28T09:36:38Z</time>
      </trkpt>
      <trkpt lat="42.67816" lon="1.39724">
        <ele>2642.8</ele>
        <time>2016-09-28T09:36:49Z</time>
      </trkpt>
      <trkpt lat="42.67816" lon="1.39724">
        <ele>2642.32</ele>
        <time>2016-09-28T09:36:50Z</time>
      </trkpt>
      <trkpt lat="42.67816" lon="1.39726">
        <ele>2640.88</ele>
        <time>2016-09-28T09:37:02Z</time>
      </trkpt>
      <trkpt lat="42.67817" lon="1.39726">
        <ele>2639.44</ele>
        <time>2016-09-28T09:37:08Z</time>
      </trkpt>
      <trkpt lat="42.67821" lon="1.39725">
        <ele>2638.48</ele>
        <time>2016-09-28T09:37:14Z</time>
      </trkpt>
      <trkpt lat="42.67825" lon="1.39734">
        <ele>2636.07</ele>
        <time>2016-09-28T09:37:26Z</time>
      </trkpt>
      <trkpt lat="42.67826" lon="1.39739">
        <ele>2634.63</ele>
        <time>2016-09-28T09:37:37Z</time>
      </trkpt>
      <trkpt lat="42.67828" lon="1.39745">
        <ele>2632.23</ele>
        <time>2016-09-28T09:37:49Z</time>
      </trkpt>
      <trkpt lat="42.67829" lon="1.39751">
        <ele>2630.79</ele>
        <time>2016-09-28T09:38:00Z</time>
      </trkpt>
      <trkpt lat="42.67829" lon="1.39752">
        <ele>2627.42</ele>
        <time>2016-09-28T09:38:06Z</time>
      </trkpt>
      <trkpt lat="42.67831" lon="1.39754">
        <ele>2624.54</ele>
        <time>2016-09-28T09:38:13Z</time>
      </trkpt>
      <trkpt lat="42.67835" lon="1.39757">
        <ele>2624.54</ele>
        <time>2016-09-28T09:38:27Z</time>
      </trkpt>
      <trkpt lat="42.67835" lon="1.39757">
        <ele>2623.58</ele>
        <time>2016-09-28T09:38:38Z</time>
      </trkpt>
      <trkpt lat="42.67839" lon="1.39755">
        <ele>2622.13</ele>
        <time>2016-09-28T09:38:46Z</time>
      </trkpt>
      <trkpt lat="42.67843" lon="1.39759">
        <ele>2620.69</ele>
        <time>2016-09-28T09:38:55Z</time>
      </trkpt>
      <trkpt lat="42.67846" lon="1.39761">
        <ele>2617.33</ele>
        <time>2016-09-28T09:39:03Z</time>
      </trkpt>
      <trkpt lat="42.67847" lon="1.3976">
        <ele>2613.96</ele>
        <time>2016-09-28T09:39:08Z</time>
      </trkpt>
      <trkpt lat="42.67848" lon="1.39759">
        <ele>2613.48</ele>
        <time>2016-09-28T09:39:12Z</time>
      </trkpt>
      <trkpt lat="42.67849" lon="1.39757">
        <ele>2613.48</ele>
        <time>2016-09-28T09:39:15Z</time>
      </trkpt>
      <trkpt lat="42.67854" lon="1.39754">
        <ele>2612.52</ele>
        <time>2016-09-28T09:39:25Z</time>
      </trkpt>
      <trkpt lat="42.67858" lon="1.39753">
        <ele>2611.08</ele>
        <time>2016-09-28T09:39:36Z</time>
      </trkpt>
      <trkpt lat="42.67862" lon="1.39748">
        <ele>2609.64</ele>
        <time>2016-09-28T09:39:47Z</time>
      </trkpt>
      <trkpt lat="42.67865" lon="1.39752">
        <ele>2607.23</ele>
        <time>2016-09-28T09:39:59Z</time>
      </trkpt>
      <trkpt lat="42.67868" lon="1.39755">
        <ele>2606.27</ele>
        <time>2016-09-28T09:40:04Z</time>
      </trkpt>
      <trkpt lat="42.6787" lon="1.39749">
        <ele>2603.87</ele>
        <time>2016-09-28T09:40:17Z</time>
      </trkpt>
      <trkpt lat="42.67871" lon="1.39747">
        <ele>2603.39</ele>
        <time>2016-09-28T09:40:35Z</time>
      </trkpt>
      <trkpt lat="42.67871" lon="1.39747">
        <ele>2603.39</ele>
        <time>2016-09-28T09:40:36Z</time>
      </trkpt>
      <trkpt lat="42.67871" lon="1.3974">
        <ele>2601.95</ele>
        <time>2016-09-28T09:40:47Z</time>
      </trkpt>
      <trkpt lat="42.67871" lon="1.39736">
        <ele>2600.98</ele>
        <time>2016-09-28T09:40:51Z</time>
      </trkpt>
      <trkpt lat="42.67873" lon="1.39733">
        <ele>2599.54</ele>
        <time>2016-09-28T09:40:59Z</time>
      </trkpt>
      <trkpt lat="42.6788" lon="1.39734">
        <ele>2597.62</ele>
        <time>2016-09-28T09:41:07Z</time>
      </trkpt>
      <trkpt lat="42.67883" lon="1.39739">
        <ele>2594.74</ele>
        <time>2016-09-28T09:41:12Z</time>
      </trkpt>
      <trkpt lat="42.67883" lon="1.3974">
        <ele>2594.25</ele>
        <time>2016-09-28T09:41:13Z</time>
      </trkpt>
      <trkpt lat="42.67885" lon="1.3974">
        <ele>2593.77</ele>
        <time>2016-09-28T09:41:17Z</time>
      </trkpt>
      <trkpt lat="42.67887" lon="1.39742">
        <ele>2593.77</ele>
        <time>2016-09-28T09:41:25Z</time>
      </trkpt>
      <trkpt lat="42.6789" lon="1.39743">
        <ele>2593.29</ele>
        <time>2016-09-28T09:41:29Z</time>
      </trkpt>
      <trkpt lat="42.67894" lon="1.39738">
        <ele>2592.33</ele>
        <time>2016-09-28T09:41:41Z</time>
      </trkpt>
      <trkpt lat="42.67898" lon="1.39742">
        <ele>2590.89</ele>
        <time>2016-09-28T09:41:51Z</time>
      </trkpt>
      <trkpt lat="42.67904" lon="1.39747">
        <ele>2588.97</ele>
        <time>2016-09-28T09:42:03Z</time>
      </trkpt>
      <trkpt lat="42.67905" lon="1.39756">
        <ele>2588.49</ele>
        <time>2016-09-28T09:42:14Z</time>
      </trkpt>
      <trkpt lat="42.67908" lon="1.39768">
        <ele>2588.49</ele>
        <time>2016-09-28T09:42:24Z</time>
      </trkpt>
      <trkpt lat="42.67908" lon="1.39778">
        <ele>2588.49</ele>
        <time>2016-09-28T09:42:34Z</time>
      </trkpt>
      <trkpt lat="42.67908" lon="1.39782">
        <ele>2588.49</ele>
        <time>2016-09-28T09:42:37Z</time>
      </trkpt>
      <trkpt lat="42.6791" lon="1.39789">
        <ele>2589.93</ele>
        <time>2016-09-28T09:42:49Z</time>
      </trkpt>
      <trkpt lat="42.67908" lon="1.39797">
        <ele>2590.41</ele>
        <time>2016-09-28T09:43:00Z</time>
      </trkpt>
      <trkpt lat="42.67907" lon="1.39799">
        <ele>2590.41</ele>
        <time>2016-09-28T09:43:03Z</time>
      </trkpt>
      <trkpt lat="42.67905" lon="1.39812">
        <ele>2590.41</ele>
        <time>2016-09-28T09:43:12Z</time>
      </trkpt>
      <trkpt lat="42.67909" lon="1.3982">
        <ele>2589.45</ele>
        <time>2016-09-28T09:43:19Z</time>
      </trkpt>
      <trkpt lat="42.67917" lon="1.39825">
        <ele>2588.97</ele>
        <time>2016-09-28T09:43:30Z</time>
      </trkpt>
      <trkpt lat="42.67917" lon="1.39826">
        <ele>2588.97</ele>
        <time>2016-09-28T09:43:32Z</time>
      </trkpt>
      <trkpt lat="42.67919" lon="1.39828">
        <ele>2588.97</ele>
        <time>2016-09-28T09:43:34Z</time>
      </trkpt>
      <trkpt lat="42.6792" lon="1.39832">
        <ele>2588.49</ele>
        <time>2016-09-28T09:43:37Z</time>
      </trkpt>
      <trkpt lat="42.67926" lon="1.39843">
        <ele>2587.53</ele>
        <time>2016-09-28T09:43:48Z</time>
      </trkpt>
      <trkpt lat="42.67929" lon="1.39855">
        <ele>2586.56</ele>
        <time>2016-09-28T09:44:01Z</time>
      </trkpt>
      <trkpt lat="42.6793" lon="1.39858">
        <ele>2585.6</ele>
        <time>2016-09-28T09:44:11Z</time>
      </trkpt>
      <trkpt lat="42.67929" lon="1.39862">
        <ele>2583.68</ele>
        <time>2016-09-28T09:44:23Z</time>
      </trkpt>
      <trkpt lat="42.67929" lon="1.39871">
        <ele>2581.76</ele>
        <time>2016-09-28T09:44:34Z</time>
      </trkpt>
      <trkpt lat="42.67929" lon="1.39873">
        <ele>2578.39</ele>
        <time>2016-09-28T09:44:41Z</time>
      </trkpt>
      <trkpt lat="42.67942" lon="1.39865">
        <ele>2575.03</ele>
        <time>2016-09-28T09:44:57Z</time>
      </trkpt>
      <trkpt lat="42.67948" lon="1.39865">
        <ele>2574.07</ele>
        <time>2016-09-28T09:45:05Z</time>
      </trkpt>
      <trkpt lat="42.67951" lon="1.39856">
        <ele>2572.63</ele>
        <time>2016-09-28T09:45:13Z</time>
      </trkpt>
      <trkpt lat="42.67958" lon="1.39849">
        <ele>2572.14</ele>
        <time>2016-09-28T09:45:25Z</time>
      </trkpt>
      <trkpt lat="42.67962" lon="1.39848">
        <ele>2571.18</ele>
        <time>2016-09-28T09:45:36Z</time>
      </trkpt>
      <trkpt lat="42.67964" lon="1.39846">
        <ele>2569.26</ele>
        <time>2016-09-28T09:45:47Z</time>
      </trkpt>
      <trkpt lat="42.67965" lon="1.39844">
        <ele>2567.82</ele>
        <time>2016-09-28T09:45:56Z</time>
      </trkpt>
      <trkpt lat="42.67969" lon="1.3984">
        <ele>2566.38</ele>
        <time>2016-09-28T09:46:03Z</time>
      </trkpt>
      <trkpt lat="42.67971" lon="1.39834">
        <ele>2565.9</ele>
        <time>2016-09-28T09:46:08Z</time>
      </trkpt>
      <trkpt lat="42.67978" lon="1.39828">
        <ele>2565.42</ele>
        <time>2016-09-28T09:46:19Z</time>
      </trkpt>
      <trkpt lat="42.67977" lon="1.39826">
        <ele>2565.42</ele>
        <time>2016-09-28T09:46:39Z</time>
      </trkpt>
      <trkpt lat="42.67978" lon="1.39826">
        <ele>2565.42</ele>
        <time>2016-09-28T09:47:00Z</time>
      </trkpt>
      <trkpt lat="42.67978" lon="1.39826">
        <ele>2565.42</ele>
        <time>2016-09-28T09:47:03Z</time>
      </trkpt>
      <trkpt lat="42.67978" lon="1.39825">
        <ele>2565.42</ele>
        <time>2016-09-28T09:47:05Z</time>
      </trkpt>
      <trkpt lat="42.6798" lon="1.39821">
        <ele>2565.42</ele>
        <time>2016-09-28T09:47:10Z</time>
      </trkpt>
      <trkpt lat="42.67984" lon="1.3982">
        <ele>2565.42</ele>
        <time>2016-09-28T09:47:14Z</time>
      </trkpt>
      <trkpt lat="42.67986" lon="1.39816">
        <ele>2564.93</ele>
        <time>2016-09-28T09:47:18Z</time>
      </trkpt>
      <trkpt lat="42.67989" lon="1.39807">
        <ele>2564.45</ele>
        <time>2016-09-28T09:47:29Z</time>
      </trkpt>
      <trkpt lat="42.67989" lon="1.39805">
        <ele>2564.45</ele>
        <time>2016-09-28T09:47:31Z</time>
      </trkpt>
      <trkpt lat="42.67989" lon="1.39799">
        <ele>2563.97</ele>
        <time>2016-09-28T09:47:37Z</time>
      </trkpt>
      <trkpt lat="42.6799" lon="1.3979">
        <ele>2563.49</ele>
        <time>2016-09-28T09:47:47Z</time>
      </trkpt>
      <trkpt lat="42.67994" lon="1.39784">
        <ele>2561.57</ele>
        <time>2016-09-28T09:47:58Z</time>
      </trkpt>
      <trkpt lat="42.67993" lon="1.39779">
        <ele>2559.17</ele>
        <time>2016-09-28T09:48:09Z</time>
      </trkpt>
      <trkpt lat="42.67994" lon="1.39777">
        <ele>2558.21</ele>
        <time>2016-09-28T09:48:18Z</time>
      </trkpt>
      <trkpt lat="42.67996" lon="1.39771">
        <ele>2556.28</ele>
        <time>2016-09-28T09:48:28Z</time>
      </trkpt>
      <trkpt lat="42.67996" lon="1.39766">
        <ele>2553.4</ele>
        <time>2016-09-28T09:48:34Z</time>
      </trkpt>
      <trkpt lat="42.67998" lon="1.39762">
        <ele>2550.51</ele>
        <time>2016-09-28T09:48:39Z</time>
      </trkpt>
      <trkpt lat="42.68" lon="1.39758">
        <ele>2549.07</ele>
        <time>2016-09-28T09:48:47Z</time>
      </trkpt>
      <trkpt lat="42.68001" lon="1.3975">
        <ele>2549.07</ele>
        <time>2016-09-28T09:48:58Z</time>
      </trkpt>
      <trkpt lat="42.68004" lon="1.39749">
        <ele>2548.11</ele>
        <time>2016-09-28T09:49:05Z</time>
      </trkpt>
      <trkpt lat="42.68006" lon="1.39746">
        <ele>2547.15</ele>
        <time>2016-09-28T09:49:11Z</time>
      </trkpt>
      <trkpt lat="42.68007" lon="1.39745">
        <ele>2546.19</ele>
        <time>2016-09-28T09:49:14Z</time>
      </trkpt>
      <trkpt lat="42.68009" lon="1.39745">
        <ele>2546.19</ele>
        <time>2016-09-28T09:49:16Z</time>
      </trkpt>
      <trkpt lat="42.6801" lon="1.39741">
        <ele>2545.23</ele>
        <time>2016-09-28T09:49:21Z</time>
      </trkpt>
      <trkpt lat="42.68012" lon="1.39739">
        <ele>2543.79</ele>
        <time>2016-09-28T09:49:26Z</time>
      </trkpt>
      <trkpt lat="42.68016" lon="1.39735">
        <ele>2542.34</ele>
        <time>2016-09-28T09:49:36Z</time>
      </trkpt>
      <trkpt lat="42.68016" lon="1.39732">
        <ele>2541.86</ele>
        <time>2016-09-28T09:49:38Z</time>
      </trkpt>
      <trkpt lat="42.6802" lon="1.39727">
        <ele>2537.06</ele>
        <time>2016-09-28T09:49:44Z</time>
      </trkpt>
      <trkpt lat="42.6802" lon="1.39727">
        <ele>2536.58</ele>
        <time>2016-09-28T09:49:45Z</time>
      </trkpt>
      <trkpt lat="42.68029" lon="1.39722">
        <ele>2535.61</ele>
        <time>2016-09-28T09:49:57Z</time>
      </trkpt>
      <trkpt lat="42.68029" lon="1.39717">
        <ele>2535.61</ele>
        <time>2016-09-28T09:50:01Z</time>
      </trkpt>
      <trkpt lat="42.68033" lon="1.39707">
        <ele>2535.61</ele>
        <time>2016-09-28T09:50:11Z</time>
      </trkpt>
      <trkpt lat="42.68034" lon="1.39701">
        <ele>2534.17</ele>
        <time>2016-09-28T09:50:16Z</time>
      </trkpt>
      <trkpt lat="42.68035" lon="1.397">
        <ele>2534.17</ele>
        <time>2016-09-28T09:50:18Z</time>
      </trkpt>
      <trkpt lat="42.68037" lon="1.39698">
        <ele>2533.69</ele>
        <time>2016-09-28T09:50:20Z</time>
      </trkpt>
      <trkpt lat="42.68041" lon="1.39694">
        <ele>2532.73</ele>
        <time>2016-09-28T09:50:27Z</time>
      </trkpt>
      <trkpt lat="42.68043" lon="1.39689">
        <ele>2532.73</ele>
        <time>2016-09-28T09:50:32Z</time>
      </trkpt>
      <trkpt lat="42.68044" lon="1.39679">
        <ele>2530.81</ele>
        <time>2016-09-28T09:50:43Z</time>
      </trkpt>
      <trkpt lat="42.68045" lon="1.39675">
        <ele>2530.33</ele>
        <time>2016-09-28T09:50:47Z</time>
      </trkpt>
      <trkpt lat="42.68046" lon="1.39667">
        <ele>2529.85</ele>
        <time>2016-09-28T09:50:55Z</time>
      </trkpt>
      <trkpt lat="42.68048" lon="1.39654">
        <ele>2528.89</ele>
        <time>2016-09-28T09:51:06Z</time>
      </trkpt>
      <trkpt lat="42.68048" lon="1.39647">
        <ele>2528.89</ele>
        <time>2016-09-28T09:51:11Z</time>
      </trkpt>
      <trkpt lat="42.6805" lon="1.39639">
        <ele>2528.89</ele>
        <time>2016-09-28T09:51:17Z</time>
      </trkpt>
      <trkpt lat="42.68055" lon="1.39627">
        <ele>2528.89</ele>
        <time>2016-09-28T09:51:29Z</time>
      </trkpt>
      <trkpt lat="42.68057" lon="1.39625">
        <ele>2528.89</ele>
        <time>2016-09-28T09:51:34Z</time>
      </trkpt>
      <trkpt lat="42.68063" lon="1.39618">
        <ele>2528.89</ele>
        <time>2016-09-28T09:51:43Z</time>
      </trkpt>
      <trkpt lat="42.68066" lon="1.39613">
        <ele>2528.89</ele>
        <time>2016-09-28T09:51:50Z</time>
      </trkpt>
      <trkpt lat="42.68067" lon="1.3961">
        <ele>2528.89</ele>
        <time>2016-09-28T09:51:52Z</time>
      </trkpt>
      <trkpt lat="42.6807" lon="1.39605">
        <ele>2528.89</ele>
        <time>2016-09-28T09:52:03Z</time>
      </trkpt>
      <trkpt lat="42.68069" lon="1.39604">
        <ele>2529.85</ele>
        <time>2016-09-28T09:52:22Z</time>
      </trkpt>
      <trkpt lat="42.68069" lon="1.39604">
        <ele>2529.85</ele>
        <time>2016-09-28T09:52:29Z</time>
      </trkpt>
      <trkpt lat="42.6807" lon="1.39603">
        <ele>2529.85</ele>
        <time>2016-09-28T09:52:31Z</time>
      </trkpt>
      <trkpt lat="42.68071" lon="1.39602">
        <ele>2529.85</ele>
        <time>2016-09-28T09:52:33Z</time>
      </trkpt>
      <trkpt lat="42.68073" lon="1.39594">
        <ele>2529.85</ele>
        <time>2016-09-28T09:52:39Z</time>
      </trkpt>
      <trkpt lat="42.68077" lon="1.39585">
        <ele>2528.4</ele>
        <time>2016-09-28T09:52:48Z</time>
      </trkpt>
      <trkpt lat="42.68075" lon="1.39582">
        <ele>2527.44</ele>
        <time>2016-09-28T09:53:03Z</time>
      </trkpt>
      <trkpt lat="42.68075" lon="1.39581">
        <ele>2526.96</ele>
        <time>2016-09-28T09:53:25Z</time>
      </trkpt>
      <trkpt lat="42.68076" lon="1.3958">
        <ele>2526.48</ele>
        <time>2016-09-28T09:53:49Z</time>
      </trkpt>
      <trkpt lat="42.68076" lon="1.3958">
        <ele>2526.48</ele>
        <time>2016-09-28T09:53:51Z</time>
      </trkpt>
      <trkpt lat="42.68078" lon="1.39574">
        <ele>2525.52</ele>
        <time>2016-09-28T09:54:01Z</time>
      </trkpt>
      <trkpt lat="42.68078" lon="1.39573">
        <ele>2524.08</ele>
        <time>2016-09-28T09:54:14Z</time>
      </trkpt>
      <trkpt lat="42.68078" lon="1.39571">
        <ele>2523.12</ele>
        <time>2016-09-28T09:54:25Z</time>
      </trkpt>
      <trkpt lat="42.68078" lon="1.39571">
        <ele>2523.12</ele>
        <time>2016-09-28T09:54:33Z</time>
      </trkpt>
      <trkpt lat="42.68076" lon="1.39568">
        <ele>2519.75</ele>
        <time>2016-09-28T09:54:40Z</time>
      </trkpt>
      <trkpt lat="42.68076" lon="1.39567">
        <ele>2518.79</ele>
        <time>2016-09-28T09:54:41Z</time>
      </trkpt>
      <trkpt lat="42.68078" lon="1.39566">
        <ele>2517.35</ele>
        <time>2016-09-28T09:54:43Z</time>
      </trkpt>
      <trkpt lat="42.68078" lon="1.39563">
        <ele>2515.91</ele>
        <time>2016-09-28T09:54:53Z</time>
      </trkpt>
      <trkpt lat="42.68078" lon="1.39562">
        <ele>2515.91</ele>
        <time>2016-09-28T09:54:54Z</time>
      </trkpt>
      <trkpt lat="42.68077" lon="1.39556">
        <ele>2515.91</ele>
        <time>2016-09-28T09:55:01Z</time>
      </trkpt>
      <trkpt lat="42.68079" lon="1.39555">
        <ele>2515.43</ele>
        <time>2016-09-28T09:55:04Z</time>
      </trkpt>
      <trkpt lat="42.68077" lon="1.39552">
        <ele>2513.5</ele>
        <time>2016-09-28T09:55:15Z</time>
      </trkpt>
      <trkpt lat="42.68076" lon="1.39552">
        <ele>2513.5</ele>
        <time>2016-09-28T09:55:17Z</time>
      </trkpt>
      <trkpt lat="42.68076" lon="1.39545">
        <ele>2511.58</ele>
        <time>2016-09-28T09:55:26Z</time>
      </trkpt>
      <trkpt lat="42.68079" lon="1.39538">
        <ele>2507.26</ele>
        <time>2016-09-28T09:55:32Z</time>
      </trkpt>
      <trkpt lat="42.68081" lon="1.39532">
        <ele>2505.81</ele>
        <time>2016-09-28T09:55:40Z</time>
      </trkpt>
      <trkpt lat="42.68084" lon="1.39532">
        <ele>2505.81</ele>
        <time>2016-09-28T09:55:49Z</time>
      </trkpt>
      <trkpt lat="42.68085" lon="1.3953">
        <ele>2504.37</ele>
        <time>2016-09-28T09:56:00Z</time>
      </trkpt>
      <trkpt lat="42.68085" lon="1.39529">
        <ele>2503.89</ele>
        <time>2016-09-28T09:56:04Z</time>
      </trkpt>
      <trkpt lat="42.68086" lon="1.39529">
        <ele>2503.89</ele>
        <time>2016-09-28T09:56:06Z</time>
      </trkpt>
      <trkpt lat="42.68088" lon="1.39522">
        <ele>2501.49</ele>
        <time>2016-09-28T09:56:17Z</time>
      </trkpt>
      <trkpt lat="42.68093" lon="1.39514">
        <ele>2499.57</ele>
        <time>2016-09-28T09:56:26Z</time>
      </trkpt>
      <trkpt lat="42.68099" lon="1.3951">
        <ele>2497.64</ele>
        <time>2016-09-28T09:56:38Z</time>
      </trkpt>
      <trkpt lat="42.68097" lon="1.39505">
        <ele>2494.28</ele>
        <time>2016-09-28T09:56:45Z</time>
      </trkpt>
      <trkpt lat="42.68097" lon="1.39501">
        <ele>2490.91</ele>
        <time>2016-09-28T09:56:50Z</time>
      </trkpt>
      <trkpt lat="42.68099" lon="1.39501">
        <ele>2490.91</ele>
        <time>2016-09-28T09:56:59Z</time>
      </trkpt>
      <trkpt lat="42.68097" lon="1.39494">
        <ele>2490.43</ele>
        <time>2016-09-28T09:57:10Z</time>
      </trkpt>
      <trkpt lat="42.68097" lon="1.39492">
        <ele>2489.47</ele>
        <time>2016-09-28T09:57:17Z</time>
      </trkpt>
      <trkpt lat="42.681" lon="1.39484">
        <ele>2487.07</ele>
        <time>2016-09-28T09:57:27Z</time>
      </trkpt>
      <trkpt lat="42.68101" lon="1.39483">
        <ele>2487.07</ele>
        <time>2016-09-28T09:57:29Z</time>
      </trkpt>
      <trkpt lat="42.68097" lon="1.39479">
        <ele>2485.15</ele>
        <time>2016-09-28T09:57:36Z</time>
      </trkpt>
      <trkpt lat="42.68097" lon="1.39474">
        <ele>2483.7</ele>
        <time>2016-09-28T09:57:46Z</time>
      </trkpt>
      <trkpt lat="42.68098" lon="1.39474">
        <ele>2480.82</ele>
        <time>2016-09-28T09:57:50Z</time>
      </trkpt>
      <trkpt lat="42.68101" lon="1.39472">
        <ele>2478.42</ele>
        <time>2016-09-28T09:57:56Z</time>
      </trkpt>
      <trkpt lat="42.68105" lon="1.3947">
        <ele>2477.94</ele>
        <time>2016-09-28T09:58:05Z</time>
      </trkpt>
      <trkpt lat="42.68108" lon="1.39465">
        <ele>2477.45</ele>
        <time>2016-09-28T09:58:15Z</time>
      </trkpt>
      <trkpt lat="42.68108" lon="1.39464">
        <ele>2476.97</ele>
        <time>2016-09-28T09:58:18Z</time>
      </trkpt>
      <trkpt lat="42.68115" lon="1.3946">
        <ele>2475.05</ele>
        <time>2016-09-28T09:58:29Z</time>
      </trkpt>
      <trkpt lat="42.68117" lon="1.39457">
        <ele>2474.57</ele>
        <time>2016-09-28T09:58:33Z</time>
      </trkpt>
      <trkpt lat="42.68128" lon="1.39454">
        <ele>2473.13</ele>
        <time>2016-09-28T09:58:48Z</time>
      </trkpt>
      <trkpt lat="42.68134" lon="1.39453">
        <ele>2472.65</ele>
        <time>2016-09-28T09:58:59Z</time>
      </trkpt>
      <trkpt lat="42.68133" lon="1.39453">
        <ele>2472.17</ele>
        <time>2016-09-28T09:59:01Z</time>
      </trkpt>
      <trkpt lat="42.68139" lon="1.39453">
        <ele>2470.24</ele>
        <time>2016-09-28T09:59:13Z</time>
      </trkpt>
      <trkpt lat="42.68142" lon="1.39453">
        <ele>2468.8</ele>
        <time>2016-09-28T09:59:24Z</time>
      </trkpt>
      <trkpt lat="42.68143" lon="1.39452">
        <ele>2467.36</ele>
        <time>2016-09-28T09:59:30Z</time>
      </trkpt>
      <trkpt lat="42.68147" lon="1.39452">
        <ele>2466.4</ele>
        <time>2016-09-28T09:59:35Z</time>
      </trkpt>
      <trkpt lat="42.68151" lon="1.39452">
        <ele>2463.52</ele>
        <time>2016-09-28T09:59:39Z</time>
      </trkpt>
      <trkpt lat="42.68153" lon="1.39451">
        <ele>2460.15</ele>
        <time>2016-09-28T09:59:43Z</time>
      </trkpt>
      <trkpt lat="42.68157" lon="1.39449">
        <ele>2458.23</ele>
        <time>2016-09-28T09:59:49Z</time>
      </trkpt>
      <trkpt lat="42.68162" lon="1.39448">
        <ele>2458.71</ele>
        <time>2016-09-28T09:59:59Z</time>
      </trkpt>
      <trkpt lat="42.68166" lon="1.39446">
        <ele>2457.27</ele>
        <time>2016-09-28T10:00:12Z</time>
      </trkpt>
      <trkpt lat="42.68169" lon="1.39446">
        <ele>2456.79</ele>
        <time>2016-09-28T10:00:17Z</time>
      </trkpt>
      <trkpt lat="42.68173" lon="1.39442">
        <ele>2455.34</ele>
        <time>2016-09-28T10:00:27Z</time>
      </trkpt>
      <trkpt lat="42.6818" lon="1.39441">
        <ele>2452.46</ele>
        <time>2016-09-28T10:00:39Z</time>
      </trkpt>
      <trkpt lat="42.68186" lon="1.39439">
        <ele>2450.54</ele>
        <time>2016-09-28T10:00:49Z</time>
      </trkpt>
      <trkpt lat="42.6819" lon="1.39436">
        <ele>2445.73</ele>
        <time>2016-09-28T10:00:57Z</time>
      </trkpt>
      <trkpt lat="42.68193" lon="1.39431">
        <ele>2444.77</ele>
        <time>2016-09-28T10:01:10Z</time>
      </trkpt>
      <trkpt lat="42.68194" lon="1.39427">
        <ele>2443.33</ele>
        <time>2016-09-28T10:01:18Z</time>
      </trkpt>
      <trkpt lat="42.68194" lon="1.39425">
        <ele>2442.85</ele>
        <time>2016-09-28T10:01:22Z</time>
      </trkpt>
      <trkpt lat="42.68194" lon="1.39422">
        <ele>2439.48</ele>
        <time>2016-09-28T10:01:31Z</time>
      </trkpt>
      <trkpt lat="42.68193" lon="1.39419">
        <ele>2435.64</ele>
        <time>2016-09-28T10:01:36Z</time>
      </trkpt>
      <trkpt lat="42.68193" lon="1.39416">
        <ele>2435.64</ele>
        <time>2016-09-28T10:01:41Z</time>
      </trkpt>
      <trkpt lat="42.68196" lon="1.39411">
        <ele>2435.16</ele>
        <time>2016-09-28T10:01:52Z</time>
      </trkpt>
      <trkpt lat="42.68197" lon="1.39405">
        <ele>2434.68</ele>
        <time>2016-09-28T10:02:04Z</time>
      </trkpt>
      <trkpt lat="42.68198" lon="1.39402">
        <ele>2432.27</ele>
        <time>2016-09-28T10:02:15Z</time>
      </trkpt>
      <trkpt lat="42.682" lon="1.39399">
        <ele>2430.83</ele>
        <time>2016-09-28T10:02:26Z</time>
      </trkpt>
      <trkpt lat="42.68201" lon="1.39393">
        <ele>2428.91</ele>
        <time>2016-09-28T10:02:35Z</time>
      </trkpt>
      <trkpt lat="42.68203" lon="1.39389">
        <ele>2427.47</ele>
        <time>2016-09-28T10:02:39Z</time>
      </trkpt>
      <trkpt lat="42.68214" lon="1.39388">
        <ele>2424.58</ele>
        <time>2016-09-28T10:02:52Z</time>
      </trkpt>
      <trkpt lat="42.68222" lon="1.39388">
        <ele>2422.66</ele>
        <time>2016-09-28T10:03:01Z</time>
      </trkpt>
      <trkpt lat="42.68232" lon="1.39387">
        <ele>2421.7</ele>
        <time>2016-09-28T10:03:12Z</time>
      </trkpt>
      <trkpt lat="42.68235" lon="1.39386">
        <ele>2420.26</ele>
        <time>2016-09-28T10:03:27Z</time>
      </trkpt>
      <trkpt lat="42.68235" lon="1.39387">
        <ele>2419.78</ele>
        <time>2016-09-28T10:03:43Z</time>
      </trkpt>
      <trkpt lat="42.68236" lon="1.39385">
        <ele>2419.3</ele>
        <time>2016-09-28T10:04:01Z</time>
      </trkpt>
      <trkpt lat="42.68235" lon="1.39388">
        <ele>2419.3</ele>
        <time>2016-09-28T10:04:20Z</time>
      </trkpt>
      <trkpt lat="42.68235" lon="1.39391">
        <ele>2419.3</ele>
        <time>2016-09-28T10:04:28Z</time>
      </trkpt>
      <trkpt lat="42.68232" lon="1.39401">
        <ele>2419.3</ele>
        <time>2016-09-28T10:04:36Z</time>
      </trkpt>
      <trkpt lat="42.68236" lon="1.39409">
        <ele>2419.3</ele>
        <time>2016-09-28T10:04:47Z</time>
      </trkpt>
      <trkpt lat="42.68236" lon="1.39408">
        <ele>2419.3</ele>
        <time>2016-09-28T10:04:48Z</time>
      </trkpt>
      <trkpt lat="42.6824" lon="1.39411">
        <ele>2418.33</ele>
        <time>2016-09-28T10:04:52Z</time>
      </trkpt>
      <trkpt lat="42.68249" lon="1.39416">
        <ele>2417.85</ele>
        <time>2016-09-28T10:05:04Z</time>
      </trkpt>
      <trkpt lat="42.68264" lon="1.3942">
        <ele>2416.41</ele>
        <time>2016-09-28T10:05:19Z</time>
      </trkpt>
      <trkpt lat="42.68272" lon="1.39422">
        <ele>2414.49</ele>
        <time>2016-09-28T10:05:30Z</time>
      </trkpt>
      <trkpt lat="42.68276" lon="1.39426">
        <ele>2412.57</ele>
        <time>2016-09-28T10:05:41Z</time>
      </trkpt>
      <trkpt lat="42.68281" lon="1.3943">
        <ele>2409.2</ele>
        <time>2016-09-28T10:05:48Z</time>
      </trkpt>
      <trkpt lat="42.68284" lon="1.39433">
        <ele>2406.8</ele>
        <time>2016-09-28T10:05:59Z</time>
      </trkpt>
      <trkpt lat="42.68291" lon="1.39436">
        <ele>2406.32</ele>
        <time>2016-09-28T10:06:10Z</time>
      </trkpt>
      <trkpt lat="42.68298" lon="1.3944">
        <ele>2405.36</ele>
        <time>2016-09-28T10:06:19Z</time>
      </trkpt>
      <trkpt lat="42.68305" lon="1.39443">
        <ele>2403.43</ele>
        <time>2016-09-28T10:06:29Z</time>
      </trkpt>
      <trkpt lat="42.68313" lon="1.39447">
        <ele>2401.99</ele>
        <time>2016-09-28T10:06:38Z</time>
      </trkpt>
      <trkpt lat="42.68319" lon="1.39451">
        <ele>2398.63</ele>
        <time>2016-09-28T10:06:44Z</time>
      </trkpt>
      <trkpt lat="42.68322" lon="1.39451">
        <ele>2397.67</ele>
        <time>2016-09-28T10:06:48Z</time>
      </trkpt>
      <trkpt lat="42.68333" lon="1.3945">
        <ele>2397.67</ele>
        <time>2016-09-28T10:07:03Z</time>
      </trkpt>
      <trkpt lat="42.68334" lon="1.3945">
        <ele>2397.67</ele>
        <time>2016-09-28T10:07:04Z</time>
      </trkpt>
      <trkpt lat="42.68344" lon="1.39452">
        <ele>2396.7</ele>
        <time>2016-09-28T10:07:16Z</time>
      </trkpt>
      <trkpt lat="42.68346" lon="1.39451">
        <ele>2396.22</ele>
        <time>2016-09-28T10:07:19Z</time>
      </trkpt>
      <trkpt lat="42.68351" lon="1.39453">
        <ele>2393.82</ele>
        <time>2016-09-28T10:07:31Z</time>
      </trkpt>
      <trkpt lat="42.68353" lon="1.39452">
        <ele>2392.38</ele>
        <time>2016-09-28T10:07:43Z</time>
      </trkpt>
      <trkpt lat="42.68353" lon="1.39453">
        <ele>2391.9</ele>
        <time>2016-09-28T10:08:01Z</time>
      </trkpt>
      <trkpt lat="42.68353" lon="1.39456">
        <ele>2390.94</ele>
        <time>2016-09-28T10:08:19Z</time>
      </trkpt>
      <trkpt lat="42.68353" lon="1.39457">
        <ele>2390.46</ele>
        <time>2016-09-28T10:08:38Z</time>
      </trkpt>
      <trkpt lat="42.68356" lon="1.39456">
        <ele>2389.97</ele>
        <time>2016-09-28T10:08:48Z</time>
      </trkpt>
      <trkpt lat="42.68356" lon="1.39455">
        <ele>2389.01</ele>
        <time>2016-09-28T10:09:00Z</time>
      </trkpt>
      <trkpt lat="42.68361" lon="1.39453">
        <ele>2387.57</ele>
        <time>2016-09-28T10:09:11Z</time>
      </trkpt>
      <trkpt lat="42.68362" lon="1.39451">
        <ele>2387.57</ele>
        <time>2016-09-28T10:09:13Z</time>
      </trkpt>
      <trkpt lat="42.68362" lon="1.39449">
        <ele>2386.13</ele>
        <time>2016-09-28T10:09:21Z</time>
      </trkpt>
      <trkpt lat="42.68365" lon="1.3945">
        <ele>2385.65</ele>
        <time>2016-09-28T10:09:24Z</time>
      </trkpt>
      <trkpt lat="42.68373" lon="1.3945">
        <ele>2382.76</ele>
        <time>2016-09-28T10:09:35Z</time>
      </trkpt>
      <trkpt lat="42.68377" lon="1.3945">
        <ele>2378.92</ele>
        <time>2016-09-28T10:09:40Z</time>
      </trkpt>
      <trkpt lat="42.68385" lon="1.39451">
        <ele>2377</ele>
        <time>2016-09-28T10:09:52Z</time>
      </trkpt>
      <trkpt lat="42.68393" lon="1.39457">
        <ele>2376.52</ele>
        <time>2016-09-28T10:10:02Z</time>
      </trkpt>
      <trkpt lat="42.68402" lon="1.3946">
        <ele>2376.52</ele>
        <time>2016-09-28T10:10:12Z</time>
      </trkpt>
      <trkpt lat="42.68407" lon="1.39461">
        <ele>2376.04</ele>
        <time>2016-09-28T10:10:20Z</time>
      </trkpt>
      <trkpt lat="42.68416" lon="1.39464">
        <ele>2376.04</ele>
        <time>2016-09-28T10:10:30Z</time>
      </trkpt>
      <trkpt lat="42.68426" lon="1.39474">
        <ele>2378.44</ele>
        <time>2016-09-28T10:10:43Z</time>
      </trkpt>
      <trkpt lat="42.68433" lon="1.39477">
        <ele>2378.44</ele>
        <time>2016-09-28T10:10:53Z</time>
      </trkpt>
      <trkpt lat="42.6844" lon="1.39481">
        <ele>2378.44</ele>
        <time>2016-09-28T10:11:03Z</time>
      </trkpt>
      <trkpt lat="42.68444" lon="1.39483">
        <ele>2379.4</ele>
        <time>2016-09-28T10:11:08Z</time>
      </trkpt>
      <trkpt lat="42.68451" lon="1.39489">
        <ele>2379.88</ele>
        <time>2016-09-28T10:11:16Z</time>
      </trkpt>
      <trkpt lat="42.68462" lon="1.39496">
        <ele>2380.36</ele>
        <time>2016-09-28T10:11:28Z</time>
      </trkpt>
      <trkpt lat="42.68468" lon="1.395">
        <ele>2380.36</ele>
        <time>2016-09-28T10:11:37Z</time>
      </trkpt>
      <trkpt lat="42.6847" lon="1.39502">
        <ele>2380.36</ele>
        <time>2016-09-28T10:11:47Z</time>
      </trkpt>
      <trkpt lat="42.68473" lon="1.39505">
        <ele>2380.84</ele>
        <time>2016-09-28T10:11:53Z</time>
      </trkpt>
      <trkpt lat="42.68479" lon="1.3951">
        <ele>2383.25</ele>
        <time>2016-09-28T10:12:01Z</time>
      </trkpt>
      <trkpt lat="42.68485" lon="1.39515">
        <ele>2385.65</ele>
        <time>2016-09-28T10:12:12Z</time>
      </trkpt>
      <trkpt lat="42.6849" lon="1.39515">
        <ele>2385.65</ele>
        <time>2016-09-28T10:12:17Z</time>
      </trkpt>
      <trkpt lat="42.68495" lon="1.39517">
        <ele>2385.65</ele>
        <time>2016-09-28T10:12:24Z</time>
      </trkpt>
      <trkpt lat="42.68497" lon="1.39517">
        <ele>2385.65</ele>
        <time>2016-09-28T10:12:26Z</time>
      </trkpt>
      <trkpt lat="42.68501" lon="1.39519">
        <ele>2385.65</ele>
        <time>2016-09-28T10:12:31Z</time>
      </trkpt>
      <trkpt lat="42.68513" lon="1.39524">
        <ele>2384.69</ele>
        <time>2016-09-28T10:12:45Z</time>
      </trkpt>
      <trkpt lat="42.68514" lon="1.39526">
        <ele>2384.69</ele>
        <time>2016-09-28T10:12:50Z</time>
      </trkpt>
      <trkpt lat="42.68517" lon="1.39529">
        <ele>2384.69</ele>
        <time>2016-09-28T10:12:54Z</time>
      </trkpt>
      <trkpt lat="42.68524" lon="1.39534">
        <ele>2386.13</ele>
        <time>2016-09-28T10:13:02Z</time>
      </trkpt>
      <trkpt lat="42.68525" lon="1.39535">
        <ele>2386.13</ele>
        <time>2016-09-28T10:13:03Z</time>
      </trkpt>
      <trkpt lat="42.68528" lon="1.39538">
        <ele>2386.13</ele>
        <time>2016-09-28T10:13:06Z</time>
      </trkpt>
      <trkpt lat="42.68533" lon="1.39542">
        <ele>2386.61</ele>
        <time>2016-09-28T10:13:12Z</time>
      </trkpt>
      <trkpt lat="42.68537" lon="1.39545">
        <ele>2386.61</ele>
        <time>2016-09-28T10:13:17Z</time>
      </trkpt>
      <trkpt lat="42.68543" lon="1.39547">
        <ele>2386.61</ele>
        <time>2016-09-28T10:13:23Z</time>
      </trkpt>
      <trkpt lat="42.68549" lon="1.3955">
        <ele>2386.61</ele>
        <time>2016-09-28T10:13:32Z</time>
      </trkpt>
      <trkpt lat="42.68552" lon="1.3955">
        <ele>2386.61</ele>
        <time>2016-09-28T10:13:35Z</time>
      </trkpt>
      <trkpt lat="42.68559" lon="1.39558">
        <ele>2387.09</ele>
        <time>2016-09-28T10:13:45Z</time>
      </trkpt>
      <trkpt lat="42.68559" lon="1.39561">
        <ele>2387.09</ele>
        <time>2016-09-28T10:13:47Z</time>
      </trkpt>
      <trkpt lat="42.68561" lon="1.39562">
        <ele>2387.09</ele>
        <time>2016-09-28T10:13:49Z</time>
      </trkpt>
      <trkpt lat="42.68562" lon="1.39565">
        <ele>2387.09</ele>
        <time>2016-09-28T10:13:51Z</time>
      </trkpt>
      <trkpt lat="42.68568" lon="1.3957">
        <ele>2387.57</ele>
        <time>2016-09-28T10:14:00Z</time>
      </trkpt>
      <trkpt lat="42.68576" lon="1.39573">
        <ele>2388.53</ele>
        <time>2016-09-28T10:14:08Z</time>
      </trkpt>
      <trkpt lat="42.68577" lon="1.39575">
        <ele>2388.53</ele>
        <time>2016-09-28T10:14:10Z</time>
      </trkpt>
      <trkpt lat="42.68587" lon="1.39582">
        <ele>2389.49</ele>
        <time>2016-09-28T10:14:23Z</time>
      </trkpt>
      <trkpt lat="42.68595" lon="1.39583">
        <ele>2389.49</ele>
        <time>2016-09-28T10:14:34Z</time>
      </trkpt>
      <trkpt lat="42.68598" lon="1.39582">
        <ele>2389.49</ele>
        <time>2016-09-28T10:14:39Z</time>
      </trkpt>
      <trkpt lat="42.68604" lon="1.39583">
        <ele>2388.53</ele>
        <time>2016-09-28T10:14:45Z</time>
      </trkpt>
      <trkpt lat="42.68611" lon="1.39587">
        <ele>2388.53</ele>
        <time>2016-09-28T10:14:53Z</time>
      </trkpt>
      <trkpt lat="42.68618" lon="1.3959">
        <ele>2388.05</ele>
        <time>2016-09-28T10:15:05Z</time>
      </trkpt>
      <trkpt lat="42.68625" lon="1.39595">
        <ele>2387.09</ele>
        <time>2016-09-28T10:15:14Z</time>
      </trkpt>
      <trkpt lat="42.68632" lon="1.39594">
        <ele>2385.17</ele>
        <time>2016-09-28T10:15:22Z</time>
      </trkpt>
      <trkpt lat="42.68638" lon="1.3959">
        <ele>2384.21</ele>
        <time>2016-09-28T10:15:31Z</time>
      </trkpt>
      <trkpt lat="42.6864" lon="1.39589">
        <ele>2383.25</ele>
        <time>2016-09-28T10:15:33Z</time>
      </trkpt>
      <trkpt lat="42.68646" lon="1.39592">
        <ele>2382.76</ele>
        <time>2016-09-28T10:15:41Z</time>
      </trkpt>
      <trkpt lat="42.6865" lon="1.39594">
        <ele>2382.28</ele>
        <time>2016-09-28T10:15:46Z</time>
      </trkpt>
      <trkpt lat="42.68653" lon="1.39601">
        <ele>2382.28</ele>
        <time>2016-09-28T10:15:52Z</time>
      </trkpt>
      <trkpt lat="42.68664" lon="1.39608">
        <ele>2381.8</ele>
        <time>2016-09-28T10:16:05Z</time>
      </trkpt>
      <trkpt lat="42.68671" lon="1.39611">
        <ele>2381.8</ele>
        <time>2016-09-28T10:16:13Z</time>
      </trkpt>
      <trkpt lat="42.68672" lon="1.39612">
        <ele>2381.8</ele>
        <time>2016-09-28T10:16:15Z</time>
      </trkpt>
      <trkpt lat="42.68675" lon="1.39613">
        <ele>2381.8</ele>
        <time>2016-09-28T10:16:18Z</time>
      </trkpt>
      <trkpt lat="42.68681" lon="1.39611">
        <ele>2381.8</ele>
        <time>2016-09-28T10:16:24Z</time>
      </trkpt>
      <trkpt lat="42.68686" lon="1.3961">
        <ele>2383.25</ele>
        <time>2016-09-28T10:16:32Z</time>
      </trkpt>
      <trkpt lat="42.68692" lon="1.3961">
        <ele>2383.73</ele>
        <time>2016-09-28T10:16:39Z</time>
      </trkpt>
      <trkpt lat="42.68696" lon="1.39615">
        <ele>2383.73</ele>
        <time>2016-09-28T10:16:45Z</time>
      </trkpt>
      <trkpt lat="42.68696" lon="1.39617">
        <ele>2383.73</ele>
        <time>2016-09-28T10:16:47Z</time>
      </trkpt>
      <trkpt lat="42.68698" lon="1.39619">
        <ele>2383.73</ele>
        <time>2016-09-28T10:16:51Z</time>
      </trkpt>
      <trkpt lat="42.68704" lon="1.39617">
        <ele>2382.28</ele>
        <time>2016-09-28T10:17:03Z</time>
      </trkpt>
      <trkpt lat="42.68707" lon="1.39618">
        <ele>2382.28</ele>
        <time>2016-09-28T10:17:08Z</time>
      </trkpt>
      <trkpt lat="42.68712" lon="1.39618">
        <ele>2378.92</ele>
        <time>2016-09-28T10:17:21Z</time>
      </trkpt>
      <trkpt lat="42.68715" lon="1.39615">
        <ele>2376.04</ele>
        <time>2016-09-28T10:17:28Z</time>
      </trkpt>
      <trkpt lat="42.68719" lon="1.39608">
        <ele>2373.63</ele>
        <time>2016-09-28T10:17:40Z</time>
      </trkpt>
      <trkpt lat="42.68724" lon="1.39609">
        <ele>2373.15</ele>
        <time>2016-09-28T10:17:51Z</time>
      </trkpt>
      <trkpt lat="42.68727" lon="1.39608">
        <ele>2372.67</ele>
        <time>2016-09-28T10:17:55Z</time>
      </trkpt>
      <trkpt lat="42.68729" lon="1.39607">
        <ele>2372.19</ele>
        <time>2016-09-28T10:17:58Z</time>
      </trkpt>
      <trkpt lat="42.68738" lon="1.39607">
        <ele>2369.79</ele>
        <time>2016-09-28T10:18:12Z</time>
      </trkpt>
      <trkpt lat="42.68739" lon="1.39607">
        <ele>2368.35</ele>
        <time>2016-09-28T10:18:19Z</time>
      </trkpt>
      <trkpt lat="42.6874" lon="1.39604">
        <ele>2367.86</ele>
        <time>2016-09-28T10:18:22Z</time>
      </trkpt>
      <trkpt lat="42.68742" lon="1.39602">
        <ele>2366.9</ele>
        <time>2016-09-28T10:18:24Z</time>
      </trkpt>
      <trkpt lat="42.68746" lon="1.39603">
        <ele>2366.9</ele>
        <time>2016-09-28T10:18:27Z</time>
      </trkpt>
      <trkpt lat="42.68751" lon="1.3961">
        <ele>2362.1</ele>
        <time>2016-09-28T10:18:33Z</time>
      </trkpt>
      <trkpt lat="42.68756" lon="1.39613">
        <ele>2362.1</ele>
        <time>2016-09-28T10:18:46Z</time>
      </trkpt>
      <trkpt lat="42.68758" lon="1.39612">
        <ele>2362.1</ele>
        <time>2016-09-28T10:18:58Z</time>
      </trkpt>
      <trkpt lat="42.68764" lon="1.39609">
        <ele>2362.1</ele>
        <time>2016-09-28T10:19:06Z</time>
      </trkpt>
      <trkpt lat="42.68768" lon="1.39607">
        <ele>2361.62</ele>
        <time>2016-09-28T10:19:11Z</time>
      </trkpt>
      <trkpt lat="42.6877" lon="1.3961">
        <ele>2360.17</ele>
        <time>2016-09-28T10:19:17Z</time>
      </trkpt>
      <trkpt lat="42.68773" lon="1.39605">
        <ele>2359.69</ele>
        <time>2016-09-28T10:19:23Z</time>
      </trkpt>
      <trkpt lat="42.68776" lon="1.39605">
        <ele>2358.25</ele>
        <time>2016-09-28T10:19:27Z</time>
      </trkpt>
      <trkpt lat="42.6878" lon="1.39603">
        <ele>2355.85</ele>
        <time>2016-09-28T10:19:31Z</time>
      </trkpt>
      <trkpt lat="42.68781" lon="1.39602">
        <ele>2354.41</ele>
        <time>2016-09-28T10:19:33Z</time>
      </trkpt>
      <trkpt lat="42.68781" lon="1.39599">
        <ele>2353.44</ele>
        <time>2016-09-28T10:19:35Z</time>
      </trkpt>
      <trkpt lat="42.6878" lon="1.39593">
        <ele>2352.96</ele>
        <time>2016-09-28T10:19:41Z</time>
      </trkpt>
      <trkpt lat="42.68788" lon="1.39595">
        <ele>2352.48</ele>
        <time>2016-09-28T10:19:50Z</time>
      </trkpt>
      <trkpt lat="42.68791" lon="1.39593">
        <ele>2352.48</ele>
        <time>2016-09-28T10:19:54Z</time>
      </trkpt>
      <trkpt lat="42.68795" lon="1.39597">
        <ele>2351.52</ele>
        <time>2016-09-28T10:20:00Z</time>
      </trkpt>
      <trkpt lat="42.68802" lon="1.39597">
        <ele>2348.16</ele>
        <time>2016-09-28T10:20:06Z</time>
      </trkpt>
      <trkpt lat="42.68803" lon="1.39597">
        <ele>2347.2</ele>
        <time>2016-09-28T10:20:07Z</time>
      </trkpt>
      <trkpt lat="42.68806" lon="1.39596">
        <ele>2344.31</ele>
        <time>2016-09-28T10:20:11Z</time>
      </trkpt>
      <trkpt lat="42.68817" lon="1.39592">
        <ele>2345.75</ele>
        <time>2016-09-28T10:20:23Z</time>
      </trkpt>
      <trkpt lat="42.68821" lon="1.39592">
        <ele>2349.12</ele>
        <time>2016-09-28T10:20:30Z</time>
      </trkpt>
      <trkpt lat="42.68822" lon="1.39592">
        <ele>2349.12</ele>
        <time>2016-09-28T10:20:32Z</time>
      </trkpt>
      <trkpt lat="42.68827" lon="1.39594">
        <ele>2349.12</ele>
        <time>2016-09-28T10:20:43Z</time>
      </trkpt>
      <trkpt lat="42.68834" lon="1.39596">
        <ele>2349.12</ele>
        <time>2016-09-28T10:20:55Z</time>
      </trkpt>
      <trkpt lat="42.68839" lon="1.396">
        <ele>2348.64</ele>
        <time>2016-09-28T10:21:05Z</time>
      </trkpt>
      <trkpt lat="42.6884" lon="1.39602">
        <ele>2347.2</ele>
        <time>2016-09-28T10:21:08Z</time>
      </trkpt>
      <trkpt lat="42.68847" lon="1.39603">
        <ele>2344.79</ele>
        <time>2016-09-28T10:21:21Z</time>
      </trkpt>
      <trkpt lat="42.68848" lon="1.39596">
        <ele>2341.43</ele>
        <time>2016-09-28T10:21:29Z</time>
      </trkpt>
      <trkpt lat="42.68855" lon="1.39589">
        <ele>2338.54</ele>
        <time>2016-09-28T10:21:40Z</time>
      </trkpt>
      <trkpt lat="42.68855" lon="1.39588">
        <ele>2338.54</ele>
        <time>2016-09-28T10:21:42Z</time>
      </trkpt>
      <trkpt lat="42.68859" lon="1.39583">
        <ele>2338.54</ele>
        <time>2016-09-28T10:21:51Z</time>
      </trkpt>
      <trkpt lat="42.68863" lon="1.39578">
        <ele>2336.62</ele>
        <time>2016-09-28T10:22:00Z</time>
      </trkpt>
      <trkpt lat="42.68869" lon="1.39571">
        <ele>2334.22</ele>
        <time>2016-09-28T10:22:11Z</time>
      </trkpt>
      <trkpt lat="42.68876" lon="1.39567">
        <ele>2331.81</ele>
        <time>2016-09-28T10:22:24Z</time>
      </trkpt>
      <trkpt lat="42.6888" lon="1.39567">
        <ele>2329.89</ele>
        <time>2016-09-28T10:22:35Z</time>
      </trkpt>
      <trkpt lat="42.68882" lon="1.39567">
        <ele>2329.41</ele>
        <time>2016-09-28T10:22:39Z</time>
      </trkpt>
      <trkpt lat="42.68885" lon="1.3957">
        <ele>2328.45</ele>
        <time>2016-09-28T10:22:43Z</time>
      </trkpt>
      <trkpt lat="42.68891" lon="1.3957">
        <ele>2327.01</ele>
        <time>2016-09-28T10:22:53Z</time>
      </trkpt>
      <trkpt lat="42.68893" lon="1.39566">
        <ele>2325.09</ele>
        <time>2016-09-28T10:23:02Z</time>
      </trkpt>
      <trkpt lat="42.68898" lon="1.3956">
        <ele>2321.24</ele>
        <time>2016-09-28T10:23:11Z</time>
      </trkpt>
      <trkpt lat="42.689" lon="1.3956">
        <ele>2318.36</ele>
        <time>2016-09-28T10:23:17Z</time>
      </trkpt>
      <trkpt lat="42.689" lon="1.3956">
        <ele>2318.36</ele>
        <time>2016-09-28T10:23:19Z</time>
      </trkpt>
      <trkpt lat="42.68904" lon="1.39561">
        <ele>2318.36</ele>
        <time>2016-09-28T10:23:26Z</time>
      </trkpt>
      <trkpt lat="42.68909" lon="1.39558">
        <ele>2316.91</ele>
        <time>2016-09-28T10:23:37Z</time>
      </trkpt>
      <trkpt lat="42.68915" lon="1.39554">
        <ele>2314.51</ele>
        <time>2016-09-28T10:23:49Z</time>
      </trkpt>
      <trkpt lat="42.6892" lon="1.39549">
        <ele>2312.59</ele>
        <time>2016-09-28T10:24:00Z</time>
      </trkpt>
      <trkpt lat="42.68923" lon="1.39551">
        <ele>2311.63</ele>
        <time>2016-09-28T10:24:07Z</time>
      </trkpt>
      <trkpt lat="42.68926" lon="1.39553">
        <ele>2309.7</ele>
        <time>2016-09-28T10:24:12Z</time>
      </trkpt>
      <trkpt lat="42.68929" lon="1.39557">
        <ele>2306.82</ele>
        <time>2016-09-28T10:24:17Z</time>
      </trkpt>
      <trkpt lat="42.68929" lon="1.39559">
        <ele>2305.86</ele>
        <time>2016-09-28T10:24:20Z</time>
      </trkpt>
      <trkpt lat="42.68933" lon="1.39564">
        <ele>2305.86</ele>
        <time>2016-09-28T10:24:30Z</time>
      </trkpt>
      <trkpt lat="42.68937" lon="1.39566">
        <ele>2305.38</ele>
        <time>2016-09-28T10:24:36Z</time>
      </trkpt>
      <trkpt lat="42.68942" lon="1.39564">
        <ele>2303.94</ele>
        <time>2016-09-28T10:24:49Z</time>
      </trkpt>
      <trkpt lat="42.68945" lon="1.39557">
        <ele>2302.49</ele>
        <time>2016-09-28T10:24:59Z</time>
      </trkpt>
      <trkpt lat="42.68948" lon="1.39549">
        <ele>2300.09</ele>
        <time>2016-09-28T10:25:10Z</time>
      </trkpt>
      <trkpt lat="42.68954" lon="1.39543">
        <ele>2298.17</ele>
        <time>2016-09-28T10:25:20Z</time>
      </trkpt>
      <trkpt lat="42.68965" lon="1.39547">
        <ele>2296.73</ele>
        <time>2016-09-28T10:25:33Z</time>
      </trkpt>
      <trkpt lat="42.68966" lon="1.39549">
        <ele>2296.25</ele>
        <time>2016-09-28T10:25:36Z</time>
      </trkpt>
      <trkpt lat="42.68974" lon="1.39554">
        <ele>2294.8</ele>
        <time>2016-09-28T10:25:45Z</time>
      </trkpt>
      <trkpt lat="42.68977" lon="1.39552">
        <ele>2292.88</ele>
        <time>2016-09-28T10:26:01Z</time>
      </trkpt>
      <trkpt lat="42.68977" lon="1.39553">
        <ele>2292.4</ele>
        <time>2016-09-28T10:26:18Z</time>
      </trkpt>
      <trkpt lat="42.68977" lon="1.39545">
        <ele>2292.4</ele>
        <time>2016-09-28T10:26:35Z</time>
      </trkpt>
      <trkpt lat="42.68977" lon="1.39544">
        <ele>2291.44</ele>
        <time>2016-09-28T10:26:51Z</time>
      </trkpt>
      <trkpt lat="42.68977" lon="1.39543">
        <ele>2291.44</ele>
        <time>2016-09-28T10:27:06Z</time>
      </trkpt>
      <trkpt lat="42.68979" lon="1.39543">
        <ele>2290.48</ele>
        <time>2016-09-28T10:27:27Z</time>
      </trkpt>
      <trkpt lat="42.6898" lon="1.39542">
        <ele>2290.48</ele>
        <time>2016-09-28T10:27:31Z</time>
      </trkpt>
      <trkpt lat="42.68985" lon="1.39538">
        <ele>2289.52</ele>
        <time>2016-09-28T10:27:43Z</time>
      </trkpt>
      <trkpt lat="42.68987" lon="1.39543">
        <ele>2288.08</ele>
        <time>2016-09-28T10:27:54Z</time>
      </trkpt>
      <trkpt lat="42.68991" lon="1.39544">
        <ele>2286.15</ele>
        <time>2016-09-28T10:28:03Z</time>
      </trkpt>
      <trkpt lat="42.68994" lon="1.39543">
        <ele>2284.71</ele>
        <time>2016-09-28T10:28:14Z</time>
      </trkpt>
      <trkpt lat="42.68994" lon="1.3954">
        <ele>2283.27</ele>
        <time>2016-09-28T10:28:19Z</time>
      </trkpt>
      <trkpt lat="42.68996" lon="1.39534">
        <ele>2281.83</ele>
        <time>2016-09-28T10:28:28Z</time>
      </trkpt>
      <trkpt lat="42.68999" lon="1.3953">
        <ele>2279.9</ele>
        <time>2016-09-28T10:28:38Z</time>
      </trkpt>
      <trkpt lat="42.69002" lon="1.39532">
        <ele>2278.94</ele>
        <time>2016-09-28T10:28:45Z</time>
      </trkpt>
      <trkpt lat="42.69003" lon="1.39526">
        <ele>2276.54</ele>
        <time>2016-09-28T10:28:50Z</time>
      </trkpt>
      <trkpt lat="42.69006" lon="1.39524">
        <ele>2274.14</ele>
        <time>2016-09-28T10:28:53Z</time>
      </trkpt>
      <trkpt lat="42.69009" lon="1.39523">
        <ele>2271.25</ele>
        <time>2016-09-28T10:28:57Z</time>
      </trkpt>
      <trkpt lat="42.69012" lon="1.39519">
        <ele>2271.25</ele>
        <time>2016-09-28T10:29:01Z</time>
      </trkpt>
      <trkpt lat="42.69016" lon="1.39516">
        <ele>2270.77</ele>
        <time>2016-09-28T10:29:07Z</time>
      </trkpt>
      <trkpt lat="42.69019" lon="1.39513">
        <ele>2270.77</ele>
        <time>2016-09-28T10:29:12Z</time>
      </trkpt>
      <trkpt lat="42.69022" lon="1.39508">
        <ele>2270.77</ele>
        <time>2016-09-28T10:29:19Z</time>
      </trkpt>
      <trkpt lat="42.69026" lon="1.39502">
        <ele>2268.85</ele>
        <time>2016-09-28T10:29:30Z</time>
      </trkpt>
      <trkpt lat="42.69031" lon="1.39505">
        <ele>2266.93</ele>
        <time>2016-09-28T10:29:41Z</time>
      </trkpt>
      <trkpt lat="42.69034" lon="1.39505">
        <ele>2264.52</ele>
        <time>2016-09-28T10:29:53Z</time>
      </trkpt>
      <trkpt lat="42.69034" lon="1.39505">
        <ele>2264.52</ele>
        <time>2016-09-28T10:29:54Z</time>
      </trkpt>
      <trkpt lat="42.69038" lon="1.39507">
        <ele>2263.56</ele>
        <time>2016-09-28T10:30:01Z</time>
      </trkpt>
      <trkpt lat="42.69046" lon="1.39509">
        <ele>2261.64</ele>
        <time>2016-09-28T10:30:12Z</time>
      </trkpt>
      <trkpt lat="42.69052" lon="1.39504">
        <ele>2260.2</ele>
        <time>2016-09-28T10:30:23Z</time>
      </trkpt>
      <trkpt lat="42.69055" lon="1.39499">
        <ele>2258.27</ele>
        <time>2016-09-28T10:30:33Z</time>
      </trkpt>
      <trkpt lat="42.69057" lon="1.39498">
        <ele>2256.83</ele>
        <time>2016-09-28T10:30:40Z</time>
      </trkpt>
      <trkpt lat="42.6906" lon="1.39495">
        <ele>2255.87</ele>
        <time>2016-09-28T10:30:46Z</time>
      </trkpt>
      <trkpt lat="42.69061" lon="1.39497">
        <ele>2255.39</ele>
        <time>2016-09-28T10:30:50Z</time>
      </trkpt>
      <trkpt lat="42.69063" lon="1.39497">
        <ele>2252.99</ele>
        <time>2016-09-28T10:31:02Z</time>
      </trkpt>
      <trkpt lat="42.69065" lon="1.39499">
        <ele>2252.51</ele>
        <time>2016-09-28T10:31:14Z</time>
      </trkpt>
      <trkpt lat="42.69067" lon="1.39505">
        <ele>2252.03</ele>
        <time>2016-09-28T10:31:29Z</time>
      </trkpt>
      <trkpt lat="42.69068" lon="1.39507">
        <ele>2251.06</ele>
        <time>2016-09-28T10:31:34Z</time>
      </trkpt>
      <trkpt lat="42.69071" lon="1.39511">
        <ele>2249.62</ele>
        <time>2016-09-28T10:31:45Z</time>
      </trkpt>
      <trkpt lat="42.69071" lon="1.39512">
        <ele>2249.14</ele>
        <time>2016-09-28T10:31:46Z</time>
      </trkpt>
      <trkpt lat="42.69073" lon="1.39513">
        <ele>2247.7</ele>
        <time>2016-09-28T10:31:52Z</time>
      </trkpt>
      <trkpt lat="42.69081" lon="1.39514">
        <ele>2246.26</ele>
        <time>2016-09-28T10:32:03Z</time>
      </trkpt>
      <trkpt lat="42.69082" lon="1.39515">
        <ele>2245.78</ele>
        <time>2016-09-28T10:32:06Z</time>
      </trkpt>
      <trkpt lat="42.69086" lon="1.39519">
        <ele>2244.33</ele>
        <time>2016-09-28T10:32:13Z</time>
      </trkpt>
      <trkpt lat="42.69089" lon="1.39521">
        <ele>2243.85</ele>
        <time>2016-09-28T10:32:18Z</time>
      </trkpt>
      <trkpt lat="42.69098" lon="1.39519">
        <ele>2242.41</ele>
        <time>2016-09-28T10:32:28Z</time>
      </trkpt>
      <trkpt lat="42.691" lon="1.39517">
        <ele>2242.41</ele>
        <time>2016-09-28T10:32:32Z</time>
      </trkpt>
      <trkpt lat="42.69103" lon="1.39519">
        <ele>2242.41</ele>
        <time>2016-09-28T10:32:36Z</time>
      </trkpt>
      <trkpt lat="42.69107" lon="1.3953">
        <ele>2242.41</ele>
        <time>2016-09-28T10:32:46Z</time>
      </trkpt>
      <trkpt lat="42.69107" lon="1.39531">
        <ele>2242.41</ele>
        <time>2016-09-28T10:32:47Z</time>
      </trkpt>
      <trkpt lat="42.69107" lon="1.39533">
        <ele>2241.45</ele>
        <time>2016-09-28T10:32:49Z</time>
      </trkpt>
      <trkpt lat="42.69111" lon="1.39541">
        <ele>2240.49</ele>
        <time>2016-09-28T10:33:00Z</time>
      </trkpt>
      <trkpt lat="42.69111" lon="1.39549">
        <ele>2238.09</ele>
        <time>2016-09-28T10:33:11Z</time>
      </trkpt>
      <trkpt lat="42.69115" lon="1.39557">
        <ele>2236.64</ele>
        <time>2016-09-28T10:33:22Z</time>
      </trkpt>
      <trkpt lat="42.69118" lon="1.39562">
        <ele>2235.2</ele>
        <time>2016-09-28T10:33:31Z</time>
      </trkpt>
      <trkpt lat="42.69124" lon="1.39573">
        <ele>2233.76</ele>
        <time>2016-09-28T10:33:42Z</time>
      </trkpt>
      <trkpt lat="42.69127" lon="1.39578">
        <ele>2232.32</ele>
        <time>2016-09-28T10:33:48Z</time>
      </trkpt>
      <trkpt lat="42.69131" lon="1.39591">
        <ele>2231.36</ele>
        <time>2016-09-28T10:34:00Z</time>
      </trkpt>
      <trkpt lat="42.69133" lon="1.39598">
        <ele>2231.36</ele>
        <time>2016-09-28T10:34:07Z</time>
      </trkpt>
      <trkpt lat="42.69135" lon="1.39605">
        <ele>2231.36</ele>
        <time>2016-09-28T10:34:13Z</time>
      </trkpt>
      <trkpt lat="42.69136" lon="1.3961">
        <ele>2232.32</ele>
        <time>2016-09-28T10:34:18Z</time>
      </trkpt>
      <trkpt lat="42.69134" lon="1.39618">
        <ele>2233.76</ele>
        <time>2016-09-28T10:34:28Z</time>
      </trkpt>
      <trkpt lat="42.69136" lon="1.39623">
        <ele>2235.68</ele>
        <time>2016-09-28T10:34:38Z</time>
      </trkpt>
      <trkpt lat="42.69133" lon="1.39625">
        <ele>2236.16</ele>
        <time>2016-09-28T10:34:43Z</time>
      </trkpt>
      <trkpt lat="42.69134" lon="1.3963">
        <ele>2238.09</ele>
        <time>2016-09-28T10:34:55Z</time>
      </trkpt>
      <trkpt lat="42.69134" lon="1.39636">
        <ele>2239.53</ele>
        <time>2016-09-28T10:35:04Z</time>
      </trkpt>
      <trkpt lat="42.69131" lon="1.39642">
        <ele>2240.97</ele>
        <time>2016-09-28T10:35:15Z</time>
      </trkpt>
      <trkpt lat="42.69131" lon="1.39644">
        <ele>2242.41</ele>
        <time>2016-09-28T10:35:28Z</time>
      </trkpt>
      <trkpt lat="42.6913" lon="1.39646">
        <ele>2243.85</ele>
        <time>2016-09-28T10:35:41Z</time>
      </trkpt>
      <trkpt lat="42.69127" lon="1.39649">
        <ele>2243.85</ele>
        <time>2016-09-28T10:35:54Z</time>
      </trkpt>
      <trkpt lat="42.69128" lon="1.39651">
        <ele>2243.85</ele>
        <time>2016-09-28T10:36:07Z</time>
      </trkpt>
      <trkpt lat="42.69129" lon="1.39654">
        <ele>2244.33</ele>
        <time>2016-09-28T10:36:20Z</time>
      </trkpt>
      <trkpt lat="42.69128" lon="1.39655">
        <ele>2244.33</ele>
        <time>2016-09-28T10:36:40Z</time>
      </trkpt>
      <trkpt lat="42.69129" lon="1.39655">
        <ele>2244.33</ele>
        <time>2016-09-28T10:36:52Z</time>
      </trkpt>
      <trkpt lat="42.69131" lon="1.39703">
        <ele>2215.5</ele>
        <time>2016-09-28T11:31:59Z</time>
      </trkpt>
      <trkpt lat="42.69131" lon="1.39703">
        <ele>2215.5</ele>
        <time>2016-09-28T11:32:00Z</time>
      </trkpt>
      <trkpt lat="42.69133" lon="1.39709">
        <ele>2219.82</ele>
        <time>2016-09-28T11:32:08Z</time>
      </trkpt>
      <trkpt lat="42.69133" lon="1.3971">
        <ele>2219.82</ele>
        <time>2016-09-28T11:32:09Z</time>
      </trkpt>
      <trkpt lat="42.69133" lon="1.39713">
        <ele>2221.26</ele>
        <time>2016-09-28T11:32:12Z</time>
      </trkpt>
      <trkpt lat="42.69135" lon="1.3972">
        <ele>2224.63</ele>
        <time>2016-09-28T11:32:19Z</time>
      </trkpt>
      <trkpt lat="42.69135" lon="1.39723">
        <ele>2226.55</ele>
        <time>2016-09-28T11:32:22Z</time>
      </trkpt>
      <trkpt lat="42.69134" lon="1.39728">
        <ele>2228.95</ele>
        <time>2016-09-28T11:32:27Z</time>
      </trkpt>
      <trkpt lat="42.69133" lon="1.39731">
        <ele>2230.4</ele>
        <time>2016-09-28T11:32:30Z</time>
      </trkpt>
      <trkpt lat="42.69132" lon="1.39738">
        <ele>2232.8</ele>
        <time>2016-09-28T11:32:38Z</time>
      </trkpt>
      <trkpt lat="42.69131" lon="1.39746">
        <ele>2234.72</ele>
        <time>2016-09-28T11:32:50Z</time>
      </trkpt>
      <trkpt lat="42.69131" lon="1.39747">
        <ele>2235.2</ele>
        <time>2016-09-28T11:32:53Z</time>
      </trkpt>
      <trkpt lat="42.69129" lon="1.39758">
        <ele>2236.64</ele>
        <time>2016-09-28T11:33:05Z</time>
      </trkpt>
      <trkpt lat="42.69127" lon="1.3977">
        <ele>2234.72</ele>
        <time>2016-09-28T11:33:17Z</time>
      </trkpt>
      <trkpt lat="42.69127" lon="1.39776">
        <ele>2234.24</ele>
        <time>2016-09-28T11:33:23Z</time>
      </trkpt>
      <trkpt lat="42.69126" lon="1.3979">
        <ele>2232.8</ele>
        <time>2016-09-28T11:33:37Z</time>
      </trkpt>
      <trkpt lat="42.69126" lon="1.39795">
        <ele>2229.92</ele>
        <time>2016-09-28T11:33:47Z</time>
      </trkpt>
      <trkpt lat="42.69128" lon="1.39804">
        <ele>2227.03</ele>
        <time>2016-09-28T11:33:59Z</time>
      </trkpt>
      <trkpt lat="42.69129" lon="1.39813">
        <ele>2225.59</ele>
        <time>2016-09-28T11:34:10Z</time>
      </trkpt>
      <trkpt lat="42.69132" lon="1.39819">
        <ele>2223.67</ele>
        <time>2016-09-28T11:34:21Z</time>
      </trkpt>
      <trkpt lat="42.69132" lon="1.39821">
        <ele>2223.67</ele>
        <time>2016-09-28T11:34:23Z</time>
      </trkpt>
      <trkpt lat="42.69133" lon="1.39823">
        <ele>2222.71</ele>
        <time>2016-09-28T11:34:25Z</time>
      </trkpt>
      <trkpt lat="42.69135" lon="1.39831">
        <ele>2218.86</ele>
        <time>2016-09-28T11:34:32Z</time>
      </trkpt>
      <trkpt lat="42.69137" lon="1.39837">
        <ele>2217.42</ele>
        <time>2016-09-28T11:34:42Z</time>
      </trkpt>
      <trkpt lat="42.69137" lon="1.3984">
        <ele>2217.42</ele>
        <time>2016-09-28T11:34:44Z</time>
      </trkpt>
      <trkpt lat="42.69139" lon="1.39848">
        <ele>2216.94</ele>
        <time>2016-09-28T11:34:54Z</time>
      </trkpt>
      <trkpt lat="42.69143" lon="1.39855">
        <ele>2215.01</ele>
        <time>2016-09-28T11:35:07Z</time>
      </trkpt>
      <trkpt lat="42.69145" lon="1.39866">
        <ele>2212.13</ele>
        <time>2016-09-28T11:35:20Z</time>
      </trkpt>
      <trkpt lat="42.69146" lon="1.39871">
        <ele>2211.65</ele>
        <time>2016-09-28T11:35:25Z</time>
      </trkpt>
      <trkpt lat="42.69146" lon="1.39876">
        <ele>2210.69</ele>
        <time>2016-09-28T11:35:31Z</time>
      </trkpt>
      <trkpt lat="42.69148" lon="1.39885">
        <ele>2208.77</ele>
        <time>2016-09-28T11:35:41Z</time>
      </trkpt>
      <trkpt lat="42.69147" lon="1.39896">
        <ele>2206.36</ele>
        <time>2016-09-28T11:35:53Z</time>
      </trkpt>
      <trkpt lat="42.69147" lon="1.39897">
        <ele>2206.36</ele>
        <time>2016-09-28T11:35:54Z</time>
      </trkpt>
      <trkpt lat="42.6915" lon="1.39911">
        <ele>2204.44</ele>
        <time>2016-09-28T11:36:07Z</time>
      </trkpt>
      <trkpt lat="42.6915" lon="1.39917">
        <ele>2204.44</ele>
        <time>2016-09-28T11:36:13Z</time>
      </trkpt>
      <trkpt lat="42.69148" lon="1.39928">
        <ele>2202.52</ele>
        <time>2016-09-28T11:36:26Z</time>
      </trkpt>
      <trkpt lat="42.69149" lon="1.39938">
        <ele>2199.15</ele>
        <time>2016-09-28T11:36:37Z</time>
      </trkpt>
      <trkpt lat="42.69148" lon="1.39942">
        <ele>2196.27</ele>
        <time>2016-09-28T11:36:41Z</time>
      </trkpt>
      <trkpt lat="42.69146" lon="1.39946">
        <ele>2195.31</ele>
        <time>2016-09-28T11:36:44Z</time>
      </trkpt>
      <trkpt lat="42.69144" lon="1.39964">
        <ele>2195.31</ele>
        <time>2016-09-28T11:36:58Z</time>
      </trkpt>
      <trkpt lat="42.69142" lon="1.39973">
        <ele>2195.31</ele>
        <time>2016-09-28T11:37:05Z</time>
      </trkpt>
      <trkpt lat="42.6914" lon="1.39985">
        <ele>2194.83</ele>
        <time>2016-09-28T11:37:16Z</time>
      </trkpt>
      <trkpt lat="42.6914" lon="1.4">
        <ele>2193.39</ele>
        <time>2016-09-28T11:37:30Z</time>
      </trkpt>
      <trkpt lat="42.69141" lon="1.40003">
        <ele>2191.94</ele>
        <time>2016-09-28T11:37:35Z</time>
      </trkpt>
      <trkpt lat="42.69146" lon="1.40002">
        <ele>2189.54</ele>
        <time>2016-09-28T11:37:49Z</time>
      </trkpt>
      <trkpt lat="42.69146" lon="1.40001">
        <ele>2188.58</ele>
        <time>2016-09-28T11:38:05Z</time>
      </trkpt>
      <trkpt lat="42.6915" lon="1.40006">
        <ele>2187.14</ele>
        <time>2016-09-28T11:38:17Z</time>
      </trkpt>
      <trkpt lat="42.69151" lon="1.40009">
        <ele>2185.69</ele>
        <time>2016-09-28T11:38:23Z</time>
      </trkpt>
      <trkpt lat="42.6915" lon="1.40017">
        <ele>2184.25</ele>
        <time>2016-09-28T11:38:32Z</time>
      </trkpt>
      <trkpt lat="42.6915" lon="1.40025">
        <ele>2180.89</ele>
        <time>2016-09-28T11:38:41Z</time>
      </trkpt>
      <trkpt lat="42.6915" lon="1.40028">
        <ele>2177.52</ele>
        <time>2016-09-28T11:38:46Z</time>
      </trkpt>
      <trkpt lat="42.6915" lon="1.40028">
        <ele>2177.04</ele>
        <time>2016-09-28T11:38:47Z</time>
      </trkpt>
      <trkpt lat="42.69151" lon="1.40032">
        <ele>2176.56</ele>
        <time>2016-09-28T11:38:58Z</time>
      </trkpt>
      <trkpt lat="42.69156" lon="1.40032">
        <ele>2175.6</ele>
        <time>2016-09-28T11:39:09Z</time>
      </trkpt>
      <trkpt lat="42.6916" lon="1.40035">
        <ele>2173.2</ele>
        <time>2016-09-28T11:39:21Z</time>
      </trkpt>
      <trkpt lat="42.69162" lon="1.4004">
        <ele>2172.24</ele>
        <time>2016-09-28T11:39:30Z</time>
      </trkpt>
      <trkpt lat="42.69167" lon="1.4004">
        <ele>2169.83</ele>
        <time>2016-09-28T11:39:42Z</time>
      </trkpt>
      <trkpt lat="42.69167" lon="1.4004">
        <ele>2169.35</ele>
        <time>2016-09-28T11:39:43Z</time>
      </trkpt>
      <trkpt lat="42.6917" lon="1.40042">
        <ele>2167.91</ele>
        <time>2016-09-28T11:39:50Z</time>
      </trkpt>
      <trkpt lat="42.69169" lon="1.4005">
        <ele>2166.47</ele>
        <time>2016-09-28T11:40:00Z</time>
      </trkpt>
      <trkpt lat="42.69169" lon="1.40056">
        <ele>2165.51</ele>
        <time>2016-09-28T11:40:06Z</time>
      </trkpt>
      <trkpt lat="42.69168" lon="1.40065">
        <ele>2163.58</ele>
        <time>2016-09-28T11:40:19Z</time>
      </trkpt>
      <trkpt lat="42.69171" lon="1.40072">
        <ele>2162.14</ele>
        <time>2016-09-28T11:40:30Z</time>
      </trkpt>
      <trkpt lat="42.69176" lon="1.4008">
        <ele>2159.74</ele>
        <time>2016-09-28T11:40:41Z</time>
      </trkpt>
      <trkpt lat="42.69177" lon="1.40081">
        <ele>2159.26</ele>
        <time>2016-09-28T11:40:44Z</time>
      </trkpt>
      <trkpt lat="42.69183" lon="1.40094">
        <ele>2156.86</ele>
        <time>2016-09-28T11:40:59Z</time>
      </trkpt>
      <trkpt lat="42.69185" lon="1.40099">
        <ele>2155.89</ele>
        <time>2016-09-28T11:41:05Z</time>
      </trkpt>
      <trkpt lat="42.69189" lon="1.40108">
        <ele>2153.01</ele>
        <time>2016-09-28T11:41:18Z</time>
      </trkpt>
      <trkpt lat="42.69191" lon="1.40122">
        <ele>2150.13</ele>
        <time>2016-09-28T11:41:32Z</time>
      </trkpt>
      <trkpt lat="42.69193" lon="1.40132">
        <ele>2148.2</ele>
        <time>2016-09-28T11:41:45Z</time>
      </trkpt>
      <trkpt lat="42.69196" lon="1.40137">
        <ele>2145.8</ele>
        <time>2016-09-28T11:41:56Z</time>
      </trkpt>
      <trkpt lat="42.69199" lon="1.40145">
        <ele>2141.47</ele>
        <time>2016-09-28T11:42:08Z</time>
      </trkpt>
      <trkpt lat="42.69201" lon="1.40147">
        <ele>2138.11</ele>
        <time>2016-09-28T11:42:12Z</time>
      </trkpt>
      <trkpt lat="42.69204" lon="1.40155">
        <ele>2136.19</ele>
        <time>2016-09-28T11:42:21Z</time>
      </trkpt>
      <trkpt lat="42.69206" lon="1.40156">
        <ele>2136.19</ele>
        <time>2016-09-28T11:42:23Z</time>
      </trkpt>
      <trkpt lat="42.69209" lon="1.40168">
        <ele>2135.71</ele>
        <time>2016-09-28T11:42:36Z</time>
      </trkpt>
      <trkpt lat="42.69216" lon="1.40174">
        <ele>2132.82</ele>
        <time>2016-09-28T11:42:48Z</time>
      </trkpt>
      <trkpt lat="42.69217" lon="1.40176">
        <ele>2129.46</ele>
        <time>2016-09-28T11:42:52Z</time>
      </trkpt>
      <trkpt lat="42.69218" lon="1.4018">
        <ele>2126.09</ele>
        <time>2016-09-28T11:42:56Z</time>
      </trkpt>
      <trkpt lat="42.69224" lon="1.4019">
        <ele>2125.61</ele>
        <time>2016-09-28T11:43:09Z</time>
      </trkpt>
      <trkpt lat="42.69229" lon="1.40199">
        <ele>2124.17</ele>
        <time>2016-09-28T11:43:20Z</time>
      </trkpt>
      <trkpt lat="42.69231" lon="1.40203">
        <ele>2123.69</ele>
        <time>2016-09-28T11:43:25Z</time>
      </trkpt>
      <trkpt lat="42.69236" lon="1.40205">
        <ele>2121.29</ele>
        <time>2016-09-28T11:43:37Z</time>
      </trkpt>
      <trkpt lat="42.69236" lon="1.40204">
        <ele>2121.29</ele>
        <time>2016-09-28T11:43:39Z</time>
      </trkpt>
      <trkpt lat="42.69234" lon="1.40195">
        <ele>2119.36</ele>
        <time>2016-09-28T11:43:47Z</time>
      </trkpt>
      <trkpt lat="42.69238" lon="1.40198">
        <ele>2118.4</ele>
        <time>2016-09-28T11:43:54Z</time>
      </trkpt>
      <trkpt lat="42.69245" lon="1.40207">
        <ele>2116.48</ele>
        <time>2016-09-28T11:44:06Z</time>
      </trkpt>
      <trkpt lat="42.69248" lon="1.40211">
        <ele>2113.12</ele>
        <time>2016-09-28T11:44:12Z</time>
      </trkpt>
      <trkpt lat="42.69249" lon="1.40211">
        <ele>2111.67</ele>
        <time>2016-09-28T11:44:14Z</time>
      </trkpt>
      <trkpt lat="42.69259" lon="1.40218">
        <ele>2109.27</ele>
        <time>2016-09-28T11:44:28Z</time>
      </trkpt>
      <trkpt lat="42.69259" lon="1.40219">
        <ele>2109.27</ele>
        <time>2016-09-28T11:44:29Z</time>
      </trkpt>
      <trkpt lat="42.69263" lon="1.40222">
        <ele>2107.83</ele>
        <time>2016-09-28T11:44:34Z</time>
      </trkpt>
      <trkpt lat="42.6927" lon="1.40233">
        <ele>2106.39</ele>
        <time>2016-09-28T11:44:46Z</time>
      </trkpt>
      <trkpt lat="42.6927" lon="1.40234">
        <ele>2105.91</ele>
        <time>2016-09-28T11:44:47Z</time>
      </trkpt>
      <trkpt lat="42.69273" lon="1.40237">
        <ele>2105.91</ele>
        <time>2016-09-28T11:44:52Z</time>
      </trkpt>
      <trkpt lat="42.69277" lon="1.40241">
        <ele>2104.94</ele>
        <time>2016-09-28T11:44:58Z</time>
      </trkpt>
      <trkpt lat="42.69281" lon="1.40248">
        <ele>2104.46</ele>
        <time>2016-09-28T11:45:05Z</time>
      </trkpt>
      <trkpt lat="42.69282" lon="1.40254">
        <ele>2103.98</ele>
        <time>2016-09-28T11:45:11Z</time>
      </trkpt>
      <trkpt lat="42.69278" lon="1.40262">
        <ele>2102.06</ele>
        <time>2016-09-28T11:45:20Z</time>
      </trkpt>
      <trkpt lat="42.69272" lon="1.40271">
        <ele>2100.14</ele>
        <time>2016-09-28T11:45:32Z</time>
      </trkpt>
      <trkpt lat="42.69272" lon="1.40277">
        <ele>2097.25</ele>
        <time>2016-09-28T11:45:44Z</time>
      </trkpt>
      <trkpt lat="42.69282" lon="1.40276">
        <ele>2094.85</ele>
        <time>2016-09-28T11:45:56Z</time>
      </trkpt>
      <trkpt lat="42.69285" lon="1.4028">
        <ele>2093.41</ele>
        <time>2016-09-28T11:46:05Z</time>
      </trkpt>
      <trkpt lat="42.69288" lon="1.4028">
        <ele>2090.52</ele>
        <time>2016-09-28T11:46:09Z</time>
      </trkpt>
      <trkpt lat="42.6929" lon="1.4028">
        <ele>2089.08</ele>
        <time>2016-09-28T11:46:11Z</time>
      </trkpt>
      <trkpt lat="42.69299" lon="1.40279">
        <ele>2086.68</ele>
        <time>2016-09-28T11:46:23Z</time>
      </trkpt>
      <trkpt lat="42.69299" lon="1.4028">
        <ele>2086.68</ele>
        <time>2016-09-28T11:46:24Z</time>
      </trkpt>
      <trkpt lat="42.69307" lon="1.40284">
        <ele>2084.28</ele>
        <time>2016-09-28T11:46:37Z</time>
      </trkpt>
      <trkpt lat="42.69307" lon="1.40286">
        <ele>2081.87</ele>
        <time>2016-09-28T11:46:41Z</time>
      </trkpt>
      <trkpt lat="42.69311" lon="1.40288">
        <ele>2078.51</ele>
        <time>2016-09-28T11:46:46Z</time>
      </trkpt>
      <trkpt lat="42.69311" lon="1.40289">
        <ele>2077.07</ele>
        <time>2016-09-28T11:46:48Z</time>
      </trkpt>
      <trkpt lat="42.69313" lon="1.40296">
        <ele>2076.59</ele>
        <time>2016-09-28T11:46:55Z</time>
      </trkpt>
      <trkpt lat="42.69316" lon="1.40302">
        <ele>2076.59</ele>
        <time>2016-09-28T11:47:01Z</time>
      </trkpt>
      <trkpt lat="42.69315" lon="1.40321">
        <ele>2075.14</ele>
        <time>2016-09-28T11:47:16Z</time>
      </trkpt>
      <trkpt lat="42.69317" lon="1.40324">
        <ele>2074.66</ele>
        <time>2016-09-28T11:47:19Z</time>
      </trkpt>
      <trkpt lat="42.69317" lon="1.40331">
        <ele>2073.22</ele>
        <time>2016-09-28T11:47:26Z</time>
      </trkpt>
      <trkpt lat="42.69321" lon="1.4034">
        <ele>2070.82</ele>
        <time>2016-09-28T11:47:36Z</time>
      </trkpt>
      <trkpt lat="42.69321" lon="1.40341">
        <ele>2070.82</ele>
        <time>2016-09-28T11:47:37Z</time>
      </trkpt>
      <trkpt lat="42.69321" lon="1.40345">
        <ele>2067.93</ele>
        <time>2016-09-28T11:47:40Z</time>
      </trkpt>
      <trkpt lat="42.69323" lon="1.4036">
        <ele>2066.49</ele>
        <time>2016-09-28T11:47:53Z</time>
      </trkpt>
      <trkpt lat="42.69324" lon="1.40374">
        <ele>2065.53</ele>
        <time>2016-09-28T11:48:05Z</time>
      </trkpt>
      <trkpt lat="42.69325" lon="1.40376">
        <ele>2064.57</ele>
        <time>2016-09-28T11:48:07Z</time>
      </trkpt>
      <trkpt lat="42.69325" lon="1.40383">
        <ele>2063.13</ele>
        <time>2016-09-28T11:48:17Z</time>
      </trkpt>
      <trkpt lat="42.69329" lon="1.4039">
        <ele>2060.72</ele>
        <time>2016-09-28T11:48:24Z</time>
      </trkpt>
      <trkpt lat="42.69333" lon="1.40392">
        <ele>2060.72</ele>
        <time>2016-09-28T11:48:28Z</time>
      </trkpt>
      <trkpt lat="42.69334" lon="1.40393">
        <ele>2059.76</ele>
        <time>2016-09-28T11:48:30Z</time>
      </trkpt>
      <trkpt lat="42.69337" lon="1.40394">
        <ele>2059.28</ele>
        <time>2016-09-28T11:48:33Z</time>
      </trkpt>
      <trkpt lat="42.6934" lon="1.40404">
        <ele>2057.84</ele>
        <time>2016-09-28T11:48:43Z</time>
      </trkpt>
      <trkpt lat="42.6934" lon="1.40404">
        <ele>2057.84</ele>
        <time>2016-09-28T11:48:44Z</time>
      </trkpt>
      <trkpt lat="42.69341" lon="1.40407">
        <ele>2056.88</ele>
        <time>2016-09-28T11:48:47Z</time>
      </trkpt>
      <trkpt lat="42.69343" lon="1.40417">
        <ele>2054.96</ele>
        <time>2016-09-28T11:48:59Z</time>
      </trkpt>
      <trkpt lat="42.69346" lon="1.40424">
        <ele>2052.55</ele>
        <time>2016-09-28T11:49:10Z</time>
      </trkpt>
      <trkpt lat="42.69347" lon="1.40426">
        <ele>2052.07</ele>
        <time>2016-09-28T11:49:12Z</time>
      </trkpt>
      <trkpt lat="42.6935" lon="1.40427">
        <ele>2051.59</ele>
        <time>2016-09-28T11:49:19Z</time>
      </trkpt>
      <trkpt lat="42.69355" lon="1.40432">
        <ele>2049.19</ele>
        <time>2016-09-28T11:49:29Z</time>
      </trkpt>
      <trkpt lat="42.6936" lon="1.40436">
        <ele>2047.75</ele>
        <time>2016-09-28T11:49:35Z</time>
      </trkpt>
      <trkpt lat="42.69361" lon="1.40439">
        <ele>2047.26</ele>
        <time>2016-09-28T11:49:38Z</time>
      </trkpt>
      <trkpt lat="42.69365" lon="1.40443">
        <ele>2046.78</ele>
        <time>2016-09-28T11:49:44Z</time>
      </trkpt>
      <trkpt lat="42.69369" lon="1.40445">
        <ele>2045.34</ele>
        <time>2016-09-28T11:49:49Z</time>
      </trkpt>
      <trkpt lat="42.69377" lon="1.40457">
        <ele>2043.9</ele>
        <time>2016-09-28T11:50:02Z</time>
      </trkpt>
      <trkpt lat="42.69378" lon="1.40459">
        <ele>2043.9</ele>
        <time>2016-09-28T11:50:04Z</time>
      </trkpt>
      <trkpt lat="42.6938" lon="1.4046">
        <ele>2043.9</ele>
        <time>2016-09-28T11:50:06Z</time>
      </trkpt>
      <trkpt lat="42.69381" lon="1.40463">
        <ele>2043.9</ele>
        <time>2016-09-28T11:50:09Z</time>
      </trkpt>
      <trkpt lat="42.69384" lon="1.40472">
        <ele>2043.9</ele>
        <time>2016-09-28T11:50:16Z</time>
      </trkpt>
      <trkpt lat="42.69387" lon="1.40475">
        <ele>2043.42</ele>
        <time>2016-09-28T11:50:19Z</time>
      </trkpt>
      <trkpt lat="42.69388" lon="1.40477">
        <ele>2043.42</ele>
        <time>2016-09-28T11:50:21Z</time>
      </trkpt>
      <trkpt lat="42.6939" lon="1.40478">
        <ele>2043.42</ele>
        <time>2016-09-28T11:50:23Z</time>
      </trkpt>
      <trkpt lat="42.69392" lon="1.4048">
        <ele>2043.42</ele>
        <time>2016-09-28T11:50:25Z</time>
      </trkpt>
      <trkpt lat="42.69395" lon="1.40483">
        <ele>2043.42</ele>
        <time>2016-09-28T11:50:29Z</time>
      </trkpt>
      <trkpt lat="42.69399" lon="1.40485">
        <ele>2043.42</ele>
        <time>2016-09-28T11:50:34Z</time>
      </trkpt>
      <trkpt lat="42.69401" lon="1.40487">
        <ele>2043.42</ele>
        <time>2016-09-28T11:50:37Z</time>
      </trkpt>
      <trkpt lat="42.69403" lon="1.40492">
        <ele>2043.42</ele>
        <time>2016-09-28T11:50:41Z</time>
      </trkpt>
      <trkpt lat="42.69413" lon="1.40501">
        <ele>2043.42</ele>
        <time>2016-09-28T11:50:53Z</time>
      </trkpt>
      <trkpt lat="42.69415" lon="1.40502">
        <ele>2043.42</ele>
        <time>2016-09-28T11:50:55Z</time>
      </trkpt>
      <trkpt lat="42.69417" lon="1.40505">
        <ele>2043.42</ele>
        <time>2016-09-28T11:50:58Z</time>
      </trkpt>
      <trkpt lat="42.69422" lon="1.4051">
        <ele>2043.42</ele>
        <time>2016-09-28T11:51:04Z</time>
      </trkpt>
      <trkpt lat="42.69433" lon="1.40516">
        <ele>2043.42</ele>
        <time>2016-09-28T11:51:16Z</time>
      </trkpt>
      <trkpt lat="42.69439" lon="1.4052">
        <ele>2042.94</ele>
        <time>2016-09-28T11:51:25Z</time>
      </trkpt>
      <trkpt lat="42.69443" lon="1.40519">
        <ele>2041.5</ele>
        <time>2016-09-28T11:51:29Z</time>
      </trkpt>
      <trkpt lat="42.69447" lon="1.40522">
        <ele>2039.09</ele>
        <time>2016-09-28T11:51:35Z</time>
      </trkpt>
      <trkpt lat="42.69451" lon="1.40523">
        <ele>2035.25</ele>
        <time>2016-09-28T11:51:41Z</time>
      </trkpt>
      <trkpt lat="42.69456" lon="1.40525">
        <ele>2034.29</ele>
        <time>2016-09-28T11:51:47Z</time>
      </trkpt>
      <trkpt lat="42.6946" lon="1.40529">
        <ele>2033.81</ele>
        <time>2016-09-28T11:52:00Z</time>
      </trkpt>
      <trkpt lat="42.69467" lon="1.40532">
        <ele>2032.36</ele>
        <time>2016-09-28T11:52:13Z</time>
      </trkpt>
      <trkpt lat="42.69473" lon="1.40534">
        <ele>2029.96</ele>
        <time>2016-09-28T11:52:25Z</time>
      </trkpt>
      <trkpt lat="42.69474" lon="1.40535">
        <ele>2028.04</ele>
        <time>2016-09-28T11:52:28Z</time>
      </trkpt>
      <trkpt lat="42.69478" lon="1.40535">
        <ele>2025.64</ele>
        <time>2016-09-28T11:52:33Z</time>
      </trkpt>
      <trkpt lat="42.69483" lon="1.40537">
        <ele>2023.71</ele>
        <time>2016-09-28T11:52:40Z</time>
      </trkpt>
      <trkpt lat="42.69494" lon="1.40539">
        <ele>2022.75</ele>
        <time>2016-09-28T11:52:50Z</time>
      </trkpt>
      <trkpt lat="42.69497" lon="1.40542">
        <ele>2021.79</ele>
        <time>2016-09-28T11:52:54Z</time>
      </trkpt>
      <trkpt lat="42.69504" lon="1.4054">
        <ele>2019.39</ele>
        <time>2016-09-28T11:53:05Z</time>
      </trkpt>
      <trkpt lat="42.69508" lon="1.40543">
        <ele>2018.43</ele>
        <time>2016-09-28T11:53:13Z</time>
      </trkpt>
      <trkpt lat="42.69515" lon="1.40545">
        <ele>2014.1</ele>
        <time>2016-09-28T11:53:23Z</time>
      </trkpt>
      <trkpt lat="42.69518" lon="1.40544">
        <ele>2010.73</ele>
        <time>2016-09-28T11:53:28Z</time>
      </trkpt>
      <trkpt lat="42.69521" lon="1.40544">
        <ele>2009.77</ele>
        <time>2016-09-28T11:53:36Z</time>
      </trkpt>
      <trkpt lat="42.69523" lon="1.40541">
        <ele>2009.77</ele>
        <time>2016-09-28T11:53:41Z</time>
      </trkpt>
      <trkpt lat="42.69526" lon="1.40542">
        <ele>2008.81</ele>
        <time>2016-09-28T11:53:45Z</time>
      </trkpt>
      <trkpt lat="42.69534" lon="1.40544">
        <ele>2006.41</ele>
        <time>2016-09-28T11:53:56Z</time>
      </trkpt>
      <trkpt lat="42.69539" lon="1.40544">
        <ele>2003.52</ele>
        <time>2016-09-28T11:54:03Z</time>
      </trkpt>
      <trkpt lat="42.69542" lon="1.40544">
        <ele>1999.68</ele>
        <time>2016-09-28T11:54:07Z</time>
      </trkpt>
      <trkpt lat="42.69548" lon="1.40548">
        <ele>1998.72</ele>
        <time>2016-09-28T11:54:19Z</time>
      </trkpt>
      <trkpt lat="42.69553" lon="1.40551">
        <ele>1998.24</ele>
        <time>2016-09-28T11:54:30Z</time>
      </trkpt>
      <trkpt lat="42.69558" lon="1.40552">
        <ele>1996.8</ele>
        <time>2016-09-28T11:54:40Z</time>
      </trkpt>
      <trkpt lat="42.69564" lon="1.40549">
        <ele>1993.43</ele>
        <time>2016-09-28T11:54:52Z</time>
      </trkpt>
      <trkpt lat="42.69567" lon="1.40542">
        <ele>1990.07</ele>
        <time>2016-09-28T11:55:03Z</time>
      </trkpt>
      <trkpt lat="42.69568" lon="1.40538">
        <ele>1986.7</ele>
        <time>2016-09-28T11:55:08Z</time>
      </trkpt>
      <trkpt lat="42.69574" lon="1.40537">
        <ele>1986.22</ele>
        <time>2016-09-28T11:55:19Z</time>
      </trkpt>
      <trkpt lat="42.69576" lon="1.40536">
        <ele>1986.22</ele>
        <time>2016-09-28T11:55:21Z</time>
      </trkpt>
      <trkpt lat="42.6958" lon="1.40542">
        <ele>1984.78</ele>
        <time>2016-09-28T11:55:33Z</time>
      </trkpt>
      <trkpt lat="42.69584" lon="1.40548">
        <ele>1982.86</ele>
        <time>2016-09-28T11:55:45Z</time>
      </trkpt>
      <trkpt lat="42.69587" lon="1.40545">
        <ele>1980.93</ele>
        <time>2016-09-28T11:55:55Z</time>
      </trkpt>
      <trkpt lat="42.69589" lon="1.40547">
        <ele>1980.45</ele>
        <time>2016-09-28T11:55:58Z</time>
      </trkpt>
      <trkpt lat="42.6959" lon="1.40552">
        <ele>1979.01</ele>
        <time>2016-09-28T11:56:06Z</time>
      </trkpt>
      <trkpt lat="42.69595" lon="1.40553">
        <ele>1977.57</ele>
        <time>2016-09-28T11:56:17Z</time>
      </trkpt>
      <trkpt lat="42.69594" lon="1.40544">
        <ele>1975.17</ele>
        <time>2016-09-28T11:56:29Z</time>
      </trkpt>
      <trkpt lat="42.69599" lon="1.40543">
        <ele>1972.76</ele>
        <time>2016-09-28T11:56:39Z</time>
      </trkpt>
      <trkpt lat="42.69601" lon="1.40534">
        <ele>1970.36</ele>
        <time>2016-09-28T11:56:50Z</time>
      </trkpt>
      <trkpt lat="42.69604" lon="1.40535">
        <ele>1969.4</ele>
        <time>2016-09-28T11:56:58Z</time>
      </trkpt>
      <trkpt lat="42.69604" lon="1.40533">
        <ele>1968.92</ele>
        <time>2016-09-28T11:57:00Z</time>
      </trkpt>
      <trkpt lat="42.6961" lon="1.40544">
        <ele>1966.51</ele>
        <time>2016-09-28T11:57:13Z</time>
      </trkpt>
      <trkpt lat="42.69615" lon="1.4055">
        <ele>1964.11</ele>
        <time>2016-09-28T11:57:23Z</time>
      </trkpt>
      <trkpt lat="42.69617" lon="1.40554">
        <ele>1961.23</ele>
        <time>2016-09-28T11:57:28Z</time>
      </trkpt>
      <trkpt lat="42.6962" lon="1.40558">
        <ele>1957.38</ele>
        <time>2016-09-28T11:57:34Z</time>
      </trkpt>
      <trkpt lat="42.69628" lon="1.40567">
        <ele>1956.42</ele>
        <time>2016-09-28T11:57:46Z</time>
      </trkpt>
      <trkpt lat="42.69634" lon="1.40566">
        <ele>1955.46</ele>
        <time>2016-09-28T11:57:57Z</time>
      </trkpt>
      <trkpt lat="42.69638" lon="1.40561">
        <ele>1954.02</ele>
        <time>2016-09-28T11:58:04Z</time>
      </trkpt>
      <trkpt lat="42.69642" lon="1.40566">
        <ele>1952.57</ele>
        <time>2016-09-28T11:58:12Z</time>
      </trkpt>
      <trkpt lat="42.69644" lon="1.40569">
        <ele>1948.73</ele>
        <time>2016-09-28T11:58:17Z</time>
      </trkpt>
      <trkpt lat="42.6964" lon="1.40581">
        <ele>1946.33</ele>
        <time>2016-09-28T11:58:28Z</time>
      </trkpt>
      <trkpt lat="42.69637" lon="1.40588">
        <ele>1946.33</ele>
        <time>2016-09-28T11:58:36Z</time>
      </trkpt>
      <trkpt lat="42.69635" lon="1.40594">
        <ele>1945.85</ele>
        <time>2016-09-28T11:58:42Z</time>
      </trkpt>
      <trkpt lat="42.69631" lon="1.406">
        <ele>1944.4</ele>
        <time>2016-09-28T11:58:48Z</time>
      </trkpt>
      <trkpt lat="42.69627" lon="1.40613">
        <ele>1944.4</ele>
        <time>2016-09-28T11:59:01Z</time>
      </trkpt>
      <trkpt lat="42.69628" lon="1.40629">
        <ele>1944.4</ele>
        <time>2016-09-28T11:59:13Z</time>
      </trkpt>
      <trkpt lat="42.69628" lon="1.4063">
        <ele>1944.4</ele>
        <time>2016-09-28T11:59:14Z</time>
      </trkpt>
      <trkpt lat="42.69627" lon="1.40636">
        <ele>1944.4</ele>
        <time>2016-09-28T11:59:19Z</time>
      </trkpt>
      <trkpt lat="42.69627" lon="1.40649">
        <ele>1944.4</ele>
        <time>2016-09-28T11:59:32Z</time>
      </trkpt>
      <trkpt lat="42.69627" lon="1.40657">
        <ele>1945.36</ele>
        <time>2016-09-28T11:59:40Z</time>
      </trkpt>
      <trkpt lat="42.6963" lon="1.40662">
        <ele>1945.36</ele>
        <time>2016-09-28T11:59:47Z</time>
      </trkpt>
      <trkpt lat="42.69637" lon="1.40667">
        <ele>1945.36</ele>
        <time>2016-09-28T11:59:58Z</time>
      </trkpt>
      <trkpt lat="42.69637" lon="1.40667">
        <ele>1943.92</ele>
        <time>2016-09-28T12:00:04Z</time>
      </trkpt>
      <trkpt lat="42.69637" lon="1.40667">
        <ele>1943.92</ele>
        <time>2016-09-28T12:00:08Z</time>
      </trkpt>
      <trkpt lat="42.69643" lon="1.40669">
        <ele>1943.92</ele>
        <time>2016-09-28T12:00:16Z</time>
      </trkpt>
      <trkpt lat="42.69644" lon="1.40671">
        <ele>1943.92</ele>
        <time>2016-09-28T12:00:19Z</time>
      </trkpt>
      <trkpt lat="42.69656" lon="1.4068">
        <ele>1944.4</ele>
        <time>2016-09-28T12:00:31Z</time>
      </trkpt>
      <trkpt lat="42.69656" lon="1.4068">
        <ele>1944.4</ele>
        <time>2016-09-28T12:00:32Z</time>
      </trkpt>
      <trkpt lat="42.69661" lon="1.40686">
        <ele>1944.4</ele>
        <time>2016-09-28T12:00:39Z</time>
      </trkpt>
      <trkpt lat="42.69668" lon="1.4069">
        <ele>1944.4</ele>
        <time>2016-09-28T12:00:47Z</time>
      </trkpt>
      <trkpt lat="42.69678" lon="1.407">
        <ele>1944.4</ele>
        <time>2016-09-28T12:01:00Z</time>
      </trkpt>
      <trkpt lat="42.69681" lon="1.40703">
        <ele>1944.4</ele>
        <time>2016-09-28T12:01:04Z</time>
      </trkpt>
      <trkpt lat="42.69684" lon="1.40708">
        <ele>1944.4</ele>
        <time>2016-09-28T12:01:08Z</time>
      </trkpt>
      <trkpt lat="42.69688" lon="1.40718">
        <ele>1944.88</ele>
        <time>2016-09-28T12:01:16Z</time>
      </trkpt>
      <trkpt lat="42.69689" lon="1.40724">
        <ele>1945.36</ele>
        <time>2016-09-28T12:01:21Z</time>
      </trkpt>
      <trkpt lat="42.6969" lon="1.40729">
        <ele>1945.85</ele>
        <time>2016-09-28T12:01:25Z</time>
      </trkpt>
      <trkpt lat="42.69689" lon="1.40732">
        <ele>1945.85</ele>
        <time>2016-09-28T12:01:27Z</time>
      </trkpt>
      <trkpt lat="42.6969" lon="1.40749">
        <ele>1946.33</ele>
        <time>2016-09-28T12:01:39Z</time>
      </trkpt>
      <trkpt lat="42.69692" lon="1.4076">
        <ele>1946.33</ele>
        <time>2016-09-28T12:01:47Z</time>
      </trkpt>
      <trkpt lat="42.69695" lon="1.40769">
        <ele>1946.33</ele>
        <time>2016-09-28T12:01:54Z</time>
      </trkpt>
      <trkpt lat="42.69699" lon="1.40778">
        <ele>1946.33</ele>
        <time>2016-09-28T12:02:02Z</time>
      </trkpt>
      <trkpt lat="42.69702" lon="1.40787">
        <ele>1946.33</ele>
        <time>2016-09-28T12:02:08Z</time>
      </trkpt>
      <trkpt lat="42.69703" lon="1.40789">
        <ele>1945.36</ele>
        <time>2016-09-28T12:02:11Z</time>
      </trkpt>
      <trkpt lat="42.69709" lon="1.40797">
        <ele>1945.36</ele>
        <time>2016-09-28T12:02:24Z</time>
      </trkpt>
      <trkpt lat="42.6971" lon="1.40796">
        <ele>1945.36</ele>
        <time>2016-09-28T12:02:42Z</time>
      </trkpt>
      <trkpt lat="42.69708" lon="1.40794">
        <ele>1944.88</ele>
        <time>2016-09-28T12:02:52Z</time>
      </trkpt>
      <trkpt lat="42.69708" lon="1.40794">
        <ele>1944.88</ele>
        <time>2016-09-28T12:03:16Z</time>
      </trkpt>
      <trkpt lat="42.69708" lon="1.40796">
        <ele>1944.88</ele>
        <time>2016-09-28T12:03:35Z</time>
      </trkpt>
      <trkpt lat="42.6971" lon="1.40797">
        <ele>1944.88</ele>
        <time>2016-09-28T12:03:52Z</time>
      </trkpt>
      <trkpt lat="42.69713" lon="1.40801">
        <ele>1944.4</ele>
        <time>2016-09-28T12:04:07Z</time>
      </trkpt>
      <trkpt lat="42.69718" lon="1.40803">
        <ele>1943.92</ele>
        <time>2016-09-28T12:04:15Z</time>
      </trkpt>
      <trkpt lat="42.6972" lon="1.40802">
        <ele>1943.44</ele>
        <time>2016-09-28T12:04:21Z</time>
      </trkpt>
      <trkpt lat="42.69724" lon="1.40805">
        <ele>1941.04</ele>
        <time>2016-09-28T12:04:35Z</time>
      </trkpt>
      <trkpt lat="42.69728" lon="1.40803">
        <ele>1940.08</ele>
        <time>2016-09-28T12:04:47Z</time>
      </trkpt>
      <trkpt lat="42.69735" lon="1.40804">
        <ele>1939.12</ele>
        <time>2016-09-28T12:04:59Z</time>
      </trkpt>
      <trkpt lat="42.69744" lon="1.40808">
        <ele>1936.71</ele>
        <time>2016-09-28T12:05:12Z</time>
      </trkpt>
      <trkpt lat="42.69747" lon="1.40809">
        <ele>1935.27</ele>
        <time>2016-09-28T12:05:19Z</time>
      </trkpt>
      <trkpt lat="42.69752" lon="1.40811">
        <ele>1932.87</ele>
        <time>2016-09-28T12:05:31Z</time>
      </trkpt>
      <trkpt lat="42.6976" lon="1.40812">
        <ele>1931.43</ele>
        <time>2016-09-28T12:05:40Z</time>
      </trkpt>
      <trkpt lat="42.69767" lon="1.40814">
        <ele>1928.54</ele>
        <time>2016-09-28T12:05:51Z</time>
      </trkpt>
      <trkpt lat="42.69773" lon="1.40813">
        <ele>1925.18</ele>
        <time>2016-09-28T12:06:01Z</time>
      </trkpt>
      <trkpt lat="42.69776" lon="1.40814">
        <ele>1921.81</ele>
        <time>2016-09-28T12:06:06Z</time>
      </trkpt>
      <trkpt lat="42.69782" lon="1.40813">
        <ele>1920.85</ele>
        <time>2016-09-28T12:06:16Z</time>
      </trkpt>
      <trkpt lat="42.69788" lon="1.40809">
        <ele>1918.93</ele>
        <time>2016-09-28T12:06:28Z</time>
      </trkpt>
      <trkpt lat="42.69796" lon="1.40806">
        <ele>1915.08</ele>
        <time>2016-09-28T12:06:40Z</time>
      </trkpt>
      <trkpt lat="42.69798" lon="1.40807">
        <ele>1912.2</ele>
        <time>2016-09-28T12:06:44Z</time>
      </trkpt>
      <trkpt lat="42.69808" lon="1.408">
        <ele>1910.76</ele>
        <time>2016-09-28T12:06:58Z</time>
      </trkpt>
      <trkpt lat="42.69813" lon="1.40797">
        <ele>1908.83</ele>
        <time>2016-09-28T12:07:09Z</time>
      </trkpt>
      <trkpt lat="42.69816" lon="1.40793">
        <ele>1907.39</ele>
        <time>2016-09-28T12:07:18Z</time>
      </trkpt>
      <trkpt lat="42.69819" lon="1.40788">
        <ele>1905.47</ele>
        <time>2016-09-28T12:07:27Z</time>
      </trkpt>
      <trkpt lat="42.69821" lon="1.40782">
        <ele>1902.11</ele>
        <time>2016-09-28T12:07:35Z</time>
      </trkpt>
      <trkpt lat="42.69824" lon="1.40783">
        <ele>1898.74</ele>
        <time>2016-09-28T12:07:39Z</time>
      </trkpt>
      <trkpt lat="42.69829" lon="1.40783">
        <ele>1897.3</ele>
        <time>2016-09-28T12:07:51Z</time>
      </trkpt>
      <trkpt lat="42.69834" lon="1.4078">
        <ele>1896.34</ele>
        <time>2016-09-28T12:08:00Z</time>
      </trkpt>
      <trkpt lat="42.6984" lon="1.40778">
        <ele>1893.93</ele>
        <time>2016-09-28T12:08:10Z</time>
      </trkpt>
      <trkpt lat="42.69843" lon="1.40778">
        <ele>1890.57</ele>
        <time>2016-09-28T12:08:16Z</time>
      </trkpt>
      <trkpt lat="42.69844" lon="1.40779">
        <ele>1887.21</ele>
        <time>2016-09-28T12:08:20Z</time>
      </trkpt>
      <trkpt lat="42.69848" lon="1.40774">
        <ele>1886.24</ele>
        <time>2016-09-28T12:08:30Z</time>
      </trkpt>
      <trkpt lat="42.69855" lon="1.40771">
        <ele>1885.28</ele>
        <time>2016-09-28T12:08:42Z</time>
      </trkpt>
      <trkpt lat="42.69859" lon="1.40771">
        <ele>1881.92</ele>
        <time>2016-09-28T12:08:49Z</time>
      </trkpt>
      <trkpt lat="42.69862" lon="1.40769">
        <ele>1878.55</ele>
        <time>2016-09-28T12:08:54Z</time>
      </trkpt>
      <trkpt lat="42.69865" lon="1.40769">
        <ele>1877.59</ele>
        <time>2016-09-28T12:08:57Z</time>
      </trkpt>
      <trkpt lat="42.69871" lon="1.4077">
        <ele>1877.11</ele>
        <time>2016-09-28T12:09:07Z</time>
      </trkpt>
      <trkpt lat="42.69877" lon="1.40768">
        <ele>1875.19</ele>
        <time>2016-09-28T12:09:20Z</time>
      </trkpt>
      <trkpt lat="42.69874" lon="1.40759">
        <ele>1873.27</ele>
        <time>2016-09-28T12:09:29Z</time>
      </trkpt>
      <trkpt lat="42.69877" lon="1.40758">
        <ele>1872.79</ele>
        <time>2016-09-28T12:09:32Z</time>
      </trkpt>
      <trkpt lat="42.6988" lon="1.40757">
        <ele>1868.94</ele>
        <time>2016-09-28T12:09:37Z</time>
      </trkpt>
      <trkpt lat="42.69883" lon="1.40757">
        <ele>1865.58</ele>
        <time>2016-09-28T12:09:42Z</time>
      </trkpt>
      <trkpt lat="42.69886" lon="1.40751">
        <ele>1865.09</ele>
        <time>2016-09-28T12:09:53Z</time>
      </trkpt>
      <trkpt lat="42.69893" lon="1.40748">
        <ele>1862.69</ele>
        <time>2016-09-28T12:10:06Z</time>
      </trkpt>
      <trkpt lat="42.69895" lon="1.40748">
        <ele>1859.33</ele>
        <time>2016-09-28T12:10:09Z</time>
      </trkpt>
      <trkpt lat="42.69898" lon="1.40747">
        <ele>1855.96</ele>
        <time>2016-09-28T12:10:14Z</time>
      </trkpt>
      <trkpt lat="42.69901" lon="1.40743">
        <ele>1855</ele>
        <time>2016-09-28T12:10:21Z</time>
      </trkpt>
      <trkpt lat="42.69903" lon="1.4074">
        <ele>1855</ele>
        <time>2016-09-28T12:10:25Z</time>
      </trkpt>
      <trkpt lat="42.6991" lon="1.4074">
        <ele>1853.56</ele>
        <time>2016-09-28T12:10:36Z</time>
      </trkpt>
      <trkpt lat="42.69911" lon="1.40742">
        <ele>1853.08</ele>
        <time>2016-09-28T12:10:38Z</time>
      </trkpt>
      <trkpt lat="42.69918" lon="1.40742">
        <ele>1852.12</ele>
        <time>2016-09-28T12:10:46Z</time>
      </trkpt>
      <trkpt lat="42.69921" lon="1.40742">
        <ele>1851.64</ele>
        <time>2016-09-28T12:10:49Z</time>
      </trkpt>
      <trkpt lat="42.69929" lon="1.40742">
        <ele>1849.71</ele>
        <time>2016-09-28T12:10:58Z</time>
      </trkpt>
      <trkpt lat="42.69933" lon="1.40741">
        <ele>1847.79</ele>
        <time>2016-09-28T12:11:12Z</time>
      </trkpt>
      <trkpt lat="42.69935" lon="1.40739">
        <ele>1847.31</ele>
        <time>2016-09-28T12:11:27Z</time>
      </trkpt>
      <trkpt lat="42.69947" lon="1.40737">
        <ele>1845.39</ele>
        <time>2016-09-28T12:11:40Z</time>
      </trkpt>
      <trkpt lat="42.69953" lon="1.40733">
        <ele>1843.95</ele>
        <time>2016-09-28T12:11:50Z</time>
      </trkpt>
      <trkpt lat="42.6996" lon="1.40729">
        <ele>1841.54</ele>
        <time>2016-09-28T12:12:01Z</time>
      </trkpt>
      <trkpt lat="42.69965" lon="1.40725">
        <ele>1838.18</ele>
        <time>2016-09-28T12:12:09Z</time>
      </trkpt>
      <trkpt lat="42.69968" lon="1.40724">
        <ele>1834.81</ele>
        <time>2016-09-28T12:12:13Z</time>
      </trkpt>
      <trkpt lat="42.69969" lon="1.40724">
        <ele>1834.81</ele>
        <time>2016-09-28T12:12:14Z</time>
      </trkpt>
      <trkpt lat="42.69974" lon="1.40715">
        <ele>1833.85</ele>
        <time>2016-09-28T12:12:27Z</time>
      </trkpt>
      <trkpt lat="42.69976" lon="1.40714">
        <ele>1833.85</ele>
        <time>2016-09-28T12:12:29Z</time>
      </trkpt>
      <trkpt lat="42.69978" lon="1.40714">
        <ele>1833.37</ele>
        <time>2016-09-28T12:12:32Z</time>
      </trkpt>
      <trkpt lat="42.69987" lon="1.40709">
        <ele>1831.93</ele>
        <time>2016-09-28T12:12:44Z</time>
      </trkpt>
      <trkpt lat="42.69993" lon="1.40703">
        <ele>1830.49</ele>
        <time>2016-09-28T12:12:54Z</time>
      </trkpt>
      <trkpt lat="42.69996" lon="1.40699">
        <ele>1829.05</ele>
        <time>2016-09-28T12:13:03Z</time>
      </trkpt>
      <trkpt lat="42.7" lon="1.40695">
        <ele>1827.6</ele>
        <time>2016-09-28T12:13:09Z</time>
      </trkpt>
      <trkpt lat="42.70004" lon="1.40691">
        <ele>1826.16</ele>
        <time>2016-09-28T12:13:17Z</time>
      </trkpt>
      <trkpt lat="42.70004" lon="1.40688">
        <ele>1825.68</ele>
        <time>2016-09-28T12:13:19Z</time>
      </trkpt>
      <trkpt lat="42.70009" lon="1.40685">
        <ele>1823.76</ele>
        <time>2016-09-28T12:13:27Z</time>
      </trkpt>
      <trkpt lat="42.70011" lon="1.40684">
        <ele>1823.76</ele>
        <time>2016-09-28T12:13:30Z</time>
      </trkpt>
      <trkpt lat="42.70015" lon="1.4068">
        <ele>1822.32</ele>
        <time>2016-09-28T12:13:35Z</time>
      </trkpt>
      <trkpt lat="42.70022" lon="1.40677">
        <ele>1818.47</ele>
        <time>2016-09-28T12:13:44Z</time>
      </trkpt>
      <trkpt lat="42.70025" lon="1.40675">
        <ele>1815.59</ele>
        <time>2016-09-28T12:13:50Z</time>
      </trkpt>
      <trkpt lat="42.70028" lon="1.40672">
        <ele>1815.11</ele>
        <time>2016-09-28T12:14:00Z</time>
      </trkpt>
      <trkpt lat="42.70032" lon="1.40664">
        <ele>1813.18</ele>
        <time>2016-09-28T12:14:13Z</time>
      </trkpt>
      <trkpt lat="42.70035" lon="1.4066">
        <ele>1811.26</ele>
        <time>2016-09-28T12:14:23Z</time>
      </trkpt>
      <trkpt lat="42.70034" lon="1.40652">
        <ele>1807.9</ele>
        <time>2016-09-28T12:14:31Z</time>
      </trkpt>
      <trkpt lat="42.70034" lon="1.40652">
        <ele>1807.42</ele>
        <time>2016-09-28T12:14:32Z</time>
      </trkpt>
      <trkpt lat="42.70033" lon="1.40645">
        <ele>1803.09</ele>
        <time>2016-09-28T12:14:39Z</time>
      </trkpt>
      <trkpt lat="42.70034" lon="1.40635">
        <ele>1802.61</ele>
        <time>2016-09-28T12:14:52Z</time>
      </trkpt>
      <trkpt lat="42.70033" lon="1.40631">
        <ele>1801.65</ele>
        <time>2016-09-28T12:14:57Z</time>
      </trkpt>
      <trkpt lat="42.70034" lon="1.40625">
        <ele>1799.73</ele>
        <time>2016-09-28T12:15:07Z</time>
      </trkpt>
      <trkpt lat="42.70035" lon="1.40619">
        <ele>1795.88</ele>
        <time>2016-09-28T12:15:14Z</time>
      </trkpt>
      <trkpt lat="42.70033" lon="1.40615">
        <ele>1792.52</ele>
        <time>2016-09-28T12:15:18Z</time>
      </trkpt>
      <trkpt lat="42.70033" lon="1.40614">
        <ele>1792.03</ele>
        <time>2016-09-28T12:15:19Z</time>
      </trkpt>
      <trkpt lat="42.70027" lon="1.40602">
        <ele>1791.55</ele>
        <time>2016-09-28T12:15:33Z</time>
      </trkpt>
      <trkpt lat="42.70027" lon="1.40601">
        <ele>1791.55</ele>
        <time>2016-09-28T12:15:34Z</time>
      </trkpt>
      <trkpt lat="42.70036" lon="1.40601">
        <ele>1790.11</ele>
        <time>2016-09-28T12:15:47Z</time>
      </trkpt>
      <trkpt lat="42.70043" lon="1.406">
        <ele>1787.23</ele>
        <time>2016-09-28T12:15:58Z</time>
      </trkpt>
      <trkpt lat="42.70046" lon="1.40602">
        <ele>1784.34</ele>
        <time>2016-09-28T12:16:02Z</time>
      </trkpt>
      <trkpt lat="42.70049" lon="1.40601">
        <ele>1780.98</ele>
        <time>2016-09-28T12:16:07Z</time>
      </trkpt>
      <trkpt lat="42.70055" lon="1.40605">
        <ele>1780.98</ele>
        <time>2016-09-28T12:16:19Z</time>
      </trkpt>
      <trkpt lat="42.7006" lon="1.40609">
        <ele>1780.98</ele>
        <time>2016-09-28T12:16:26Z</time>
      </trkpt>
      <trkpt lat="42.70068" lon="1.40619">
        <ele>1779.06</ele>
        <time>2016-09-28T12:16:40Z</time>
      </trkpt>
      <trkpt lat="42.70074" lon="1.40622">
        <ele>1776.65</ele>
        <time>2016-09-28T12:16:51Z</time>
      </trkpt>
      <trkpt lat="42.70077" lon="1.40627">
        <ele>1776.17</ele>
        <time>2016-09-28T12:16:56Z</time>
      </trkpt>
      <trkpt lat="42.70085" lon="1.40633">
        <ele>1771.85</ele>
        <time>2016-09-28T12:17:06Z</time>
      </trkpt>
      <trkpt lat="42.70087" lon="1.40635">
        <ele>1768.96</ele>
        <time>2016-09-28T12:17:10Z</time>
      </trkpt>
      <trkpt lat="42.70092" lon="1.4064">
        <ele>1768</ele>
        <time>2016-09-28T12:17:18Z</time>
      </trkpt>
      <trkpt lat="42.70092" lon="1.40643">
        <ele>1768</ele>
        <time>2016-09-28T12:17:20Z</time>
      </trkpt>
      <trkpt lat="42.70096" lon="1.40645">
        <ele>1768</ele>
        <time>2016-09-28T12:17:32Z</time>
      </trkpt>
      <trkpt lat="42.70101" lon="1.40645">
        <ele>1766.56</ele>
        <time>2016-09-28T12:17:44Z</time>
      </trkpt>
      <trkpt lat="42.70102" lon="1.40646">
        <ele>1765.6</ele>
        <time>2016-09-28T12:17:46Z</time>
      </trkpt>
      <trkpt lat="42.70104" lon="1.40648">
        <ele>1765.12</ele>
        <time>2016-09-28T12:17:49Z</time>
      </trkpt>
      <trkpt lat="42.70105" lon="1.40651">
        <ele>1764.64</ele>
        <time>2016-09-28T12:17:54Z</time>
      </trkpt>
      <trkpt lat="42.70107" lon="1.40652">
        <ele>1763.68</ele>
        <time>2016-09-28T12:18:02Z</time>
      </trkpt>
      <trkpt lat="42.70112" lon="1.4066">
        <ele>1761.75</ele>
        <time>2016-09-28T12:18:14Z</time>
      </trkpt>
      <trkpt lat="42.70118" lon="1.4066">
        <ele>1759.35</ele>
        <time>2016-09-28T12:18:24Z</time>
      </trkpt>
      <trkpt lat="42.7012" lon="1.4066">
        <ele>1758.87</ele>
        <time>2016-09-28T12:18:28Z</time>
      </trkpt>
      <trkpt lat="42.70124" lon="1.40662">
        <ele>1754.06</ele>
        <time>2016-09-28T12:18:34Z</time>
      </trkpt>
      <trkpt lat="42.70129" lon="1.40664">
        <ele>1751.66</ele>
        <time>2016-09-28T12:18:46Z</time>
      </trkpt>
      <trkpt lat="42.70134" lon="1.40659">
        <ele>1751.18</ele>
        <time>2016-09-28T12:18:58Z</time>
      </trkpt>
      <trkpt lat="42.70135" lon="1.40657">
        <ele>1750.7</ele>
        <time>2016-09-28T12:19:01Z</time>
      </trkpt>
      <trkpt lat="42.7014" lon="1.40656">
        <ele>1746.85</ele>
        <time>2016-09-28T12:19:14Z</time>
      </trkpt>
      <trkpt lat="42.70142" lon="1.40656">
        <ele>1743.49</ele>
        <time>2016-09-28T12:19:19Z</time>
      </trkpt>
      <trkpt lat="42.70144" lon="1.40652">
        <ele>1743.01</ele>
        <time>2016-09-28T12:19:26Z</time>
      </trkpt>
      <trkpt lat="42.70146" lon="1.40649">
        <ele>1742.53</ele>
        <time>2016-09-28T12:19:37Z</time>
      </trkpt>
      <trkpt lat="42.70152" lon="1.40649">
        <ele>1740.6</ele>
        <time>2016-09-28T12:19:48Z</time>
      </trkpt>
      <trkpt lat="42.70154" lon="1.4065">
        <ele>1738.2</ele>
        <time>2016-09-28T12:19:58Z</time>
      </trkpt>
      <trkpt lat="42.7016" lon="1.40653">
        <ele>1734.84</ele>
        <time>2016-09-28T12:20:05Z</time>
      </trkpt>
      <trkpt lat="42.70164" lon="1.40657">
        <ele>1732.43</ele>
        <time>2016-09-28T12:20:19Z</time>
      </trkpt>
      <trkpt lat="42.70164" lon="1.40655">
        <ele>1732.43</ele>
        <time>2016-09-28T12:20:21Z</time>
      </trkpt>
      <trkpt lat="42.70166" lon="1.40651">
        <ele>1731.95</ele>
        <time>2016-09-28T12:20:29Z</time>
      </trkpt>
      <trkpt lat="42.70173" lon="1.40656">
        <ele>1730.51</ele>
        <time>2016-09-28T12:20:41Z</time>
      </trkpt>
      <trkpt lat="42.70178" lon="1.40655">
        <ele>1727.15</ele>
        <time>2016-09-28T12:20:50Z</time>
      </trkpt>
      <trkpt lat="42.70182" lon="1.40656">
        <ele>1723.78</ele>
        <time>2016-09-28T12:20:55Z</time>
      </trkpt>
      <trkpt lat="42.70191" lon="1.40655">
        <ele>1722.34</ele>
        <time>2016-09-28T12:21:08Z</time>
      </trkpt>
      <trkpt lat="42.70194" lon="1.40656">
        <ele>1722.34</ele>
        <time>2016-09-28T12:21:12Z</time>
      </trkpt>
      <trkpt lat="42.70199" lon="1.40656">
        <ele>1720.42</ele>
        <time>2016-09-28T12:21:23Z</time>
      </trkpt>
      <trkpt lat="42.70202" lon="1.40657">
        <ele>1718.97</ele>
        <time>2016-09-28T12:21:35Z</time>
      </trkpt>
      <trkpt lat="42.70208" lon="1.40651">
        <ele>1717.53</ele>
        <time>2016-09-28T12:21:48Z</time>
      </trkpt>
      <trkpt lat="42.70216" lon="1.40647">
        <ele>1713.69</ele>
        <time>2016-09-28T12:22:00Z</time>
      </trkpt>
      <trkpt lat="42.70222" lon="1.40645">
        <ele>1709.84</ele>
        <time>2016-09-28T12:22:08Z</time>
      </trkpt>
      <trkpt lat="42.70225" lon="1.40639">
        <ele>1709.84</ele>
        <time>2016-09-28T12:22:16Z</time>
      </trkpt>
      <trkpt lat="42.70226" lon="1.40636">
        <ele>1709.84</ele>
        <time>2016-09-28T12:22:19Z</time>
      </trkpt>
      <trkpt lat="42.70228" lon="1.40627">
        <ele>1706</ele>
        <time>2016-09-28T12:22:31Z</time>
      </trkpt>
      <trkpt lat="42.70228" lon="1.40624">
        <ele>1704.55</ele>
        <time>2016-09-28T12:22:33Z</time>
      </trkpt>
      <trkpt lat="42.70231" lon="1.40614">
        <ele>1701.19</ele>
        <time>2016-09-28T12:22:46Z</time>
      </trkpt>
      <trkpt lat="42.70232" lon="1.40608">
        <ele>1700.71</ele>
        <time>2016-09-28T12:22:56Z</time>
      </trkpt>
      <trkpt lat="42.70235" lon="1.40597">
        <ele>1697.83</ele>
        <time>2016-09-28T12:23:08Z</time>
      </trkpt>
      <trkpt lat="42.70235" lon="1.40591">
        <ele>1693.98</ele>
        <time>2016-09-28T12:23:14Z</time>
      </trkpt>
      <trkpt lat="42.70236" lon="1.4058">
        <ele>1691.1</ele>
        <time>2016-09-28T12:23:26Z</time>
      </trkpt>
      <trkpt lat="42.70237" lon="1.40571">
        <ele>1691.1</ele>
        <time>2016-09-28T12:23:39Z</time>
      </trkpt>
      <trkpt lat="42.70239" lon="1.40563">
        <ele>1689.17</ele>
        <time>2016-09-28T12:23:51Z</time>
      </trkpt>
      <trkpt lat="42.70242" lon="1.40561">
        <ele>1685.81</ele>
        <time>2016-09-28T12:23:56Z</time>
      </trkpt>
      <trkpt lat="42.70243" lon="1.40563">
        <ele>1684.37</ele>
        <time>2016-09-28T12:23:59Z</time>
      </trkpt>
      <trkpt lat="42.70249" lon="1.40567">
        <ele>1684.85</ele>
        <time>2016-09-28T12:24:10Z</time>
      </trkpt>
      <trkpt lat="42.70251" lon="1.40567">
        <ele>1684.85</ele>
        <time>2016-09-28T12:24:13Z</time>
      </trkpt>
      <trkpt lat="42.70257" lon="1.40574">
        <ele>1682.93</ele>
        <time>2016-09-28T12:24:25Z</time>
      </trkpt>
      <trkpt lat="42.70258" lon="1.40574">
        <ele>1682.44</ele>
        <time>2016-09-28T12:24:27Z</time>
      </trkpt>
      <trkpt lat="42.70259" lon="1.40576">
        <ele>1682.44</ele>
        <time>2016-09-28T12:24:29Z</time>
      </trkpt>
      <trkpt lat="42.70266" lon="1.40583">
        <ele>1680.04</ele>
        <time>2016-09-28T12:24:40Z</time>
      </trkpt>
      <trkpt lat="42.70275" lon="1.40584">
        <ele>1678.6</ele>
        <time>2016-09-28T12:24:53Z</time>
      </trkpt>
      <trkpt lat="42.70277" lon="1.40584">
        <ele>1678.6</ele>
        <time>2016-09-28T12:24:55Z</time>
      </trkpt>
      <trkpt lat="42.70283" lon="1.40585">
        <ele>1676.68</ele>
        <time>2016-09-28T12:25:06Z</time>
      </trkpt>
      <trkpt lat="42.70286" lon="1.40585">
        <ele>1676.2</ele>
        <time>2016-09-28T12:25:18Z</time>
      </trkpt>
      <trkpt lat="42.70286" lon="1.40588">
        <ele>1676.2</ele>
        <time>2016-09-28T12:25:31Z</time>
      </trkpt>
      <trkpt lat="42.70287" lon="1.40588">
        <ele>1674.75</ele>
        <time>2016-09-28T12:26:01Z</time>
      </trkpt>
      <trkpt lat="42.70288" lon="1.40588">
        <ele>1674.75</ele>
        <time>2016-09-28T12:26:29Z</time>
      </trkpt>
      <trkpt lat="42.70287" lon="1.40586">
        <ele>1674.75</ele>
        <time>2016-09-28T12:26:36Z</time>
      </trkpt>
      <trkpt lat="42.70284" lon="1.40584">
        <ele>1674.75</ele>
        <time>2016-09-28T12:26:51Z</time>
      </trkpt>
      <trkpt lat="42.70284" lon="1.40585">
        <ele>1674.27</ele>
        <time>2016-09-28T12:27:14Z</time>
      </trkpt>
      <trkpt lat="42.70284" lon="1.40585">
        <ele>1674.27</ele>
        <time>2016-09-28T12:27:34Z</time>
      </trkpt>
      <trkpt lat="42.70284" lon="1.40586">
        <ele>1674.27</ele>
        <time>2016-09-28T12:27:59Z</time>
      </trkpt>
      <trkpt lat="42.70284" lon="1.40586">
        <ele>1674.27</ele>
        <time>2016-09-28T12:28:21Z</time>
      </trkpt>
      <trkpt lat="42.70284" lon="1.40586">
        <ele>1674.27</ele>
        <time>2016-09-28T12:28:44Z</time>
      </trkpt>
      <trkpt lat="42.70284" lon="1.40586">
        <ele>1673.79</ele>
        <time>2016-09-28T12:29:09Z</time>
      </trkpt>
      <trkpt lat="42.70284" lon="1.40585">
        <ele>1673.79</ele>
        <time>2016-09-28T12:29:43Z</time>
      </trkpt>
      <trkpt lat="42.70284" lon="1.40586">
        <ele>1673.79</ele>
        <time>2016-09-28T12:30:04Z</time>
      </trkpt>
      <trkpt lat="42.70285" lon="1.40584">
        <ele>1673.79</ele>
        <time>2016-09-28T12:30:06Z</time>
      </trkpt>
      <trkpt lat="42.70288" lon="1.40583">
        <ele>1673.79</ele>
        <time>2016-09-28T12:30:12Z</time>
      </trkpt>
      <trkpt lat="42.70294" lon="1.40584">
        <ele>1673.79</ele>
        <time>2016-09-28T12:30:21Z</time>
      </trkpt>
      <trkpt lat="42.70301" lon="1.40584">
        <ele>1672.35</ele>
        <time>2016-09-28T12:30:33Z</time>
      </trkpt>
      <trkpt lat="42.70303" lon="1.40583">
        <ele>1671.87</ele>
        <time>2016-09-28T12:30:36Z</time>
      </trkpt>
      <trkpt lat="42.70306" lon="1.40583">
        <ele>1671.39</ele>
        <time>2016-09-28T12:30:41Z</time>
      </trkpt>
      <trkpt lat="42.70315" lon="1.40583">
        <ele>1668.99</ele>
        <time>2016-09-28T12:30:54Z</time>
      </trkpt>
      <trkpt lat="42.70318" lon="1.40582">
        <ele>1666.58</ele>
        <time>2016-09-28T12:31:04Z</time>
      </trkpt>
      <trkpt lat="42.70322" lon="1.40582">
        <ele>1665.14</ele>
        <time>2016-09-28T12:31:10Z</time>
      </trkpt>
      <trkpt lat="42.70329" lon="1.40583">
        <ele>1663.7</ele>
        <time>2016-09-28T12:31:20Z</time>
      </trkpt>
      <trkpt lat="42.70332" lon="1.40585">
        <ele>1663.22</ele>
        <time>2016-09-28T12:31:24Z</time>
      </trkpt>
      <trkpt lat="42.70339" lon="1.40586">
        <ele>1660.81</ele>
        <time>2016-09-28T12:31:36Z</time>
      </trkpt>
      <trkpt lat="42.70347" lon="1.40587">
        <ele>1658.41</ele>
        <time>2016-09-28T12:31:48Z</time>
      </trkpt>
      <trkpt lat="42.70349" lon="1.40591">
        <ele>1657.45</ele>
        <time>2016-09-28T12:31:52Z</time>
      </trkpt>
      <trkpt lat="42.70352" lon="1.40591">
        <ele>1656.97</ele>
        <time>2016-09-28T12:31:58Z</time>
      </trkpt>
      <trkpt lat="42.70356" lon="1.40592">
        <ele>1653.12</ele>
        <time>2016-09-28T12:32:04Z</time>
      </trkpt>
      <trkpt lat="42.70359" lon="1.40593">
        <ele>1649.76</ele>
        <time>2016-09-28T12:32:09Z</time>
      </trkpt>
      <trkpt lat="42.70363" lon="1.40597">
        <ele>1649.76</ele>
        <time>2016-09-28T12:32:14Z</time>
      </trkpt>
      <trkpt lat="42.70372" lon="1.40606">
        <ele>1649.76</ele>
        <time>2016-09-28T12:32:29Z</time>
      </trkpt>
      <trkpt lat="42.7038" lon="1.40609">
        <ele>1647.84</ele>
        <time>2016-09-28T12:32:42Z</time>
      </trkpt>
      <trkpt lat="42.70384" lon="1.4061">
        <ele>1645.91</ele>
        <time>2016-09-28T12:32:50Z</time>
      </trkpt>
      <trkpt lat="42.70391" lon="1.40618">
        <ele>1643.03</ele>
        <time>2016-09-28T12:33:03Z</time>
      </trkpt>
      <trkpt lat="42.70392" lon="1.40623">
        <ele>1639.67</ele>
        <time>2016-09-28T12:33:08Z</time>
      </trkpt>
      <trkpt lat="42.70396" lon="1.40626">
        <ele>1636.3</ele>
        <time>2016-09-28T12:33:15Z</time>
      </trkpt>
      <trkpt lat="42.70398" lon="1.40627">
        <ele>1636.78</ele>
        <time>2016-09-28T12:33:17Z</time>
      </trkpt>
      <trkpt lat="42.704" lon="1.40633">
        <ele>1636.78</ele>
        <time>2016-09-28T12:33:26Z</time>
      </trkpt>
      <trkpt lat="42.70406" lon="1.40634">
        <ele>1634.38</ele>
        <time>2016-09-28T12:33:39Z</time>
      </trkpt>
      <trkpt lat="42.70408" lon="1.40635">
        <ele>1632.94</ele>
        <time>2016-09-28T12:33:44Z</time>
      </trkpt>
      <trkpt lat="42.70415" lon="1.40638">
        <ele>1631.49</ele>
        <time>2016-09-28T12:33:55Z</time>
      </trkpt>
      <trkpt lat="42.70415" lon="1.40638">
        <ele>1630.53</ele>
        <time>2016-09-28T12:33:56Z</time>
      </trkpt>
      <trkpt lat="42.70423" lon="1.40636">
        <ele>1627.65</ele>
        <time>2016-09-28T12:34:09Z</time>
      </trkpt>
      <trkpt lat="42.70427" lon="1.40643">
        <ele>1623.8</ele>
        <time>2016-09-28T12:34:20Z</time>
      </trkpt>
      <trkpt lat="42.70428" lon="1.40647">
        <ele>1620.44</ele>
        <time>2016-09-28T12:34:24Z</time>
      </trkpt>
      <trkpt lat="42.70433" lon="1.40655">
        <ele>1619</ele>
        <time>2016-09-28T12:34:37Z</time>
      </trkpt>
      <trkpt lat="42.70437" lon="1.40655">
        <ele>1617.56</ele>
        <time>2016-09-28T12:34:49Z</time>
      </trkpt>
      <trkpt lat="42.70443" lon="1.40657">
        <ele>1615.15</ele>
        <time>2016-09-28T12:35:00Z</time>
      </trkpt>
      <trkpt lat="42.70445" lon="1.40658">
        <ele>1611.79</ele>
        <time>2016-09-28T12:35:06Z</time>
      </trkpt>
      <trkpt lat="42.70447" lon="1.40656">
        <ele>1608.42</ele>
        <time>2016-09-28T12:35:11Z</time>
      </trkpt>
      <trkpt lat="42.70448" lon="1.40655">
        <ele>1607.94</ele>
        <time>2016-09-28T12:35:12Z</time>
      </trkpt>
      <trkpt lat="42.7045" lon="1.40655">
        <ele>1607.46</ele>
        <time>2016-09-28T12:35:14Z</time>
      </trkpt>
      <trkpt lat="42.70452" lon="1.4065">
        <ele>1607.94</ele>
        <time>2016-09-28T12:35:19Z</time>
      </trkpt>
      <trkpt lat="42.70457" lon="1.40648">
        <ele>1607.46</ele>
        <time>2016-09-28T12:35:25Z</time>
      </trkpt>
      <trkpt lat="42.70459" lon="1.40644">
        <ele>1606.98</ele>
        <time>2016-09-28T12:35:28Z</time>
      </trkpt>
      <trkpt lat="42.7046" lon="1.4064">
        <ele>1602.66</ele>
        <time>2016-09-28T12:35:33Z</time>
      </trkpt>
      <trkpt lat="42.70462" lon="1.40638">
        <ele>1599.77</ele>
        <time>2016-09-28T12:35:37Z</time>
      </trkpt>
      <trkpt lat="42.70466" lon="1.40633">
        <ele>1599.29</ele>
        <time>2016-09-28T12:35:44Z</time>
      </trkpt>
      <trkpt lat="42.7047" lon="1.40631">
        <ele>1599.29</ele>
        <time>2016-09-28T12:35:53Z</time>
      </trkpt>
      <trkpt lat="42.70474" lon="1.40643">
        <ele>1597.85</ele>
        <time>2016-09-28T12:36:05Z</time>
      </trkpt>
      <trkpt lat="42.70474" lon="1.40646">
        <ele>1597.85</ele>
        <time>2016-09-28T12:36:08Z</time>
      </trkpt>
      <trkpt lat="42.70474" lon="1.4065">
        <ele>1596.89</ele>
        <time>2016-09-28T12:36:13Z</time>
      </trkpt>
      <trkpt lat="42.7048" lon="1.4065">
        <ele>1594.48</ele>
        <time>2016-09-28T12:36:23Z</time>
      </trkpt>
      <trkpt lat="42.70486" lon="1.40649">
        <ele>1591.6</ele>
        <time>2016-09-28T12:36:31Z</time>
      </trkpt>
      <trkpt lat="42.70488" lon="1.40649">
        <ele>1588.72</ele>
        <time>2016-09-28T12:36:35Z</time>
      </trkpt>
      <trkpt lat="42.7049" lon="1.40647">
        <ele>1586.79</ele>
        <time>2016-09-28T12:36:38Z</time>
      </trkpt>
      <trkpt lat="42.70493" lon="1.40651">
        <ele>1585.83</ele>
        <time>2016-09-28T12:36:45Z</time>
      </trkpt>
      <trkpt lat="42.70497" lon="1.40663">
        <ele>1584.39</ele>
        <time>2016-09-28T12:36:59Z</time>
      </trkpt>
      <trkpt lat="42.70501" lon="1.40669">
        <ele>1581.99</ele>
        <time>2016-09-28T12:37:10Z</time>
      </trkpt>
      <trkpt lat="42.70507" lon="1.40661">
        <ele>1579.1</ele>
        <time>2016-09-28T12:37:24Z</time>
      </trkpt>
      <trkpt lat="42.70508" lon="1.4066">
        <ele>1579.1</ele>
        <time>2016-09-28T12:37:26Z</time>
      </trkpt>
      <trkpt lat="42.70514" lon="1.40658">
        <ele>1576.7</ele>
        <time>2016-09-28T12:37:37Z</time>
      </trkpt>
      <trkpt lat="42.70514" lon="1.4066">
        <ele>1574.78</ele>
        <time>2016-09-28T12:38:02Z</time>
      </trkpt>
      <trkpt lat="42.70517" lon="1.40654">
        <ele>1574.3</ele>
        <time>2016-09-28T12:38:15Z</time>
      </trkpt>
      <trkpt lat="42.70521" lon="1.4066">
        <ele>1572.37</ele>
        <time>2016-09-28T12:38:25Z</time>
      </trkpt>
      <trkpt lat="42.70523" lon="1.40669">
        <ele>1570.45</ele>
        <time>2016-09-28T12:38:35Z</time>
      </trkpt>
      <trkpt lat="42.70525" lon="1.40678">
        <ele>1567.09</ele>
        <time>2016-09-28T12:38:45Z</time>
      </trkpt>
      <trkpt lat="42.70524" lon="1.4068">
        <ele>1564.2</ele>
        <time>2016-09-28T12:38:49Z</time>
      </trkpt>
      <trkpt lat="42.70529" lon="1.40684">
        <ele>1563.24</ele>
        <time>2016-09-28T12:39:00Z</time>
      </trkpt>
      <trkpt lat="42.70532" lon="1.4069">
        <ele>1561.32</ele>
        <time>2016-09-28T12:39:12Z</time>
      </trkpt>
      <trkpt lat="42.70532" lon="1.40691">
        <ele>1559.4</ele>
        <time>2016-09-28T12:39:23Z</time>
      </trkpt>
      <trkpt lat="42.70535" lon="1.40705">
        <ele>1556.51</ele>
        <time>2016-09-28T12:39:36Z</time>
      </trkpt>
      <trkpt lat="42.70538" lon="1.40716">
        <ele>1554.11</ele>
        <time>2016-09-28T12:39:48Z</time>
      </trkpt>
      <trkpt lat="42.70538" lon="1.40729">
        <ele>1552.19</ele>
        <time>2016-09-28T12:40:01Z</time>
      </trkpt>
      <trkpt lat="42.7054" lon="1.40735">
        <ele>1549.78</ele>
        <time>2016-09-28T12:40:13Z</time>
      </trkpt>
      <trkpt lat="42.70542" lon="1.40734">
        <ele>1546.42</ele>
        <time>2016-09-28T12:40:19Z</time>
      </trkpt>
      <trkpt lat="42.70544" lon="1.40732">
        <ele>1543.05</ele>
        <time>2016-09-28T12:40:24Z</time>
      </trkpt>
      <trkpt lat="42.70549" lon="1.40728">
        <ele>1542.57</ele>
        <time>2016-09-28T12:40:35Z</time>
      </trkpt>
      <trkpt lat="42.70553" lon="1.40733">
        <ele>1542.09</ele>
        <time>2016-09-28T12:40:45Z</time>
      </trkpt>
      <trkpt lat="42.70558" lon="1.40742">
        <ele>1539.69</ele>
        <time>2016-09-28T12:40:57Z</time>
      </trkpt>
      <trkpt lat="42.70559" lon="1.40747">
        <ele>1536.32</ele>
        <time>2016-09-28T12:41:07Z</time>
      </trkpt>
      <trkpt lat="42.70561" lon="1.40751">
        <ele>1532.96</ele>
        <time>2016-09-28T12:41:11Z</time>
      </trkpt>
      <trkpt lat="42.7056" lon="1.40758">
        <ele>1532</ele>
        <time>2016-09-28T12:41:22Z</time>
      </trkpt>
      <trkpt lat="42.70565" lon="1.40774">
        <ele>1530.56</ele>
        <time>2016-09-28T12:41:35Z</time>
      </trkpt>
      <trkpt lat="42.70568" lon="1.40791">
        <ele>1527.67</ele>
        <time>2016-09-28T12:41:51Z</time>
      </trkpt>
      <trkpt lat="42.70569" lon="1.40792">
        <ele>1528.15</ele>
        <time>2016-09-28T12:41:53Z</time>
      </trkpt>
      <trkpt lat="42.70574" lon="1.40805">
        <ele>1525.75</ele>
        <time>2016-09-28T12:42:04Z</time>
      </trkpt>
      <trkpt lat="42.70577" lon="1.40807">
        <ele>1522.39</ele>
        <time>2016-09-28T12:42:12Z</time>
      </trkpt>
      <trkpt lat="42.70578" lon="1.40806">
        <ele>1519.5</ele>
        <time>2016-09-28T12:42:16Z</time>
      </trkpt>
      <trkpt lat="42.70582" lon="1.40805">
        <ele>1516.14</ele>
        <time>2016-09-28T12:42:21Z</time>
      </trkpt>
      <trkpt lat="42.70585" lon="1.40802">
        <ele>1515.66</ele>
        <time>2016-09-28T12:42:32Z</time>
      </trkpt>
      <trkpt lat="42.7059" lon="1.40796">
        <ele>1514.69</ele>
        <time>2016-09-28T12:42:44Z</time>
      </trkpt>
      <trkpt lat="42.70596" lon="1.40792">
        <ele>1512.29</ele>
        <time>2016-09-28T12:42:56Z</time>
      </trkpt>
      <trkpt lat="42.70602" lon="1.40787">
        <ele>1510.85</ele>
        <time>2016-09-28T12:43:06Z</time>
      </trkpt>
      <trkpt lat="42.70607" lon="1.40783">
        <ele>1508.93</ele>
        <time>2016-09-28T12:43:16Z</time>
      </trkpt>
      <trkpt lat="42.70613" lon="1.40787">
        <ele>1507.97</ele>
        <time>2016-09-28T12:43:25Z</time>
      </trkpt>
      <trkpt lat="42.70616" lon="1.4079">
        <ele>1506.04</ele>
        <time>2016-09-28T12:43:37Z</time>
      </trkpt>
      <trkpt lat="42.70622" lon="1.40797">
        <ele>1505.08</ele>
        <time>2016-09-28T12:43:48Z</time>
      </trkpt>
      <trkpt lat="42.70623" lon="1.40798">
        <ele>1504.6</ele>
        <time>2016-09-28T12:43:52Z</time>
      </trkpt>
      <trkpt lat="42.70629" lon="1.40802">
        <ele>1502.68</ele>
        <time>2016-09-28T12:44:03Z</time>
      </trkpt>
      <trkpt lat="42.70636" lon="1.40809">
        <ele>1499.79</ele>
        <time>2016-09-28T12:44:16Z</time>
      </trkpt>
      <trkpt lat="42.70644" lon="1.40819">
        <ele>1496.91</ele>
        <time>2016-09-28T12:44:30Z</time>
      </trkpt>
      <trkpt lat="42.70647" lon="1.40824">
        <ele>1493.55</ele>
        <time>2016-09-28T12:44:37Z</time>
      </trkpt>
      <trkpt lat="42.70649" lon="1.40833">
        <ele>1490.66</ele>
        <time>2016-09-28T12:44:48Z</time>
      </trkpt>
      <trkpt lat="42.7065" lon="1.40836">
        <ele>1490.66</ele>
        <time>2016-09-28T12:44:51Z</time>
      </trkpt>
      <trkpt lat="42.70652" lon="1.40848">
        <ele>1489.7</ele>
        <time>2016-09-28T12:45:04Z</time>
      </trkpt>
      <trkpt lat="42.70652" lon="1.40851">
        <ele>1489.7</ele>
        <time>2016-09-28T12:45:07Z</time>
      </trkpt>
      <trkpt lat="42.70654" lon="1.40862">
        <ele>1487.78</ele>
        <time>2016-09-28T12:45:18Z</time>
      </trkpt>
      <trkpt lat="42.70654" lon="1.40871">
        <ele>1486.82</ele>
        <time>2016-09-28T12:45:26Z</time>
      </trkpt>
      <trkpt lat="42.70654" lon="1.40877">
        <ele>1485.85</ele>
        <time>2016-09-28T12:45:31Z</time>
      </trkpt>
      <trkpt lat="42.70655" lon="1.40893">
        <ele>1483.45</ele>
        <time>2016-09-28T12:45:46Z</time>
      </trkpt>
      <trkpt lat="42.70654" lon="1.40904">
        <ele>1481.05</ele>
        <time>2016-09-28T12:46:00Z</time>
      </trkpt>
      <trkpt lat="42.70652" lon="1.40918">
        <ele>1479.13</ele>
        <time>2016-09-28T12:46:13Z</time>
      </trkpt>
      <trkpt lat="42.70652" lon="1.40926">
        <ele>1477.68</ele>
        <time>2016-09-28T12:46:23Z</time>
      </trkpt>
      <trkpt lat="42.7065" lon="1.40939">
        <ele>1476.24</ele>
        <time>2016-09-28T12:46:35Z</time>
      </trkpt>
      <trkpt lat="42.7065" lon="1.40943">
        <ele>1474.8</ele>
        <time>2016-09-28T12:46:39Z</time>
      </trkpt>
      <trkpt lat="42.70647" lon="1.40954">
        <ele>1473.36</ele>
        <time>2016-09-28T12:46:52Z</time>
      </trkpt>
      <trkpt lat="42.7065" lon="1.40966">
        <ele>1470.95</ele>
        <time>2016-09-28T12:47:03Z</time>
      </trkpt>
      <trkpt lat="42.70652" lon="1.40984">
        <ele>1468.55</ele>
        <time>2016-09-28T12:47:17Z</time>
      </trkpt>
      <trkpt lat="42.70653" lon="1.40992">
        <ele>1468.07</ele>
        <time>2016-09-28T12:47:23Z</time>
      </trkpt>
      <trkpt lat="42.70657" lon="1.41009">
        <ele>1466.15</ele>
        <time>2016-09-28T12:47:37Z</time>
      </trkpt>
      <trkpt lat="42.70658" lon="1.41022">
        <ele>1464.23</ele>
        <time>2016-09-28T12:47:48Z</time>
      </trkpt>
      <trkpt lat="42.70659" lon="1.41037">
        <ele>1462.78</ele>
        <time>2016-09-28T12:48:00Z</time>
      </trkpt>
      <trkpt lat="42.70658" lon="1.41047">
        <ele>1459.9</ele>
        <time>2016-09-28T12:48:14Z</time>
      </trkpt>
      <trkpt lat="42.7066" lon="1.41043">
        <ele>1458.46</ele>
        <time>2016-09-28T12:48:20Z</time>
      </trkpt>
      <trkpt lat="42.70663" lon="1.41031">
        <ele>1457.02</ele>
        <time>2016-09-28T12:48:31Z</time>
      </trkpt>
      <trkpt lat="42.70664" lon="1.41022">
        <ele>1455.57</ele>
        <time>2016-09-28T12:48:36Z</time>
      </trkpt>
      <trkpt lat="42.70665" lon="1.41018">
        <ele>1455.09</ele>
        <time>2016-09-28T12:48:39Z</time>
      </trkpt>
      <trkpt lat="42.7067" lon="1.41024">
        <ele>1453.65</ele>
        <time>2016-09-28T12:48:50Z</time>
      </trkpt>
      <trkpt lat="42.70673" lon="1.41033">
        <ele>1451.25</ele>
        <time>2016-09-28T12:49:01Z</time>
      </trkpt>
      <trkpt lat="42.70676" lon="1.4104">
        <ele>1447.88</ele>
        <time>2016-09-28T12:49:06Z</time>
      </trkpt>
      <trkpt lat="42.70677" lon="1.41045">
        <ele>1444.52</ele>
        <time>2016-09-28T12:49:11Z</time>
      </trkpt>
      <trkpt lat="42.70679" lon="1.41048">
        <ele>1443.56</ele>
        <time>2016-09-28T12:49:14Z</time>
      </trkpt>
      <trkpt lat="42.70681" lon="1.41057">
        <ele>1442.6</ele>
        <time>2016-09-28T12:49:29Z</time>
      </trkpt>
      <trkpt lat="42.70686" lon="1.41069">
        <ele>1441.15</ele>
        <time>2016-09-28T12:49:41Z</time>
      </trkpt>
      <trkpt lat="42.70691" lon="1.41085">
        <ele>1438.75</ele>
        <time>2016-09-28T12:49:53Z</time>
      </trkpt>
      <trkpt lat="42.70693" lon="1.411">
        <ele>1436.35</ele>
        <time>2016-09-28T12:50:05Z</time>
      </trkpt>
      <trkpt lat="42.707" lon="1.41112">
        <ele>1432.98</ele>
        <time>2016-09-28T12:50:17Z</time>
      </trkpt>
      <trkpt lat="42.70698" lon="1.41124">
        <ele>1431.54</ele>
        <time>2016-09-28T12:50:28Z</time>
      </trkpt>
      <trkpt lat="42.70699" lon="1.41141">
        <ele>1429.14</ele>
        <time>2016-09-28T12:50:41Z</time>
      </trkpt>
      <trkpt lat="42.70699" lon="1.41142">
        <ele>1428.66</ele>
        <time>2016-09-28T12:50:42Z</time>
      </trkpt>
      <trkpt lat="42.70701" lon="1.4115">
        <ele>1424.81</ele>
        <time>2016-09-28T12:50:51Z</time>
      </trkpt>
      <trkpt lat="42.707" lon="1.41153">
        <ele>1421.93</ele>
        <time>2016-09-28T12:50:55Z</time>
      </trkpt>
      <trkpt lat="42.707" lon="1.41164">
        <ele>1420</ele>
        <time>2016-09-28T12:51:06Z</time>
      </trkpt>
      <trkpt lat="42.70699" lon="1.41176">
        <ele>1419.52</ele>
        <time>2016-09-28T12:51:18Z</time>
      </trkpt>
      <trkpt lat="42.70698" lon="1.41189">
        <ele>1417.6</ele>
        <time>2016-09-28T12:51:30Z</time>
      </trkpt>
      <trkpt lat="42.70696" lon="1.41198">
        <ele>1416.16</ele>
        <time>2016-09-28T12:51:42Z</time>
      </trkpt>
      <trkpt lat="42.70694" lon="1.41212">
        <ele>1414.24</ele>
        <time>2016-09-28T12:51:54Z</time>
      </trkpt>
      <trkpt lat="42.70691" lon="1.41224">
        <ele>1412.31</ele>
        <time>2016-09-28T12:52:04Z</time>
      </trkpt>
      <trkpt lat="42.70689" lon="1.41241">
        <ele>1411.83</ele>
        <time>2016-09-28T12:52:16Z</time>
      </trkpt>
      <trkpt lat="42.70689" lon="1.41254">
        <ele>1410.87</ele>
        <time>2016-09-28T12:52:27Z</time>
      </trkpt>
      <trkpt lat="42.70686" lon="1.41271">
        <ele>1408.95</ele>
        <time>2016-09-28T12:52:40Z</time>
      </trkpt>
      <trkpt lat="42.70682" lon="1.41287">
        <ele>1407.51</ele>
        <time>2016-09-28T12:52:53Z</time>
      </trkpt>
      <trkpt lat="42.70682" lon="1.41292">
        <ele>1407.51</ele>
        <time>2016-09-28T12:52:58Z</time>
      </trkpt>
      <trkpt lat="42.70683" lon="1.41303">
        <ele>1407.51</ele>
        <time>2016-09-28T12:53:07Z</time>
      </trkpt>
      <trkpt lat="42.70685" lon="1.41316">
        <ele>1406.55</ele>
        <time>2016-09-28T12:53:18Z</time>
      </trkpt>
      <trkpt lat="42.70683" lon="1.41331">
        <ele>1405.1</ele>
        <time>2016-09-28T12:53:29Z</time>
      </trkpt>
      <trkpt lat="42.70682" lon="1.41344">
        <ele>1403.66</ele>
        <time>2016-09-28T12:53:40Z</time>
      </trkpt>
      <trkpt lat="42.70678" lon="1.41354">
        <ele>1402.22</ele>
        <time>2016-09-28T12:53:51Z</time>
      </trkpt>
      <trkpt lat="42.70674" lon="1.41372">
        <ele>1400.3</ele>
        <time>2016-09-28T12:54:04Z</time>
      </trkpt>
      <trkpt lat="42.70675" lon="1.41381">
        <ele>1399.34</ele>
        <time>2016-09-28T12:54:13Z</time>
      </trkpt>
      <trkpt lat="42.70672" lon="1.41397">
        <ele>1397.41</ele>
        <time>2016-09-28T12:54:26Z</time>
      </trkpt>
      <trkpt lat="42.7067" lon="1.4141">
        <ele>1397.41</ele>
        <time>2016-09-28T12:54:38Z</time>
      </trkpt>
      <trkpt lat="42.70669" lon="1.41428">
        <ele>1396.93</ele>
        <time>2016-09-28T12:54:51Z</time>
      </trkpt>
      <trkpt lat="42.70669" lon="1.41429">
        <ele>1396.93</ele>
        <time>2016-09-28T12:54:52Z</time>
      </trkpt>
      <trkpt lat="42.70671" lon="1.41436">
        <ele>1396.93</ele>
        <time>2016-09-28T12:54:56Z</time>
      </trkpt>
      <trkpt lat="42.70675" lon="1.41455">
        <ele>1395.97</ele>
        <time>2016-09-28T12:55:08Z</time>
      </trkpt>
      <trkpt lat="42.70674" lon="1.41461">
        <ele>1395.97</ele>
        <time>2016-09-28T12:55:13Z</time>
      </trkpt>
      <trkpt lat="42.70676" lon="1.41479">
        <ele>1395.97</ele>
        <time>2016-09-28T12:55:26Z</time>
      </trkpt>
      <trkpt lat="42.70677" lon="1.4148">
        <ele>1395.97</ele>
        <time>2016-09-28T12:55:27Z</time>
      </trkpt>
      <trkpt lat="42.70677" lon="1.41486">
        <ele>1395.49</ele>
        <time>2016-09-28T12:55:32Z</time>
      </trkpt>
      <trkpt lat="42.70676" lon="1.41498">
        <ele>1394.05</ele>
        <time>2016-09-28T12:55:44Z</time>
      </trkpt>
      <trkpt lat="42.70675" lon="1.415">
        <ele>1394.05</ele>
        <time>2016-09-28T12:55:47Z</time>
      </trkpt>
      <trkpt lat="42.70674" lon="1.41515">
        <ele>1394.05</ele>
        <time>2016-09-28T12:55:59Z</time>
      </trkpt>
      <trkpt lat="42.70666" lon="1.41517">
        <ele>1394.05</ele>
        <time>2016-09-28T12:56:09Z</time>
      </trkpt>
      <trkpt lat="42.70661" lon="1.41519">
        <ele>1394.05</ele>
        <time>2016-09-28T12:56:22Z</time>
      </trkpt>
      <trkpt lat="42.70661" lon="1.41525">
        <ele>1392.61</ele>
        <time>2016-09-28T12:56:35Z</time>
      </trkpt>
      <trkpt lat="42.70663" lon="1.4153">
        <ele>1390.2</ele>
        <time>2016-09-28T12:56:41Z</time>
      </trkpt>
      <trkpt lat="42.70664" lon="1.41532">
        <ele>1388.28</ele>
        <time>2016-09-28T12:56:43Z</time>
      </trkpt>
      <trkpt lat="42.7066" lon="1.41542">
        <ele>1385.4</ele>
        <time>2016-09-28T12:56:59Z</time>
      </trkpt>
      <trkpt lat="42.70661" lon="1.41554">
        <ele>1383.47</ele>
        <time>2016-09-28T12:57:11Z</time>
      </trkpt>
      <trkpt lat="42.70662" lon="1.41559">
        <ele>1382.03</ele>
        <time>2016-09-28T12:57:22Z</time>
      </trkpt>
      <trkpt lat="42.70659" lon="1.41567">
        <ele>1380.11</ele>
        <time>2016-09-28T12:57:33Z</time>
      </trkpt>
      <trkpt lat="42.7066" lon="1.41573">
        <ele>1376.75</ele>
        <time>2016-09-28T12:57:40Z</time>
      </trkpt>
      <trkpt lat="42.70661" lon="1.41575">
        <ele>1372.9</ele>
        <time>2016-09-28T12:57:45Z</time>
      </trkpt>
      <trkpt lat="42.70664" lon="1.41581">
        <ele>1371.94</ele>
        <time>2016-09-28T12:57:55Z</time>
      </trkpt>
      <trkpt lat="42.70666" lon="1.41583">
        <ele>1371.94</ele>
        <time>2016-09-28T12:58:00Z</time>
      </trkpt>
      <trkpt lat="42.70671" lon="1.4159">
        <ele>1370.02</ele>
        <time>2016-09-28T12:58:11Z</time>
      </trkpt>
      <trkpt lat="42.70675" lon="1.41599">
        <ele>1368.09</ele>
        <time>2016-09-28T12:58:20Z</time>
      </trkpt>
      <trkpt lat="42.70676" lon="1.41602">
        <ele>1365.69</ele>
        <time>2016-09-28T12:58:23Z</time>
      </trkpt>
      <trkpt lat="42.70677" lon="1.41611">
        <ele>1363.77</ele>
        <time>2016-09-28T12:58:34Z</time>
      </trkpt>
      <trkpt lat="42.70679" lon="1.41623">
        <ele>1363.29</ele>
        <time>2016-09-28T12:58:45Z</time>
      </trkpt>
      <trkpt lat="42.70681" lon="1.4163">
        <ele>1362.33</ele>
        <time>2016-09-28T12:58:54Z</time>
      </trkpt>
      <trkpt lat="42.70679" lon="1.4164">
        <ele>1358.48</ele>
        <time>2016-09-28T12:59:04Z</time>
      </trkpt>
      <trkpt lat="42.7068" lon="1.41647">
        <ele>1355.6</ele>
        <time>2016-09-28T12:59:10Z</time>
      </trkpt>
      <trkpt lat="42.70683" lon="1.41653">
        <ele>1355.12</ele>
        <time>2016-09-28T12:59:20Z</time>
      </trkpt>
      <trkpt lat="42.70684" lon="1.4166">
        <ele>1354.63</ele>
        <time>2016-09-28T12:59:28Z</time>
      </trkpt>
      <trkpt lat="42.70692" lon="1.41669">
        <ele>1353.19</ele>
        <time>2016-09-28T12:59:38Z</time>
      </trkpt>
      <trkpt lat="42.70691" lon="1.41681">
        <ele>1351.27</ele>
        <time>2016-09-28T12:59:48Z</time>
      </trkpt>
      <trkpt lat="42.70692" lon="1.41691">
        <ele>1348.87</ele>
        <time>2016-09-28T13:00:00Z</time>
      </trkpt>
      <trkpt lat="42.70695" lon="1.41698">
        <ele>1346.46</ele>
        <time>2016-09-28T13:00:14Z</time>
      </trkpt>
      <trkpt lat="42.70697" lon="1.41703">
        <ele>1344.54</ele>
        <time>2016-09-28T13:00:22Z</time>
      </trkpt>
      <trkpt lat="42.70704" lon="1.41703">
        <ele>1341.18</ele>
        <time>2016-09-28T13:00:28Z</time>
      </trkpt>
      <trkpt lat="42.70706" lon="1.41704">
        <ele>1337.81</ele>
        <time>2016-09-28T13:00:32Z</time>
      </trkpt>
      <trkpt lat="42.70713" lon="1.41696">
        <ele>1336.37</ele>
        <time>2016-09-28T13:00:44Z</time>
      </trkpt>
      <trkpt lat="42.70713" lon="1.41694">
        <ele>1336.37</ele>
        <time>2016-09-28T13:00:47Z</time>
      </trkpt>
      <trkpt lat="42.70714" lon="1.41692">
        <ele>1336.37</ele>
        <time>2016-09-28T13:00:49Z</time>
      </trkpt>
      <trkpt lat="42.70715" lon="1.4169">
        <ele>1335.89</ele>
        <time>2016-09-28T13:00:53Z</time>
      </trkpt>
      <trkpt lat="42.7072" lon="1.41679">
        <ele>1333.97</ele>
        <time>2016-09-28T13:01:04Z</time>
      </trkpt>
      <trkpt lat="42.70724" lon="1.41676">
        <ele>1330.6</ele>
        <time>2016-09-28T13:01:17Z</time>
      </trkpt>
      <trkpt lat="42.70726" lon="1.41676">
        <ele>1327.24</ele>
        <time>2016-09-28T13:01:21Z</time>
      </trkpt>
      <trkpt lat="42.70733" lon="1.41674">
        <ele>1324.83</ele>
        <time>2016-09-28T13:01:33Z</time>
      </trkpt>
      <trkpt lat="42.70737" lon="1.41663">
        <ele>1323.39</ele>
        <time>2016-09-28T13:01:46Z</time>
      </trkpt>
      <trkpt lat="42.70741" lon="1.41658">
        <ele>1321.95</ele>
        <time>2016-09-28T13:01:52Z</time>
      </trkpt>
      <trkpt lat="42.70746" lon="1.41648">
        <ele>1320.99</ele>
        <time>2016-09-28T13:02:00Z</time>
      </trkpt>
      <trkpt lat="42.70748" lon="1.41644">
        <ele>1320.03</ele>
        <time>2016-09-28T13:02:05Z</time>
      </trkpt>
      <trkpt lat="42.7075" lon="1.41635">
        <ele>1317.62</ele>
        <time>2016-09-28T13:02:16Z</time>
      </trkpt>
      <trkpt lat="42.70753" lon="1.41633">
        <ele>1314.74</ele>
        <time>2016-09-28T13:02:21Z</time>
      </trkpt>
      <trkpt lat="42.70755" lon="1.4163">
        <ele>1311.38</ele>
        <time>2016-09-28T13:02:26Z</time>
      </trkpt>
      <trkpt lat="42.70759" lon="1.41628">
        <ele>1310.41</ele>
        <time>2016-09-28T13:02:36Z</time>
      </trkpt>
      <trkpt lat="42.70763" lon="1.41628">
        <ele>1310.41</ele>
        <time>2016-09-28T13:02:41Z</time>
      </trkpt>
      <trkpt lat="42.70769" lon="1.41623">
        <ele>1307.53</ele>
        <time>2016-09-28T13:02:52Z</time>
      </trkpt>
      <trkpt lat="42.70774" lon="1.4162">
        <ele>1304.65</ele>
        <time>2016-09-28T13:02:59Z</time>
      </trkpt>
      <trkpt lat="42.70774" lon="1.41619">
        <ele>1303.69</ele>
        <time>2016-09-28T13:03:00Z</time>
      </trkpt>
      <trkpt lat="42.70779" lon="1.41612">
        <ele>1300.32</ele>
        <time>2016-09-28T13:03:11Z</time>
      </trkpt>
      <trkpt lat="42.70783" lon="1.41609">
        <ele>1300.32</ele>
        <time>2016-09-28T13:03:21Z</time>
      </trkpt>
      <trkpt lat="42.70782" lon="1.41609">
        <ele>1299.36</ele>
        <time>2016-09-28T13:03:37Z</time>
      </trkpt>
      <trkpt lat="42.70782" lon="1.41609">
        <ele>1299.36</ele>
        <time>2016-09-28T13:03:48Z</time>
      </trkpt>
      <trkpt lat="42.70784" lon="1.41607">
        <ele>1299.36</ele>
        <time>2016-09-28T13:04:09Z</time>
      </trkpt>
      <trkpt lat="42.70788" lon="1.41607">
        <ele>1297.92</ele>
        <time>2016-09-28T13:04:16Z</time>
      </trkpt>
      <trkpt lat="42.70793" lon="1.41606">
        <ele>1295.99</ele>
        <time>2016-09-28T13:04:28Z</time>
      </trkpt>
      <trkpt lat="42.70797" lon="1.41605">
        <ele>1294.07</ele>
        <time>2016-09-28T13:04:38Z</time>
      </trkpt>
      <trkpt lat="42.708" lon="1.41605">
        <ele>1291.67</ele>
        <time>2016-09-28T13:04:45Z</time>
      </trkpt>
      <trkpt lat="42.70801" lon="1.41602">
        <ele>1287.82</ele>
        <time>2016-09-28T13:04:50Z</time>
      </trkpt>
      <trkpt lat="42.70802" lon="1.41601">
        <ele>1286.38</ele>
        <time>2016-09-28T13:04:52Z</time>
      </trkpt>
      <trkpt lat="42.70804" lon="1.41602">
        <ele>1284.94</ele>
        <time>2016-09-28T13:05:03Z</time>
      </trkpt>
      <trkpt lat="42.70807" lon="1.41596">
        <ele>1284.94</ele>
        <time>2016-09-28T13:05:13Z</time>
      </trkpt>
      <trkpt lat="42.7081" lon="1.41588">
        <ele>1283.5</ele>
        <time>2016-09-28T13:05:23Z</time>
      </trkpt>
      <trkpt lat="42.7081" lon="1.41586">
        <ele>1283.02</ele>
        <time>2016-09-28T13:05:26Z</time>
      </trkpt>
      <trkpt lat="42.70817" lon="1.41584">
        <ele>1280.61</ele>
        <time>2016-09-28T13:05:37Z</time>
      </trkpt>
      <trkpt lat="42.70818" lon="1.4158">
        <ele>1276.29</ele>
        <time>2016-09-28T13:05:43Z</time>
      </trkpt>
      <trkpt lat="42.70821" lon="1.41578">
        <ele>1274.36</ele>
        <time>2016-09-28T13:05:53Z</time>
      </trkpt>
      <trkpt lat="42.70824" lon="1.4157">
        <ele>1273.4</ele>
        <time>2016-09-28T13:06:03Z</time>
      </trkpt>
      <trkpt lat="42.70827" lon="1.41567">
        <ele>1271</ele>
        <time>2016-09-28T13:06:14Z</time>
      </trkpt>
      <trkpt lat="42.7083" lon="1.41566">
        <ele>1270.52</ele>
        <time>2016-09-28T13:06:19Z</time>
      </trkpt>
      <trkpt lat="42.70833" lon="1.41552">
        <ele>1267.64</ele>
        <time>2016-09-28T13:06:30Z</time>
      </trkpt>
      <trkpt lat="42.70833" lon="1.41547">
        <ele>1264.27</ele>
        <time>2016-09-28T13:06:35Z</time>
      </trkpt>
      <trkpt lat="42.70833" lon="1.41546">
        <ele>1263.79</ele>
        <time>2016-09-28T13:06:36Z</time>
      </trkpt>
      <trkpt lat="42.70835" lon="1.41542">
        <ele>1261.87</ele>
        <time>2016-09-28T13:06:40Z</time>
      </trkpt>
      <trkpt lat="42.70839" lon="1.41535">
        <ele>1261.87</ele>
        <time>2016-09-28T13:06:45Z</time>
      </trkpt>
      <trkpt lat="42.7084" lon="1.41532">
        <ele>1261.87</ele>
        <time>2016-09-28T13:06:47Z</time>
      </trkpt>
      <trkpt lat="42.70842" lon="1.41531">
        <ele>1261.39</ele>
        <time>2016-09-28T13:06:50Z</time>
      </trkpt>
      <trkpt lat="42.7085" lon="1.41534">
        <ele>1259.46</ele>
        <time>2016-09-28T13:07:03Z</time>
      </trkpt>
      <trkpt lat="42.70857" lon="1.41535">
        <ele>1256.58</ele>
        <time>2016-09-28T13:07:15Z</time>
      </trkpt>
      <trkpt lat="42.70859" lon="1.41535">
        <ele>1256.58</ele>
        <time>2016-09-28T13:07:16Z</time>
      </trkpt>
      <trkpt lat="42.70866" lon="1.4153">
        <ele>1255.14</ele>
        <time>2016-09-28T13:07:24Z</time>
      </trkpt>
      <trkpt lat="42.70872" lon="1.4153">
        <ele>1251.29</ele>
        <time>2016-09-28T13:07:31Z</time>
      </trkpt>
      <trkpt lat="42.70875" lon="1.41528">
        <ele>1247.93</ele>
        <time>2016-09-28T13:07:36Z</time>
      </trkpt>
      <trkpt lat="42.70883" lon="1.41531">
        <ele>1246.97</ele>
        <time>2016-09-28T13:07:49Z</time>
      </trkpt>
      <trkpt lat="42.7089" lon="1.41529">
        <ele>1245.53</ele>
        <time>2016-09-28T13:08:00Z</time>
      </trkpt>
      <trkpt lat="42.70892" lon="1.41529">
        <ele>1244.56</ele>
        <time>2016-09-28T13:08:10Z</time>
      </trkpt>
      <trkpt lat="42.70895" lon="1.41539">
        <ele>1242.64</ele>
        <time>2016-09-28T13:08:22Z</time>
      </trkpt>
      <trkpt lat="42.70894" lon="1.41548">
        <ele>1241.2</ele>
        <time>2016-09-28T13:08:32Z</time>
      </trkpt>
      <trkpt lat="42.70894" lon="1.41551">
        <ele>1240.72</ele>
        <time>2016-09-28T13:08:35Z</time>
      </trkpt>
      <trkpt lat="42.70891" lon="1.41563">
        <ele>1238.8</ele>
        <time>2016-09-28T13:08:47Z</time>
      </trkpt>
      <trkpt lat="42.7089" lon="1.41564">
        <ele>1238.32</ele>
        <time>2016-09-28T13:08:48Z</time>
      </trkpt>
      <trkpt lat="42.70888" lon="1.41575">
        <ele>1236.39</ele>
        <time>2016-09-28T13:08:58Z</time>
      </trkpt>
      <trkpt lat="42.70887" lon="1.41579">
        <ele>1235.91</ele>
        <time>2016-09-28T13:09:01Z</time>
      </trkpt>
      <trkpt lat="42.70888" lon="1.41584">
        <ele>1235.43</ele>
        <time>2016-09-28T13:09:04Z</time>
      </trkpt>
      <trkpt lat="42.70889" lon="1.41591">
        <ele>1234.47</ele>
        <time>2016-09-28T13:09:13Z</time>
      </trkpt>
      <trkpt lat="42.70891" lon="1.41596">
        <ele>1233.51</ele>
        <time>2016-09-28T13:09:17Z</time>
      </trkpt>
      <trkpt lat="42.7089" lon="1.41609">
        <ele>1232.07</ele>
        <time>2016-09-28T13:09:28Z</time>
      </trkpt>
      <trkpt lat="42.70891" lon="1.41619">
        <ele>1230.62</ele>
        <time>2016-09-28T13:09:40Z</time>
      </trkpt>
      <trkpt lat="42.70891" lon="1.41622">
        <ele>1230.62</ele>
        <time>2016-09-28T13:09:43Z</time>
      </trkpt>
      <trkpt lat="42.70892" lon="1.41636">
        <ele>1229.66</ele>
        <time>2016-09-28T13:09:55Z</time>
      </trkpt>
      <trkpt lat="42.70896" lon="1.41652">
        <ele>1228.22</ele>
        <time>2016-09-28T13:10:06Z</time>
      </trkpt>
      <trkpt lat="42.70898" lon="1.41658">
        <ele>1227.26</ele>
        <time>2016-09-28T13:10:11Z</time>
      </trkpt>
      <trkpt lat="42.70897" lon="1.41665">
        <ele>1226.3</ele>
        <time>2016-09-28T13:10:17Z</time>
      </trkpt>
      <trkpt lat="42.70899" lon="1.41681">
        <ele>1225.82</ele>
        <time>2016-09-28T13:10:29Z</time>
      </trkpt>
      <trkpt lat="42.70899" lon="1.41683">
        <ele>1225.34</ele>
        <time>2016-09-28T13:10:31Z</time>
      </trkpt>
      <trkpt lat="42.70901" lon="1.417">
        <ele>1223.42</ele>
        <time>2016-09-28T13:10:45Z</time>
      </trkpt>
      <trkpt lat="42.70903" lon="1.41714">
        <ele>1221.49</ele>
        <time>2016-09-28T13:10:59Z</time>
      </trkpt>
      <trkpt lat="42.70911" lon="1.41728">
        <ele>1219.57</ele>
        <time>2016-09-28T13:11:11Z</time>
      </trkpt>
      <trkpt lat="42.70916" lon="1.41742">
        <ele>1217.65</ele>
        <time>2016-09-28T13:11:23Z</time>
      </trkpt>
      <trkpt lat="42.70917" lon="1.41745">
        <ele>1217.65</ele>
        <time>2016-09-28T13:11:25Z</time>
      </trkpt>
      <trkpt lat="42.70919" lon="1.41752">
        <ele>1217.65</ele>
        <time>2016-09-28T13:11:29Z</time>
      </trkpt>
      <trkpt lat="42.7092" lon="1.41761">
        <ele>1216.69</ele>
        <time>2016-09-28T13:11:37Z</time>
      </trkpt>
      <trkpt lat="42.70926" lon="1.41775">
        <ele>1215.24</ele>
        <time>2016-09-28T13:11:49Z</time>
      </trkpt>
      <trkpt lat="42.7093" lon="1.41787">
        <ele>1214.28</ele>
        <time>2016-09-28T13:11:59Z</time>
      </trkpt>
      <trkpt lat="42.70928" lon="1.41802">
        <ele>1212.84</ele>
        <time>2016-09-28T13:12:12Z</time>
      </trkpt>
      <trkpt lat="42.70928" lon="1.41805">
        <ele>1212.84</ele>
        <time>2016-09-28T13:12:14Z</time>
      </trkpt>
      <trkpt lat="42.70932" lon="1.41817">
        <ele>1212.36</ele>
        <time>2016-09-28T13:12:25Z</time>
      </trkpt>
      <trkpt lat="42.70934" lon="1.41824">
        <ele>1212.36</ele>
        <time>2016-09-28T13:12:32Z</time>
      </trkpt>
      <trkpt lat="42.70932" lon="1.41828">
        <ele>1211.4</ele>
        <time>2016-09-28T13:12:35Z</time>
      </trkpt>
      <trkpt lat="42.70936" lon="1.41842">
        <ele>1211.4</ele>
        <time>2016-09-28T13:12:46Z</time>
      </trkpt>
      <trkpt lat="42.70936" lon="1.41849">
        <ele>1210.92</ele>
        <time>2016-09-28T13:12:51Z</time>
      </trkpt>
      <trkpt lat="42.70935" lon="1.41853">
        <ele>1210.44</ele>
        <time>2016-09-28T13:12:54Z</time>
      </trkpt>
      <trkpt lat="42.70935" lon="1.41865">
        <ele>1209</ele>
        <time>2016-09-28T13:13:02Z</time>
      </trkpt>
      <trkpt lat="42.70936" lon="1.41871">
        <ele>1208.51</ele>
        <time>2016-09-28T13:13:07Z</time>
      </trkpt>
      <trkpt lat="42.70941" lon="1.41883">
        <ele>1208.51</ele>
        <time>2016-09-28T13:13:17Z</time>
      </trkpt>
      <trkpt lat="42.70943" lon="1.419">
        <ele>1209.96</ele>
        <time>2016-09-28T13:13:33Z</time>
      </trkpt>
      <trkpt lat="42.70943" lon="1.41903">
        <ele>1210.44</ele>
        <time>2016-09-28T13:13:35Z</time>
      </trkpt>
      <trkpt lat="42.70942" lon="1.41906">
        <ele>1210.92</ele>
        <time>2016-09-28T13:13:37Z</time>
      </trkpt>
      <trkpt lat="42.70941" lon="1.41909">
        <ele>1210.92</ele>
        <time>2016-09-28T13:13:39Z</time>
      </trkpt>
      <trkpt lat="42.70938" lon="1.41915">
        <ele>1211.4</ele>
        <time>2016-09-28T13:13:44Z</time>
      </trkpt>
      <trkpt lat="42.70937" lon="1.41939">
        <ele>1211.88</ele>
        <time>2016-09-28T13:13:58Z</time>
      </trkpt>
      <trkpt lat="42.70936" lon="1.41944">
        <ele>1211.88</ele>
        <time>2016-09-28T13:14:01Z</time>
      </trkpt>
      <trkpt lat="42.70935" lon="1.4195">
        <ele>1211.88</ele>
        <time>2016-09-28T13:14:05Z</time>
      </trkpt>
      <trkpt lat="42.70932" lon="1.41965">
        <ele>1210.44</ele>
        <time>2016-09-28T13:14:18Z</time>
      </trkpt>
      <trkpt lat="42.70925" lon="1.41982">
        <ele>1207.55</ele>
        <time>2016-09-28T13:14:30Z</time>
      </trkpt>
      <trkpt lat="42.70922" lon="1.41996">
        <ele>1206.59</ele>
        <time>2016-09-28T13:14:40Z</time>
      </trkpt>
      <trkpt lat="42.70921" lon="1.42012">
        <ele>1204.19</ele>
        <time>2016-09-28T13:14:51Z</time>
      </trkpt>
      <trkpt lat="42.7092" lon="1.42029">
        <ele>1203.71</ele>
        <time>2016-09-28T13:15:03Z</time>
      </trkpt>
      <trkpt lat="42.70917" lon="1.4204">
        <ele>1203.23</ele>
        <time>2016-09-28T13:15:10Z</time>
      </trkpt>
      <trkpt lat="42.70925" lon="1.42064">
        <ele>1203.23</ele>
        <time>2016-09-28T13:15:25Z</time>
      </trkpt>
      <trkpt lat="42.70925" lon="1.42065">
        <ele>1202.75</ele>
        <time>2016-09-28T13:15:26Z</time>
      </trkpt>
      <trkpt lat="42.70932" lon="1.42081">
        <ele>1202.27</ele>
        <time>2016-09-28T13:15:39Z</time>
      </trkpt>
      <trkpt lat="42.70933" lon="1.42091">
        <ele>1200.82</ele>
        <time>2016-09-28T13:15:52Z</time>
      </trkpt>
      <trkpt lat="42.70935" lon="1.42102">
        <ele>1198.42</ele>
        <time>2016-09-28T13:16:02Z</time>
      </trkpt>
      <trkpt lat="42.70938" lon="1.42113">
        <ele>1194.58</ele>
        <time>2016-09-28T13:16:15Z</time>
      </trkpt>
      <trkpt lat="42.7094" lon="1.42117">
        <ele>1191.21</ele>
        <time>2016-09-28T13:16:19Z</time>
      </trkpt>
      <trkpt lat="42.7094" lon="1.42118">
        <ele>1189.77</ele>
        <time>2016-09-28T13:16:21Z</time>
      </trkpt>
      <trkpt lat="42.70941" lon="1.42131">
        <ele>1189.77</ele>
        <time>2016-09-28T13:16:31Z</time>
      </trkpt>
      <trkpt lat="42.70941" lon="1.42135">
        <ele>1189.77</ele>
        <time>2016-09-28T13:16:34Z</time>
      </trkpt>
      <trkpt lat="42.70943" lon="1.42146">
        <ele>1188.33</ele>
        <time>2016-09-28T13:16:45Z</time>
      </trkpt>
      <trkpt lat="42.70943" lon="1.42148">
        <ele>1187.85</ele>
        <time>2016-09-28T13:16:46Z</time>
      </trkpt>
      <trkpt lat="42.7095" lon="1.42167">
        <ele>1185.44</ele>
        <time>2016-09-28T13:17:00Z</time>
      </trkpt>
      <trkpt lat="42.70952" lon="1.42175">
        <ele>1184.96</ele>
        <time>2016-09-28T13:17:09Z</time>
      </trkpt>
      <trkpt lat="42.70953" lon="1.42184">
        <ele>1184.48</ele>
        <time>2016-09-28T13:17:16Z</time>
      </trkpt>
      <trkpt lat="42.70953" lon="1.42188">
        <ele>1184.48</ele>
        <time>2016-09-28T13:17:18Z</time>
      </trkpt>
      <trkpt lat="42.70953" lon="1.42206">
        <ele>1184</ele>
        <time>2016-09-28T13:17:29Z</time>
      </trkpt>
      <trkpt lat="42.70952" lon="1.4221">
        <ele>1183.52</ele>
        <time>2016-09-28T13:17:31Z</time>
      </trkpt>
      <trkpt lat="42.70954" lon="1.42219">
        <ele>1183.52</ele>
        <time>2016-09-28T13:17:36Z</time>
      </trkpt>
      <trkpt lat="42.70956" lon="1.42224">
        <ele>1183.52</ele>
        <time>2016-09-28T13:17:40Z</time>
      </trkpt>
      <trkpt lat="42.70958" lon="1.42233">
        <ele>1183.52</ele>
        <time>2016-09-28T13:17:46Z</time>
      </trkpt>
      <trkpt lat="42.70959" lon="1.4224">
        <ele>1183.52</ele>
        <time>2016-09-28T13:17:51Z</time>
      </trkpt>
      <trkpt lat="42.7096" lon="1.42245">
        <ele>1183.52</ele>
        <time>2016-09-28T13:17:54Z</time>
      </trkpt>
      <trkpt lat="42.70962" lon="1.42269">
        <ele>1183.04</ele>
        <time>2016-09-28T13:18:08Z</time>
      </trkpt>
      <trkpt lat="42.70963" lon="1.42282">
        <ele>1183.04</ele>
        <time>2016-09-28T13:18:18Z</time>
      </trkpt>
      <trkpt lat="42.70963" lon="1.42289">
        <ele>1183.04</ele>
        <time>2016-09-28T13:18:23Z</time>
      </trkpt>
      <trkpt lat="42.70963" lon="1.42301">
        <ele>1183.04</ele>
        <time>2016-09-28T13:18:30Z</time>
      </trkpt>
      <trkpt lat="42.70963" lon="1.42304">
        <ele>1183.04</ele>
        <time>2016-09-28T13:18:32Z</time>
      </trkpt>
      <trkpt lat="42.70968" lon="1.4232">
        <ele>1182.56</ele>
        <time>2016-09-28T13:18:42Z</time>
      </trkpt>
      <trkpt lat="42.70978" lon="1.42341">
        <ele>1182.56</ele>
        <time>2016-09-28T13:18:56Z</time>
      </trkpt>
      <trkpt lat="42.7098" lon="1.42343">
        <ele>1182.56</ele>
        <time>2016-09-28T13:18:58Z</time>
      </trkpt>
      <trkpt lat="42.70986" lon="1.42352">
        <ele>1182.56</ele>
        <time>2016-09-28T13:19:05Z</time>
      </trkpt>
      <trkpt lat="42.70985" lon="1.42358">
        <ele>1182.56</ele>
        <time>2016-09-28T13:19:10Z</time>
      </trkpt>
      <trkpt lat="42.70986" lon="1.42362">
        <ele>1182.56</ele>
        <time>2016-09-28T13:19:12Z</time>
      </trkpt>
      <trkpt lat="42.70985" lon="1.42366">
        <ele>1182.56</ele>
        <time>2016-09-28T13:19:14Z</time>
      </trkpt>
      <trkpt lat="42.70987" lon="1.42375">
        <ele>1182.56</ele>
        <time>2016-09-28T13:19:19Z</time>
      </trkpt>
      <trkpt lat="42.70988" lon="1.4238">
        <ele>1182.56</ele>
        <time>2016-09-28T13:19:22Z</time>
      </trkpt>
      <trkpt lat="42.70991" lon="1.42391">
        <ele>1182.56</ele>
        <time>2016-09-28T13:19:29Z</time>
      </trkpt>
      <trkpt lat="42.70994" lon="1.42401">
        <ele>1182.08</ele>
        <time>2016-09-28T13:19:36Z</time>
      </trkpt>
      <trkpt lat="42.70997" lon="1.42408">
        <ele>1182.08</ele>
        <time>2016-09-28T13:19:41Z</time>
      </trkpt>
      <trkpt lat="42.71" lon="1.42418">
        <ele>1182.08</ele>
        <time>2016-09-28T13:19:49Z</time>
      </trkpt>
      <trkpt lat="42.71002" lon="1.42432">
        <ele>1182.08</ele>
        <time>2016-09-28T13:19:59Z</time>
      </trkpt>
      <trkpt lat="42.71004" lon="1.4244">
        <ele>1182.08</ele>
        <time>2016-09-28T13:20:04Z</time>
      </trkpt>
      <trkpt lat="42.71006" lon="1.4245">
        <ele>1181.6</ele>
        <time>2016-09-28T13:20:10Z</time>
      </trkpt>
      <trkpt lat="42.71016" lon="1.42469">
        <ele>1181.12</ele>
        <time>2016-09-28T13:20:23Z</time>
      </trkpt>
      <trkpt lat="42.71019" lon="1.42474">
        <ele>1181.12</ele>
        <time>2016-09-28T13:20:37Z</time>
      </trkpt>
      <trkpt lat="42.71016" lon="1.42479">
        <ele>1181.12</ele>
        <time>2016-09-28T13:20:48Z</time>
      </trkpt>
      <trkpt lat="42.71017" lon="1.42479">
        <ele>1181.12</ele>
        <time>2016-09-28T13:20:56Z</time>
      </trkpt>
      <trkpt lat="42.71016" lon="1.42475">
        <ele>1181.12</ele>
        <time>2016-09-28T13:21:00Z</time>
      </trkpt>
      <trkpt lat="42.71018" lon="1.42465">
        <ele>1181.12</ele>
        <time>2016-09-28T13:21:12Z</time>
      </trkpt>
      <trkpt lat="42.71019" lon="1.42465">
        <ele>1182.08</ele>
        <time>2016-09-28T13:21:39Z</time>
      </trkpt>
      <trkpt lat="42.71019" lon="1.42466">
        <ele>1182.08</ele>
        <time>2016-09-28T13:21:40Z</time>
      </trkpt>
      <trkpt lat="42.71018" lon="1.42472">
        <ele>1182.08</ele>
        <time>2016-09-28T13:21:44Z</time>
      </trkpt>
      <trkpt lat="42.71019" lon="1.42484">
        <ele>1182.08</ele>
        <time>2016-09-28T13:21:53Z</time>
      </trkpt>
      <trkpt lat="42.71026" lon="1.425">
        <ele>1182.08</ele>
        <time>2016-09-28T13:22:06Z</time>
      </trkpt>
      <trkpt lat="42.71028" lon="1.42502">
        <ele>1182.08</ele>
        <time>2016-09-28T13:22:08Z</time>
      </trkpt>
      <trkpt lat="42.71029" lon="1.42505">
        <ele>1182.08</ele>
        <time>2016-09-28T13:22:10Z</time>
      </trkpt>
      <trkpt lat="42.71032" lon="1.4251">
        <ele>1182.08</ele>
        <time>2016-09-28T13:22:14Z</time>
      </trkpt>
      <trkpt lat="42.71041" lon="1.42523">
        <ele>1182.08</ele>
        <time>2016-09-28T13:22:28Z</time>
      </trkpt>
      <trkpt lat="42.71044" lon="1.42529">
        <ele>1181.12</ele>
        <time>2016-09-28T13:22:35Z</time>
      </trkpt>
      <trkpt lat="42.71045" lon="1.42529">
        <ele>1180.64</ele>
        <time>2016-09-28T13:22:47Z</time>
      </trkpt>
      <trkpt lat="42.71049" lon="1.42533">
        <ele>1180.64</ele>
        <time>2016-09-28T13:23:00Z</time>
      </trkpt>
      <trkpt lat="42.7105" lon="1.42532">
        <ele>1180.16</ele>
        <time>2016-09-28T13:23:16Z</time>
      </trkpt>
      <trkpt lat="42.71049" lon="1.42534">
        <ele>1180.16</ele>
        <time>2016-09-28T13:23:33Z</time>
      </trkpt>
      <trkpt lat="42.71043" lon="1.42533">
        <ele>1180.16</ele>
        <time>2016-09-28T13:23:39Z</time>
      </trkpt>
      <trkpt lat="42.71037" lon="1.42537">
        <ele>1178.71</ele>
        <time>2016-09-28T13:23:53Z</time>
      </trkpt>
      <trkpt lat="42.71037" lon="1.42538">
        <ele>1178.71</ele>
        <time>2016-09-28T13:23:55Z</time>
      </trkpt>
      <trkpt lat="42.71036" lon="1.42548">
        <ele>1176.31</ele>
        <time>2016-09-28T13:24:05Z</time>
      </trkpt>
      <trkpt lat="42.71035" lon="1.42548">
        <ele>1175.83</ele>
        <time>2016-09-28T13:24:07Z</time>
      </trkpt>
      <trkpt lat="42.71031" lon="1.42549">
        <ele>1175.35</ele>
        <time>2016-09-28T13:24:10Z</time>
      </trkpt>
      <trkpt lat="42.71026" lon="1.42548">
        <ele>1172.47</ele>
        <time>2016-09-28T13:24:15Z</time>
      </trkpt>
      <trkpt lat="42.71021" lon="1.42549">
        <ele>1168.14</ele>
        <time>2016-09-28T13:24:20Z</time>
      </trkpt>
      <trkpt lat="42.7102" lon="1.42553">
        <ele>1166.7</ele>
        <time>2016-09-28T13:24:23Z</time>
      </trkpt>
      <trkpt lat="42.71017" lon="1.42567">
        <ele>1166.7</ele>
        <time>2016-09-28T13:24:34Z</time>
      </trkpt>
      <trkpt lat="42.71021" lon="1.42572">
        <ele>1166.7</ele>
        <time>2016-09-28T13:24:38Z</time>
      </trkpt>
      <trkpt lat="42.71026" lon="1.42577">
        <ele>1166.7</ele>
        <time>2016-09-28T13:24:42Z</time>
      </trkpt>
      <trkpt lat="42.71029" lon="1.42579">
        <ele>1166.7</ele>
        <time>2016-09-28T13:24:45Z</time>
      </trkpt>
      <trkpt lat="42.71032" lon="1.42581">
        <ele>1166.7</ele>
        <time>2016-09-28T13:24:54Z</time>
      </trkpt>
      <trkpt lat="42.71032" lon="1.42583">
        <ele>1166.22</ele>
        <time>2016-09-28T13:25:05Z</time>
      </trkpt>
      <trkpt lat="42.71031" lon="1.42584">
        <ele>1166.22</ele>
        <time>2016-09-28T13:25:19Z</time>
      </trkpt>
      <trkpt lat="42.71031" lon="1.42584">
        <ele>1166.22</ele>
        <time>2016-09-28T13:25:26Z</time>
      </trkpt>
    </trkseg>
  </trk>
</gpx>